<?xml version="1.0" encoding="UTF-8" standalone="no" ?>
<gpx xmlns="http://www.topografix.com/GPX/1/1" xmlns:xsi="http://www.w3.org/2001/XMLSchema-instance" xsi:schemaLocation="http://www.topografix.com/GPX/1/1 http://www.topografix.com/GPX/1/1/gpx.xsd" version="1.1" creator="VisuGPX - https://www.visugpx.com">
  <metadata>
    <name>2021-06-14 14:17:20 [Garmin]</name>
  </metadata>
  <trk>
    <name><![CDATA[2021-06-14 14:17:20 [Garmin]_1]]></name>
    <trkseg>
      <trkpt lat="46.4827" lon="5.36835">
        <ele>287.2</ele>
        <time>2021-06-14T12:18:57Z</time>
      </trkpt>
      <trkpt lat="46.48261" lon="5.36823">
        <ele>286.6</ele>
        <time>2021-06-14T12:18:58Z</time>
      </trkpt>
      <trkpt lat="46.48251" lon="5.36812">
        <ele>286</ele>
        <time>2021-06-14T12:18:59Z</time>
      </trkpt>
      <trkpt lat="46.48241" lon="5.36803">
        <ele>285.4</ele>
        <time>2021-06-14T12:19:00Z</time>
      </trkpt>
      <trkpt lat="46.48241" lon="5.36803">
        <ele>284.8</ele>
        <time>2021-06-14T12:19:01Z</time>
      </trkpt>
      <trkpt lat="46.4822" lon="5.36785">
        <ele>283.8</ele>
        <time>2021-06-14T12:19:02Z</time>
      </trkpt>
      <trkpt lat="46.48209" lon="5.36776">
        <ele>282.8</ele>
        <time>2021-06-14T12:19:03Z</time>
      </trkpt>
      <trkpt lat="46.48199" lon="5.36768">
        <ele>281.6</ele>
        <time>2021-06-14T12:19:04Z</time>
      </trkpt>
      <trkpt lat="46.48177" lon="5.3675">
        <ele>280</ele>
        <time>2021-06-14T12:19:06Z</time>
      </trkpt>
      <trkpt lat="46.48156" lon="5.36733">
        <ele>278.4</ele>
        <time>2021-06-14T12:19:08Z</time>
      </trkpt>
      <trkpt lat="46.48135" lon="5.36717">
        <ele>277.2</ele>
        <time>2021-06-14T12:19:10Z</time>
      </trkpt>
      <trkpt lat="46.48118" lon="5.36705">
        <ele>276</ele>
        <time>2021-06-14T12:19:12Z</time>
      </trkpt>
      <trkpt lat="46.4811" lon="5.36691">
        <ele>275</ele>
        <time>2021-06-14T12:19:14Z</time>
      </trkpt>
      <trkpt lat="46.48111" lon="5.36682">
        <ele>274.4</ele>
        <time>2021-06-14T12:19:15Z</time>
      </trkpt>
      <trkpt lat="46.48115" lon="5.36674">
        <ele>273.8</ele>
        <time>2021-06-14T12:19:16Z</time>
      </trkpt>
      <trkpt lat="46.48125" lon="5.36662">
        <ele>273.4</ele>
        <time>2021-06-14T12:19:18Z</time>
      </trkpt>
      <trkpt lat="46.48138" lon="5.3665">
        <ele>273</ele>
        <time>2021-06-14T12:19:20Z</time>
      </trkpt>
      <trkpt lat="46.48144" lon="5.36644">
        <ele>272.8</ele>
        <time>2021-06-14T12:19:21Z</time>
      </trkpt>
      <trkpt lat="46.48151" lon="5.36639">
        <ele>272.8</ele>
        <time>2021-06-14T12:19:22Z</time>
      </trkpt>
      <trkpt lat="46.48157" lon="5.36632">
        <ele>272.6</ele>
        <time>2021-06-14T12:19:23Z</time>
      </trkpt>
      <trkpt lat="46.48164" lon="5.36627">
        <ele>272.4</ele>
        <time>2021-06-14T12:19:24Z</time>
      </trkpt>
      <trkpt lat="46.4817" lon="5.36621">
        <ele>271.6</ele>
        <time>2021-06-14T12:19:25Z</time>
      </trkpt>
      <trkpt lat="46.48177" lon="5.36615">
        <ele>271</ele>
        <time>2021-06-14T12:19:26Z</time>
      </trkpt>
      <trkpt lat="46.48184" lon="5.3661">
        <ele>270.6</ele>
        <time>2021-06-14T12:19:27Z</time>
      </trkpt>
      <trkpt lat="46.48191" lon="5.36607">
        <ele>270.4</ele>
        <time>2021-06-14T12:19:28Z</time>
      </trkpt>
      <trkpt lat="46.48206" lon="5.36603">
        <ele>269.8</ele>
        <time>2021-06-14T12:19:30Z</time>
      </trkpt>
      <trkpt lat="46.48212" lon="5.36597">
        <ele>269.6</ele>
        <time>2021-06-14T12:19:31Z</time>
      </trkpt>
      <trkpt lat="46.48217" lon="5.36589">
        <ele>269.6</ele>
        <time>2021-06-14T12:19:32Z</time>
      </trkpt>
      <trkpt lat="46.48223" lon="5.3657">
        <ele>269.6</ele>
        <time>2021-06-14T12:19:34Z</time>
      </trkpt>
      <trkpt lat="46.48232" lon="5.36554">
        <ele>269.2</ele>
        <time>2021-06-14T12:19:36Z</time>
      </trkpt>
      <trkpt lat="46.48238" lon="5.36547">
        <ele>269</ele>
        <time>2021-06-14T12:19:37Z</time>
      </trkpt>
      <trkpt lat="46.48244" lon="5.3654">
        <ele>268.8</ele>
        <time>2021-06-14T12:19:38Z</time>
      </trkpt>
      <trkpt lat="46.48256" lon="5.36527">
        <ele>268.8</ele>
        <time>2021-06-14T12:19:40Z</time>
      </trkpt>
      <trkpt lat="46.48269" lon="5.36514">
        <ele>268.6</ele>
        <time>2021-06-14T12:19:42Z</time>
      </trkpt>
      <trkpt lat="46.48281" lon="5.365">
        <ele>268.6</ele>
        <time>2021-06-14T12:19:44Z</time>
      </trkpt>
      <trkpt lat="46.48293" lon="5.36487">
        <ele>268.2</ele>
        <time>2021-06-14T12:19:46Z</time>
      </trkpt>
      <trkpt lat="46.48299" lon="5.36481">
        <ele>268.2</ele>
        <time>2021-06-14T12:19:47Z</time>
      </trkpt>
      <trkpt lat="46.48305" lon="5.36474">
        <ele>268</ele>
        <time>2021-06-14T12:19:48Z</time>
      </trkpt>
      <trkpt lat="46.48318" lon="5.3646">
        <ele>267.6</ele>
        <time>2021-06-14T12:19:50Z</time>
      </trkpt>
      <trkpt lat="46.48331" lon="5.36447">
        <ele>267.4</ele>
        <time>2021-06-14T12:19:52Z</time>
      </trkpt>
      <trkpt lat="46.48343" lon="5.36433">
        <ele>267</ele>
        <time>2021-06-14T12:19:54Z</time>
      </trkpt>
      <trkpt lat="46.48356" lon="5.36419">
        <ele>266.6</ele>
        <time>2021-06-14T12:19:56Z</time>
      </trkpt>
      <trkpt lat="46.48369" lon="5.36405">
        <ele>266</ele>
        <time>2021-06-14T12:19:58Z</time>
      </trkpt>
      <trkpt lat="46.48375" lon="5.36398">
        <ele>265.8</ele>
        <time>2021-06-14T12:19:59Z</time>
      </trkpt>
      <trkpt lat="46.48381" lon="5.36391">
        <ele>265.6</ele>
        <time>2021-06-14T12:20:00Z</time>
      </trkpt>
      <trkpt lat="46.48388" lon="5.36384">
        <ele>265.2</ele>
        <time>2021-06-14T12:20:01Z</time>
      </trkpt>
      <trkpt lat="46.48394" lon="5.36378">
        <ele>264.8</ele>
        <time>2021-06-14T12:20:02Z</time>
      </trkpt>
      <trkpt lat="46.48401" lon="5.36372">
        <ele>264.8</ele>
        <time>2021-06-14T12:20:03Z</time>
      </trkpt>
      <trkpt lat="46.48407" lon="5.36366">
        <ele>264.6</ele>
        <time>2021-06-14T12:20:04Z</time>
      </trkpt>
      <trkpt lat="46.48421" lon="5.36357">
        <ele>264.2</ele>
        <time>2021-06-14T12:20:06Z</time>
      </trkpt>
      <trkpt lat="46.48436" lon="5.36351">
        <ele>264</ele>
        <time>2021-06-14T12:20:08Z</time>
      </trkpt>
      <trkpt lat="46.48443" lon="5.36349">
        <ele>263.8</ele>
        <time>2021-06-14T12:20:09Z</time>
      </trkpt>
      <trkpt lat="46.4845" lon="5.36348">
        <ele>263.8</ele>
        <time>2021-06-14T12:20:10Z</time>
      </trkpt>
      <trkpt lat="46.48465" lon="5.36346">
        <ele>263.4</ele>
        <time>2021-06-14T12:20:12Z</time>
      </trkpt>
      <trkpt lat="46.48479" lon="5.36344">
        <ele>263.4</ele>
        <time>2021-06-14T12:20:14Z</time>
      </trkpt>
      <trkpt lat="46.48494" lon="5.36342">
        <ele>263.2</ele>
        <time>2021-06-14T12:20:16Z</time>
      </trkpt>
      <trkpt lat="46.48508" lon="5.36339">
        <ele>263.2</ele>
        <time>2021-06-14T12:20:18Z</time>
      </trkpt>
      <trkpt lat="46.48521" lon="5.36337">
        <ele>263.2</ele>
        <time>2021-06-14T12:20:20Z</time>
      </trkpt>
      <trkpt lat="46.48535" lon="5.36334">
        <ele>263.2</ele>
        <time>2021-06-14T12:20:22Z</time>
      </trkpt>
      <trkpt lat="46.4855" lon="5.36332">
        <ele>263</ele>
        <time>2021-06-14T12:20:24Z</time>
      </trkpt>
      <trkpt lat="46.48564" lon="5.3633">
        <ele>263</ele>
        <time>2021-06-14T12:20:26Z</time>
      </trkpt>
      <trkpt lat="46.48578" lon="5.36328">
        <ele>263</ele>
        <time>2021-06-14T12:20:28Z</time>
      </trkpt>
      <trkpt lat="46.48593" lon="5.36325">
        <ele>262.8</ele>
        <time>2021-06-14T12:20:30Z</time>
      </trkpt>
      <trkpt lat="46.48601" lon="5.36324">
        <ele>262.8</ele>
        <time>2021-06-14T12:20:31Z</time>
      </trkpt>
      <trkpt lat="46.48609" lon="5.36323">
        <ele>262.6</ele>
        <time>2021-06-14T12:20:32Z</time>
      </trkpt>
      <trkpt lat="46.48616" lon="5.3632">
        <ele>262.2</ele>
        <time>2021-06-14T12:20:33Z</time>
      </trkpt>
      <trkpt lat="46.48623" lon="5.36314">
        <ele>261.8</ele>
        <time>2021-06-14T12:20:34Z</time>
      </trkpt>
      <trkpt lat="46.48633" lon="5.36294">
        <ele>261.4</ele>
        <time>2021-06-14T12:20:36Z</time>
      </trkpt>
      <trkpt lat="46.48635" lon="5.36282">
        <ele>261</ele>
        <time>2021-06-14T12:20:37Z</time>
      </trkpt>
      <trkpt lat="46.48637" lon="5.36269">
        <ele>260.8</ele>
        <time>2021-06-14T12:20:38Z</time>
      </trkpt>
      <trkpt lat="46.48638" lon="5.36257">
        <ele>260.6</ele>
        <time>2021-06-14T12:20:39Z</time>
      </trkpt>
      <trkpt lat="46.48639" lon="5.36244">
        <ele>260.2</ele>
        <time>2021-06-14T12:20:40Z</time>
      </trkpt>
      <trkpt lat="46.48642" lon="5.36219">
        <ele>259.6</ele>
        <time>2021-06-14T12:20:42Z</time>
      </trkpt>
      <trkpt lat="46.48643" lon="5.36207">
        <ele>259.2</ele>
        <time>2021-06-14T12:20:43Z</time>
      </trkpt>
      <trkpt lat="46.48644" lon="5.36195">
        <ele>258.6</ele>
        <time>2021-06-14T12:20:44Z</time>
      </trkpt>
      <trkpt lat="46.48645" lon="5.36183">
        <ele>258.2</ele>
        <time>2021-06-14T12:20:45Z</time>
      </trkpt>
      <trkpt lat="46.48646" lon="5.36171">
        <ele>257.6</ele>
        <time>2021-06-14T12:20:46Z</time>
      </trkpt>
      <trkpt lat="46.48648" lon="5.36148">
        <ele>257</ele>
        <time>2021-06-14T12:20:48Z</time>
      </trkpt>
      <trkpt lat="46.48649" lon="5.36137">
        <ele>256.6</ele>
        <time>2021-06-14T12:20:49Z</time>
      </trkpt>
      <trkpt lat="46.48652" lon="5.36126">
        <ele>256.4</ele>
        <time>2021-06-14T12:20:50Z</time>
      </trkpt>
      <trkpt lat="46.48656" lon="5.36104">
        <ele>255.8</ele>
        <time>2021-06-14T12:20:52Z</time>
      </trkpt>
      <trkpt lat="46.48661" lon="5.36083">
        <ele>255.6</ele>
        <time>2021-06-14T12:20:54Z</time>
      </trkpt>
      <trkpt lat="46.48666" lon="5.36064">
        <ele>255.6</ele>
        <time>2021-06-14T12:20:56Z</time>
      </trkpt>
      <trkpt lat="46.4867" lon="5.36045">
        <ele>255.6</ele>
        <time>2021-06-14T12:20:58Z</time>
      </trkpt>
      <trkpt lat="46.48673" lon="5.36027">
        <ele>255.6</ele>
        <time>2021-06-14T12:21:00Z</time>
      </trkpt>
      <trkpt lat="46.48676" lon="5.3601">
        <ele>255.8</ele>
        <time>2021-06-14T12:21:02Z</time>
      </trkpt>
      <trkpt lat="46.48677" lon="5.35994">
        <ele>256.2</ele>
        <time>2021-06-14T12:21:04Z</time>
      </trkpt>
      <trkpt lat="46.4868" lon="5.35979">
        <ele>256.4</ele>
        <time>2021-06-14T12:21:06Z</time>
      </trkpt>
      <trkpt lat="46.48682" lon="5.35963">
        <ele>257</ele>
        <time>2021-06-14T12:21:08Z</time>
      </trkpt>
      <trkpt lat="46.48683" lon="5.35954">
        <ele>257.2</ele>
        <time>2021-06-14T12:21:09Z</time>
      </trkpt>
      <trkpt lat="46.48684" lon="5.35944">
        <ele>257.4</ele>
        <time>2021-06-14T12:21:10Z</time>
      </trkpt>
      <trkpt lat="46.48688" lon="5.35926">
        <ele>257.8</ele>
        <time>2021-06-14T12:21:12Z</time>
      </trkpt>
      <trkpt lat="46.48693" lon="5.35908">
        <ele>257.8</ele>
        <time>2021-06-14T12:21:14Z</time>
      </trkpt>
      <trkpt lat="46.487" lon="5.3589">
        <ele>257.8</ele>
        <time>2021-06-14T12:21:16Z</time>
      </trkpt>
      <trkpt lat="46.48707" lon="5.35872">
        <ele>257.8</ele>
        <time>2021-06-14T12:21:18Z</time>
      </trkpt>
      <trkpt lat="46.48714" lon="5.35854">
        <ele>257.8</ele>
        <time>2021-06-14T12:21:20Z</time>
      </trkpt>
      <trkpt lat="46.48718" lon="5.35846">
        <ele>257.6</ele>
        <time>2021-06-14T12:21:21Z</time>
      </trkpt>
      <trkpt lat="46.48722" lon="5.35837">
        <ele>257.4</ele>
        <time>2021-06-14T12:21:22Z</time>
      </trkpt>
      <trkpt lat="46.4873" lon="5.35819">
        <ele>256.8</ele>
        <time>2021-06-14T12:21:24Z</time>
      </trkpt>
      <trkpt lat="46.48737" lon="5.35802">
        <ele>256.2</ele>
        <time>2021-06-14T12:21:26Z</time>
      </trkpt>
      <trkpt lat="46.48741" lon="5.35793">
        <ele>255.6</ele>
        <time>2021-06-14T12:21:27Z</time>
      </trkpt>
      <trkpt lat="46.48745" lon="5.35784">
        <ele>255.4</ele>
        <time>2021-06-14T12:21:28Z</time>
      </trkpt>
      <trkpt lat="46.48753" lon="5.35766">
        <ele>255.2</ele>
        <time>2021-06-14T12:21:30Z</time>
      </trkpt>
      <trkpt lat="46.48757" lon="5.35757">
        <ele>255.2</ele>
        <time>2021-06-14T12:21:31Z</time>
      </trkpt>
      <trkpt lat="46.4876" lon="5.35749">
        <ele>255.2</ele>
        <time>2021-06-14T12:21:32Z</time>
      </trkpt>
      <trkpt lat="46.48768" lon="5.35731">
        <ele>255</ele>
        <time>2021-06-14T12:21:34Z</time>
      </trkpt>
      <trkpt lat="46.48776" lon="5.35713">
        <ele>255</ele>
        <time>2021-06-14T12:21:36Z</time>
      </trkpt>
      <trkpt lat="46.48783" lon="5.35697">
        <ele>254.8</ele>
        <time>2021-06-14T12:21:38Z</time>
      </trkpt>
      <trkpt lat="46.4879" lon="5.3568">
        <ele>254.8</ele>
        <time>2021-06-14T12:21:40Z</time>
      </trkpt>
      <trkpt lat="46.48797" lon="5.35665">
        <ele>254.8</ele>
        <time>2021-06-14T12:21:42Z</time>
      </trkpt>
      <trkpt lat="46.48804" lon="5.35649">
        <ele>254.8</ele>
        <time>2021-06-14T12:21:44Z</time>
      </trkpt>
      <trkpt lat="46.48811" lon="5.35634">
        <ele>254.6</ele>
        <time>2021-06-14T12:21:46Z</time>
      </trkpt>
      <trkpt lat="46.48818" lon="5.35618">
        <ele>254.6</ele>
        <time>2021-06-14T12:21:48Z</time>
      </trkpt>
      <trkpt lat="46.48821" lon="5.35611">
        <ele>254.6</ele>
        <time>2021-06-14T12:21:49Z</time>
      </trkpt>
      <trkpt lat="46.48825" lon="5.35603">
        <ele>254.6</ele>
        <time>2021-06-14T12:21:50Z</time>
      </trkpt>
      <trkpt lat="46.48831" lon="5.35589">
        <ele>254.6</ele>
        <time>2021-06-14T12:21:52Z</time>
      </trkpt>
      <trkpt lat="46.48838" lon="5.35575">
        <ele>254.6</ele>
        <time>2021-06-14T12:21:54Z</time>
      </trkpt>
      <trkpt lat="46.48844" lon="5.35561">
        <ele>254.6</ele>
        <time>2021-06-14T12:21:56Z</time>
      </trkpt>
      <trkpt lat="46.4885" lon="5.35546">
        <ele>254.6</ele>
        <time>2021-06-14T12:21:58Z</time>
      </trkpt>
      <trkpt lat="46.48856" lon="5.35532">
        <ele>254.6</ele>
        <time>2021-06-14T12:22:00Z</time>
      </trkpt>
      <trkpt lat="46.48862" lon="5.35517">
        <ele>254.8</ele>
        <time>2021-06-14T12:22:02Z</time>
      </trkpt>
      <trkpt lat="46.48865" lon="5.3551">
        <ele>254.8</ele>
        <time>2021-06-14T12:22:04Z</time>
      </trkpt>
      <trkpt lat="46.48872" lon="5.35495">
        <ele>254.8</ele>
        <time>2021-06-14T12:22:06Z</time>
      </trkpt>
      <trkpt lat="46.48875" lon="5.35487">
        <ele>254.8</ele>
        <time>2021-06-14T12:22:07Z</time>
      </trkpt>
      <trkpt lat="46.48882" lon="5.35472">
        <ele>254.8</ele>
        <time>2021-06-14T12:22:09Z</time>
      </trkpt>
      <trkpt lat="46.48886" lon="5.35464">
        <ele>254.8</ele>
        <time>2021-06-14T12:22:10Z</time>
      </trkpt>
      <trkpt lat="46.48889" lon="5.35456">
        <ele>255</ele>
        <time>2021-06-14T12:22:11Z</time>
      </trkpt>
      <trkpt lat="46.48896" lon="5.35441">
        <ele>255</ele>
        <time>2021-06-14T12:22:13Z</time>
      </trkpt>
      <trkpt lat="46.48903" lon="5.35425">
        <ele>255</ele>
        <time>2021-06-14T12:22:15Z</time>
      </trkpt>
      <trkpt lat="46.4891" lon="5.35409">
        <ele>254.8</ele>
        <time>2021-06-14T12:22:17Z</time>
      </trkpt>
      <trkpt lat="46.48917" lon="5.35393">
        <ele>254.8</ele>
        <time>2021-06-14T12:22:19Z</time>
      </trkpt>
      <trkpt lat="46.48917" lon="5.35393">
        <ele>254.6</ele>
        <time>2021-06-14T12:22:20Z</time>
      </trkpt>
      <trkpt lat="46.48925" lon="5.35376">
        <ele>254.6</ele>
        <time>2021-06-14T12:22:21Z</time>
      </trkpt>
      <trkpt lat="46.48932" lon="5.35359">
        <ele>254.4</ele>
        <time>2021-06-14T12:22:23Z</time>
      </trkpt>
      <trkpt lat="46.48939" lon="5.35343">
        <ele>254</ele>
        <time>2021-06-14T12:22:25Z</time>
      </trkpt>
      <trkpt lat="46.48947" lon="5.35326">
        <ele>254</ele>
        <time>2021-06-14T12:22:27Z</time>
      </trkpt>
      <trkpt lat="46.4895" lon="5.35318">
        <ele>254</ele>
        <time>2021-06-14T12:22:28Z</time>
      </trkpt>
      <trkpt lat="46.48954" lon="5.35311">
        <ele>254</ele>
        <time>2021-06-14T12:22:29Z</time>
      </trkpt>
      <trkpt lat="46.4896" lon="5.35295">
        <ele>253.8</ele>
        <time>2021-06-14T12:22:31Z</time>
      </trkpt>
      <trkpt lat="46.48967" lon="5.3528">
        <ele>253.8</ele>
        <time>2021-06-14T12:22:33Z</time>
      </trkpt>
      <trkpt lat="46.48973" lon="5.35265">
        <ele>253.8</ele>
        <time>2021-06-14T12:22:35Z</time>
      </trkpt>
      <trkpt lat="46.48976" lon="5.35258">
        <ele>253.8</ele>
        <time>2021-06-14T12:22:36Z</time>
      </trkpt>
      <trkpt lat="46.4898" lon="5.35251">
        <ele>254</ele>
        <time>2021-06-14T12:22:37Z</time>
      </trkpt>
      <trkpt lat="46.48986" lon="5.35237">
        <ele>254</ele>
        <time>2021-06-14T12:22:39Z</time>
      </trkpt>
      <trkpt lat="46.48992" lon="5.35223">
        <ele>254.2</ele>
        <time>2021-06-14T12:22:41Z</time>
      </trkpt>
      <trkpt lat="46.48998" lon="5.35209">
        <ele>254.4</ele>
        <time>2021-06-14T12:22:43Z</time>
      </trkpt>
      <trkpt lat="46.49004" lon="5.35196">
        <ele>255</ele>
        <time>2021-06-14T12:22:45Z</time>
      </trkpt>
      <trkpt lat="46.4901" lon="5.35182">
        <ele>255.2</ele>
        <time>2021-06-14T12:22:47Z</time>
      </trkpt>
      <trkpt lat="46.49015" lon="5.35168">
        <ele>255.6</ele>
        <time>2021-06-14T12:22:49Z</time>
      </trkpt>
      <trkpt lat="46.49018" lon="5.35162">
        <ele>255.6</ele>
        <time>2021-06-14T12:22:50Z</time>
      </trkpt>
      <trkpt lat="46.49021" lon="5.35155">
        <ele>255.8</ele>
        <time>2021-06-14T12:22:51Z</time>
      </trkpt>
      <trkpt lat="46.49023" lon="5.35148">
        <ele>255.8</ele>
        <time>2021-06-14T12:22:52Z</time>
      </trkpt>
      <trkpt lat="46.49026" lon="5.35141">
        <ele>256</ele>
        <time>2021-06-14T12:22:53Z</time>
      </trkpt>
      <trkpt lat="46.49033" lon="5.35128">
        <ele>256.2</ele>
        <time>2021-06-14T12:22:55Z</time>
      </trkpt>
      <trkpt lat="46.49042" lon="5.35115">
        <ele>256.2</ele>
        <time>2021-06-14T12:22:57Z</time>
      </trkpt>
      <trkpt lat="46.49052" lon="5.35106">
        <ele>256.2</ele>
        <time>2021-06-14T12:22:59Z</time>
      </trkpt>
      <trkpt lat="46.49063" lon="5.35097">
        <ele>256.2</ele>
        <time>2021-06-14T12:23:01Z</time>
      </trkpt>
      <trkpt lat="46.49063" lon="5.35097">
        <ele>256.2</ele>
        <time>2021-06-14T12:23:02Z</time>
      </trkpt>
      <trkpt lat="46.49072" lon="5.35091">
        <ele>256.2</ele>
        <time>2021-06-14T12:23:03Z</time>
      </trkpt>
      <trkpt lat="46.49082" lon="5.35082">
        <ele>256.2</ele>
        <time>2021-06-14T12:23:05Z</time>
      </trkpt>
      <trkpt lat="46.49092" lon="5.35074">
        <ele>256</ele>
        <time>2021-06-14T12:23:07Z</time>
      </trkpt>
      <trkpt lat="46.49103" lon="5.35066">
        <ele>256</ele>
        <time>2021-06-14T12:23:09Z</time>
      </trkpt>
      <trkpt lat="46.49114" lon="5.35056">
        <ele>255.8</ele>
        <time>2021-06-14T12:23:11Z</time>
      </trkpt>
      <trkpt lat="46.49127" lon="5.35048">
        <ele>255.8</ele>
        <time>2021-06-14T12:23:13Z</time>
      </trkpt>
      <trkpt lat="46.49139" lon="5.3504">
        <ele>255.6</ele>
        <time>2021-06-14T12:23:15Z</time>
      </trkpt>
      <trkpt lat="46.49152" lon="5.35031">
        <ele>255.2</ele>
        <time>2021-06-14T12:23:17Z</time>
      </trkpt>
      <trkpt lat="46.49164" lon="5.35023">
        <ele>255</ele>
        <time>2021-06-14T12:23:19Z</time>
      </trkpt>
      <trkpt lat="46.49176" lon="5.35014">
        <ele>254.8</ele>
        <time>2021-06-14T12:23:21Z</time>
      </trkpt>
      <trkpt lat="46.49182" lon="5.35008">
        <ele>254.6</ele>
        <time>2021-06-14T12:23:22Z</time>
      </trkpt>
      <trkpt lat="46.49187" lon="5.35001">
        <ele>254.6</ele>
        <time>2021-06-14T12:23:23Z</time>
      </trkpt>
      <trkpt lat="46.49198" lon="5.34986">
        <ele>254.6</ele>
        <time>2021-06-14T12:23:25Z</time>
      </trkpt>
      <trkpt lat="46.49208" lon="5.34971">
        <ele>254.4</ele>
        <time>2021-06-14T12:23:27Z</time>
      </trkpt>
      <trkpt lat="46.49219" lon="5.34955">
        <ele>254.2</ele>
        <time>2021-06-14T12:23:29Z</time>
      </trkpt>
      <trkpt lat="46.49229" lon="5.34938">
        <ele>254.2</ele>
        <time>2021-06-14T12:23:31Z</time>
      </trkpt>
      <trkpt lat="46.4924" lon="5.34923">
        <ele>254.2</ele>
        <time>2021-06-14T12:23:33Z</time>
      </trkpt>
      <trkpt lat="46.49249" lon="5.34906">
        <ele>254</ele>
        <time>2021-06-14T12:23:35Z</time>
      </trkpt>
      <trkpt lat="46.49254" lon="5.34898">
        <ele>254</ele>
        <time>2021-06-14T12:23:36Z</time>
      </trkpt>
      <trkpt lat="46.49258" lon="5.3489">
        <ele>254</ele>
        <time>2021-06-14T12:23:37Z</time>
      </trkpt>
      <trkpt lat="46.49268" lon="5.34875">
        <ele>254</ele>
        <time>2021-06-14T12:23:39Z</time>
      </trkpt>
      <trkpt lat="46.49279" lon="5.34863">
        <ele>254</ele>
        <time>2021-06-14T12:23:41Z</time>
      </trkpt>
      <trkpt lat="46.49284" lon="5.34857">
        <ele>254</ele>
        <time>2021-06-14T12:23:42Z</time>
      </trkpt>
      <trkpt lat="46.4929" lon="5.34853">
        <ele>253.8</ele>
        <time>2021-06-14T12:23:43Z</time>
      </trkpt>
      <trkpt lat="46.49301" lon="5.34848">
        <ele>253.8</ele>
        <time>2021-06-14T12:23:45Z</time>
      </trkpt>
      <trkpt lat="46.49314" lon="5.34844">
        <ele>253.8</ele>
        <time>2021-06-14T12:23:47Z</time>
      </trkpt>
      <trkpt lat="46.49326" lon="5.34841">
        <ele>253.6</ele>
        <time>2021-06-14T12:23:49Z</time>
      </trkpt>
      <trkpt lat="46.49339" lon="5.34839">
        <ele>253.6</ele>
        <time>2021-06-14T12:23:51Z</time>
      </trkpt>
      <trkpt lat="46.49352" lon="5.34836">
        <ele>253.6</ele>
        <time>2021-06-14T12:23:53Z</time>
      </trkpt>
      <trkpt lat="46.49359" lon="5.34835">
        <ele>253.6</ele>
        <time>2021-06-14T12:23:54Z</time>
      </trkpt>
      <trkpt lat="46.49365" lon="5.34834">
        <ele>253.6</ele>
        <time>2021-06-14T12:23:55Z</time>
      </trkpt>
      <trkpt lat="46.49378" lon="5.34832">
        <ele>253.6</ele>
        <time>2021-06-14T12:23:57Z</time>
      </trkpt>
      <trkpt lat="46.49391" lon="5.3483">
        <ele>253.8</ele>
        <time>2021-06-14T12:23:59Z</time>
      </trkpt>
      <trkpt lat="46.49397" lon="5.34828">
        <ele>253.8</ele>
        <time>2021-06-14T12:24:00Z</time>
      </trkpt>
      <trkpt lat="46.49402" lon="5.34827">
        <ele>253.8</ele>
        <time>2021-06-14T12:24:01Z</time>
      </trkpt>
      <trkpt lat="46.49413" lon="5.34821">
        <ele>253.8</ele>
        <time>2021-06-14T12:24:03Z</time>
      </trkpt>
      <trkpt lat="46.49425" lon="5.34814">
        <ele>253.8</ele>
        <time>2021-06-14T12:24:05Z</time>
      </trkpt>
      <trkpt lat="46.4943" lon="5.34808">
        <ele>253.8</ele>
        <time>2021-06-14T12:24:06Z</time>
      </trkpt>
      <trkpt lat="46.49436" lon="5.34802">
        <ele>253.8</ele>
        <time>2021-06-14T12:24:07Z</time>
      </trkpt>
      <trkpt lat="46.49448" lon="5.34789">
        <ele>253.8</ele>
        <time>2021-06-14T12:24:09Z</time>
      </trkpt>
      <trkpt lat="46.49461" lon="5.34776">
        <ele>253.6</ele>
        <time>2021-06-14T12:24:11Z</time>
      </trkpt>
      <trkpt lat="46.49476" lon="5.34761">
        <ele>253</ele>
        <time>2021-06-14T12:24:13Z</time>
      </trkpt>
      <trkpt lat="46.49491" lon="5.34745">
        <ele>252.4</ele>
        <time>2021-06-14T12:24:15Z</time>
      </trkpt>
      <trkpt lat="46.49498" lon="5.34736">
        <ele>252.2</ele>
        <time>2021-06-14T12:24:16Z</time>
      </trkpt>
      <trkpt lat="46.49506" lon="5.34726">
        <ele>251.8</ele>
        <time>2021-06-14T12:24:17Z</time>
      </trkpt>
      <trkpt lat="46.49514" lon="5.34717">
        <ele>251</ele>
        <time>2021-06-14T12:24:18Z</time>
      </trkpt>
      <trkpt lat="46.49521" lon="5.34706">
        <ele>250.2</ele>
        <time>2021-06-14T12:24:19Z</time>
      </trkpt>
      <trkpt lat="46.49521" lon="5.34706">
        <ele>249.6</ele>
        <time>2021-06-14T12:24:20Z</time>
      </trkpt>
      <trkpt lat="46.49536" lon="5.34686">
        <ele>249</ele>
        <time>2021-06-14T12:24:21Z</time>
      </trkpt>
      <trkpt lat="46.49544" lon="5.34676">
        <ele>248.2</ele>
        <time>2021-06-14T12:24:22Z</time>
      </trkpt>
      <trkpt lat="46.49551" lon="5.34666">
        <ele>247.8</ele>
        <time>2021-06-14T12:24:23Z</time>
      </trkpt>
      <trkpt lat="46.49566" lon="5.34646">
        <ele>246.6</ele>
        <time>2021-06-14T12:24:25Z</time>
      </trkpt>
      <trkpt lat="46.4958" lon="5.34626">
        <ele>245.6</ele>
        <time>2021-06-14T12:24:27Z</time>
      </trkpt>
      <trkpt lat="46.49588" lon="5.34616">
        <ele>245.2</ele>
        <time>2021-06-14T12:24:28Z</time>
      </trkpt>
      <trkpt lat="46.49594" lon="5.34606">
        <ele>244.6</ele>
        <time>2021-06-14T12:24:29Z</time>
      </trkpt>
      <trkpt lat="46.49601" lon="5.34596">
        <ele>244</ele>
        <time>2021-06-14T12:24:30Z</time>
      </trkpt>
      <trkpt lat="46.49607" lon="5.34586">
        <ele>243.4</ele>
        <time>2021-06-14T12:24:31Z</time>
      </trkpt>
      <trkpt lat="46.49607" lon="5.34586">
        <ele>243</ele>
        <time>2021-06-14T12:24:32Z</time>
      </trkpt>
      <trkpt lat="46.49619" lon="5.34568">
        <ele>242.4</ele>
        <time>2021-06-14T12:24:33Z</time>
      </trkpt>
      <trkpt lat="46.49632" lon="5.34553">
        <ele>242</ele>
        <time>2021-06-14T12:24:35Z</time>
      </trkpt>
      <trkpt lat="46.49638" lon="5.34549">
        <ele>241.8</ele>
        <time>2021-06-14T12:24:36Z</time>
      </trkpt>
      <trkpt lat="46.49643" lon="5.34547">
        <ele>241.8</ele>
        <time>2021-06-14T12:24:37Z</time>
      </trkpt>
      <trkpt lat="46.49643" lon="5.34547">
        <ele>241.6</ele>
        <time>2021-06-14T12:24:38Z</time>
      </trkpt>
      <trkpt lat="46.49651" lon="5.3454">
        <ele>241.6</ele>
        <time>2021-06-14T12:24:39Z</time>
      </trkpt>
      <trkpt lat="46.49657" lon="5.3453">
        <ele>241.6</ele>
        <time>2021-06-14T12:24:41Z</time>
      </trkpt>
      <trkpt lat="46.49661" lon="5.34516">
        <ele>241.6</ele>
        <time>2021-06-14T12:24:43Z</time>
      </trkpt>
      <trkpt lat="46.49664" lon="5.34501">
        <ele>241.8</ele>
        <time>2021-06-14T12:24:45Z</time>
      </trkpt>
      <trkpt lat="46.49668" lon="5.34487">
        <ele>242</ele>
        <time>2021-06-14T12:24:47Z</time>
      </trkpt>
      <trkpt lat="46.49672" lon="5.34474">
        <ele>242.2</ele>
        <time>2021-06-14T12:24:49Z</time>
      </trkpt>
      <trkpt lat="46.49672" lon="5.34474">
        <ele>242.4</ele>
        <time>2021-06-14T12:24:50Z</time>
      </trkpt>
      <trkpt lat="46.49676" lon="5.3446">
        <ele>242.4</ele>
        <time>2021-06-14T12:24:51Z</time>
      </trkpt>
      <trkpt lat="46.4968" lon="5.34447">
        <ele>242.8</ele>
        <time>2021-06-14T12:24:53Z</time>
      </trkpt>
      <trkpt lat="46.49682" lon="5.34439">
        <ele>243</ele>
        <time>2021-06-14T12:24:54Z</time>
      </trkpt>
      <trkpt lat="46.49684" lon="5.34433">
        <ele>243</ele>
        <time>2021-06-14T12:24:55Z</time>
      </trkpt>
      <trkpt lat="46.49688" lon="5.34419">
        <ele>243.4</ele>
        <time>2021-06-14T12:24:57Z</time>
      </trkpt>
      <trkpt lat="46.49692" lon="5.34405">
        <ele>243.8</ele>
        <time>2021-06-14T12:24:59Z</time>
      </trkpt>
      <trkpt lat="46.49694" lon="5.34398">
        <ele>244</ele>
        <time>2021-06-14T12:25:00Z</time>
      </trkpt>
      <trkpt lat="46.49695" lon="5.3439">
        <ele>244.2</ele>
        <time>2021-06-14T12:25:01Z</time>
      </trkpt>
      <trkpt lat="46.49699" lon="5.34377">
        <ele>244.8</ele>
        <time>2021-06-14T12:25:03Z</time>
      </trkpt>
      <trkpt lat="46.497" lon="5.3437">
        <ele>245.2</ele>
        <time>2021-06-14T12:25:04Z</time>
      </trkpt>
      <trkpt lat="46.49702" lon="5.34364">
        <ele>245.4</ele>
        <time>2021-06-14T12:25:05Z</time>
      </trkpt>
      <trkpt lat="46.49705" lon="5.34351">
        <ele>245.8</ele>
        <time>2021-06-14T12:25:07Z</time>
      </trkpt>
      <trkpt lat="46.49709" lon="5.34339">
        <ele>246.4</ele>
        <time>2021-06-14T12:25:09Z</time>
      </trkpt>
      <trkpt lat="46.49714" lon="5.34328">
        <ele>246.8</ele>
        <time>2021-06-14T12:25:11Z</time>
      </trkpt>
      <trkpt lat="46.49719" lon="5.34314">
        <ele>247.2</ele>
        <time>2021-06-14T12:25:13Z</time>
      </trkpt>
      <trkpt lat="46.49725" lon="5.343">
        <ele>247.6</ele>
        <time>2021-06-14T12:25:15Z</time>
      </trkpt>
      <trkpt lat="46.49733" lon="5.34286">
        <ele>247.6</ele>
        <time>2021-06-14T12:25:17Z</time>
      </trkpt>
      <trkpt lat="46.4974" lon="5.34272">
        <ele>247.6</ele>
        <time>2021-06-14T12:25:19Z</time>
      </trkpt>
      <trkpt lat="46.49744" lon="5.34265">
        <ele>247.6</ele>
        <time>2021-06-14T12:25:20Z</time>
      </trkpt>
      <trkpt lat="46.49748" lon="5.34258">
        <ele>247.6</ele>
        <time>2021-06-14T12:25:21Z</time>
      </trkpt>
      <trkpt lat="46.49756" lon="5.34244">
        <ele>247.6</ele>
        <time>2021-06-14T12:25:23Z</time>
      </trkpt>
      <trkpt lat="46.49764" lon="5.3423">
        <ele>247.6</ele>
        <time>2021-06-14T12:25:25Z</time>
      </trkpt>
      <trkpt lat="46.49773" lon="5.34217">
        <ele>247.6</ele>
        <time>2021-06-14T12:25:27Z</time>
      </trkpt>
      <trkpt lat="46.4978" lon="5.34204">
        <ele>247.6</ele>
        <time>2021-06-14T12:25:29Z</time>
      </trkpt>
      <trkpt lat="46.49784" lon="5.34197">
        <ele>247.6</ele>
        <time>2021-06-14T12:25:30Z</time>
      </trkpt>
      <trkpt lat="46.49788" lon="5.34191">
        <ele>247.6</ele>
        <time>2021-06-14T12:25:31Z</time>
      </trkpt>
      <trkpt lat="46.49796" lon="5.34177">
        <ele>247.6</ele>
        <time>2021-06-14T12:25:33Z</time>
      </trkpt>
      <trkpt lat="46.49804" lon="5.34164">
        <ele>247.8</ele>
        <time>2021-06-14T12:25:35Z</time>
      </trkpt>
      <trkpt lat="46.49811" lon="5.34151">
        <ele>248</ele>
        <time>2021-06-14T12:25:37Z</time>
      </trkpt>
      <trkpt lat="46.49819" lon="5.34138">
        <ele>248</ele>
        <time>2021-06-14T12:25:39Z</time>
      </trkpt>
      <trkpt lat="46.49823" lon="5.34132">
        <ele>248</ele>
        <time>2021-06-14T12:25:40Z</time>
      </trkpt>
      <trkpt lat="46.49827" lon="5.34125">
        <ele>248</ele>
        <time>2021-06-14T12:25:41Z</time>
      </trkpt>
      <trkpt lat="46.49836" lon="5.34112">
        <ele>248.2</ele>
        <time>2021-06-14T12:25:43Z</time>
      </trkpt>
      <trkpt lat="46.49844" lon="5.34098">
        <ele>248.2</ele>
        <time>2021-06-14T12:25:45Z</time>
      </trkpt>
      <trkpt lat="46.49853" lon="5.34084">
        <ele>248.2</ele>
        <time>2021-06-14T12:25:47Z</time>
      </trkpt>
      <trkpt lat="46.49863" lon="5.3407">
        <ele>248</ele>
        <time>2021-06-14T12:25:49Z</time>
      </trkpt>
      <trkpt lat="46.49873" lon="5.34057">
        <ele>248</ele>
        <time>2021-06-14T12:25:51Z</time>
      </trkpt>
      <trkpt lat="46.49884" lon="5.34044">
        <ele>248</ele>
        <time>2021-06-14T12:25:53Z</time>
      </trkpt>
      <trkpt lat="46.49894" lon="5.34033">
        <ele>248</ele>
        <time>2021-06-14T12:25:55Z</time>
      </trkpt>
      <trkpt lat="46.49904" lon="5.34021">
        <ele>248</ele>
        <time>2021-06-14T12:25:57Z</time>
      </trkpt>
      <trkpt lat="46.49914" lon="5.34011">
        <ele>248</ele>
        <time>2021-06-14T12:25:59Z</time>
      </trkpt>
      <trkpt lat="46.49923" lon="5.34001">
        <ele>248</ele>
        <time>2021-06-14T12:26:01Z</time>
      </trkpt>
      <trkpt lat="46.49932" lon="5.33992">
        <ele>248</ele>
        <time>2021-06-14T12:26:03Z</time>
      </trkpt>
      <trkpt lat="46.49936" lon="5.33988">
        <ele>248.2</ele>
        <time>2021-06-14T12:26:04Z</time>
      </trkpt>
      <trkpt lat="46.49941" lon="5.33985">
        <ele>248.2</ele>
        <time>2021-06-14T12:26:05Z</time>
      </trkpt>
      <trkpt lat="46.4995" lon="5.33977">
        <ele>248.4</ele>
        <time>2021-06-14T12:26:07Z</time>
      </trkpt>
      <trkpt lat="46.49959" lon="5.3397">
        <ele>248.8</ele>
        <time>2021-06-14T12:26:09Z</time>
      </trkpt>
      <trkpt lat="46.49967" lon="5.33963">
        <ele>249</ele>
        <time>2021-06-14T12:26:11Z</time>
      </trkpt>
      <trkpt lat="46.49972" lon="5.3396">
        <ele>249.4</ele>
        <time>2021-06-14T12:26:12Z</time>
      </trkpt>
      <trkpt lat="46.49976" lon="5.33956">
        <ele>249.8</ele>
        <time>2021-06-14T12:26:13Z</time>
      </trkpt>
      <trkpt lat="46.49986" lon="5.33947">
        <ele>250</ele>
        <time>2021-06-14T12:26:15Z</time>
      </trkpt>
      <trkpt lat="46.49996" lon="5.33937">
        <ele>250.4</ele>
        <time>2021-06-14T12:26:17Z</time>
      </trkpt>
      <trkpt lat="46.50001" lon="5.33932">
        <ele>250.4</ele>
        <time>2021-06-14T12:26:18Z</time>
      </trkpt>
      <trkpt lat="46.50006" lon="5.33927">
        <ele>250.6</ele>
        <time>2021-06-14T12:26:19Z</time>
      </trkpt>
      <trkpt lat="46.50015" lon="5.33917">
        <ele>250.8</ele>
        <time>2021-06-14T12:26:21Z</time>
      </trkpt>
      <trkpt lat="46.50026" lon="5.33905">
        <ele>250.8</ele>
        <time>2021-06-14T12:26:23Z</time>
      </trkpt>
      <trkpt lat="46.50036" lon="5.3389">
        <ele>250.8</ele>
        <time>2021-06-14T12:26:25Z</time>
      </trkpt>
      <trkpt lat="46.50047" lon="5.33877">
        <ele>250.8</ele>
        <time>2021-06-14T12:26:27Z</time>
      </trkpt>
      <trkpt lat="46.50058" lon="5.33864">
        <ele>250.8</ele>
        <time>2021-06-14T12:26:29Z</time>
      </trkpt>
      <trkpt lat="46.5007" lon="5.33851">
        <ele>250.2</ele>
        <time>2021-06-14T12:26:31Z</time>
      </trkpt>
      <trkpt lat="46.50082" lon="5.33837">
        <ele>249.8</ele>
        <time>2021-06-14T12:26:33Z</time>
      </trkpt>
      <trkpt lat="46.50095" lon="5.33823">
        <ele>249.6</ele>
        <time>2021-06-14T12:26:35Z</time>
      </trkpt>
      <trkpt lat="46.50101" lon="5.33815">
        <ele>249.4</ele>
        <time>2021-06-14T12:26:36Z</time>
      </trkpt>
      <trkpt lat="46.50108" lon="5.33808">
        <ele>249.2</ele>
        <time>2021-06-14T12:26:37Z</time>
      </trkpt>
      <trkpt lat="46.5012" lon="5.33794">
        <ele>248.8</ele>
        <time>2021-06-14T12:26:39Z</time>
      </trkpt>
      <trkpt lat="46.50132" lon="5.33781">
        <ele>248.4</ele>
        <time>2021-06-14T12:26:41Z</time>
      </trkpt>
      <trkpt lat="46.50138" lon="5.33775">
        <ele>248.4</ele>
        <time>2021-06-14T12:26:42Z</time>
      </trkpt>
      <trkpt lat="46.50144" lon="5.33768">
        <ele>248.2</ele>
        <time>2021-06-14T12:26:43Z</time>
      </trkpt>
      <trkpt lat="46.50156" lon="5.33756">
        <ele>248.2</ele>
        <time>2021-06-14T12:26:45Z</time>
      </trkpt>
      <trkpt lat="46.50167" lon="5.33744">
        <ele>248.2</ele>
        <time>2021-06-14T12:26:47Z</time>
      </trkpt>
      <trkpt lat="46.50178" lon="5.33732">
        <ele>248.2</ele>
        <time>2021-06-14T12:26:49Z</time>
      </trkpt>
      <trkpt lat="46.50178" lon="5.33732">
        <ele>248.2</ele>
        <time>2021-06-14T12:26:50Z</time>
      </trkpt>
      <trkpt lat="46.50189" lon="5.3372">
        <ele>248.2</ele>
        <time>2021-06-14T12:26:51Z</time>
      </trkpt>
      <trkpt lat="46.50199" lon="5.33707">
        <ele>248.2</ele>
        <time>2021-06-14T12:26:53Z</time>
      </trkpt>
      <trkpt lat="46.5021" lon="5.33695">
        <ele>248.4</ele>
        <time>2021-06-14T12:26:55Z</time>
      </trkpt>
      <trkpt lat="46.50221" lon="5.33684">
        <ele>248.6</ele>
        <time>2021-06-14T12:26:57Z</time>
      </trkpt>
      <trkpt lat="46.50233" lon="5.33672">
        <ele>248.6</ele>
        <time>2021-06-14T12:26:59Z</time>
      </trkpt>
      <trkpt lat="46.50244" lon="5.3366">
        <ele>248.6</ele>
        <time>2021-06-14T12:27:01Z</time>
      </trkpt>
      <trkpt lat="46.50255" lon="5.33648">
        <ele>248.6</ele>
        <time>2021-06-14T12:27:03Z</time>
      </trkpt>
      <trkpt lat="46.50266" lon="5.33634">
        <ele>248.6</ele>
        <time>2021-06-14T12:27:05Z</time>
      </trkpt>
      <trkpt lat="46.50278" lon="5.33621">
        <ele>248.6</ele>
        <time>2021-06-14T12:27:07Z</time>
      </trkpt>
      <trkpt lat="46.50278" lon="5.33621">
        <ele>248.6</ele>
        <time>2021-06-14T12:27:08Z</time>
      </trkpt>
      <trkpt lat="46.50289" lon="5.33607">
        <ele>248.6</ele>
        <time>2021-06-14T12:27:09Z</time>
      </trkpt>
      <trkpt lat="46.503" lon="5.33594">
        <ele>248.4</ele>
        <time>2021-06-14T12:27:11Z</time>
      </trkpt>
      <trkpt lat="46.50312" lon="5.33581">
        <ele>248.2</ele>
        <time>2021-06-14T12:27:13Z</time>
      </trkpt>
      <trkpt lat="46.50323" lon="5.33569">
        <ele>248.2</ele>
        <time>2021-06-14T12:27:15Z</time>
      </trkpt>
      <trkpt lat="46.50335" lon="5.33556">
        <ele>248</ele>
        <time>2021-06-14T12:27:17Z</time>
      </trkpt>
      <trkpt lat="46.50347" lon="5.33543">
        <ele>247.8</ele>
        <time>2021-06-14T12:27:19Z</time>
      </trkpt>
      <trkpt lat="46.50352" lon="5.33537">
        <ele>247.8</ele>
        <time>2021-06-14T12:27:20Z</time>
      </trkpt>
      <trkpt lat="46.50358" lon="5.3353">
        <ele>247.6</ele>
        <time>2021-06-14T12:27:21Z</time>
      </trkpt>
      <trkpt lat="46.5037" lon="5.33518">
        <ele>247.2</ele>
        <time>2021-06-14T12:27:23Z</time>
      </trkpt>
      <trkpt lat="46.50381" lon="5.33505">
        <ele>247</ele>
        <time>2021-06-14T12:27:25Z</time>
      </trkpt>
      <trkpt lat="46.50393" lon="5.33492">
        <ele>246.8</ele>
        <time>2021-06-14T12:27:27Z</time>
      </trkpt>
      <trkpt lat="46.50405" lon="5.3348">
        <ele>246.6</ele>
        <time>2021-06-14T12:27:29Z</time>
      </trkpt>
      <trkpt lat="46.50417" lon="5.33467">
        <ele>246.4</ele>
        <time>2021-06-14T12:27:31Z</time>
      </trkpt>
      <trkpt lat="46.50428" lon="5.33453">
        <ele>246.4</ele>
        <time>2021-06-14T12:27:33Z</time>
      </trkpt>
      <trkpt lat="46.50434" lon="5.33445">
        <ele>246.2</ele>
        <time>2021-06-14T12:27:34Z</time>
      </trkpt>
      <trkpt lat="46.50439" lon="5.33438">
        <ele>246.2</ele>
        <time>2021-06-14T12:27:35Z</time>
      </trkpt>
      <trkpt lat="46.50449" lon="5.33422">
        <ele>245.8</ele>
        <time>2021-06-14T12:27:37Z</time>
      </trkpt>
      <trkpt lat="46.50457" lon="5.33403">
        <ele>245.4</ele>
        <time>2021-06-14T12:27:39Z</time>
      </trkpt>
      <trkpt lat="46.50463" lon="5.33382">
        <ele>245.2</ele>
        <time>2021-06-14T12:27:41Z</time>
      </trkpt>
      <trkpt lat="46.50465" lon="5.33371">
        <ele>245.2</ele>
        <time>2021-06-14T12:27:42Z</time>
      </trkpt>
      <trkpt lat="46.50466" lon="5.3336">
        <ele>245.2</ele>
        <time>2021-06-14T12:27:43Z</time>
      </trkpt>
      <trkpt lat="46.50468" lon="5.33338">
        <ele>245</ele>
        <time>2021-06-14T12:27:45Z</time>
      </trkpt>
      <trkpt lat="46.50468" lon="5.33317">
        <ele>244.8</ele>
        <time>2021-06-14T12:27:47Z</time>
      </trkpt>
      <trkpt lat="46.50469" lon="5.33296">
        <ele>244.8</ele>
        <time>2021-06-14T12:27:49Z</time>
      </trkpt>
      <trkpt lat="46.50469" lon="5.33276">
        <ele>244.8</ele>
        <time>2021-06-14T12:27:51Z</time>
      </trkpt>
      <trkpt lat="46.50469" lon="5.33257">
        <ele>244.8</ele>
        <time>2021-06-14T12:27:53Z</time>
      </trkpt>
      <trkpt lat="46.50469" lon="5.33237">
        <ele>244.8</ele>
        <time>2021-06-14T12:27:55Z</time>
      </trkpt>
      <trkpt lat="46.50469" lon="5.33219">
        <ele>244.8</ele>
        <time>2021-06-14T12:27:57Z</time>
      </trkpt>
      <trkpt lat="46.5047" lon="5.33201">
        <ele>245.2</ele>
        <time>2021-06-14T12:27:59Z</time>
      </trkpt>
      <trkpt lat="46.5047" lon="5.33182">
        <ele>245.2</ele>
        <time>2021-06-14T12:28:01Z</time>
      </trkpt>
      <trkpt lat="46.5047" lon="5.33162">
        <ele>245.2</ele>
        <time>2021-06-14T12:28:03Z</time>
      </trkpt>
      <trkpt lat="46.50471" lon="5.33142">
        <ele>245.4</ele>
        <time>2021-06-14T12:28:05Z</time>
      </trkpt>
      <trkpt lat="46.50471" lon="5.3312">
        <ele>245.4</ele>
        <time>2021-06-14T12:28:07Z</time>
      </trkpt>
      <trkpt lat="46.50471" lon="5.33096">
        <ele>245.2</ele>
        <time>2021-06-14T12:28:09Z</time>
      </trkpt>
      <trkpt lat="46.50471" lon="5.33069">
        <ele>244.8</ele>
        <time>2021-06-14T12:28:11Z</time>
      </trkpt>
      <trkpt lat="46.50471" lon="5.33041">
        <ele>244.4</ele>
        <time>2021-06-14T12:28:13Z</time>
      </trkpt>
      <trkpt lat="46.50471" lon="5.33012">
        <ele>243.8</ele>
        <time>2021-06-14T12:28:15Z</time>
      </trkpt>
      <trkpt lat="46.50471" lon="5.32997">
        <ele>243.2</ele>
        <time>2021-06-14T12:28:16Z</time>
      </trkpt>
      <trkpt lat="46.50471" lon="5.32982">
        <ele>242.6</ele>
        <time>2021-06-14T12:28:17Z</time>
      </trkpt>
      <trkpt lat="46.50471" lon="5.32953">
        <ele>241.6</ele>
        <time>2021-06-14T12:28:19Z</time>
      </trkpt>
      <trkpt lat="46.50472" lon="5.32939">
        <ele>241.2</ele>
        <time>2021-06-14T12:28:20Z</time>
      </trkpt>
      <trkpt lat="46.50472" lon="5.32924">
        <ele>240.6</ele>
        <time>2021-06-14T12:28:21Z</time>
      </trkpt>
      <trkpt lat="46.50472" lon="5.3291">
        <ele>239.8</ele>
        <time>2021-06-14T12:28:22Z</time>
      </trkpt>
      <trkpt lat="46.50473" lon="5.32895">
        <ele>238.6</ele>
        <time>2021-06-14T12:28:23Z</time>
      </trkpt>
      <trkpt lat="46.50473" lon="5.32864">
        <ele>237.2</ele>
        <time>2021-06-14T12:28:25Z</time>
      </trkpt>
      <trkpt lat="46.50474" lon="5.32834">
        <ele>236.2</ele>
        <time>2021-06-14T12:28:27Z</time>
      </trkpt>
      <trkpt lat="46.50474" lon="5.32819">
        <ele>236</ele>
        <time>2021-06-14T12:28:28Z</time>
      </trkpt>
      <trkpt lat="46.50475" lon="5.32804">
        <ele>235.6</ele>
        <time>2021-06-14T12:28:29Z</time>
      </trkpt>
      <trkpt lat="46.50475" lon="5.32776">
        <ele>234.8</ele>
        <time>2021-06-14T12:28:31Z</time>
      </trkpt>
      <trkpt lat="46.50476" lon="5.32749">
        <ele>233.6</ele>
        <time>2021-06-14T12:28:33Z</time>
      </trkpt>
      <trkpt lat="46.50477" lon="5.32722">
        <ele>233</ele>
        <time>2021-06-14T12:28:35Z</time>
      </trkpt>
      <trkpt lat="46.50477" lon="5.32695">
        <ele>232.6</ele>
        <time>2021-06-14T12:28:37Z</time>
      </trkpt>
      <trkpt lat="46.50477" lon="5.32669">
        <ele>232.2</ele>
        <time>2021-06-14T12:28:39Z</time>
      </trkpt>
      <trkpt lat="46.50478" lon="5.32644">
        <ele>231.8</ele>
        <time>2021-06-14T12:28:41Z</time>
      </trkpt>
      <trkpt lat="46.50478" lon="5.32618">
        <ele>231.8</ele>
        <time>2021-06-14T12:28:43Z</time>
      </trkpt>
      <trkpt lat="46.50477" lon="5.32594">
        <ele>231.6</ele>
        <time>2021-06-14T12:28:45Z</time>
      </trkpt>
      <trkpt lat="46.50476" lon="5.32569">
        <ele>231.2</ele>
        <time>2021-06-14T12:28:47Z</time>
      </trkpt>
      <trkpt lat="46.50475" lon="5.32544">
        <ele>231</ele>
        <time>2021-06-14T12:28:49Z</time>
      </trkpt>
      <trkpt lat="46.50474" lon="5.3252">
        <ele>230.8</ele>
        <time>2021-06-14T12:28:51Z</time>
      </trkpt>
      <trkpt lat="46.50473" lon="5.32496">
        <ele>230.4</ele>
        <time>2021-06-14T12:28:53Z</time>
      </trkpt>
      <trkpt lat="46.50471" lon="5.32473">
        <ele>230</ele>
        <time>2021-06-14T12:28:55Z</time>
      </trkpt>
      <trkpt lat="46.50469" lon="5.3245">
        <ele>229.8</ele>
        <time>2021-06-14T12:28:57Z</time>
      </trkpt>
      <trkpt lat="46.50465" lon="5.32427">
        <ele>229.8</ele>
        <time>2021-06-14T12:28:59Z</time>
      </trkpt>
      <trkpt lat="46.50463" lon="5.32416">
        <ele>229.8</ele>
        <time>2021-06-14T12:29:00Z</time>
      </trkpt>
      <trkpt lat="46.50461" lon="5.32405">
        <ele>229.6</ele>
        <time>2021-06-14T12:29:01Z</time>
      </trkpt>
      <trkpt lat="46.50457" lon="5.32383">
        <ele>229.6</ele>
        <time>2021-06-14T12:29:03Z</time>
      </trkpt>
      <trkpt lat="46.50452" lon="5.32361">
        <ele>229.6</ele>
        <time>2021-06-14T12:29:05Z</time>
      </trkpt>
      <trkpt lat="46.50447" lon="5.3234">
        <ele>229.4</ele>
        <time>2021-06-14T12:29:07Z</time>
      </trkpt>
      <trkpt lat="46.50442" lon="5.32319">
        <ele>229.4</ele>
        <time>2021-06-14T12:29:09Z</time>
      </trkpt>
      <trkpt lat="46.50438" lon="5.32298">
        <ele>229.6</ele>
        <time>2021-06-14T12:29:11Z</time>
      </trkpt>
      <trkpt lat="46.50435" lon="5.32277">
        <ele>229.6</ele>
        <time>2021-06-14T12:29:13Z</time>
      </trkpt>
      <trkpt lat="46.50433" lon="5.32257">
        <ele>229.6</ele>
        <time>2021-06-14T12:29:15Z</time>
      </trkpt>
      <trkpt lat="46.50432" lon="5.32235">
        <ele>229.6</ele>
        <time>2021-06-14T12:29:17Z</time>
      </trkpt>
      <trkpt lat="46.50432" lon="5.32214">
        <ele>229.6</ele>
        <time>2021-06-14T12:29:19Z</time>
      </trkpt>
      <trkpt lat="46.50432" lon="5.32193">
        <ele>229.4</ele>
        <time>2021-06-14T12:29:21Z</time>
      </trkpt>
      <trkpt lat="46.50433" lon="5.32171">
        <ele>229.4</ele>
        <time>2021-06-14T12:29:23Z</time>
      </trkpt>
      <trkpt lat="46.50433" lon="5.32149">
        <ele>229</ele>
        <time>2021-06-14T12:29:25Z</time>
      </trkpt>
      <trkpt lat="46.50434" lon="5.32127">
        <ele>228.8</ele>
        <time>2021-06-14T12:29:27Z</time>
      </trkpt>
      <trkpt lat="46.50434" lon="5.32106">
        <ele>228.6</ele>
        <time>2021-06-14T12:29:29Z</time>
      </trkpt>
      <trkpt lat="46.50435" lon="5.32083">
        <ele>228.4</ele>
        <time>2021-06-14T12:29:31Z</time>
      </trkpt>
      <trkpt lat="46.50435" lon="5.32061">
        <ele>228</ele>
        <time>2021-06-14T12:29:33Z</time>
      </trkpt>
      <trkpt lat="46.50435" lon="5.3205">
        <ele>227.8</ele>
        <time>2021-06-14T12:29:34Z</time>
      </trkpt>
      <trkpt lat="46.50436" lon="5.32038">
        <ele>227.6</ele>
        <time>2021-06-14T12:29:35Z</time>
      </trkpt>
      <trkpt lat="46.50436" lon="5.32015">
        <ele>227.4</ele>
        <time>2021-06-14T12:29:37Z</time>
      </trkpt>
      <trkpt lat="46.50437" lon="5.31993">
        <ele>227.4</ele>
        <time>2021-06-14T12:29:39Z</time>
      </trkpt>
      <trkpt lat="46.50437" lon="5.31971">
        <ele>227.2</ele>
        <time>2021-06-14T12:29:41Z</time>
      </trkpt>
      <trkpt lat="46.50438" lon="5.31949">
        <ele>226.8</ele>
        <time>2021-06-14T12:29:43Z</time>
      </trkpt>
      <trkpt lat="46.50438" lon="5.31949">
        <ele>226.8</ele>
        <time>2021-06-14T12:29:44Z</time>
      </trkpt>
      <trkpt lat="46.50438" lon="5.31928">
        <ele>226.8</ele>
        <time>2021-06-14T12:29:45Z</time>
      </trkpt>
      <trkpt lat="46.50439" lon="5.31917">
        <ele>226.6</ele>
        <time>2021-06-14T12:29:46Z</time>
      </trkpt>
      <trkpt lat="46.50439" lon="5.31906">
        <ele>226.4</ele>
        <time>2021-06-14T12:29:47Z</time>
      </trkpt>
      <trkpt lat="46.50439" lon="5.31885">
        <ele>226.2</ele>
        <time>2021-06-14T12:29:49Z</time>
      </trkpt>
      <trkpt lat="46.50437" lon="5.31864">
        <ele>226</ele>
        <time>2021-06-14T12:29:51Z</time>
      </trkpt>
      <trkpt lat="46.50435" lon="5.31853">
        <ele>226</ele>
        <time>2021-06-14T12:29:52Z</time>
      </trkpt>
      <trkpt lat="46.50434" lon="5.31843">
        <ele>226</ele>
        <time>2021-06-14T12:29:53Z</time>
      </trkpt>
      <trkpt lat="46.50429" lon="5.31823">
        <ele>226</ele>
        <time>2021-06-14T12:29:55Z</time>
      </trkpt>
      <trkpt lat="46.50425" lon="5.31802">
        <ele>226</ele>
        <time>2021-06-14T12:29:57Z</time>
      </trkpt>
      <trkpt lat="46.5042" lon="5.31783">
        <ele>226</ele>
        <time>2021-06-14T12:29:59Z</time>
      </trkpt>
      <trkpt lat="46.50417" lon="5.31773">
        <ele>226</ele>
        <time>2021-06-14T12:30:00Z</time>
      </trkpt>
      <trkpt lat="46.50414" lon="5.31763">
        <ele>226</ele>
        <time>2021-06-14T12:30:01Z</time>
      </trkpt>
      <trkpt lat="46.50408" lon="5.31744">
        <ele>226.2</ele>
        <time>2021-06-14T12:30:03Z</time>
      </trkpt>
      <trkpt lat="46.50401" lon="5.31725">
        <ele>226.2</ele>
        <time>2021-06-14T12:30:05Z</time>
      </trkpt>
      <trkpt lat="46.50392" lon="5.31708">
        <ele>226.2</ele>
        <time>2021-06-14T12:30:07Z</time>
      </trkpt>
      <trkpt lat="46.50383" lon="5.31691">
        <ele>226.2</ele>
        <time>2021-06-14T12:30:09Z</time>
      </trkpt>
      <trkpt lat="46.50374" lon="5.31674">
        <ele>226</ele>
        <time>2021-06-14T12:30:11Z</time>
      </trkpt>
      <trkpt lat="46.50362" lon="5.31659">
        <ele>226</ele>
        <time>2021-06-14T12:30:13Z</time>
      </trkpt>
      <trkpt lat="46.50349" lon="5.31647">
        <ele>226</ele>
        <time>2021-06-14T12:30:15Z</time>
      </trkpt>
      <trkpt lat="46.50335" lon="5.31636">
        <ele>225.6</ele>
        <time>2021-06-14T12:30:17Z</time>
      </trkpt>
      <trkpt lat="46.50328" lon="5.31631">
        <ele>225.6</ele>
        <time>2021-06-14T12:30:18Z</time>
      </trkpt>
      <trkpt lat="46.50322" lon="5.31626">
        <ele>225.4</ele>
        <time>2021-06-14T12:30:19Z</time>
      </trkpt>
      <trkpt lat="46.50308" lon="5.31615">
        <ele>225.4</ele>
        <time>2021-06-14T12:30:21Z</time>
      </trkpt>
      <trkpt lat="46.50295" lon="5.31606">
        <ele>225.2</ele>
        <time>2021-06-14T12:30:23Z</time>
      </trkpt>
      <trkpt lat="46.50282" lon="5.31595">
        <ele>225</ele>
        <time>2021-06-14T12:30:25Z</time>
      </trkpt>
      <trkpt lat="46.5027" lon="5.31584">
        <ele>225</ele>
        <time>2021-06-14T12:30:27Z</time>
      </trkpt>
      <trkpt lat="46.50257" lon="5.31572">
        <ele>225</ele>
        <time>2021-06-14T12:30:29Z</time>
      </trkpt>
      <trkpt lat="46.50246" lon="5.31559">
        <ele>225</ele>
        <time>2021-06-14T12:30:31Z</time>
      </trkpt>
      <trkpt lat="46.50235" lon="5.31544">
        <ele>225.2</ele>
        <time>2021-06-14T12:30:33Z</time>
      </trkpt>
      <trkpt lat="46.50226" lon="5.31529">
        <ele>225.4</ele>
        <time>2021-06-14T12:30:35Z</time>
      </trkpt>
      <trkpt lat="46.50218" lon="5.31514">
        <ele>225.6</ele>
        <time>2021-06-14T12:30:37Z</time>
      </trkpt>
      <trkpt lat="46.50212" lon="5.31499">
        <ele>225.8</ele>
        <time>2021-06-14T12:30:39Z</time>
      </trkpt>
      <trkpt lat="46.50207" lon="5.31485">
        <ele>225.8</ele>
        <time>2021-06-14T12:30:41Z</time>
      </trkpt>
      <trkpt lat="46.50202" lon="5.31471">
        <ele>226</ele>
        <time>2021-06-14T12:30:43Z</time>
      </trkpt>
      <trkpt lat="46.50202" lon="5.31471">
        <ele>226.4</ele>
        <time>2021-06-14T12:30:44Z</time>
      </trkpt>
      <trkpt lat="46.50198" lon="5.31458">
        <ele>226.4</ele>
        <time>2021-06-14T12:30:45Z</time>
      </trkpt>
      <trkpt lat="46.50196" lon="5.31451">
        <ele>226.8</ele>
        <time>2021-06-14T12:30:46Z</time>
      </trkpt>
      <trkpt lat="46.50193" lon="5.31445">
        <ele>227.4</ele>
        <time>2021-06-14T12:30:47Z</time>
      </trkpt>
      <trkpt lat="46.50191" lon="5.31439">
        <ele>227.6</ele>
        <time>2021-06-14T12:30:48Z</time>
      </trkpt>
      <trkpt lat="46.50189" lon="5.31433">
        <ele>228</ele>
        <time>2021-06-14T12:30:49Z</time>
      </trkpt>
      <trkpt lat="46.50185" lon="5.31421">
        <ele>228.6</ele>
        <time>2021-06-14T12:30:51Z</time>
      </trkpt>
      <trkpt lat="46.50181" lon="5.31409">
        <ele>229</ele>
        <time>2021-06-14T12:30:53Z</time>
      </trkpt>
      <trkpt lat="46.50177" lon="5.31397">
        <ele>229.8</ele>
        <time>2021-06-14T12:30:55Z</time>
      </trkpt>
      <trkpt lat="46.50173" lon="5.31385">
        <ele>230.2</ele>
        <time>2021-06-14T12:30:57Z</time>
      </trkpt>
      <trkpt lat="46.50169" lon="5.31373">
        <ele>230.6</ele>
        <time>2021-06-14T12:30:59Z</time>
      </trkpt>
      <trkpt lat="46.50165" lon="5.31361">
        <ele>231.2</ele>
        <time>2021-06-14T12:31:01Z</time>
      </trkpt>
      <trkpt lat="46.50161" lon="5.31349">
        <ele>231.6</ele>
        <time>2021-06-14T12:31:03Z</time>
      </trkpt>
      <trkpt lat="46.50158" lon="5.31337">
        <ele>232</ele>
        <time>2021-06-14T12:31:05Z</time>
      </trkpt>
      <trkpt lat="46.50154" lon="5.31325">
        <ele>232.2</ele>
        <time>2021-06-14T12:31:07Z</time>
      </trkpt>
      <trkpt lat="46.50149" lon="5.31312">
        <ele>232.6</ele>
        <time>2021-06-14T12:31:09Z</time>
      </trkpt>
      <trkpt lat="46.50145" lon="5.31299">
        <ele>232.6</ele>
        <time>2021-06-14T12:31:11Z</time>
      </trkpt>
      <trkpt lat="46.5014" lon="5.31285">
        <ele>232.8</ele>
        <time>2021-06-14T12:31:13Z</time>
      </trkpt>
      <trkpt lat="46.50135" lon="5.31272">
        <ele>233</ele>
        <time>2021-06-14T12:31:15Z</time>
      </trkpt>
      <trkpt lat="46.50131" lon="5.31257">
        <ele>233.2</ele>
        <time>2021-06-14T12:31:17Z</time>
      </trkpt>
      <trkpt lat="46.50125" lon="5.31242">
        <ele>233.2</ele>
        <time>2021-06-14T12:31:19Z</time>
      </trkpt>
      <trkpt lat="46.5012" lon="5.31225">
        <ele>233.2</ele>
        <time>2021-06-14T12:31:21Z</time>
      </trkpt>
      <trkpt lat="46.50114" lon="5.31208">
        <ele>233.2</ele>
        <time>2021-06-14T12:31:23Z</time>
      </trkpt>
      <trkpt lat="46.50108" lon="5.3119">
        <ele>233.2</ele>
        <time>2021-06-14T12:31:25Z</time>
      </trkpt>
      <trkpt lat="46.50102" lon="5.31171">
        <ele>233</ele>
        <time>2021-06-14T12:31:27Z</time>
      </trkpt>
      <trkpt lat="46.50095" lon="5.31151">
        <ele>232.4</ele>
        <time>2021-06-14T12:31:29Z</time>
      </trkpt>
      <trkpt lat="46.50088" lon="5.31132">
        <ele>232.2</ele>
        <time>2021-06-14T12:31:31Z</time>
      </trkpt>
      <trkpt lat="46.50081" lon="5.31112">
        <ele>231.8</ele>
        <time>2021-06-14T12:31:33Z</time>
      </trkpt>
      <trkpt lat="46.50075" lon="5.31094">
        <ele>231.4</ele>
        <time>2021-06-14T12:31:35Z</time>
      </trkpt>
      <trkpt lat="46.50069" lon="5.31077">
        <ele>231.2</ele>
        <time>2021-06-14T12:31:37Z</time>
      </trkpt>
      <trkpt lat="46.50064" lon="5.31061">
        <ele>231.2</ele>
        <time>2021-06-14T12:31:39Z</time>
      </trkpt>
      <trkpt lat="46.50059" lon="5.31047">
        <ele>231.2</ele>
        <time>2021-06-14T12:31:41Z</time>
      </trkpt>
      <trkpt lat="46.50056" lon="5.3104">
        <ele>231.2</ele>
        <time>2021-06-14T12:31:42Z</time>
      </trkpt>
      <trkpt lat="46.50054" lon="5.31033">
        <ele>231.2</ele>
        <time>2021-06-14T12:31:43Z</time>
      </trkpt>
      <trkpt lat="46.5005" lon="5.3102">
        <ele>231.6</ele>
        <time>2021-06-14T12:31:45Z</time>
      </trkpt>
      <trkpt lat="46.50046" lon="5.31008">
        <ele>232.2</ele>
        <time>2021-06-14T12:31:47Z</time>
      </trkpt>
      <trkpt lat="46.50044" lon="5.31003">
        <ele>232.6</ele>
        <time>2021-06-14T12:31:48Z</time>
      </trkpt>
      <trkpt lat="46.50042" lon="5.30996">
        <ele>233</ele>
        <time>2021-06-14T12:31:49Z</time>
      </trkpt>
      <trkpt lat="46.50042" lon="5.30996">
        <ele>233.2</ele>
        <time>2021-06-14T12:31:50Z</time>
      </trkpt>
      <trkpt lat="46.50038" lon="5.30985">
        <ele>233.4</ele>
        <time>2021-06-14T12:31:51Z</time>
      </trkpt>
      <trkpt lat="46.50036" lon="5.30979">
        <ele>233.8</ele>
        <time>2021-06-14T12:31:52Z</time>
      </trkpt>
      <trkpt lat="46.50034" lon="5.30974">
        <ele>233.8</ele>
        <time>2021-06-14T12:31:53Z</time>
      </trkpt>
      <trkpt lat="46.5003" lon="5.30963">
        <ele>234.4</ele>
        <time>2021-06-14T12:31:55Z</time>
      </trkpt>
      <trkpt lat="46.50027" lon="5.30953">
        <ele>235</ele>
        <time>2021-06-14T12:31:57Z</time>
      </trkpt>
      <trkpt lat="46.50023" lon="5.30942">
        <ele>235.6</ele>
        <time>2021-06-14T12:31:59Z</time>
      </trkpt>
      <trkpt lat="46.50019" lon="5.30932">
        <ele>236</ele>
        <time>2021-06-14T12:32:01Z</time>
      </trkpt>
      <trkpt lat="46.50017" lon="5.30927">
        <ele>236.6</ele>
        <time>2021-06-14T12:32:03Z</time>
      </trkpt>
      <trkpt lat="46.50011" lon="5.30912">
        <ele>237</ele>
        <time>2021-06-14T12:32:05Z</time>
      </trkpt>
      <trkpt lat="46.5001" lon="5.30907">
        <ele>237</ele>
        <time>2021-06-14T12:32:06Z</time>
      </trkpt>
      <trkpt lat="46.50008" lon="5.30902">
        <ele>237.2</ele>
        <time>2021-06-14T12:32:07Z</time>
      </trkpt>
      <trkpt lat="46.50008" lon="5.30902">
        <ele>237.4</ele>
        <time>2021-06-14T12:32:08Z</time>
      </trkpt>
      <trkpt lat="46.50004" lon="5.30892">
        <ele>238.2</ele>
        <time>2021-06-14T12:32:09Z</time>
      </trkpt>
      <trkpt lat="46.5" lon="5.30882">
        <ele>238.6</ele>
        <time>2021-06-14T12:32:11Z</time>
      </trkpt>
      <trkpt lat="46.49997" lon="5.30872">
        <ele>239.2</ele>
        <time>2021-06-14T12:32:13Z</time>
      </trkpt>
      <trkpt lat="46.49997" lon="5.30872">
        <ele>239.2</ele>
        <time>2021-06-14T12:32:14Z</time>
      </trkpt>
      <trkpt lat="46.49993" lon="5.30862">
        <ele>239.6</ele>
        <time>2021-06-14T12:32:15Z</time>
      </trkpt>
      <trkpt lat="46.49989" lon="5.30852">
        <ele>240.2</ele>
        <time>2021-06-14T12:32:17Z</time>
      </trkpt>
      <trkpt lat="46.49987" lon="5.30846">
        <ele>240.2</ele>
        <time>2021-06-14T12:32:18Z</time>
      </trkpt>
      <trkpt lat="46.49985" lon="5.30841">
        <ele>240.4</ele>
        <time>2021-06-14T12:32:19Z</time>
      </trkpt>
      <trkpt lat="46.49981" lon="5.3083">
        <ele>240.6</ele>
        <time>2021-06-14T12:32:21Z</time>
      </trkpt>
      <trkpt lat="46.49977" lon="5.30819">
        <ele>240.8</ele>
        <time>2021-06-14T12:32:23Z</time>
      </trkpt>
      <trkpt lat="46.49974" lon="5.30806">
        <ele>241</ele>
        <time>2021-06-14T12:32:25Z</time>
      </trkpt>
      <trkpt lat="46.49971" lon="5.30794">
        <ele>241.2</ele>
        <time>2021-06-14T12:32:27Z</time>
      </trkpt>
      <trkpt lat="46.4997" lon="5.30788">
        <ele>241.4</ele>
        <time>2021-06-14T12:32:28Z</time>
      </trkpt>
      <trkpt lat="46.49968" lon="5.30782">
        <ele>241.6</ele>
        <time>2021-06-14T12:32:29Z</time>
      </trkpt>
      <trkpt lat="46.49966" lon="5.30769">
        <ele>241.6</ele>
        <time>2021-06-14T12:32:31Z</time>
      </trkpt>
      <trkpt lat="46.49964" lon="5.30756">
        <ele>241.8</ele>
        <time>2021-06-14T12:32:33Z</time>
      </trkpt>
      <trkpt lat="46.49961" lon="5.30744">
        <ele>242.2</ele>
        <time>2021-06-14T12:32:35Z</time>
      </trkpt>
      <trkpt lat="46.49959" lon="5.3073">
        <ele>242.6</ele>
        <time>2021-06-14T12:32:37Z</time>
      </trkpt>
      <trkpt lat="46.49956" lon="5.30716">
        <ele>242.8</ele>
        <time>2021-06-14T12:32:39Z</time>
      </trkpt>
      <trkpt lat="46.49953" lon="5.30701">
        <ele>242.8</ele>
        <time>2021-06-14T12:32:41Z</time>
      </trkpt>
      <trkpt lat="46.4995" lon="5.30684">
        <ele>242.8</ele>
        <time>2021-06-14T12:32:43Z</time>
      </trkpt>
      <trkpt lat="46.49947" lon="5.30667">
        <ele>242.8</ele>
        <time>2021-06-14T12:32:45Z</time>
      </trkpt>
      <trkpt lat="46.49944" lon="5.30648">
        <ele>242.8</ele>
        <time>2021-06-14T12:32:47Z</time>
      </trkpt>
      <trkpt lat="46.49942" lon="5.30639">
        <ele>242.8</ele>
        <time>2021-06-14T12:32:48Z</time>
      </trkpt>
      <trkpt lat="46.4994" lon="5.30629">
        <ele>242.8</ele>
        <time>2021-06-14T12:32:49Z</time>
      </trkpt>
      <trkpt lat="46.49937" lon="5.30609">
        <ele>242.6</ele>
        <time>2021-06-14T12:32:51Z</time>
      </trkpt>
      <trkpt lat="46.49935" lon="5.30588">
        <ele>242.2</ele>
        <time>2021-06-14T12:32:53Z</time>
      </trkpt>
      <trkpt lat="46.49935" lon="5.30566">
        <ele>241.6</ele>
        <time>2021-06-14T12:32:55Z</time>
      </trkpt>
      <trkpt lat="46.49935" lon="5.30566">
        <ele>241.4</ele>
        <time>2021-06-14T12:32:56Z</time>
      </trkpt>
      <trkpt lat="46.49936" lon="5.30545">
        <ele>241.2</ele>
        <time>2021-06-14T12:32:57Z</time>
      </trkpt>
      <trkpt lat="46.4994" lon="5.30524">
        <ele>240.4</ele>
        <time>2021-06-14T12:32:59Z</time>
      </trkpt>
      <trkpt lat="46.49942" lon="5.30514">
        <ele>239.8</ele>
        <time>2021-06-14T12:33:00Z</time>
      </trkpt>
      <trkpt lat="46.49945" lon="5.30503">
        <ele>239.2</ele>
        <time>2021-06-14T12:33:01Z</time>
      </trkpt>
      <trkpt lat="46.49945" lon="5.30503">
        <ele>238.4</ele>
        <time>2021-06-14T12:33:02Z</time>
      </trkpt>
      <trkpt lat="46.49953" lon="5.30483">
        <ele>238</ele>
        <time>2021-06-14T12:33:03Z</time>
      </trkpt>
      <trkpt lat="46.49963" lon="5.30465">
        <ele>237.2</ele>
        <time>2021-06-14T12:33:05Z</time>
      </trkpt>
      <trkpt lat="46.49969" lon="5.30456">
        <ele>236.8</ele>
        <time>2021-06-14T12:33:07Z</time>
      </trkpt>
      <trkpt lat="46.49975" lon="5.30448">
        <ele>236.6</ele>
        <time>2021-06-14T12:33:08Z</time>
      </trkpt>
      <trkpt lat="46.49982" lon="5.30442">
        <ele>236.4</ele>
        <time>2021-06-14T12:33:09Z</time>
      </trkpt>
      <trkpt lat="46.49997" lon="5.30429">
        <ele>236.2</ele>
        <time>2021-06-14T12:33:10Z</time>
      </trkpt>
      <trkpt lat="46.50005" lon="5.30424">
        <ele>236</ele>
        <time>2021-06-14T12:33:11Z</time>
      </trkpt>
      <trkpt lat="46.5002" lon="5.30412">
        <ele>235.6</ele>
        <time>2021-06-14T12:33:13Z</time>
      </trkpt>
      <trkpt lat="46.50035" lon="5.30401">
        <ele>234.6</ele>
        <time>2021-06-14T12:33:15Z</time>
      </trkpt>
      <trkpt lat="46.50041" lon="5.30394">
        <ele>234.2</ele>
        <time>2021-06-14T12:33:16Z</time>
      </trkpt>
      <trkpt lat="46.50048" lon="5.30386">
        <ele>233.8</ele>
        <time>2021-06-14T12:33:17Z</time>
      </trkpt>
      <trkpt lat="46.50059" lon="5.30371">
        <ele>233.4</ele>
        <time>2021-06-14T12:33:19Z</time>
      </trkpt>
      <trkpt lat="46.50069" lon="5.30354">
        <ele>233.4</ele>
        <time>2021-06-14T12:33:21Z</time>
      </trkpt>
      <trkpt lat="46.50073" lon="5.30345">
        <ele>233.2</ele>
        <time>2021-06-14T12:33:22Z</time>
      </trkpt>
      <trkpt lat="46.50076" lon="5.30336">
        <ele>233.2</ele>
        <time>2021-06-14T12:33:23Z</time>
      </trkpt>
      <trkpt lat="46.50079" lon="5.30327">
        <ele>233.2</ele>
        <time>2021-06-14T12:33:25Z</time>
      </trkpt>
      <trkpt lat="46.50085" lon="5.303">
        <ele>233.2</ele>
        <time>2021-06-14T12:33:27Z</time>
      </trkpt>
      <trkpt lat="46.50088" lon="5.30282">
        <ele>233.6</ele>
        <time>2021-06-14T12:33:29Z</time>
      </trkpt>
      <trkpt lat="46.50089" lon="5.30264">
        <ele>234.2</ele>
        <time>2021-06-14T12:33:31Z</time>
      </trkpt>
      <trkpt lat="46.5009" lon="5.30246">
        <ele>234.8</ele>
        <time>2021-06-14T12:33:33Z</time>
      </trkpt>
      <trkpt lat="46.5009" lon="5.30237">
        <ele>235.2</ele>
        <time>2021-06-14T12:33:34Z</time>
      </trkpt>
      <trkpt lat="46.5009" lon="5.30228">
        <ele>235.6</ele>
        <time>2021-06-14T12:33:35Z</time>
      </trkpt>
      <trkpt lat="46.5009" lon="5.30209">
        <ele>236</ele>
        <time>2021-06-14T12:33:37Z</time>
      </trkpt>
      <trkpt lat="46.5009" lon="5.30191">
        <ele>236.2</ele>
        <time>2021-06-14T12:33:39Z</time>
      </trkpt>
      <trkpt lat="46.5009" lon="5.30171">
        <ele>236.4</ele>
        <time>2021-06-14T12:33:41Z</time>
      </trkpt>
      <trkpt lat="46.50091" lon="5.30153">
        <ele>236.6</ele>
        <time>2021-06-14T12:33:43Z</time>
      </trkpt>
      <trkpt lat="46.50091" lon="5.30136">
        <ele>236.8</ele>
        <time>2021-06-14T12:33:45Z</time>
      </trkpt>
      <trkpt lat="46.50091" lon="5.30118">
        <ele>237</ele>
        <time>2021-06-14T12:33:47Z</time>
      </trkpt>
      <trkpt lat="46.50091" lon="5.3011">
        <ele>237.2</ele>
        <time>2021-06-14T12:33:48Z</time>
      </trkpt>
      <trkpt lat="46.50092" lon="5.30101">
        <ele>237.2</ele>
        <time>2021-06-14T12:33:49Z</time>
      </trkpt>
      <trkpt lat="46.50092" lon="5.30101">
        <ele>237.2</ele>
        <time>2021-06-14T12:33:50Z</time>
      </trkpt>
      <trkpt lat="46.50091" lon="5.30084">
        <ele>237.4</ele>
        <time>2021-06-14T12:33:51Z</time>
      </trkpt>
      <trkpt lat="46.50091" lon="5.30066">
        <ele>237.6</ele>
        <time>2021-06-14T12:33:53Z</time>
      </trkpt>
      <trkpt lat="46.50091" lon="5.30049">
        <ele>237.6</ele>
        <time>2021-06-14T12:33:55Z</time>
      </trkpt>
      <trkpt lat="46.50091" lon="5.30031">
        <ele>237.8</ele>
        <time>2021-06-14T12:33:57Z</time>
      </trkpt>
      <trkpt lat="46.50089" lon="5.30013">
        <ele>237.8</ele>
        <time>2021-06-14T12:33:59Z</time>
      </trkpt>
      <trkpt lat="46.50087" lon="5.29996">
        <ele>238</ele>
        <time>2021-06-14T12:34:01Z</time>
      </trkpt>
      <trkpt lat="46.50084" lon="5.29978">
        <ele>238</ele>
        <time>2021-06-14T12:34:03Z</time>
      </trkpt>
      <trkpt lat="46.5008" lon="5.29961">
        <ele>238</ele>
        <time>2021-06-14T12:34:05Z</time>
      </trkpt>
      <trkpt lat="46.50077" lon="5.29952">
        <ele>238</ele>
        <time>2021-06-14T12:34:06Z</time>
      </trkpt>
      <trkpt lat="46.50074" lon="5.29944">
        <ele>238</ele>
        <time>2021-06-14T12:34:07Z</time>
      </trkpt>
      <trkpt lat="46.50067" lon="5.29928">
        <ele>238</ele>
        <time>2021-06-14T12:34:09Z</time>
      </trkpt>
      <trkpt lat="46.50059" lon="5.29913">
        <ele>238</ele>
        <time>2021-06-14T12:34:11Z</time>
      </trkpt>
      <trkpt lat="46.50055" lon="5.29906">
        <ele>238</ele>
        <time>2021-06-14T12:34:12Z</time>
      </trkpt>
      <trkpt lat="46.50051" lon="5.29899">
        <ele>237.8</ele>
        <time>2021-06-14T12:34:13Z</time>
      </trkpt>
      <trkpt lat="46.50041" lon="5.29887">
        <ele>237.6</ele>
        <time>2021-06-14T12:34:15Z</time>
      </trkpt>
      <trkpt lat="46.5003" lon="5.29877">
        <ele>237.2</ele>
        <time>2021-06-14T12:34:17Z</time>
      </trkpt>
      <trkpt lat="46.50025" lon="5.29871">
        <ele>237.2</ele>
        <time>2021-06-14T12:34:18Z</time>
      </trkpt>
      <trkpt lat="46.50022" lon="5.29864">
        <ele>236.8</ele>
        <time>2021-06-14T12:34:19Z</time>
      </trkpt>
      <trkpt lat="46.50022" lon="5.29864">
        <ele>236.6</ele>
        <time>2021-06-14T12:34:20Z</time>
      </trkpt>
      <trkpt lat="46.50024" lon="5.29849">
        <ele>236.6</ele>
        <time>2021-06-14T12:34:21Z</time>
      </trkpt>
      <trkpt lat="46.50028" lon="5.29841">
        <ele>236.4</ele>
        <time>2021-06-14T12:34:22Z</time>
      </trkpt>
      <trkpt lat="46.50032" lon="5.29835">
        <ele>236.4</ele>
        <time>2021-06-14T12:34:23Z</time>
      </trkpt>
      <trkpt lat="46.50042" lon="5.29821">
        <ele>236.4</ele>
        <time>2021-06-14T12:34:25Z</time>
      </trkpt>
      <trkpt lat="46.50052" lon="5.2981">
        <ele>236.2</ele>
        <time>2021-06-14T12:34:27Z</time>
      </trkpt>
      <trkpt lat="46.50058" lon="5.29805">
        <ele>236.2</ele>
        <time>2021-06-14T12:34:28Z</time>
      </trkpt>
      <trkpt lat="46.50065" lon="5.29802">
        <ele>236.2</ele>
        <time>2021-06-14T12:34:29Z</time>
      </trkpt>
      <trkpt lat="46.50078" lon="5.29797">
        <ele>236.2</ele>
        <time>2021-06-14T12:34:31Z</time>
      </trkpt>
      <trkpt lat="46.50089" lon="5.29793">
        <ele>236.2</ele>
        <time>2021-06-14T12:34:33Z</time>
      </trkpt>
      <trkpt lat="46.50095" lon="5.2979">
        <ele>236.2</ele>
        <time>2021-06-14T12:34:34Z</time>
      </trkpt>
      <trkpt lat="46.501" lon="5.29789">
        <ele>236.2</ele>
        <time>2021-06-14T12:34:35Z</time>
      </trkpt>
      <trkpt lat="46.50111" lon="5.29785">
        <ele>236.6</ele>
        <time>2021-06-14T12:34:37Z</time>
      </trkpt>
      <trkpt lat="46.50122" lon="5.29782">
        <ele>237</ele>
        <time>2021-06-14T12:34:39Z</time>
      </trkpt>
      <trkpt lat="46.50132" lon="5.29779">
        <ele>237.2</ele>
        <time>2021-06-14T12:34:41Z</time>
      </trkpt>
      <trkpt lat="46.50136" lon="5.29778">
        <ele>237.4</ele>
        <time>2021-06-14T12:34:42Z</time>
      </trkpt>
      <trkpt lat="46.50141" lon="5.29778">
        <ele>237.6</ele>
        <time>2021-06-14T12:34:43Z</time>
      </trkpt>
      <trkpt lat="46.50151" lon="5.29776">
        <ele>238.4</ele>
        <time>2021-06-14T12:34:45Z</time>
      </trkpt>
      <trkpt lat="46.50155" lon="5.29774">
        <ele>238.6</ele>
        <time>2021-06-14T12:34:46Z</time>
      </trkpt>
      <trkpt lat="46.5016" lon="5.29773">
        <ele>238.8</ele>
        <time>2021-06-14T12:34:47Z</time>
      </trkpt>
      <trkpt lat="46.5017" lon="5.29772">
        <ele>239.4</ele>
        <time>2021-06-14T12:34:49Z</time>
      </trkpt>
      <trkpt lat="46.50179" lon="5.29772">
        <ele>239.8</ele>
        <time>2021-06-14T12:34:51Z</time>
      </trkpt>
      <trkpt lat="46.50189" lon="5.29772">
        <ele>240.4</ele>
        <time>2021-06-14T12:34:53Z</time>
      </trkpt>
      <trkpt lat="46.50195" lon="5.29773">
        <ele>240.8</ele>
        <time>2021-06-14T12:34:54Z</time>
      </trkpt>
      <trkpt lat="46.502" lon="5.29773">
        <ele>241.2</ele>
        <time>2021-06-14T12:34:55Z</time>
      </trkpt>
      <trkpt lat="46.502" lon="5.29773">
        <ele>241.4</ele>
        <time>2021-06-14T12:34:56Z</time>
      </trkpt>
      <trkpt lat="46.50211" lon="5.29774">
        <ele>241.6</ele>
        <time>2021-06-14T12:34:57Z</time>
      </trkpt>
      <trkpt lat="46.50222" lon="5.29775">
        <ele>241.8</ele>
        <time>2021-06-14T12:34:59Z</time>
      </trkpt>
      <trkpt lat="46.50233" lon="5.29774">
        <ele>241.8</ele>
        <time>2021-06-14T12:35:01Z</time>
      </trkpt>
      <trkpt lat="46.50244" lon="5.29772">
        <ele>241.8</ele>
        <time>2021-06-14T12:35:03Z</time>
      </trkpt>
      <trkpt lat="46.5025" lon="5.29771">
        <ele>241.8</ele>
        <time>2021-06-14T12:35:04Z</time>
      </trkpt>
      <trkpt lat="46.50256" lon="5.2977">
        <ele>241.8</ele>
        <time>2021-06-14T12:35:05Z</time>
      </trkpt>
      <trkpt lat="46.50267" lon="5.29766">
        <ele>241.8</ele>
        <time>2021-06-14T12:35:07Z</time>
      </trkpt>
      <trkpt lat="46.50278" lon="5.29761">
        <ele>241.8</ele>
        <time>2021-06-14T12:35:09Z</time>
      </trkpt>
      <trkpt lat="46.50288" lon="5.29757">
        <ele>241.8</ele>
        <time>2021-06-14T12:35:11Z</time>
      </trkpt>
      <trkpt lat="46.50294" lon="5.29754">
        <ele>241.8</ele>
        <time>2021-06-14T12:35:12Z</time>
      </trkpt>
      <trkpt lat="46.50299" lon="5.29752">
        <ele>241.8</ele>
        <time>2021-06-14T12:35:13Z</time>
      </trkpt>
      <trkpt lat="46.5031" lon="5.29748">
        <ele>242</ele>
        <time>2021-06-14T12:35:15Z</time>
      </trkpt>
      <trkpt lat="46.5032" lon="5.29744">
        <ele>242</ele>
        <time>2021-06-14T12:35:17Z</time>
      </trkpt>
      <trkpt lat="46.50331" lon="5.29739">
        <ele>242.2</ele>
        <time>2021-06-14T12:35:19Z</time>
      </trkpt>
      <trkpt lat="46.50342" lon="5.29735">
        <ele>242.4</ele>
        <time>2021-06-14T12:35:21Z</time>
      </trkpt>
      <trkpt lat="46.50352" lon="5.29731">
        <ele>242.4</ele>
        <time>2021-06-14T12:35:23Z</time>
      </trkpt>
      <trkpt lat="46.50357" lon="5.29728">
        <ele>242.6</ele>
        <time>2021-06-14T12:35:24Z</time>
      </trkpt>
      <trkpt lat="46.50363" lon="5.29726">
        <ele>242.6</ele>
        <time>2021-06-14T12:35:25Z</time>
      </trkpt>
      <trkpt lat="46.50373" lon="5.29721">
        <ele>242.6</ele>
        <time>2021-06-14T12:35:27Z</time>
      </trkpt>
      <trkpt lat="46.50384" lon="5.29715">
        <ele>242.8</ele>
        <time>2021-06-14T12:35:29Z</time>
      </trkpt>
      <trkpt lat="46.50395" lon="5.29708">
        <ele>242.8</ele>
        <time>2021-06-14T12:35:31Z</time>
      </trkpt>
      <trkpt lat="46.50407" lon="5.297">
        <ele>242.8</ele>
        <time>2021-06-14T12:35:33Z</time>
      </trkpt>
      <trkpt lat="46.50412" lon="5.29697">
        <ele>242.8</ele>
        <time>2021-06-14T12:35:34Z</time>
      </trkpt>
      <trkpt lat="46.50418" lon="5.29693">
        <ele>242.8</ele>
        <time>2021-06-14T12:35:35Z</time>
      </trkpt>
      <trkpt lat="46.5043" lon="5.29685">
        <ele>242.8</ele>
        <time>2021-06-14T12:35:37Z</time>
      </trkpt>
      <trkpt lat="46.50441" lon="5.29677">
        <ele>242.6</ele>
        <time>2021-06-14T12:35:39Z</time>
      </trkpt>
      <trkpt lat="46.50453" lon="5.29669">
        <ele>242.6</ele>
        <time>2021-06-14T12:35:41Z</time>
      </trkpt>
      <trkpt lat="46.50464" lon="5.29661">
        <ele>242.6</ele>
        <time>2021-06-14T12:35:43Z</time>
      </trkpt>
      <trkpt lat="46.50476" lon="5.29653">
        <ele>242.6</ele>
        <time>2021-06-14T12:35:45Z</time>
      </trkpt>
      <trkpt lat="46.50487" lon="5.29645">
        <ele>242.4</ele>
        <time>2021-06-14T12:35:47Z</time>
      </trkpt>
      <trkpt lat="46.50499" lon="5.29637">
        <ele>242.2</ele>
        <time>2021-06-14T12:35:49Z</time>
      </trkpt>
      <trkpt lat="46.5051" lon="5.2963">
        <ele>242.2</ele>
        <time>2021-06-14T12:35:51Z</time>
      </trkpt>
      <trkpt lat="46.50516" lon="5.29626">
        <ele>242.2</ele>
        <time>2021-06-14T12:35:53Z</time>
      </trkpt>
      <trkpt lat="46.50533" lon="5.29614">
        <ele>242</ele>
        <time>2021-06-14T12:35:55Z</time>
      </trkpt>
      <trkpt lat="46.50544" lon="5.29606">
        <ele>242</ele>
        <time>2021-06-14T12:35:57Z</time>
      </trkpt>
      <trkpt lat="46.50555" lon="5.29597">
        <ele>242</ele>
        <time>2021-06-14T12:35:59Z</time>
      </trkpt>
      <trkpt lat="46.50566" lon="5.29588">
        <ele>241.8</ele>
        <time>2021-06-14T12:36:01Z</time>
      </trkpt>
      <trkpt lat="46.50577" lon="5.29579">
        <ele>241.8</ele>
        <time>2021-06-14T12:36:03Z</time>
      </trkpt>
      <trkpt lat="46.50588" lon="5.29571">
        <ele>241.8</ele>
        <time>2021-06-14T12:36:05Z</time>
      </trkpt>
      <trkpt lat="46.50594" lon="5.29566">
        <ele>241.8</ele>
        <time>2021-06-14T12:36:06Z</time>
      </trkpt>
      <trkpt lat="46.50599" lon="5.29562">
        <ele>241.8</ele>
        <time>2021-06-14T12:36:07Z</time>
      </trkpt>
      <trkpt lat="46.50611" lon="5.29554">
        <ele>241.8</ele>
        <time>2021-06-14T12:36:09Z</time>
      </trkpt>
      <trkpt lat="46.50622" lon="5.29545">
        <ele>241.8</ele>
        <time>2021-06-14T12:36:11Z</time>
      </trkpt>
      <trkpt lat="46.50633" lon="5.29537">
        <ele>241.8</ele>
        <time>2021-06-14T12:36:13Z</time>
      </trkpt>
      <trkpt lat="46.50646" lon="5.29531">
        <ele>241.6</ele>
        <time>2021-06-14T12:36:15Z</time>
      </trkpt>
      <trkpt lat="46.50659" lon="5.29529">
        <ele>241.6</ele>
        <time>2021-06-14T12:36:17Z</time>
      </trkpt>
      <trkpt lat="46.50673" lon="5.29531">
        <ele>241.6</ele>
        <time>2021-06-14T12:36:19Z</time>
      </trkpt>
      <trkpt lat="46.50673" lon="5.29531">
        <ele>241.6</ele>
        <time>2021-06-14T12:36:20Z</time>
      </trkpt>
      <trkpt lat="46.50687" lon="5.29536">
        <ele>241.4</ele>
        <time>2021-06-14T12:36:21Z</time>
      </trkpt>
      <trkpt lat="46.50701" lon="5.29542">
        <ele>241.2</ele>
        <time>2021-06-14T12:36:23Z</time>
      </trkpt>
      <trkpt lat="46.50708" lon="5.29545">
        <ele>240.8</ele>
        <time>2021-06-14T12:36:24Z</time>
      </trkpt>
      <trkpt lat="46.50715" lon="5.29549">
        <ele>240.6</ele>
        <time>2021-06-14T12:36:25Z</time>
      </trkpt>
      <trkpt lat="46.50715" lon="5.29549">
        <ele>240.4</ele>
        <time>2021-06-14T12:36:26Z</time>
      </trkpt>
      <trkpt lat="46.5073" lon="5.29556">
        <ele>240.2</ele>
        <time>2021-06-14T12:36:27Z</time>
      </trkpt>
      <trkpt lat="46.50745" lon="5.29562">
        <ele>239.6</ele>
        <time>2021-06-14T12:36:29Z</time>
      </trkpt>
      <trkpt lat="46.50761" lon="5.29566">
        <ele>239.2</ele>
        <time>2021-06-14T12:36:31Z</time>
      </trkpt>
      <trkpt lat="46.50761" lon="5.29566">
        <ele>239</ele>
        <time>2021-06-14T12:36:32Z</time>
      </trkpt>
      <trkpt lat="46.50778" lon="5.29569">
        <ele>238.6</ele>
        <time>2021-06-14T12:36:33Z</time>
      </trkpt>
      <trkpt lat="46.50786" lon="5.29569">
        <ele>238.4</ele>
        <time>2021-06-14T12:36:34Z</time>
      </trkpt>
      <trkpt lat="46.50795" lon="5.2957">
        <ele>238.2</ele>
        <time>2021-06-14T12:36:35Z</time>
      </trkpt>
      <trkpt lat="46.50813" lon="5.2957">
        <ele>237.6</ele>
        <time>2021-06-14T12:36:37Z</time>
      </trkpt>
      <trkpt lat="46.50813" lon="5.2957">
        <ele>237.4</ele>
        <time>2021-06-14T12:36:38Z</time>
      </trkpt>
      <trkpt lat="46.50831" lon="5.29572">
        <ele>237</ele>
        <time>2021-06-14T12:36:39Z</time>
      </trkpt>
      <trkpt lat="46.5085" lon="5.29573">
        <ele>236.2</ele>
        <time>2021-06-14T12:36:41Z</time>
      </trkpt>
      <trkpt lat="46.50868" lon="5.29575">
        <ele>235.6</ele>
        <time>2021-06-14T12:36:43Z</time>
      </trkpt>
      <trkpt lat="46.50887" lon="5.29576">
        <ele>234.4</ele>
        <time>2021-06-14T12:36:45Z</time>
      </trkpt>
      <trkpt lat="46.50897" lon="5.29575">
        <ele>233.4</ele>
        <time>2021-06-14T12:36:46Z</time>
      </trkpt>
      <trkpt lat="46.50906" lon="5.29572">
        <ele>232.8</ele>
        <time>2021-06-14T12:36:47Z</time>
      </trkpt>
      <trkpt lat="46.50925" lon="5.29563">
        <ele>231.4</ele>
        <time>2021-06-14T12:36:49Z</time>
      </trkpt>
      <trkpt lat="46.50925" lon="5.29563">
        <ele>230.8</ele>
        <time>2021-06-14T12:36:50Z</time>
      </trkpt>
      <trkpt lat="46.50944" lon="5.29549">
        <ele>230.6</ele>
        <time>2021-06-14T12:36:51Z</time>
      </trkpt>
      <trkpt lat="46.50963" lon="5.29534">
        <ele>230</ele>
        <time>2021-06-14T12:36:53Z</time>
      </trkpt>
      <trkpt lat="46.50982" lon="5.29518">
        <ele>228.6</ele>
        <time>2021-06-14T12:36:55Z</time>
      </trkpt>
      <trkpt lat="46.51002" lon="5.29503">
        <ele>227.2</ele>
        <time>2021-06-14T12:36:57Z</time>
      </trkpt>
      <trkpt lat="46.51011" lon="5.29495">
        <ele>226</ele>
        <time>2021-06-14T12:36:59Z</time>
      </trkpt>
      <trkpt lat="46.51041" lon="5.29473">
        <ele>224</ele>
        <time>2021-06-14T12:37:01Z</time>
      </trkpt>
      <trkpt lat="46.51061" lon="5.2946">
        <ele>222.4</ele>
        <time>2021-06-14T12:37:03Z</time>
      </trkpt>
      <trkpt lat="46.51071" lon="5.29454">
        <ele>221.8</ele>
        <time>2021-06-14T12:37:04Z</time>
      </trkpt>
      <trkpt lat="46.5108" lon="5.2945">
        <ele>221</ele>
        <time>2021-06-14T12:37:05Z</time>
      </trkpt>
      <trkpt lat="46.511" lon="5.29442">
        <ele>220</ele>
        <time>2021-06-14T12:37:07Z</time>
      </trkpt>
      <trkpt lat="46.511" lon="5.29442">
        <ele>219.6</ele>
        <time>2021-06-14T12:37:08Z</time>
      </trkpt>
      <trkpt lat="46.51119" lon="5.29437">
        <ele>219.4</ele>
        <time>2021-06-14T12:37:09Z</time>
      </trkpt>
      <trkpt lat="46.51137" lon="5.29431">
        <ele>218.8</ele>
        <time>2021-06-14T12:37:11Z</time>
      </trkpt>
      <trkpt lat="46.51155" lon="5.29426">
        <ele>218.8</ele>
        <time>2021-06-14T12:37:13Z</time>
      </trkpt>
      <trkpt lat="46.51155" lon="5.29426">
        <ele>218.6</ele>
        <time>2021-06-14T12:37:14Z</time>
      </trkpt>
      <trkpt lat="46.51173" lon="5.2942">
        <ele>218.4</ele>
        <time>2021-06-14T12:37:15Z</time>
      </trkpt>
      <trkpt lat="46.5119" lon="5.29416">
        <ele>218.4</ele>
        <time>2021-06-14T12:37:17Z</time>
      </trkpt>
      <trkpt lat="46.51207" lon="5.29411">
        <ele>218.4</ele>
        <time>2021-06-14T12:37:19Z</time>
      </trkpt>
      <trkpt lat="46.51224" lon="5.29407">
        <ele>218.4</ele>
        <time>2021-06-14T12:37:21Z</time>
      </trkpt>
      <trkpt lat="46.5124" lon="5.29403">
        <ele>218.4</ele>
        <time>2021-06-14T12:37:23Z</time>
      </trkpt>
      <trkpt lat="46.51256" lon="5.294">
        <ele>218.4</ele>
        <time>2021-06-14T12:37:25Z</time>
      </trkpt>
      <trkpt lat="46.51256" lon="5.294">
        <ele>218.4</ele>
        <time>2021-06-14T12:37:26Z</time>
      </trkpt>
      <trkpt lat="46.51272" lon="5.29396">
        <ele>218.2</ele>
        <time>2021-06-14T12:37:27Z</time>
      </trkpt>
      <trkpt lat="46.51287" lon="5.29389">
        <ele>218.2</ele>
        <time>2021-06-14T12:37:29Z</time>
      </trkpt>
      <trkpt lat="46.51301" lon="5.29381">
        <ele>218</ele>
        <time>2021-06-14T12:37:31Z</time>
      </trkpt>
      <trkpt lat="46.51314" lon="5.29373">
        <ele>218</ele>
        <time>2021-06-14T12:37:33Z</time>
      </trkpt>
      <trkpt lat="46.51328" lon="5.29365">
        <ele>218</ele>
        <time>2021-06-14T12:37:35Z</time>
      </trkpt>
      <trkpt lat="46.51341" lon="5.29357">
        <ele>218</ele>
        <time>2021-06-14T12:37:37Z</time>
      </trkpt>
      <trkpt lat="46.51354" lon="5.29349">
        <ele>218</ele>
        <time>2021-06-14T12:37:39Z</time>
      </trkpt>
      <trkpt lat="46.5136" lon="5.29343">
        <ele>218</ele>
        <time>2021-06-14T12:37:40Z</time>
      </trkpt>
      <trkpt lat="46.51366" lon="5.29337">
        <ele>218</ele>
        <time>2021-06-14T12:37:41Z</time>
      </trkpt>
      <trkpt lat="46.51375" lon="5.29323">
        <ele>218</ele>
        <time>2021-06-14T12:37:43Z</time>
      </trkpt>
      <trkpt lat="46.51375" lon="5.29323">
        <ele>218.2</ele>
        <time>2021-06-14T12:37:44Z</time>
      </trkpt>
      <trkpt lat="46.51384" lon="5.29308">
        <ele>218.2</ele>
        <time>2021-06-14T12:37:45Z</time>
      </trkpt>
      <trkpt lat="46.51392" lon="5.29292">
        <ele>218.4</ele>
        <time>2021-06-14T12:37:47Z</time>
      </trkpt>
      <trkpt lat="46.514" lon="5.29277">
        <ele>218.4</ele>
        <time>2021-06-14T12:37:49Z</time>
      </trkpt>
      <trkpt lat="46.51409" lon="5.29263">
        <ele>218.6</ele>
        <time>2021-06-14T12:37:51Z</time>
      </trkpt>
      <trkpt lat="46.51418" lon="5.29249">
        <ele>218.6</ele>
        <time>2021-06-14T12:37:53Z</time>
      </trkpt>
      <trkpt lat="46.51427" lon="5.29236">
        <ele>218.6</ele>
        <time>2021-06-14T12:37:55Z</time>
      </trkpt>
      <trkpt lat="46.51436" lon="5.29222">
        <ele>218.6</ele>
        <time>2021-06-14T12:37:57Z</time>
      </trkpt>
      <trkpt lat="46.51443" lon="5.29207">
        <ele>218.6</ele>
        <time>2021-06-14T12:37:59Z</time>
      </trkpt>
      <trkpt lat="46.51448" lon="5.29189">
        <ele>218.6</ele>
        <time>2021-06-14T12:38:01Z</time>
      </trkpt>
      <trkpt lat="46.51448" lon="5.29189">
        <ele>218.6</ele>
        <time>2021-06-14T12:38:02Z</time>
      </trkpt>
      <trkpt lat="46.51452" lon="5.2917">
        <ele>218.6</ele>
        <time>2021-06-14T12:38:03Z</time>
      </trkpt>
      <trkpt lat="46.51454" lon="5.29161">
        <ele>218.6</ele>
        <time>2021-06-14T12:38:04Z</time>
      </trkpt>
      <trkpt lat="46.51456" lon="5.29151">
        <ele>218.6</ele>
        <time>2021-06-14T12:38:05Z</time>
      </trkpt>
      <trkpt lat="46.5146" lon="5.29131">
        <ele>218.6</ele>
        <time>2021-06-14T12:38:07Z</time>
      </trkpt>
      <trkpt lat="46.51463" lon="5.29111">
        <ele>218.6</ele>
        <time>2021-06-14T12:38:09Z</time>
      </trkpt>
      <trkpt lat="46.51466" lon="5.29091">
        <ele>218.6</ele>
        <time>2021-06-14T12:38:11Z</time>
      </trkpt>
      <trkpt lat="46.5147" lon="5.29071">
        <ele>218.4</ele>
        <time>2021-06-14T12:38:13Z</time>
      </trkpt>
      <trkpt lat="46.51473" lon="5.2905">
        <ele>218.4</ele>
        <time>2021-06-14T12:38:15Z</time>
      </trkpt>
      <trkpt lat="46.51476" lon="5.2903">
        <ele>218.4</ele>
        <time>2021-06-14T12:38:17Z</time>
      </trkpt>
      <trkpt lat="46.5148" lon="5.2901">
        <ele>218.2</ele>
        <time>2021-06-14T12:38:19Z</time>
      </trkpt>
      <trkpt lat="46.51483" lon="5.2899">
        <ele>217.8</ele>
        <time>2021-06-14T12:38:21Z</time>
      </trkpt>
      <trkpt lat="46.51487" lon="5.28969">
        <ele>217.6</ele>
        <time>2021-06-14T12:38:23Z</time>
      </trkpt>
      <trkpt lat="46.5149" lon="5.28949">
        <ele>217.2</ele>
        <time>2021-06-14T12:38:25Z</time>
      </trkpt>
      <trkpt lat="46.51494" lon="5.28928">
        <ele>216.6</ele>
        <time>2021-06-14T12:38:27Z</time>
      </trkpt>
      <trkpt lat="46.51498" lon="5.28907">
        <ele>216.4</ele>
        <time>2021-06-14T12:38:29Z</time>
      </trkpt>
      <trkpt lat="46.51501" lon="5.28887">
        <ele>216.4</ele>
        <time>2021-06-14T12:38:31Z</time>
      </trkpt>
      <trkpt lat="46.51504" lon="5.28867">
        <ele>216.4</ele>
        <time>2021-06-14T12:38:33Z</time>
      </trkpt>
      <trkpt lat="46.51507" lon="5.28847">
        <ele>216.4</ele>
        <time>2021-06-14T12:38:35Z</time>
      </trkpt>
      <trkpt lat="46.51509" lon="5.28837">
        <ele>216.2</ele>
        <time>2021-06-14T12:38:36Z</time>
      </trkpt>
      <trkpt lat="46.51511" lon="5.28827">
        <ele>216.2</ele>
        <time>2021-06-14T12:38:37Z</time>
      </trkpt>
      <trkpt lat="46.51512" lon="5.28808">
        <ele>216.2</ele>
        <time>2021-06-14T12:38:39Z</time>
      </trkpt>
      <trkpt lat="46.5151" lon="5.28788">
        <ele>216.4</ele>
        <time>2021-06-14T12:38:41Z</time>
      </trkpt>
      <trkpt lat="46.51508" lon="5.2877">
        <ele>216.4</ele>
        <time>2021-06-14T12:38:43Z</time>
      </trkpt>
      <trkpt lat="46.51506" lon="5.28753">
        <ele>216.4</ele>
        <time>2021-06-14T12:38:45Z</time>
      </trkpt>
      <trkpt lat="46.51503" lon="5.28736">
        <ele>216.4</ele>
        <time>2021-06-14T12:38:47Z</time>
      </trkpt>
      <trkpt lat="46.51498" lon="5.28718">
        <ele>216.4</ele>
        <time>2021-06-14T12:38:49Z</time>
      </trkpt>
      <trkpt lat="46.51492" lon="5.28699">
        <ele>216.4</ele>
        <time>2021-06-14T12:38:51Z</time>
      </trkpt>
      <trkpt lat="46.51486" lon="5.2868">
        <ele>216.4</ele>
        <time>2021-06-14T12:38:53Z</time>
      </trkpt>
      <trkpt lat="46.51483" lon="5.28671">
        <ele>216.4</ele>
        <time>2021-06-14T12:38:54Z</time>
      </trkpt>
      <trkpt lat="46.5148" lon="5.28662">
        <ele>216.4</ele>
        <time>2021-06-14T12:38:55Z</time>
      </trkpt>
      <trkpt lat="46.51475" lon="5.28646">
        <ele>216.6</ele>
        <time>2021-06-14T12:38:57Z</time>
      </trkpt>
      <trkpt lat="46.51469" lon="5.28628">
        <ele>216.8</ele>
        <time>2021-06-14T12:38:59Z</time>
      </trkpt>
      <trkpt lat="46.51463" lon="5.2861">
        <ele>216.6</ele>
        <time>2021-06-14T12:39:01Z</time>
      </trkpt>
      <trkpt lat="46.51457" lon="5.28593">
        <ele>216.6</ele>
        <time>2021-06-14T12:39:03Z</time>
      </trkpt>
      <trkpt lat="46.51452" lon="5.28576">
        <ele>216.6</ele>
        <time>2021-06-14T12:39:05Z</time>
      </trkpt>
      <trkpt lat="46.51446" lon="5.28559">
        <ele>216.6</ele>
        <time>2021-06-14T12:39:07Z</time>
      </trkpt>
      <trkpt lat="46.51441" lon="5.28544">
        <ele>216.8</ele>
        <time>2021-06-14T12:39:09Z</time>
      </trkpt>
      <trkpt lat="46.51435" lon="5.28527">
        <ele>217</ele>
        <time>2021-06-14T12:39:11Z</time>
      </trkpt>
      <trkpt lat="46.51432" lon="5.28519">
        <ele>217</ele>
        <time>2021-06-14T12:39:12Z</time>
      </trkpt>
      <trkpt lat="46.51429" lon="5.2851">
        <ele>217</ele>
        <time>2021-06-14T12:39:13Z</time>
      </trkpt>
      <trkpt lat="46.51425" lon="5.28492">
        <ele>217.2</ele>
        <time>2021-06-14T12:39:15Z</time>
      </trkpt>
      <trkpt lat="46.51423" lon="5.28483">
        <ele>217.2</ele>
        <time>2021-06-14T12:39:16Z</time>
      </trkpt>
      <trkpt lat="46.51422" lon="5.28474">
        <ele>217.2</ele>
        <time>2021-06-14T12:39:17Z</time>
      </trkpt>
      <trkpt lat="46.51421" lon="5.28465">
        <ele>217.2</ele>
        <time>2021-06-14T12:39:18Z</time>
      </trkpt>
      <trkpt lat="46.51422" lon="5.28456">
        <ele>217.2</ele>
        <time>2021-06-14T12:39:19Z</time>
      </trkpt>
      <trkpt lat="46.51422" lon="5.28456">
        <ele>217.4</ele>
        <time>2021-06-14T12:39:20Z</time>
      </trkpt>
      <trkpt lat="46.51425" lon="5.2844">
        <ele>217.4</ele>
        <time>2021-06-14T12:39:21Z</time>
      </trkpt>
      <trkpt lat="46.51428" lon="5.28433">
        <ele>217.4</ele>
        <time>2021-06-14T12:39:22Z</time>
      </trkpt>
      <trkpt lat="46.51428" lon="5.28433">
        <ele>217.4</ele>
        <time>2021-06-14T12:39:23Z</time>
      </trkpt>
      <trkpt lat="46.51437" lon="5.28413">
        <ele>217.6</ele>
        <time>2021-06-14T12:39:25Z</time>
      </trkpt>
      <trkpt lat="46.51437" lon="5.28413">
        <ele>217.8</ele>
        <time>2021-06-14T12:39:26Z</time>
      </trkpt>
      <trkpt lat="46.51443" lon="5.28402">
        <ele>217.8</ele>
        <time>2021-06-14T12:39:27Z</time>
      </trkpt>
      <trkpt lat="46.5145" lon="5.28391">
        <ele>218</ele>
        <time>2021-06-14T12:39:29Z</time>
      </trkpt>
      <trkpt lat="46.51453" lon="5.28385">
        <ele>218.2</ele>
        <time>2021-06-14T12:39:30Z</time>
      </trkpt>
      <trkpt lat="46.51456" lon="5.2838">
        <ele>218.4</ele>
        <time>2021-06-14T12:39:31Z</time>
      </trkpt>
      <trkpt lat="46.51462" lon="5.28368">
        <ele>218.8</ele>
        <time>2021-06-14T12:39:33Z</time>
      </trkpt>
      <trkpt lat="46.51467" lon="5.28357">
        <ele>219.4</ele>
        <time>2021-06-14T12:39:35Z</time>
      </trkpt>
      <trkpt lat="46.51473" lon="5.28345">
        <ele>220</ele>
        <time>2021-06-14T12:39:37Z</time>
      </trkpt>
      <trkpt lat="46.51479" lon="5.28334">
        <ele>220.8</ele>
        <time>2021-06-14T12:39:39Z</time>
      </trkpt>
      <trkpt lat="46.51482" lon="5.28329">
        <ele>221</ele>
        <time>2021-06-14T12:39:40Z</time>
      </trkpt>
      <trkpt lat="46.51485" lon="5.28324">
        <ele>221.2</ele>
        <time>2021-06-14T12:39:41Z</time>
      </trkpt>
      <trkpt lat="46.5149" lon="5.28313">
        <ele>221.4</ele>
        <time>2021-06-14T12:39:43Z</time>
      </trkpt>
      <trkpt lat="46.51496" lon="5.28302">
        <ele>222</ele>
        <time>2021-06-14T12:39:45Z</time>
      </trkpt>
      <trkpt lat="46.51501" lon="5.28291">
        <ele>222.2</ele>
        <time>2021-06-14T12:39:47Z</time>
      </trkpt>
      <trkpt lat="46.51507" lon="5.2828">
        <ele>222.4</ele>
        <time>2021-06-14T12:39:49Z</time>
      </trkpt>
      <trkpt lat="46.51512" lon="5.28269">
        <ele>222.8</ele>
        <time>2021-06-14T12:39:51Z</time>
      </trkpt>
      <trkpt lat="46.51515" lon="5.28263">
        <ele>223</ele>
        <time>2021-06-14T12:39:52Z</time>
      </trkpt>
      <trkpt lat="46.51518" lon="5.28258">
        <ele>223.2</ele>
        <time>2021-06-14T12:39:53Z</time>
      </trkpt>
      <trkpt lat="46.5152" lon="5.28253">
        <ele>223.4</ele>
        <time>2021-06-14T12:39:54Z</time>
      </trkpt>
      <trkpt lat="46.51523" lon="5.28248">
        <ele>223.6</ele>
        <time>2021-06-14T12:39:55Z</time>
      </trkpt>
      <trkpt lat="46.51528" lon="5.28237">
        <ele>224</ele>
        <time>2021-06-14T12:39:57Z</time>
      </trkpt>
      <trkpt lat="46.51532" lon="5.28226">
        <ele>224.4</ele>
        <time>2021-06-14T12:39:59Z</time>
      </trkpt>
      <trkpt lat="46.51534" lon="5.28221">
        <ele>224.6</ele>
        <time>2021-06-14T12:40:00Z</time>
      </trkpt>
      <trkpt lat="46.51536" lon="5.28215">
        <ele>224.6</ele>
        <time>2021-06-14T12:40:01Z</time>
      </trkpt>
      <trkpt lat="46.5154" lon="5.28204">
        <ele>225</ele>
        <time>2021-06-14T12:40:03Z</time>
      </trkpt>
      <trkpt lat="46.51544" lon="5.28194">
        <ele>225.4</ele>
        <time>2021-06-14T12:40:05Z</time>
      </trkpt>
      <trkpt lat="46.51546" lon="5.28187">
        <ele>225.8</ele>
        <time>2021-06-14T12:40:06Z</time>
      </trkpt>
      <trkpt lat="46.51546" lon="5.28187">
        <ele>226</ele>
        <time>2021-06-14T12:40:07Z</time>
      </trkpt>
      <trkpt lat="46.51552" lon="5.28169">
        <ele>226.6</ele>
        <time>2021-06-14T12:40:09Z</time>
      </trkpt>
      <trkpt lat="46.51554" lon="5.28163">
        <ele>226.8</ele>
        <time>2021-06-14T12:40:10Z</time>
      </trkpt>
      <trkpt lat="46.51555" lon="5.28157">
        <ele>227</ele>
        <time>2021-06-14T12:40:11Z</time>
      </trkpt>
      <trkpt lat="46.51559" lon="5.28145">
        <ele>227.2</ele>
        <time>2021-06-14T12:40:13Z</time>
      </trkpt>
      <trkpt lat="46.51559" lon="5.28145">
        <ele>227.2</ele>
        <time>2021-06-14T12:40:14Z</time>
      </trkpt>
      <trkpt lat="46.51562" lon="5.28133">
        <ele>227.4</ele>
        <time>2021-06-14T12:40:15Z</time>
      </trkpt>
      <trkpt lat="46.51566" lon="5.28121">
        <ele>227.8</ele>
        <time>2021-06-14T12:40:17Z</time>
      </trkpt>
      <trkpt lat="46.51569" lon="5.2811">
        <ele>228.4</ele>
        <time>2021-06-14T12:40:19Z</time>
      </trkpt>
      <trkpt lat="46.51573" lon="5.28098">
        <ele>228.8</ele>
        <time>2021-06-14T12:40:21Z</time>
      </trkpt>
      <trkpt lat="46.51575" lon="5.28092">
        <ele>229</ele>
        <time>2021-06-14T12:40:22Z</time>
      </trkpt>
      <trkpt lat="46.51577" lon="5.28086">
        <ele>229.4</ele>
        <time>2021-06-14T12:40:23Z</time>
      </trkpt>
      <trkpt lat="46.51579" lon="5.28081">
        <ele>229.6</ele>
        <time>2021-06-14T12:40:24Z</time>
      </trkpt>
      <trkpt lat="46.51581" lon="5.28075">
        <ele>230</ele>
        <time>2021-06-14T12:40:25Z</time>
      </trkpt>
      <trkpt lat="46.51585" lon="5.28063">
        <ele>230.2</ele>
        <time>2021-06-14T12:40:27Z</time>
      </trkpt>
      <trkpt lat="46.51588" lon="5.28057">
        <ele>230.6</ele>
        <time>2021-06-14T12:40:29Z</time>
      </trkpt>
      <trkpt lat="46.51594" lon="5.28039">
        <ele>230.8</ele>
        <time>2021-06-14T12:40:31Z</time>
      </trkpt>
      <trkpt lat="46.51599" lon="5.28028">
        <ele>231</ele>
        <time>2021-06-14T12:40:33Z</time>
      </trkpt>
      <trkpt lat="46.51605" lon="5.28018">
        <ele>231.2</ele>
        <time>2021-06-14T12:40:35Z</time>
      </trkpt>
      <trkpt lat="46.51611" lon="5.28008">
        <ele>231.4</ele>
        <time>2021-06-14T12:40:37Z</time>
      </trkpt>
      <trkpt lat="46.51617" lon="5.27999">
        <ele>231.6</ele>
        <time>2021-06-14T12:40:39Z</time>
      </trkpt>
      <trkpt lat="46.51625" lon="5.2799">
        <ele>231.8</ele>
        <time>2021-06-14T12:40:41Z</time>
      </trkpt>
      <trkpt lat="46.51633" lon="5.27981">
        <ele>232.2</ele>
        <time>2021-06-14T12:40:43Z</time>
      </trkpt>
      <trkpt lat="46.51633" lon="5.27981">
        <ele>232.4</ele>
        <time>2021-06-14T12:40:44Z</time>
      </trkpt>
      <trkpt lat="46.51642" lon="5.27972">
        <ele>232.6</ele>
        <time>2021-06-14T12:40:45Z</time>
      </trkpt>
      <trkpt lat="46.51651" lon="5.27963">
        <ele>232.8</ele>
        <time>2021-06-14T12:40:47Z</time>
      </trkpt>
      <trkpt lat="46.51656" lon="5.27958">
        <ele>232.8</ele>
        <time>2021-06-14T12:40:48Z</time>
      </trkpt>
      <trkpt lat="46.51661" lon="5.27953">
        <ele>232.8</ele>
        <time>2021-06-14T12:40:49Z</time>
      </trkpt>
      <trkpt lat="46.51671" lon="5.27943">
        <ele>232.8</ele>
        <time>2021-06-14T12:40:51Z</time>
      </trkpt>
      <trkpt lat="46.51681" lon="5.27932">
        <ele>232.8</ele>
        <time>2021-06-14T12:40:53Z</time>
      </trkpt>
      <trkpt lat="46.51691" lon="5.27922">
        <ele>232.8</ele>
        <time>2021-06-14T12:40:55Z</time>
      </trkpt>
      <trkpt lat="46.51702" lon="5.27911">
        <ele>232.8</ele>
        <time>2021-06-14T12:40:57Z</time>
      </trkpt>
      <trkpt lat="46.51707" lon="5.27906">
        <ele>232.6</ele>
        <time>2021-06-14T12:40:58Z</time>
      </trkpt>
      <trkpt lat="46.51712" lon="5.27901">
        <ele>232.4</ele>
        <time>2021-06-14T12:40:59Z</time>
      </trkpt>
      <trkpt lat="46.51718" lon="5.27896">
        <ele>231.2</ele>
        <time>2021-06-14T12:41:01Z</time>
      </trkpt>
      <trkpt lat="46.51734" lon="5.27879">
        <ele>230.8</ele>
        <time>2021-06-14T12:41:03Z</time>
      </trkpt>
      <trkpt lat="46.51746" lon="5.27867">
        <ele>230.2</ele>
        <time>2021-06-14T12:41:05Z</time>
      </trkpt>
      <trkpt lat="46.51752" lon="5.27861">
        <ele>230</ele>
        <time>2021-06-14T12:41:06Z</time>
      </trkpt>
      <trkpt lat="46.51758" lon="5.27855">
        <ele>229.8</ele>
        <time>2021-06-14T12:41:07Z</time>
      </trkpt>
      <trkpt lat="46.5177" lon="5.27842">
        <ele>229.4</ele>
        <time>2021-06-14T12:41:09Z</time>
      </trkpt>
      <trkpt lat="46.51783" lon="5.27829">
        <ele>229</ele>
        <time>2021-06-14T12:41:11Z</time>
      </trkpt>
      <trkpt lat="46.51796" lon="5.27815">
        <ele>228.6</ele>
        <time>2021-06-14T12:41:13Z</time>
      </trkpt>
      <trkpt lat="46.5181" lon="5.27801">
        <ele>228</ele>
        <time>2021-06-14T12:41:15Z</time>
      </trkpt>
      <trkpt lat="46.51817" lon="5.27794">
        <ele>227.8</ele>
        <time>2021-06-14T12:41:16Z</time>
      </trkpt>
      <trkpt lat="46.51824" lon="5.27787">
        <ele>227.4</ele>
        <time>2021-06-14T12:41:17Z</time>
      </trkpt>
      <trkpt lat="46.51838" lon="5.27773">
        <ele>226.6</ele>
        <time>2021-06-14T12:41:19Z</time>
      </trkpt>
      <trkpt lat="46.51845" lon="5.27765">
        <ele>226</ele>
        <time>2021-06-14T12:41:21Z</time>
      </trkpt>
      <trkpt lat="46.51866" lon="5.27743">
        <ele>225.4</ele>
        <time>2021-06-14T12:41:23Z</time>
      </trkpt>
      <trkpt lat="46.51881" lon="5.27729">
        <ele>225</ele>
        <time>2021-06-14T12:41:25Z</time>
      </trkpt>
      <trkpt lat="46.51895" lon="5.27713">
        <ele>224.4</ele>
        <time>2021-06-14T12:41:27Z</time>
      </trkpt>
      <trkpt lat="46.5191" lon="5.27698">
        <ele>223.2</ele>
        <time>2021-06-14T12:41:29Z</time>
      </trkpt>
      <trkpt lat="46.51925" lon="5.27682">
        <ele>222.2</ele>
        <time>2021-06-14T12:41:31Z</time>
      </trkpt>
      <trkpt lat="46.51925" lon="5.27682">
        <ele>221.8</ele>
        <time>2021-06-14T12:41:32Z</time>
      </trkpt>
      <trkpt lat="46.51939" lon="5.27666">
        <ele>221.6</ele>
        <time>2021-06-14T12:41:33Z</time>
      </trkpt>
      <trkpt lat="46.51952" lon="5.27648">
        <ele>220.6</ele>
        <time>2021-06-14T12:41:35Z</time>
      </trkpt>
      <trkpt lat="46.51959" lon="5.27639">
        <ele>220</ele>
        <time>2021-06-14T12:41:37Z</time>
      </trkpt>
      <trkpt lat="46.5198" lon="5.27612">
        <ele>219.4</ele>
        <time>2021-06-14T12:41:39Z</time>
      </trkpt>
      <trkpt lat="46.51993" lon="5.27595">
        <ele>218.4</ele>
        <time>2021-06-14T12:41:41Z</time>
      </trkpt>
      <trkpt lat="46.51999" lon="5.27586">
        <ele>218.2</ele>
        <time>2021-06-14T12:41:42Z</time>
      </trkpt>
      <trkpt lat="46.52006" lon="5.27578">
        <ele>218</ele>
        <time>2021-06-14T12:41:43Z</time>
      </trkpt>
      <trkpt lat="46.52018" lon="5.27561">
        <ele>217.8</ele>
        <time>2021-06-14T12:41:45Z</time>
      </trkpt>
      <trkpt lat="46.5203" lon="5.27545">
        <ele>217.8</ele>
        <time>2021-06-14T12:41:47Z</time>
      </trkpt>
      <trkpt lat="46.52041" lon="5.27531">
        <ele>217.6</ele>
        <time>2021-06-14T12:41:49Z</time>
      </trkpt>
      <trkpt lat="46.52052" lon="5.27517">
        <ele>217.6</ele>
        <time>2021-06-14T12:41:51Z</time>
      </trkpt>
      <trkpt lat="46.52057" lon="5.27511">
        <ele>217.6</ele>
        <time>2021-06-14T12:41:52Z</time>
      </trkpt>
      <trkpt lat="46.52062" lon="5.27504">
        <ele>217.8</ele>
        <time>2021-06-14T12:41:53Z</time>
      </trkpt>
      <trkpt lat="46.52071" lon="5.27493">
        <ele>218.4</ele>
        <time>2021-06-14T12:41:55Z</time>
      </trkpt>
      <trkpt lat="46.5208" lon="5.27482">
        <ele>219</ele>
        <time>2021-06-14T12:41:57Z</time>
      </trkpt>
      <trkpt lat="46.52084" lon="5.27476">
        <ele>219.2</ele>
        <time>2021-06-14T12:41:58Z</time>
      </trkpt>
      <trkpt lat="46.52088" lon="5.27471">
        <ele>219.6</ele>
        <time>2021-06-14T12:41:59Z</time>
      </trkpt>
      <trkpt lat="46.52096" lon="5.2746">
        <ele>220.2</ele>
        <time>2021-06-14T12:42:01Z</time>
      </trkpt>
      <trkpt lat="46.52103" lon="5.27449">
        <ele>220.8</ele>
        <time>2021-06-14T12:42:03Z</time>
      </trkpt>
      <trkpt lat="46.5211" lon="5.27437">
        <ele>221.4</ele>
        <time>2021-06-14T12:42:05Z</time>
      </trkpt>
      <trkpt lat="46.52115" lon="5.27426">
        <ele>221.8</ele>
        <time>2021-06-14T12:42:07Z</time>
      </trkpt>
      <trkpt lat="46.5212" lon="5.27414">
        <ele>222.4</ele>
        <time>2021-06-14T12:42:09Z</time>
      </trkpt>
      <trkpt lat="46.52124" lon="5.27402">
        <ele>222.8</ele>
        <time>2021-06-14T12:42:11Z</time>
      </trkpt>
      <trkpt lat="46.52126" lon="5.2739">
        <ele>223.4</ele>
        <time>2021-06-14T12:42:13Z</time>
      </trkpt>
      <trkpt lat="46.52128" lon="5.27377">
        <ele>223.8</ele>
        <time>2021-06-14T12:42:15Z</time>
      </trkpt>
      <trkpt lat="46.52128" lon="5.27365">
        <ele>224.4</ele>
        <time>2021-06-14T12:42:17Z</time>
      </trkpt>
      <trkpt lat="46.52127" lon="5.27352">
        <ele>224.8</ele>
        <time>2021-06-14T12:42:19Z</time>
      </trkpt>
      <trkpt lat="46.52127" lon="5.27352">
        <ele>225</ele>
        <time>2021-06-14T12:42:20Z</time>
      </trkpt>
      <trkpt lat="46.52125" lon="5.2734">
        <ele>225.2</ele>
        <time>2021-06-14T12:42:21Z</time>
      </trkpt>
      <trkpt lat="46.52121" lon="5.27328">
        <ele>225.6</ele>
        <time>2021-06-14T12:42:23Z</time>
      </trkpt>
      <trkpt lat="46.52116" lon="5.27318">
        <ele>226.2</ele>
        <time>2021-06-14T12:42:25Z</time>
      </trkpt>
      <trkpt lat="46.52116" lon="5.27318">
        <ele>226.4</ele>
        <time>2021-06-14T12:42:26Z</time>
      </trkpt>
      <trkpt lat="46.52109" lon="5.27309">
        <ele>226.6</ele>
        <time>2021-06-14T12:42:27Z</time>
      </trkpt>
      <trkpt lat="46.52101" lon="5.27303">
        <ele>227</ele>
        <time>2021-06-14T12:42:29Z</time>
      </trkpt>
      <trkpt lat="46.52093" lon="5.27298">
        <ele>227.4</ele>
        <time>2021-06-14T12:42:31Z</time>
      </trkpt>
      <trkpt lat="46.52085" lon="5.27293">
        <ele>227.8</ele>
        <time>2021-06-14T12:42:33Z</time>
      </trkpt>
      <trkpt lat="46.52077" lon="5.27288">
        <ele>228.2</ele>
        <time>2021-06-14T12:42:35Z</time>
      </trkpt>
      <trkpt lat="46.52073" lon="5.27285">
        <ele>228.6</ele>
        <time>2021-06-14T12:42:36Z</time>
      </trkpt>
      <trkpt lat="46.52069" lon="5.27283">
        <ele>228.6</ele>
        <time>2021-06-14T12:42:37Z</time>
      </trkpt>
      <trkpt lat="46.52061" lon="5.27276">
        <ele>229</ele>
        <time>2021-06-14T12:42:39Z</time>
      </trkpt>
      <trkpt lat="46.52057" lon="5.27273">
        <ele>229</ele>
        <time>2021-06-14T12:42:40Z</time>
      </trkpt>
      <trkpt lat="46.52053" lon="5.27269">
        <ele>229.2</ele>
        <time>2021-06-14T12:42:41Z</time>
      </trkpt>
      <trkpt lat="46.52046" lon="5.27261">
        <ele>229.4</ele>
        <time>2021-06-14T12:42:43Z</time>
      </trkpt>
      <trkpt lat="46.52046" lon="5.27261">
        <ele>229.6</ele>
        <time>2021-06-14T12:42:44Z</time>
      </trkpt>
      <trkpt lat="46.5204" lon="5.27253">
        <ele>229.8</ele>
        <time>2021-06-14T12:42:45Z</time>
      </trkpt>
      <trkpt lat="46.52034" lon="5.27243">
        <ele>230</ele>
        <time>2021-06-14T12:42:47Z</time>
      </trkpt>
      <trkpt lat="46.5203" lon="5.27233">
        <ele>230.2</ele>
        <time>2021-06-14T12:42:49Z</time>
      </trkpt>
      <trkpt lat="46.5203" lon="5.27233">
        <ele>230.4</ele>
        <time>2021-06-14T12:42:50Z</time>
      </trkpt>
      <trkpt lat="46.52025" lon="5.27221">
        <ele>230.6</ele>
        <time>2021-06-14T12:42:51Z</time>
      </trkpt>
      <trkpt lat="46.52023" lon="5.27215">
        <ele>230.8</ele>
        <time>2021-06-14T12:42:52Z</time>
      </trkpt>
      <trkpt lat="46.52022" lon="5.27209">
        <ele>231</ele>
        <time>2021-06-14T12:42:53Z</time>
      </trkpt>
      <trkpt lat="46.52018" lon="5.27197">
        <ele>231.4</ele>
        <time>2021-06-14T12:42:55Z</time>
      </trkpt>
      <trkpt lat="46.52018" lon="5.27197">
        <ele>231.6</ele>
        <time>2021-06-14T12:42:56Z</time>
      </trkpt>
      <trkpt lat="46.52014" lon="5.27186">
        <ele>231.8</ele>
        <time>2021-06-14T12:42:57Z</time>
      </trkpt>
      <trkpt lat="46.52013" lon="5.2718">
        <ele>232.2</ele>
        <time>2021-06-14T12:42:59Z</time>
      </trkpt>
      <trkpt lat="46.52008" lon="5.27161">
        <ele>232.6</ele>
        <time>2021-06-14T12:43:01Z</time>
      </trkpt>
      <trkpt lat="46.52006" lon="5.27149">
        <ele>232.8</ele>
        <time>2021-06-14T12:43:03Z</time>
      </trkpt>
      <trkpt lat="46.52004" lon="5.27136">
        <ele>233</ele>
        <time>2021-06-14T12:43:05Z</time>
      </trkpt>
      <trkpt lat="46.52003" lon="5.2713">
        <ele>233.2</ele>
        <time>2021-06-14T12:43:06Z</time>
      </trkpt>
      <trkpt lat="46.52002" lon="5.27124">
        <ele>233.4</ele>
        <time>2021-06-14T12:43:07Z</time>
      </trkpt>
      <trkpt lat="46.52" lon="5.27111">
        <ele>233.8</ele>
        <time>2021-06-14T12:43:09Z</time>
      </trkpt>
      <trkpt lat="46.51999" lon="5.27105">
        <ele>234</ele>
        <time>2021-06-14T12:43:10Z</time>
      </trkpt>
      <trkpt lat="46.51999" lon="5.27098">
        <ele>234.2</ele>
        <time>2021-06-14T12:43:11Z</time>
      </trkpt>
      <trkpt lat="46.51997" lon="5.27086">
        <ele>234.8</ele>
        <time>2021-06-14T12:43:13Z</time>
      </trkpt>
      <trkpt lat="46.51996" lon="5.27074">
        <ele>235.2</ele>
        <time>2021-06-14T12:43:15Z</time>
      </trkpt>
      <trkpt lat="46.51995" lon="5.27068">
        <ele>235.4</ele>
        <time>2021-06-14T12:43:16Z</time>
      </trkpt>
      <trkpt lat="46.51995" lon="5.27061">
        <ele>235.4</ele>
        <time>2021-06-14T12:43:17Z</time>
      </trkpt>
      <trkpt lat="46.51993" lon="5.27049">
        <ele>235.4</ele>
        <time>2021-06-14T12:43:19Z</time>
      </trkpt>
      <trkpt lat="46.51992" lon="5.27036">
        <ele>236</ele>
        <time>2021-06-14T12:43:21Z</time>
      </trkpt>
      <trkpt lat="46.51991" lon="5.27023">
        <ele>236.4</ele>
        <time>2021-06-14T12:43:23Z</time>
      </trkpt>
      <trkpt lat="46.5199" lon="5.2701">
        <ele>236.8</ele>
        <time>2021-06-14T12:43:25Z</time>
      </trkpt>
      <trkpt lat="46.51988" lon="5.26996">
        <ele>237</ele>
        <time>2021-06-14T12:43:27Z</time>
      </trkpt>
      <trkpt lat="46.51987" lon="5.2699">
        <ele>237.2</ele>
        <time>2021-06-14T12:43:28Z</time>
      </trkpt>
      <trkpt lat="46.51986" lon="5.26983">
        <ele>237.4</ele>
        <time>2021-06-14T12:43:29Z</time>
      </trkpt>
      <trkpt lat="46.51985" lon="5.26976">
        <ele>237.6</ele>
        <time>2021-06-14T12:43:30Z</time>
      </trkpt>
      <trkpt lat="46.51984" lon="5.2697">
        <ele>237.8</ele>
        <time>2021-06-14T12:43:31Z</time>
      </trkpt>
      <trkpt lat="46.51982" lon="5.26957">
        <ele>238</ele>
        <time>2021-06-14T12:43:33Z</time>
      </trkpt>
      <trkpt lat="46.51978" lon="5.26943">
        <ele>238.2</ele>
        <time>2021-06-14T12:43:35Z</time>
      </trkpt>
      <trkpt lat="46.51975" lon="5.2693">
        <ele>238.4</ele>
        <time>2021-06-14T12:43:37Z</time>
      </trkpt>
      <trkpt lat="46.5197" lon="5.26916">
        <ele>238.4</ele>
        <time>2021-06-14T12:43:39Z</time>
      </trkpt>
      <trkpt lat="46.51964" lon="5.26902">
        <ele>238.4</ele>
        <time>2021-06-14T12:43:41Z</time>
      </trkpt>
      <trkpt lat="46.51959" lon="5.26887">
        <ele>238.4</ele>
        <time>2021-06-14T12:43:43Z</time>
      </trkpt>
      <trkpt lat="46.51959" lon="5.26887">
        <ele>238.4</ele>
        <time>2021-06-14T12:43:44Z</time>
      </trkpt>
      <trkpt lat="46.51954" lon="5.2687">
        <ele>238.4</ele>
        <time>2021-06-14T12:43:45Z</time>
      </trkpt>
      <trkpt lat="46.5195" lon="5.26849">
        <ele>238.4</ele>
        <time>2021-06-14T12:43:47Z</time>
      </trkpt>
      <trkpt lat="46.51952" lon="5.26828">
        <ele>238.4</ele>
        <time>2021-06-14T12:43:49Z</time>
      </trkpt>
      <trkpt lat="46.51952" lon="5.26828">
        <ele>238.4</ele>
        <time>2021-06-14T12:43:50Z</time>
      </trkpt>
      <trkpt lat="46.51958" lon="5.26806">
        <ele>238.2</ele>
        <time>2021-06-14T12:43:51Z</time>
      </trkpt>
      <trkpt lat="46.51964" lon="5.26797">
        <ele>237.8</ele>
        <time>2021-06-14T12:43:52Z</time>
      </trkpt>
      <trkpt lat="46.51971" lon="5.26789">
        <ele>237.6</ele>
        <time>2021-06-14T12:43:53Z</time>
      </trkpt>
      <trkpt lat="46.51985" lon="5.26773">
        <ele>236.8</ele>
        <time>2021-06-14T12:43:55Z</time>
      </trkpt>
      <trkpt lat="46.51985" lon="5.26773">
        <ele>236.2</ele>
        <time>2021-06-14T12:43:56Z</time>
      </trkpt>
      <trkpt lat="46.52002" lon="5.2676">
        <ele>235.6</ele>
        <time>2021-06-14T12:43:57Z</time>
      </trkpt>
      <trkpt lat="46.5201" lon="5.26753">
        <ele>234.8</ele>
        <time>2021-06-14T12:43:58Z</time>
      </trkpt>
      <trkpt lat="46.52018" lon="5.26746">
        <ele>234.2</ele>
        <time>2021-06-14T12:43:59Z</time>
      </trkpt>
      <trkpt lat="46.52026" lon="5.26739">
        <ele>233.8</ele>
        <time>2021-06-14T12:44:00Z</time>
      </trkpt>
      <trkpt lat="46.52035" lon="5.26732">
        <ele>233.2</ele>
        <time>2021-06-14T12:44:01Z</time>
      </trkpt>
      <trkpt lat="46.52052" lon="5.26718">
        <ele>232.4</ele>
        <time>2021-06-14T12:44:03Z</time>
      </trkpt>
      <trkpt lat="46.5206" lon="5.26711">
        <ele>231.8</ele>
        <time>2021-06-14T12:44:04Z</time>
      </trkpt>
      <trkpt lat="46.52069" lon="5.26704">
        <ele>231.2</ele>
        <time>2021-06-14T12:44:05Z</time>
      </trkpt>
      <trkpt lat="46.52086" lon="5.26689">
        <ele>229.8</ele>
        <time>2021-06-14T12:44:07Z</time>
      </trkpt>
      <trkpt lat="46.52104" lon="5.26673">
        <ele>228.8</ele>
        <time>2021-06-14T12:44:09Z</time>
      </trkpt>
      <trkpt lat="46.52112" lon="5.26665">
        <ele>228.6</ele>
        <time>2021-06-14T12:44:10Z</time>
      </trkpt>
      <trkpt lat="46.52121" lon="5.26656">
        <ele>228</ele>
        <time>2021-06-14T12:44:11Z</time>
      </trkpt>
      <trkpt lat="46.52129" lon="5.26646">
        <ele>227.4</ele>
        <time>2021-06-14T12:44:12Z</time>
      </trkpt>
      <trkpt lat="46.52136" lon="5.26636">
        <ele>227</ele>
        <time>2021-06-14T12:44:13Z</time>
      </trkpt>
      <trkpt lat="46.52149" lon="5.26614">
        <ele>226.2</ele>
        <time>2021-06-14T12:44:15Z</time>
      </trkpt>
      <trkpt lat="46.52161" lon="5.26592">
        <ele>225.4</ele>
        <time>2021-06-14T12:44:17Z</time>
      </trkpt>
      <trkpt lat="46.52167" lon="5.26581">
        <ele>224.2</ele>
        <time>2021-06-14T12:44:18Z</time>
      </trkpt>
      <trkpt lat="46.52173" lon="5.26571">
        <ele>223.6</ele>
        <time>2021-06-14T12:44:19Z</time>
      </trkpt>
      <trkpt lat="46.52186" lon="5.26554">
        <ele>223</ele>
        <time>2021-06-14T12:44:21Z</time>
      </trkpt>
      <trkpt lat="46.52201" lon="5.2654">
        <ele>222.4</ele>
        <time>2021-06-14T12:44:23Z</time>
      </trkpt>
      <trkpt lat="46.52217" lon="5.2653">
        <ele>222.2</ele>
        <time>2021-06-14T12:44:25Z</time>
      </trkpt>
      <trkpt lat="46.52235" lon="5.26523">
        <ele>222</ele>
        <time>2021-06-14T12:44:27Z</time>
      </trkpt>
      <trkpt lat="46.52252" lon="5.26515">
        <ele>222</ele>
        <time>2021-06-14T12:44:29Z</time>
      </trkpt>
      <trkpt lat="46.52261" lon="5.26511">
        <ele>222</ele>
        <time>2021-06-14T12:44:30Z</time>
      </trkpt>
      <trkpt lat="46.52269" lon="5.26506">
        <ele>221.8</ele>
        <time>2021-06-14T12:44:31Z</time>
      </trkpt>
      <trkpt lat="46.52287" lon="5.26499">
        <ele>221.6</ele>
        <time>2021-06-14T12:44:33Z</time>
      </trkpt>
      <trkpt lat="46.52296" lon="5.26495">
        <ele>221.4</ele>
        <time>2021-06-14T12:44:34Z</time>
      </trkpt>
      <trkpt lat="46.52306" lon="5.2649">
        <ele>221.4</ele>
        <time>2021-06-14T12:44:35Z</time>
      </trkpt>
      <trkpt lat="46.52324" lon="5.26482">
        <ele>220.8</ele>
        <time>2021-06-14T12:44:37Z</time>
      </trkpt>
      <trkpt lat="46.52342" lon="5.26475">
        <ele>220.2</ele>
        <time>2021-06-14T12:44:39Z</time>
      </trkpt>
      <trkpt lat="46.52351" lon="5.26471">
        <ele>219.8</ele>
        <time>2021-06-14T12:44:40Z</time>
      </trkpt>
      <trkpt lat="46.5236" lon="5.26467">
        <ele>219.4</ele>
        <time>2021-06-14T12:44:41Z</time>
      </trkpt>
      <trkpt lat="46.52369" lon="5.26462">
        <ele>218.6</ele>
        <time>2021-06-14T12:44:43Z</time>
      </trkpt>
      <trkpt lat="46.52377" lon="5.26455">
        <ele>218.2</ele>
        <time>2021-06-14T12:44:44Z</time>
      </trkpt>
      <trkpt lat="46.52392" lon="5.26437">
        <ele>217.4</ele>
        <time>2021-06-14T12:44:45Z</time>
      </trkpt>
      <trkpt lat="46.52397" lon="5.26426">
        <ele>217.2</ele>
        <time>2021-06-14T12:44:46Z</time>
      </trkpt>
      <trkpt lat="46.52402" lon="5.26415">
        <ele>216.8</ele>
        <time>2021-06-14T12:44:47Z</time>
      </trkpt>
      <trkpt lat="46.52407" lon="5.26404">
        <ele>216.6</ele>
        <time>2021-06-14T12:44:48Z</time>
      </trkpt>
      <trkpt lat="46.52412" lon="5.26392">
        <ele>216.2</ele>
        <time>2021-06-14T12:44:49Z</time>
      </trkpt>
      <trkpt lat="46.52421" lon="5.26369">
        <ele>215.8</ele>
        <time>2021-06-14T12:44:51Z</time>
      </trkpt>
      <trkpt lat="46.52425" lon="5.26358">
        <ele>215.6</ele>
        <time>2021-06-14T12:44:52Z</time>
      </trkpt>
      <trkpt lat="46.52429" lon="5.26347">
        <ele>215.4</ele>
        <time>2021-06-14T12:44:53Z</time>
      </trkpt>
      <trkpt lat="46.52437" lon="5.26324">
        <ele>215.2</ele>
        <time>2021-06-14T12:44:55Z</time>
      </trkpt>
      <trkpt lat="46.52437" lon="5.26324">
        <ele>215.2</ele>
        <time>2021-06-14T12:44:56Z</time>
      </trkpt>
      <trkpt lat="46.52445" lon="5.26303">
        <ele>215</ele>
        <time>2021-06-14T12:44:57Z</time>
      </trkpt>
      <trkpt lat="46.52453" lon="5.26282">
        <ele>214.6</ele>
        <time>2021-06-14T12:44:59Z</time>
      </trkpt>
      <trkpt lat="46.5246" lon="5.26262">
        <ele>214.4</ele>
        <time>2021-06-14T12:45:01Z</time>
      </trkpt>
      <trkpt lat="46.52468" lon="5.26242">
        <ele>214.2</ele>
        <time>2021-06-14T12:45:03Z</time>
      </trkpt>
      <trkpt lat="46.52476" lon="5.26223">
        <ele>214.2</ele>
        <time>2021-06-14T12:45:05Z</time>
      </trkpt>
      <trkpt lat="46.52483" lon="5.26203">
        <ele>214</ele>
        <time>2021-06-14T12:45:07Z</time>
      </trkpt>
      <trkpt lat="46.5249" lon="5.26184">
        <ele>214</ele>
        <time>2021-06-14T12:45:09Z</time>
      </trkpt>
      <trkpt lat="46.52493" lon="5.26175">
        <ele>214</ele>
        <time>2021-06-14T12:45:10Z</time>
      </trkpt>
      <trkpt lat="46.52496" lon="5.26166">
        <ele>214</ele>
        <time>2021-06-14T12:45:11Z</time>
      </trkpt>
      <trkpt lat="46.52503" lon="5.26148">
        <ele>214</ele>
        <time>2021-06-14T12:45:13Z</time>
      </trkpt>
      <trkpt lat="46.52507" lon="5.26139">
        <ele>214</ele>
        <time>2021-06-14T12:45:15Z</time>
      </trkpt>
      <trkpt lat="46.52516" lon="5.26125">
        <ele>214</ele>
        <time>2021-06-14T12:45:16Z</time>
      </trkpt>
      <trkpt lat="46.52522" lon="5.2612">
        <ele>214.2</ele>
        <time>2021-06-14T12:45:17Z</time>
      </trkpt>
      <trkpt lat="46.52534" lon="5.26118">
        <ele>214.2</ele>
        <time>2021-06-14T12:45:19Z</time>
      </trkpt>
      <trkpt lat="46.52547" lon="5.26117">
        <ele>214.6</ele>
        <time>2021-06-14T12:45:21Z</time>
      </trkpt>
      <trkpt lat="46.52553" lon="5.26117">
        <ele>214.8</ele>
        <time>2021-06-14T12:45:23Z</time>
      </trkpt>
      <trkpt lat="46.52565" lon="5.26113">
        <ele>214.8</ele>
        <time>2021-06-14T12:45:24Z</time>
      </trkpt>
      <trkpt lat="46.52565" lon="5.26113">
        <ele>214.8</ele>
        <time>2021-06-14T12:45:25Z</time>
      </trkpt>
      <trkpt lat="46.52569" lon="5.26109">
        <ele>215</ele>
        <time>2021-06-14T12:45:26Z</time>
      </trkpt>
      <trkpt lat="46.52573" lon="5.26105">
        <ele>215.2</ele>
        <time>2021-06-14T12:45:27Z</time>
      </trkpt>
      <trkpt lat="46.52578" lon="5.26092">
        <ele>215.4</ele>
        <time>2021-06-14T12:45:28Z</time>
      </trkpt>
      <trkpt lat="46.5258" lon="5.26086">
        <ele>215.6</ele>
        <time>2021-06-14T12:45:29Z</time>
      </trkpt>
      <trkpt lat="46.52582" lon="5.2608">
        <ele>215.8</ele>
        <time>2021-06-14T12:45:31Z</time>
      </trkpt>
      <trkpt lat="46.52584" lon="5.26068">
        <ele>216.6</ele>
        <time>2021-06-14T12:45:33Z</time>
      </trkpt>
      <trkpt lat="46.52588" lon="5.26051">
        <ele>217</ele>
        <time>2021-06-14T12:45:35Z</time>
      </trkpt>
      <trkpt lat="46.5259" lon="5.2604">
        <ele>218</ele>
        <time>2021-06-14T12:45:37Z</time>
      </trkpt>
      <trkpt lat="46.5259" lon="5.2604">
        <ele>218.6</ele>
        <time>2021-06-14T12:45:38Z</time>
      </trkpt>
      <trkpt lat="46.52592" lon="5.26029">
        <ele>219</ele>
        <time>2021-06-14T12:45:39Z</time>
      </trkpt>
      <trkpt lat="46.52593" lon="5.26024">
        <ele>219.2</ele>
        <time>2021-06-14T12:45:40Z</time>
      </trkpt>
      <trkpt lat="46.52593" lon="5.26024">
        <ele>219.6</ele>
        <time>2021-06-14T12:45:41Z</time>
      </trkpt>
      <trkpt lat="46.52595" lon="5.26014">
        <ele>220.2</ele>
        <time>2021-06-14T12:45:43Z</time>
      </trkpt>
      <trkpt lat="46.52597" lon="5.26009">
        <ele>220.6</ele>
        <time>2021-06-14T12:45:44Z</time>
      </trkpt>
      <trkpt lat="46.52598" lon="5.26005">
        <ele>221</ele>
        <time>2021-06-14T12:45:45Z</time>
      </trkpt>
      <trkpt lat="46.52602" lon="5.25998">
        <ele>221.8</ele>
        <time>2021-06-14T12:45:47Z</time>
      </trkpt>
      <trkpt lat="46.52606" lon="5.25987">
        <ele>222.2</ele>
        <time>2021-06-14T12:45:49Z</time>
      </trkpt>
      <trkpt lat="46.5261" lon="5.2598">
        <ele>222.6</ele>
        <time>2021-06-14T12:45:51Z</time>
      </trkpt>
      <trkpt lat="46.52612" lon="5.25976">
        <ele>222.8</ele>
        <time>2021-06-14T12:45:52Z</time>
      </trkpt>
      <trkpt lat="46.52615" lon="5.25973">
        <ele>223.2</ele>
        <time>2021-06-14T12:45:53Z</time>
      </trkpt>
      <trkpt lat="46.52617" lon="5.2597">
        <ele>223.4</ele>
        <time>2021-06-14T12:45:54Z</time>
      </trkpt>
      <trkpt lat="46.5262" lon="5.25968">
        <ele>223.4</ele>
        <time>2021-06-14T12:45:55Z</time>
      </trkpt>
      <trkpt lat="46.52625" lon="5.25964">
        <ele>224</ele>
        <time>2021-06-14T12:45:57Z</time>
      </trkpt>
      <trkpt lat="46.52628" lon="5.25962">
        <ele>224.2</ele>
        <time>2021-06-14T12:45:58Z</time>
      </trkpt>
      <trkpt lat="46.5263" lon="5.25961">
        <ele>224.2</ele>
        <time>2021-06-14T12:45:59Z</time>
      </trkpt>
      <trkpt lat="46.52632" lon="5.2596">
        <ele>224.4</ele>
        <time>2021-06-14T12:46:00Z</time>
      </trkpt>
      <trkpt lat="46.52635" lon="5.2596">
        <ele>224.6</ele>
        <time>2021-06-14T12:46:01Z</time>
      </trkpt>
      <trkpt lat="46.5264" lon="5.25958">
        <ele>225</ele>
        <time>2021-06-14T12:46:03Z</time>
      </trkpt>
      <trkpt lat="46.52643" lon="5.25957">
        <ele>225.4</ele>
        <time>2021-06-14T12:46:04Z</time>
      </trkpt>
      <trkpt lat="46.52646" lon="5.25956">
        <ele>225.6</ele>
        <time>2021-06-14T12:46:05Z</time>
      </trkpt>
      <trkpt lat="46.52651" lon="5.25954">
        <ele>226.4</ele>
        <time>2021-06-14T12:46:07Z</time>
      </trkpt>
      <trkpt lat="46.52658" lon="5.2595">
        <ele>227.4</ele>
        <time>2021-06-14T12:46:09Z</time>
      </trkpt>
      <trkpt lat="46.52661" lon="5.25947">
        <ele>227.6</ele>
        <time>2021-06-14T12:46:10Z</time>
      </trkpt>
      <trkpt lat="46.52664" lon="5.25945">
        <ele>227.8</ele>
        <time>2021-06-14T12:46:11Z</time>
      </trkpt>
      <trkpt lat="46.52666" lon="5.25942">
        <ele>228</ele>
        <time>2021-06-14T12:46:13Z</time>
      </trkpt>
      <trkpt lat="46.52669" lon="5.25939">
        <ele>228.2</ele>
        <time>2021-06-14T12:46:14Z</time>
      </trkpt>
      <trkpt lat="46.52673" lon="5.2593">
        <ele>228.4</ele>
        <time>2021-06-14T12:46:15Z</time>
      </trkpt>
      <trkpt lat="46.52677" lon="5.25921">
        <ele>228.8</ele>
        <time>2021-06-14T12:46:17Z</time>
      </trkpt>
      <trkpt lat="46.52679" lon="5.25916">
        <ele>229.4</ele>
        <time>2021-06-14T12:46:19Z</time>
      </trkpt>
      <trkpt lat="46.52684" lon="5.25902">
        <ele>229.6</ele>
        <time>2021-06-14T12:46:21Z</time>
      </trkpt>
      <trkpt lat="46.52685" lon="5.25898">
        <ele>229.8</ele>
        <time>2021-06-14T12:46:22Z</time>
      </trkpt>
      <trkpt lat="46.52686" lon="5.25893">
        <ele>229.8</ele>
        <time>2021-06-14T12:46:23Z</time>
      </trkpt>
      <trkpt lat="46.52688" lon="5.25883">
        <ele>230.4</ele>
        <time>2021-06-14T12:46:25Z</time>
      </trkpt>
      <trkpt lat="46.52688" lon="5.25883">
        <ele>230.6</ele>
        <time>2021-06-14T12:46:26Z</time>
      </trkpt>
      <trkpt lat="46.5269" lon="5.25872">
        <ele>230.8</ele>
        <time>2021-06-14T12:46:27Z</time>
      </trkpt>
      <trkpt lat="46.5269" lon="5.25867">
        <ele>231</ele>
        <time>2021-06-14T12:46:28Z</time>
      </trkpt>
      <trkpt lat="46.5269" lon="5.25867">
        <ele>231.2</ele>
        <time>2021-06-14T12:46:29Z</time>
      </trkpt>
      <trkpt lat="46.52691" lon="5.25853">
        <ele>231.6</ele>
        <time>2021-06-14T12:46:31Z</time>
      </trkpt>
      <trkpt lat="46.52691" lon="5.25842">
        <ele>232</ele>
        <time>2021-06-14T12:46:33Z</time>
      </trkpt>
      <trkpt lat="46.52691" lon="5.25837">
        <ele>232.2</ele>
        <time>2021-06-14T12:46:34Z</time>
      </trkpt>
      <trkpt lat="46.52691" lon="5.25832">
        <ele>232.4</ele>
        <time>2021-06-14T12:46:35Z</time>
      </trkpt>
      <trkpt lat="46.52692" lon="5.25821">
        <ele>232.6</ele>
        <time>2021-06-14T12:46:37Z</time>
      </trkpt>
      <trkpt lat="46.52692" lon="5.2581">
        <ele>233.2</ele>
        <time>2021-06-14T12:46:39Z</time>
      </trkpt>
      <trkpt lat="46.52692" lon="5.25804">
        <ele>233.4</ele>
        <time>2021-06-14T12:46:40Z</time>
      </trkpt>
      <trkpt lat="46.52693" lon="5.25798">
        <ele>233.8</ele>
        <time>2021-06-14T12:46:41Z</time>
      </trkpt>
      <trkpt lat="46.52693" lon="5.25793">
        <ele>234.2</ele>
        <time>2021-06-14T12:46:43Z</time>
      </trkpt>
      <trkpt lat="46.52695" lon="5.25787">
        <ele>234.2</ele>
        <time>2021-06-14T12:46:44Z</time>
      </trkpt>
      <trkpt lat="46.52698" lon="5.25775">
        <ele>234.4</ele>
        <time>2021-06-14T12:46:45Z</time>
      </trkpt>
      <trkpt lat="46.52699" lon="5.25769">
        <ele>234.4</ele>
        <time>2021-06-14T12:46:46Z</time>
      </trkpt>
      <trkpt lat="46.52701" lon="5.25764">
        <ele>234.4</ele>
        <time>2021-06-14T12:46:47Z</time>
      </trkpt>
      <trkpt lat="46.52703" lon="5.25758">
        <ele>234.6</ele>
        <time>2021-06-14T12:46:48Z</time>
      </trkpt>
      <trkpt lat="46.52703" lon="5.25758">
        <ele>234.6</ele>
        <time>2021-06-14T12:46:49Z</time>
      </trkpt>
      <trkpt lat="46.52708" lon="5.2574">
        <ele>234.6</ele>
        <time>2021-06-14T12:46:51Z</time>
      </trkpt>
      <trkpt lat="46.5271" lon="5.25727">
        <ele>234.8</ele>
        <time>2021-06-14T12:46:53Z</time>
      </trkpt>
      <trkpt lat="46.52713" lon="5.25713">
        <ele>234.8</ele>
        <time>2021-06-14T12:46:55Z</time>
      </trkpt>
      <trkpt lat="46.52713" lon="5.25713">
        <ele>234.8</ele>
        <time>2021-06-14T12:46:56Z</time>
      </trkpt>
      <trkpt lat="46.52714" lon="5.25699">
        <ele>235</ele>
        <time>2021-06-14T12:46:57Z</time>
      </trkpt>
      <trkpt lat="46.52716" lon="5.25685">
        <ele>235</ele>
        <time>2021-06-14T12:46:59Z</time>
      </trkpt>
      <trkpt lat="46.52717" lon="5.2567">
        <ele>235.4</ele>
        <time>2021-06-14T12:47:01Z</time>
      </trkpt>
      <trkpt lat="46.52717" lon="5.25655">
        <ele>235.4</ele>
        <time>2021-06-14T12:47:03Z</time>
      </trkpt>
      <trkpt lat="46.52718" lon="5.25648">
        <ele>235.4</ele>
        <time>2021-06-14T12:47:05Z</time>
      </trkpt>
      <trkpt lat="46.52719" lon="5.25625">
        <ele>235.6</ele>
        <time>2021-06-14T12:47:07Z</time>
      </trkpt>
      <trkpt lat="46.52719" lon="5.2561">
        <ele>235.6</ele>
        <time>2021-06-14T12:47:09Z</time>
      </trkpt>
      <trkpt lat="46.5272" lon="5.25596">
        <ele>235.6</ele>
        <time>2021-06-14T12:47:11Z</time>
      </trkpt>
      <trkpt lat="46.5272" lon="5.25581">
        <ele>235.6</ele>
        <time>2021-06-14T12:47:13Z</time>
      </trkpt>
      <trkpt lat="46.52721" lon="5.25566">
        <ele>235.6</ele>
        <time>2021-06-14T12:47:15Z</time>
      </trkpt>
      <trkpt lat="46.52722" lon="5.25551">
        <ele>235.8</ele>
        <time>2021-06-14T12:47:17Z</time>
      </trkpt>
      <trkpt lat="46.52722" lon="5.25536">
        <ele>235.8</ele>
        <time>2021-06-14T12:47:19Z</time>
      </trkpt>
      <trkpt lat="46.52723" lon="5.25521">
        <ele>236</ele>
        <time>2021-06-14T12:47:21Z</time>
      </trkpt>
      <trkpt lat="46.52723" lon="5.25506">
        <ele>236.2</ele>
        <time>2021-06-14T12:47:23Z</time>
      </trkpt>
      <trkpt lat="46.52723" lon="5.25491">
        <ele>236.2</ele>
        <time>2021-06-14T12:47:25Z</time>
      </trkpt>
      <trkpt lat="46.52723" lon="5.25484">
        <ele>236.4</ele>
        <time>2021-06-14T12:47:27Z</time>
      </trkpt>
      <trkpt lat="46.52718" lon="5.25462">
        <ele>236.6</ele>
        <time>2021-06-14T12:47:29Z</time>
      </trkpt>
      <trkpt lat="46.52715" lon="5.25455">
        <ele>236.6</ele>
        <time>2021-06-14T12:47:30Z</time>
      </trkpt>
      <trkpt lat="46.52712" lon="5.25449">
        <ele>236.8</ele>
        <time>2021-06-14T12:47:31Z</time>
      </trkpt>
      <trkpt lat="46.52712" lon="5.25449">
        <ele>236.8</ele>
        <time>2021-06-14T12:47:32Z</time>
      </trkpt>
      <trkpt lat="46.52704" lon="5.25437">
        <ele>237</ele>
        <time>2021-06-14T12:47:33Z</time>
      </trkpt>
      <trkpt lat="46.52697" lon="5.25426">
        <ele>237.2</ele>
        <time>2021-06-14T12:47:35Z</time>
      </trkpt>
      <trkpt lat="46.52689" lon="5.25414">
        <ele>237.4</ele>
        <time>2021-06-14T12:47:37Z</time>
      </trkpt>
      <trkpt lat="46.52681" lon="5.25402">
        <ele>237.4</ele>
        <time>2021-06-14T12:47:39Z</time>
      </trkpt>
      <trkpt lat="46.52673" lon="5.25391">
        <ele>237.4</ele>
        <time>2021-06-14T12:47:41Z</time>
      </trkpt>
      <trkpt lat="46.52666" lon="5.2538">
        <ele>237.6</ele>
        <time>2021-06-14T12:47:43Z</time>
      </trkpt>
      <trkpt lat="46.52659" lon="5.25369">
        <ele>237.6</ele>
        <time>2021-06-14T12:47:45Z</time>
      </trkpt>
      <trkpt lat="46.52652" lon="5.25357">
        <ele>237.6</ele>
        <time>2021-06-14T12:47:47Z</time>
      </trkpt>
      <trkpt lat="46.52645" lon="5.25345">
        <ele>237.6</ele>
        <time>2021-06-14T12:47:49Z</time>
      </trkpt>
      <trkpt lat="46.52639" lon="5.25332">
        <ele>237.6</ele>
        <time>2021-06-14T12:47:51Z</time>
      </trkpt>
      <trkpt lat="46.52637" lon="5.25325">
        <ele>237.8</ele>
        <time>2021-06-14T12:47:53Z</time>
      </trkpt>
      <trkpt lat="46.52632" lon="5.25311">
        <ele>237.8</ele>
        <time>2021-06-14T12:47:55Z</time>
      </trkpt>
      <trkpt lat="46.52628" lon="5.25296">
        <ele>237.8</ele>
        <time>2021-06-14T12:47:57Z</time>
      </trkpt>
      <trkpt lat="46.52624" lon="5.2528">
        <ele>237.8</ele>
        <time>2021-06-14T12:47:59Z</time>
      </trkpt>
      <trkpt lat="46.52622" lon="5.25263">
        <ele>237.8</ele>
        <time>2021-06-14T12:48:01Z</time>
      </trkpt>
      <trkpt lat="46.52621" lon="5.25246">
        <ele>237.8</ele>
        <time>2021-06-14T12:48:03Z</time>
      </trkpt>
      <trkpt lat="46.5262" lon="5.25228">
        <ele>237.6</ele>
        <time>2021-06-14T12:48:05Z</time>
      </trkpt>
      <trkpt lat="46.52619" lon="5.25209">
        <ele>237.4</ele>
        <time>2021-06-14T12:48:07Z</time>
      </trkpt>
      <trkpt lat="46.52618" lon="5.25191">
        <ele>237.2</ele>
        <time>2021-06-14T12:48:09Z</time>
      </trkpt>
      <trkpt lat="46.52618" lon="5.25173">
        <ele>237</ele>
        <time>2021-06-14T12:48:11Z</time>
      </trkpt>
      <trkpt lat="46.52617" lon="5.25155">
        <ele>237</ele>
        <time>2021-06-14T12:48:13Z</time>
      </trkpt>
      <trkpt lat="46.52617" lon="5.25146">
        <ele>236.8</ele>
        <time>2021-06-14T12:48:14Z</time>
      </trkpt>
      <trkpt lat="46.52617" lon="5.25137">
        <ele>236.8</ele>
        <time>2021-06-14T12:48:15Z</time>
      </trkpt>
      <trkpt lat="46.52616" lon="5.25119">
        <ele>236.8</ele>
        <time>2021-06-14T12:48:17Z</time>
      </trkpt>
      <trkpt lat="46.52615" lon="5.251">
        <ele>236.8</ele>
        <time>2021-06-14T12:48:19Z</time>
      </trkpt>
      <trkpt lat="46.52615" lon="5.25082">
        <ele>236.6</ele>
        <time>2021-06-14T12:48:21Z</time>
      </trkpt>
      <trkpt lat="46.52614" lon="5.25064">
        <ele>236.6</ele>
        <time>2021-06-14T12:48:23Z</time>
      </trkpt>
      <trkpt lat="46.52612" lon="5.25036">
        <ele>236.6</ele>
        <time>2021-06-14T12:48:25Z</time>
      </trkpt>
      <trkpt lat="46.52611" lon="5.25026">
        <ele>236.6</ele>
        <time>2021-06-14T12:48:27Z</time>
      </trkpt>
      <trkpt lat="46.52609" lon="5.25007">
        <ele>236.6</ele>
        <time>2021-06-14T12:48:29Z</time>
      </trkpt>
      <trkpt lat="46.52606" lon="5.24988">
        <ele>236.4</ele>
        <time>2021-06-14T12:48:31Z</time>
      </trkpt>
      <trkpt lat="46.52603" lon="5.2497">
        <ele>236.2</ele>
        <time>2021-06-14T12:48:33Z</time>
      </trkpt>
      <trkpt lat="46.526" lon="5.24951">
        <ele>236.2</ele>
        <time>2021-06-14T12:48:35Z</time>
      </trkpt>
      <trkpt lat="46.52597" lon="5.24932">
        <ele>236</ele>
        <time>2021-06-14T12:48:37Z</time>
      </trkpt>
      <trkpt lat="46.52594" lon="5.24913">
        <ele>235.6</ele>
        <time>2021-06-14T12:48:39Z</time>
      </trkpt>
      <trkpt lat="46.52593" lon="5.24893">
        <ele>235.6</ele>
        <time>2021-06-14T12:48:41Z</time>
      </trkpt>
      <trkpt lat="46.52591" lon="5.24874">
        <ele>235.6</ele>
        <time>2021-06-14T12:48:43Z</time>
      </trkpt>
      <trkpt lat="46.52591" lon="5.24855">
        <ele>235.4</ele>
        <time>2021-06-14T12:48:45Z</time>
      </trkpt>
      <trkpt lat="46.5259" lon="5.24836">
        <ele>235.4</ele>
        <time>2021-06-14T12:48:47Z</time>
      </trkpt>
      <trkpt lat="46.52589" lon="5.24816">
        <ele>235.4</ele>
        <time>2021-06-14T12:48:49Z</time>
      </trkpt>
      <trkpt lat="46.52589" lon="5.24796">
        <ele>235.4</ele>
        <time>2021-06-14T12:48:51Z</time>
      </trkpt>
      <trkpt lat="46.52588" lon="5.24776">
        <ele>235.4</ele>
        <time>2021-06-14T12:48:53Z</time>
      </trkpt>
      <trkpt lat="46.52587" lon="5.24755">
        <ele>235.6</ele>
        <time>2021-06-14T12:48:55Z</time>
      </trkpt>
      <trkpt lat="46.52587" lon="5.24745">
        <ele>235.6</ele>
        <time>2021-06-14T12:48:56Z</time>
      </trkpt>
      <trkpt lat="46.52586" lon="5.24735">
        <ele>235.6</ele>
        <time>2021-06-14T12:48:57Z</time>
      </trkpt>
      <trkpt lat="46.52586" lon="5.24715">
        <ele>235.8</ele>
        <time>2021-06-14T12:48:59Z</time>
      </trkpt>
      <trkpt lat="46.52585" lon="5.24695">
        <ele>236</ele>
        <time>2021-06-14T12:49:01Z</time>
      </trkpt>
      <trkpt lat="46.52584" lon="5.24676">
        <ele>236.2</ele>
        <time>2021-06-14T12:49:03Z</time>
      </trkpt>
      <trkpt lat="46.52581" lon="5.24656">
        <ele>236.2</ele>
        <time>2021-06-14T12:49:04Z</time>
      </trkpt>
      <trkpt lat="46.52581" lon="5.24656">
        <ele>236.2</ele>
        <time>2021-06-14T12:49:05Z</time>
      </trkpt>
      <trkpt lat="46.52578" lon="5.24638">
        <ele>236.2</ele>
        <time>2021-06-14T12:49:06Z</time>
      </trkpt>
      <trkpt lat="46.52578" lon="5.24638">
        <ele>236.2</ele>
        <time>2021-06-14T12:49:07Z</time>
      </trkpt>
      <trkpt lat="46.52573" lon="5.2462">
        <ele>236.2</ele>
        <time>2021-06-14T12:49:09Z</time>
      </trkpt>
      <trkpt lat="46.52567" lon="5.24602">
        <ele>236.2</ele>
        <time>2021-06-14T12:49:11Z</time>
      </trkpt>
      <trkpt lat="46.5256" lon="5.24584">
        <ele>236.2</ele>
        <time>2021-06-14T12:49:13Z</time>
      </trkpt>
      <trkpt lat="46.52553" lon="5.24566">
        <ele>236</ele>
        <time>2021-06-14T12:49:15Z</time>
      </trkpt>
      <trkpt lat="46.52547" lon="5.24547">
        <ele>236.2</ele>
        <time>2021-06-14T12:49:17Z</time>
      </trkpt>
      <trkpt lat="46.5254" lon="5.24529">
        <ele>235.8</ele>
        <time>2021-06-14T12:49:19Z</time>
      </trkpt>
      <trkpt lat="46.52536" lon="5.24519">
        <ele>235.4</ele>
        <time>2021-06-14T12:49:20Z</time>
      </trkpt>
      <trkpt lat="46.5253" lon="5.24499">
        <ele>235.4</ele>
        <time>2021-06-14T12:49:21Z</time>
      </trkpt>
      <trkpt lat="46.52524" lon="5.24478">
        <ele>235.2</ele>
        <time>2021-06-14T12:49:23Z</time>
      </trkpt>
      <trkpt lat="46.52522" lon="5.24468">
        <ele>235</ele>
        <time>2021-06-14T12:49:25Z</time>
      </trkpt>
      <trkpt lat="46.52514" lon="5.24438">
        <ele>234.8</ele>
        <time>2021-06-14T12:49:27Z</time>
      </trkpt>
      <trkpt lat="46.52512" lon="5.24427">
        <ele>234.2</ele>
        <time>2021-06-14T12:49:29Z</time>
      </trkpt>
      <trkpt lat="46.5251" lon="5.24406">
        <ele>234</ele>
        <time>2021-06-14T12:49:31Z</time>
      </trkpt>
      <trkpt lat="46.52507" lon="5.24385">
        <ele>233.6</ele>
        <time>2021-06-14T12:49:33Z</time>
      </trkpt>
      <trkpt lat="46.52504" lon="5.24365">
        <ele>233.4</ele>
        <time>2021-06-14T12:49:35Z</time>
      </trkpt>
      <trkpt lat="46.52501" lon="5.24345">
        <ele>233.2</ele>
        <time>2021-06-14T12:49:37Z</time>
      </trkpt>
      <trkpt lat="46.525" lon="5.24335">
        <ele>233.2</ele>
        <time>2021-06-14T12:49:38Z</time>
      </trkpt>
      <trkpt lat="46.52498" lon="5.24325">
        <ele>233.2</ele>
        <time>2021-06-14T12:49:39Z</time>
      </trkpt>
      <trkpt lat="46.52496" lon="5.24307">
        <ele>233.2</ele>
        <time>2021-06-14T12:49:41Z</time>
      </trkpt>
      <trkpt lat="46.52494" lon="5.24289">
        <ele>233.2</ele>
        <time>2021-06-14T12:49:43Z</time>
      </trkpt>
      <trkpt lat="46.52491" lon="5.24271">
        <ele>233.2</ele>
        <time>2021-06-14T12:49:45Z</time>
      </trkpt>
      <trkpt lat="46.52489" lon="5.24254">
        <ele>233.2</ele>
        <time>2021-06-14T12:49:47Z</time>
      </trkpt>
      <trkpt lat="46.52486" lon="5.24244">
        <ele>233.2</ele>
        <time>2021-06-14T12:49:48Z</time>
      </trkpt>
      <trkpt lat="46.52486" lon="5.24244">
        <ele>233.4</ele>
        <time>2021-06-14T12:49:49Z</time>
      </trkpt>
      <trkpt lat="46.52485" lon="5.24244">
        <ele>233.6</ele>
        <time>2021-06-14T12:49:50Z</time>
      </trkpt>
      <trkpt lat="46.52484" lon="5.24245">
        <ele>233.8</ele>
        <time>2021-06-14T12:49:51Z</time>
      </trkpt>
      <trkpt lat="46.52484" lon="5.24247">
        <ele>234</ele>
        <time>2021-06-14T12:49:52Z</time>
      </trkpt>
      <trkpt lat="46.52484" lon="5.24247">
        <ele>234.2</ele>
        <time>2021-06-14T12:49:53Z</time>
      </trkpt>
      <trkpt lat="46.52486" lon="5.24252">
        <ele>236.2</ele>
        <time>2021-06-14T12:51:34Z</time>
      </trkpt>
      <trkpt lat="46.52487" lon="5.24253">
        <ele>236.2</ele>
        <time>2021-06-14T12:51:35Z</time>
      </trkpt>
      <trkpt lat="46.52489" lon="5.24249">
        <ele>236.2</ele>
        <time>2021-06-14T12:51:37Z</time>
      </trkpt>
      <trkpt lat="46.52488" lon="5.24242">
        <ele>236.2</ele>
        <time>2021-06-14T12:51:39Z</time>
      </trkpt>
      <trkpt lat="46.52488" lon="5.24237">
        <ele>236</ele>
        <time>2021-06-14T12:51:40Z</time>
      </trkpt>
      <trkpt lat="46.52487" lon="5.24232">
        <ele>236</ele>
        <time>2021-06-14T12:51:41Z</time>
      </trkpt>
      <trkpt lat="46.52485" lon="5.24219">
        <ele>236</ele>
        <time>2021-06-14T12:51:42Z</time>
      </trkpt>
      <trkpt lat="46.52485" lon="5.24219">
        <ele>236</ele>
        <time>2021-06-14T12:51:43Z</time>
      </trkpt>
      <trkpt lat="46.52484" lon="5.24205">
        <ele>235.8</ele>
        <time>2021-06-14T12:51:45Z</time>
      </trkpt>
      <trkpt lat="46.52481" lon="5.24191">
        <ele>235.6</ele>
        <time>2021-06-14T12:51:47Z</time>
      </trkpt>
      <trkpt lat="46.5248" lon="5.24178">
        <ele>235.6</ele>
        <time>2021-06-14T12:51:49Z</time>
      </trkpt>
      <trkpt lat="46.52478" lon="5.24167">
        <ele>235.6</ele>
        <time>2021-06-14T12:51:51Z</time>
      </trkpt>
      <trkpt lat="46.52477" lon="5.24157">
        <ele>235.6</ele>
        <time>2021-06-14T12:51:53Z</time>
      </trkpt>
      <trkpt lat="46.52476" lon="5.24147">
        <ele>235.6</ele>
        <time>2021-06-14T12:51:55Z</time>
      </trkpt>
      <trkpt lat="46.52477" lon="5.24138">
        <ele>235.6</ele>
        <time>2021-06-14T12:51:57Z</time>
      </trkpt>
      <trkpt lat="46.52479" lon="5.24131">
        <ele>235.8</ele>
        <time>2021-06-14T12:51:59Z</time>
      </trkpt>
      <trkpt lat="46.52481" lon="5.24122">
        <ele>235.8</ele>
        <time>2021-06-14T12:52:00Z</time>
      </trkpt>
      <trkpt lat="46.52481" lon="5.24122">
        <ele>235.8</ele>
        <time>2021-06-14T12:52:01Z</time>
      </trkpt>
      <trkpt lat="46.5248" lon="5.24117">
        <ele>235.8</ele>
        <time>2021-06-14T12:52:02Z</time>
      </trkpt>
      <trkpt lat="46.5248" lon="5.24111">
        <ele>235.8</ele>
        <time>2021-06-14T12:52:03Z</time>
      </trkpt>
      <trkpt lat="46.5248" lon="5.24104">
        <ele>236</ele>
        <time>2021-06-14T12:52:04Z</time>
      </trkpt>
      <trkpt lat="46.52481" lon="5.24096">
        <ele>236</ele>
        <time>2021-06-14T12:52:05Z</time>
      </trkpt>
      <trkpt lat="46.52483" lon="5.2408">
        <ele>236</ele>
        <time>2021-06-14T12:52:07Z</time>
      </trkpt>
      <trkpt lat="46.52485" lon="5.24064">
        <ele>236</ele>
        <time>2021-06-14T12:52:09Z</time>
      </trkpt>
      <trkpt lat="46.52488" lon="5.24048">
        <ele>236</ele>
        <time>2021-06-14T12:52:11Z</time>
      </trkpt>
      <trkpt lat="46.5249" lon="5.24032">
        <ele>236</ele>
        <time>2021-06-14T12:52:13Z</time>
      </trkpt>
      <trkpt lat="46.52491" lon="5.24024">
        <ele>236</ele>
        <time>2021-06-14T12:52:14Z</time>
      </trkpt>
      <trkpt lat="46.52492" lon="5.24015">
        <ele>235.8</ele>
        <time>2021-06-14T12:52:15Z</time>
      </trkpt>
      <trkpt lat="46.52495" lon="5.23998">
        <ele>235.8</ele>
        <time>2021-06-14T12:52:17Z</time>
      </trkpt>
      <trkpt lat="46.52497" lon="5.2398">
        <ele>235.6</ele>
        <time>2021-06-14T12:52:19Z</time>
      </trkpt>
      <trkpt lat="46.525" lon="5.23961">
        <ele>235.4</ele>
        <time>2021-06-14T12:52:21Z</time>
      </trkpt>
      <trkpt lat="46.52502" lon="5.23943">
        <ele>235.2</ele>
        <time>2021-06-14T12:52:23Z</time>
      </trkpt>
      <trkpt lat="46.52504" lon="5.23923">
        <ele>235.2</ele>
        <time>2021-06-14T12:52:25Z</time>
      </trkpt>
      <trkpt lat="46.52504" lon="5.23904">
        <ele>235.2</ele>
        <time>2021-06-14T12:52:27Z</time>
      </trkpt>
      <trkpt lat="46.52503" lon="5.23884">
        <ele>235</ele>
        <time>2021-06-14T12:52:29Z</time>
      </trkpt>
      <trkpt lat="46.52502" lon="5.23874">
        <ele>235</ele>
        <time>2021-06-14T12:52:30Z</time>
      </trkpt>
      <trkpt lat="46.525" lon="5.23865">
        <ele>235</ele>
        <time>2021-06-14T12:52:31Z</time>
      </trkpt>
      <trkpt lat="46.52496" lon="5.23845">
        <ele>234.8</ele>
        <time>2021-06-14T12:52:33Z</time>
      </trkpt>
      <trkpt lat="46.52494" lon="5.23835">
        <ele>234.8</ele>
        <time>2021-06-14T12:52:34Z</time>
      </trkpt>
      <trkpt lat="46.52491" lon="5.23825">
        <ele>234.8</ele>
        <time>2021-06-14T12:52:35Z</time>
      </trkpt>
      <trkpt lat="46.52486" lon="5.23805">
        <ele>234.8</ele>
        <time>2021-06-14T12:52:36Z</time>
      </trkpt>
      <trkpt lat="46.52486" lon="5.23805">
        <ele>234.6</ele>
        <time>2021-06-14T12:52:37Z</time>
      </trkpt>
      <trkpt lat="46.52481" lon="5.23785">
        <ele>234.6</ele>
        <time>2021-06-14T12:52:39Z</time>
      </trkpt>
      <trkpt lat="46.52476" lon="5.23764">
        <ele>234.4</ele>
        <time>2021-06-14T12:52:41Z</time>
      </trkpt>
      <trkpt lat="46.5247" lon="5.23744">
        <ele>234</ele>
        <time>2021-06-14T12:52:43Z</time>
      </trkpt>
      <trkpt lat="46.52465" lon="5.23724">
        <ele>233.6</ele>
        <time>2021-06-14T12:52:45Z</time>
      </trkpt>
      <trkpt lat="46.5246" lon="5.23703">
        <ele>233.4</ele>
        <time>2021-06-14T12:52:47Z</time>
      </trkpt>
      <trkpt lat="46.52455" lon="5.23683">
        <ele>233.2</ele>
        <time>2021-06-14T12:52:49Z</time>
      </trkpt>
      <trkpt lat="46.5245" lon="5.23662">
        <ele>233</ele>
        <time>2021-06-14T12:52:51Z</time>
      </trkpt>
      <trkpt lat="46.52445" lon="5.23641">
        <ele>233</ele>
        <time>2021-06-14T12:52:53Z</time>
      </trkpt>
      <trkpt lat="46.5244" lon="5.23621">
        <ele>233</ele>
        <time>2021-06-14T12:52:55Z</time>
      </trkpt>
      <trkpt lat="46.52434" lon="5.23601">
        <ele>232.8</ele>
        <time>2021-06-14T12:52:57Z</time>
      </trkpt>
      <trkpt lat="46.52429" lon="5.23582">
        <ele>232.8</ele>
        <time>2021-06-14T12:52:59Z</time>
      </trkpt>
      <trkpt lat="46.52424" lon="5.23563">
        <ele>232.8</ele>
        <time>2021-06-14T12:53:01Z</time>
      </trkpt>
      <trkpt lat="46.52421" lon="5.23544">
        <ele>232.8</ele>
        <time>2021-06-14T12:53:03Z</time>
      </trkpt>
      <trkpt lat="46.52419" lon="5.23524">
        <ele>232.8</ele>
        <time>2021-06-14T12:53:05Z</time>
      </trkpt>
      <trkpt lat="46.52421" lon="5.23504">
        <ele>232.8</ele>
        <time>2021-06-14T12:53:07Z</time>
      </trkpt>
      <trkpt lat="46.52423" lon="5.23495">
        <ele>232.8</ele>
        <time>2021-06-14T12:53:08Z</time>
      </trkpt>
      <trkpt lat="46.52425" lon="5.23486">
        <ele>232.8</ele>
        <time>2021-06-14T12:53:09Z</time>
      </trkpt>
      <trkpt lat="46.52431" lon="5.23469">
        <ele>232.8</ele>
        <time>2021-06-14T12:53:11Z</time>
      </trkpt>
      <trkpt lat="46.52438" lon="5.23453">
        <ele>233</ele>
        <time>2021-06-14T12:53:13Z</time>
      </trkpt>
      <trkpt lat="46.52445" lon="5.23438">
        <ele>233.4</ele>
        <time>2021-06-14T12:53:15Z</time>
      </trkpt>
      <trkpt lat="46.52451" lon="5.23422">
        <ele>233.8</ele>
        <time>2021-06-14T12:53:17Z</time>
      </trkpt>
      <trkpt lat="46.52458" lon="5.23407">
        <ele>234</ele>
        <time>2021-06-14T12:53:19Z</time>
      </trkpt>
      <trkpt lat="46.52461" lon="5.23399">
        <ele>234</ele>
        <time>2021-06-14T12:53:20Z</time>
      </trkpt>
      <trkpt lat="46.52465" lon="5.23391">
        <ele>234</ele>
        <time>2021-06-14T12:53:21Z</time>
      </trkpt>
      <trkpt lat="46.52471" lon="5.23376">
        <ele>234</ele>
        <time>2021-06-14T12:53:23Z</time>
      </trkpt>
      <trkpt lat="46.52478" lon="5.23361">
        <ele>234.2</ele>
        <time>2021-06-14T12:53:25Z</time>
      </trkpt>
      <trkpt lat="46.52485" lon="5.23346">
        <ele>234.2</ele>
        <time>2021-06-14T12:53:27Z</time>
      </trkpt>
      <trkpt lat="46.52492" lon="5.2333">
        <ele>234.4</ele>
        <time>2021-06-14T12:53:29Z</time>
      </trkpt>
      <trkpt lat="46.52495" lon="5.23322">
        <ele>234.4</ele>
        <time>2021-06-14T12:53:30Z</time>
      </trkpt>
      <trkpt lat="46.52499" lon="5.23314">
        <ele>234.4</ele>
        <time>2021-06-14T12:53:31Z</time>
      </trkpt>
      <trkpt lat="46.52505" lon="5.23298">
        <ele>234.4</ele>
        <time>2021-06-14T12:53:33Z</time>
      </trkpt>
      <trkpt lat="46.52512" lon="5.23283">
        <ele>234.6</ele>
        <time>2021-06-14T12:53:35Z</time>
      </trkpt>
      <trkpt lat="46.52518" lon="5.23267">
        <ele>234.6</ele>
        <time>2021-06-14T12:53:37Z</time>
      </trkpt>
      <trkpt lat="46.52525" lon="5.2325">
        <ele>234.6</ele>
        <time>2021-06-14T12:53:39Z</time>
      </trkpt>
      <trkpt lat="46.52532" lon="5.23234">
        <ele>234.6</ele>
        <time>2021-06-14T12:53:41Z</time>
      </trkpt>
      <trkpt lat="46.52539" lon="5.23217">
        <ele>234.6</ele>
        <time>2021-06-14T12:53:43Z</time>
      </trkpt>
      <trkpt lat="46.52545" lon="5.23198">
        <ele>234.4</ele>
        <time>2021-06-14T12:53:45Z</time>
      </trkpt>
      <trkpt lat="46.52553" lon="5.2318">
        <ele>234.4</ele>
        <time>2021-06-14T12:53:47Z</time>
      </trkpt>
      <trkpt lat="46.52561" lon="5.23161">
        <ele>234.2</ele>
        <time>2021-06-14T12:53:49Z</time>
      </trkpt>
      <trkpt lat="46.5257" lon="5.23142">
        <ele>233.8</ele>
        <time>2021-06-14T12:53:51Z</time>
      </trkpt>
      <trkpt lat="46.52578" lon="5.23122">
        <ele>233.2</ele>
        <time>2021-06-14T12:53:53Z</time>
      </trkpt>
      <trkpt lat="46.52586" lon="5.23102">
        <ele>232.6</ele>
        <time>2021-06-14T12:53:55Z</time>
      </trkpt>
      <trkpt lat="46.52591" lon="5.23093">
        <ele>232.4</ele>
        <time>2021-06-14T12:53:56Z</time>
      </trkpt>
      <trkpt lat="46.52595" lon="5.23082">
        <ele>232</ele>
        <time>2021-06-14T12:53:57Z</time>
      </trkpt>
      <trkpt lat="46.52602" lon="5.23061">
        <ele>231.6</ele>
        <time>2021-06-14T12:53:58Z</time>
      </trkpt>
      <trkpt lat="46.52602" lon="5.23061">
        <ele>231.2</ele>
        <time>2021-06-14T12:53:59Z</time>
      </trkpt>
      <trkpt lat="46.52608" lon="5.23038">
        <ele>231</ele>
        <time>2021-06-14T12:54:00Z</time>
      </trkpt>
      <trkpt lat="46.52608" lon="5.23038">
        <ele>230.4</ele>
        <time>2021-06-14T12:54:01Z</time>
      </trkpt>
      <trkpt lat="46.52611" lon="5.23013">
        <ele>229.6</ele>
        <time>2021-06-14T12:54:03Z</time>
      </trkpt>
      <trkpt lat="46.52611" lon="5.23001">
        <ele>229</ele>
        <time>2021-06-14T12:54:04Z</time>
      </trkpt>
      <trkpt lat="46.52612" lon="5.22988">
        <ele>228.6</ele>
        <time>2021-06-14T12:54:05Z</time>
      </trkpt>
      <trkpt lat="46.52613" lon="5.22961">
        <ele>228.4</ele>
        <time>2021-06-14T12:54:06Z</time>
      </trkpt>
      <trkpt lat="46.52613" lon="5.22961">
        <ele>227.8</ele>
        <time>2021-06-14T12:54:07Z</time>
      </trkpt>
      <trkpt lat="46.52613" lon="5.22934">
        <ele>227</ele>
        <time>2021-06-14T12:54:09Z</time>
      </trkpt>
      <trkpt lat="46.52613" lon="5.2292">
        <ele>226.6</ele>
        <time>2021-06-14T12:54:10Z</time>
      </trkpt>
      <trkpt lat="46.52614" lon="5.22907">
        <ele>226.2</ele>
        <time>2021-06-14T12:54:11Z</time>
      </trkpt>
      <trkpt lat="46.52615" lon="5.22879">
        <ele>225.2</ele>
        <time>2021-06-14T12:54:13Z</time>
      </trkpt>
      <trkpt lat="46.52615" lon="5.22851">
        <ele>224.6</ele>
        <time>2021-06-14T12:54:15Z</time>
      </trkpt>
      <trkpt lat="46.52616" lon="5.22838">
        <ele>224.2</ele>
        <time>2021-06-14T12:54:16Z</time>
      </trkpt>
      <trkpt lat="46.52616" lon="5.22824">
        <ele>224</ele>
        <time>2021-06-14T12:54:17Z</time>
      </trkpt>
      <trkpt lat="46.52617" lon="5.22798">
        <ele>223.6</ele>
        <time>2021-06-14T12:54:18Z</time>
      </trkpt>
      <trkpt lat="46.52617" lon="5.22798">
        <ele>223</ele>
        <time>2021-06-14T12:54:19Z</time>
      </trkpt>
      <trkpt lat="46.52617" lon="5.22773">
        <ele>222.8</ele>
        <time>2021-06-14T12:54:21Z</time>
      </trkpt>
      <trkpt lat="46.52618" lon="5.22748">
        <ele>222.4</ele>
        <time>2021-06-14T12:54:23Z</time>
      </trkpt>
      <trkpt lat="46.52618" lon="5.22724">
        <ele>222</ele>
        <time>2021-06-14T12:54:25Z</time>
      </trkpt>
      <trkpt lat="46.52619" lon="5.227">
        <ele>221.8</ele>
        <time>2021-06-14T12:54:27Z</time>
      </trkpt>
      <trkpt lat="46.52619" lon="5.22677">
        <ele>221.8</ele>
        <time>2021-06-14T12:54:28Z</time>
      </trkpt>
      <trkpt lat="46.52619" lon="5.22677">
        <ele>221.8</ele>
        <time>2021-06-14T12:54:29Z</time>
      </trkpt>
      <trkpt lat="46.5262" lon="5.22654">
        <ele>221.6</ele>
        <time>2021-06-14T12:54:31Z</time>
      </trkpt>
      <trkpt lat="46.52621" lon="5.22633">
        <ele>221.6</ele>
        <time>2021-06-14T12:54:33Z</time>
      </trkpt>
      <trkpt lat="46.52621" lon="5.22612">
        <ele>221.6</ele>
        <time>2021-06-14T12:54:35Z</time>
      </trkpt>
      <trkpt lat="46.52622" lon="5.22601">
        <ele>221.6</ele>
        <time>2021-06-14T12:54:36Z</time>
      </trkpt>
      <trkpt lat="46.52622" lon="5.22591">
        <ele>221.6</ele>
        <time>2021-06-14T12:54:37Z</time>
      </trkpt>
      <trkpt lat="46.52622" lon="5.2257">
        <ele>221.4</ele>
        <time>2021-06-14T12:54:39Z</time>
      </trkpt>
      <trkpt lat="46.52623" lon="5.22549">
        <ele>221.4</ele>
        <time>2021-06-14T12:54:41Z</time>
      </trkpt>
      <trkpt lat="46.52624" lon="5.22527">
        <ele>221.4</ele>
        <time>2021-06-14T12:54:43Z</time>
      </trkpt>
      <trkpt lat="46.52625" lon="5.22516">
        <ele>221.4</ele>
        <time>2021-06-14T12:54:44Z</time>
      </trkpt>
      <trkpt lat="46.52626" lon="5.22506">
        <ele>221.2</ele>
        <time>2021-06-14T12:54:45Z</time>
      </trkpt>
      <trkpt lat="46.5263" lon="5.22484">
        <ele>221.2</ele>
        <time>2021-06-14T12:54:47Z</time>
      </trkpt>
      <trkpt lat="46.52634" lon="5.22463">
        <ele>221.4</ele>
        <time>2021-06-14T12:54:49Z</time>
      </trkpt>
      <trkpt lat="46.52636" lon="5.22453">
        <ele>221.4</ele>
        <time>2021-06-14T12:54:50Z</time>
      </trkpt>
      <trkpt lat="46.52639" lon="5.22443">
        <ele>221.4</ele>
        <time>2021-06-14T12:54:51Z</time>
      </trkpt>
      <trkpt lat="46.52643" lon="5.22423">
        <ele>221.4</ele>
        <time>2021-06-14T12:54:53Z</time>
      </trkpt>
      <trkpt lat="46.52648" lon="5.22404">
        <ele>221.4</ele>
        <time>2021-06-14T12:54:55Z</time>
      </trkpt>
      <trkpt lat="46.52653" lon="5.22384">
        <ele>221.4</ele>
        <time>2021-06-14T12:54:57Z</time>
      </trkpt>
      <trkpt lat="46.52658" lon="5.22365">
        <ele>221.4</ele>
        <time>2021-06-14T12:54:59Z</time>
      </trkpt>
      <trkpt lat="46.52662" lon="5.22347">
        <ele>221.4</ele>
        <time>2021-06-14T12:55:01Z</time>
      </trkpt>
      <trkpt lat="46.52667" lon="5.22329">
        <ele>221.4</ele>
        <time>2021-06-14T12:55:03Z</time>
      </trkpt>
      <trkpt lat="46.52671" lon="5.22312">
        <ele>221.4</ele>
        <time>2021-06-14T12:55:05Z</time>
      </trkpt>
      <trkpt lat="46.52675" lon="5.22295">
        <ele>221.6</ele>
        <time>2021-06-14T12:55:07Z</time>
      </trkpt>
      <trkpt lat="46.52679" lon="5.22279">
        <ele>222</ele>
        <time>2021-06-14T12:55:09Z</time>
      </trkpt>
      <trkpt lat="46.52683" lon="5.22264">
        <ele>222.4</ele>
        <time>2021-06-14T12:55:11Z</time>
      </trkpt>
      <trkpt lat="46.52686" lon="5.22248">
        <ele>222.6</ele>
        <time>2021-06-14T12:55:13Z</time>
      </trkpt>
      <trkpt lat="46.5269" lon="5.22233">
        <ele>223</ele>
        <time>2021-06-14T12:55:15Z</time>
      </trkpt>
      <trkpt lat="46.52694" lon="5.22218">
        <ele>223.4</ele>
        <time>2021-06-14T12:55:17Z</time>
      </trkpt>
      <trkpt lat="46.52697" lon="5.22203">
        <ele>223.8</ele>
        <time>2021-06-14T12:55:19Z</time>
      </trkpt>
      <trkpt lat="46.52699" lon="5.22196">
        <ele>224</ele>
        <time>2021-06-14T12:55:20Z</time>
      </trkpt>
      <trkpt lat="46.527" lon="5.22189">
        <ele>224.4</ele>
        <time>2021-06-14T12:55:21Z</time>
      </trkpt>
      <trkpt lat="46.52704" lon="5.22175">
        <ele>225</ele>
        <time>2021-06-14T12:55:23Z</time>
      </trkpt>
      <trkpt lat="46.52707" lon="5.22162">
        <ele>225.2</ele>
        <time>2021-06-14T12:55:24Z</time>
      </trkpt>
      <trkpt lat="46.52707" lon="5.22162">
        <ele>225.4</ele>
        <time>2021-06-14T12:55:25Z</time>
      </trkpt>
      <trkpt lat="46.52711" lon="5.22151">
        <ele>225.8</ele>
        <time>2021-06-14T12:55:27Z</time>
      </trkpt>
      <trkpt lat="46.52714" lon="5.2214">
        <ele>226.4</ele>
        <time>2021-06-14T12:55:29Z</time>
      </trkpt>
      <trkpt lat="46.52717" lon="5.22129">
        <ele>227</ele>
        <time>2021-06-14T12:55:31Z</time>
      </trkpt>
      <trkpt lat="46.52719" lon="5.22124">
        <ele>227.4</ele>
        <time>2021-06-14T12:55:32Z</time>
      </trkpt>
      <trkpt lat="46.5272" lon="5.22118">
        <ele>227.8</ele>
        <time>2021-06-14T12:55:33Z</time>
      </trkpt>
      <trkpt lat="46.52723" lon="5.22107">
        <ele>228.2</ele>
        <time>2021-06-14T12:55:35Z</time>
      </trkpt>
      <trkpt lat="46.52726" lon="5.22097">
        <ele>228.6</ele>
        <time>2021-06-14T12:55:37Z</time>
      </trkpt>
      <trkpt lat="46.52728" lon="5.22086">
        <ele>229.2</ele>
        <time>2021-06-14T12:55:39Z</time>
      </trkpt>
      <trkpt lat="46.5273" lon="5.22075">
        <ele>229.6</ele>
        <time>2021-06-14T12:55:41Z</time>
      </trkpt>
      <trkpt lat="46.52731" lon="5.22069">
        <ele>229.6</ele>
        <time>2021-06-14T12:55:42Z</time>
      </trkpt>
      <trkpt lat="46.52732" lon="5.22063">
        <ele>230</ele>
        <time>2021-06-14T12:55:43Z</time>
      </trkpt>
      <trkpt lat="46.52733" lon="5.22051">
        <ele>230.6</ele>
        <time>2021-06-14T12:55:45Z</time>
      </trkpt>
      <trkpt lat="46.52733" lon="5.22045">
        <ele>230.8</ele>
        <time>2021-06-14T12:55:46Z</time>
      </trkpt>
      <trkpt lat="46.52734" lon="5.22038">
        <ele>231.2</ele>
        <time>2021-06-14T12:55:47Z</time>
      </trkpt>
      <trkpt lat="46.52734" lon="5.22025">
        <ele>231.6</ele>
        <time>2021-06-14T12:55:49Z</time>
      </trkpt>
      <trkpt lat="46.52733" lon="5.22019">
        <ele>232</ele>
        <time>2021-06-14T12:55:50Z</time>
      </trkpt>
      <trkpt lat="46.52732" lon="5.22012">
        <ele>232.2</ele>
        <time>2021-06-14T12:55:51Z</time>
      </trkpt>
      <trkpt lat="46.5273" lon="5.21998">
        <ele>232.6</ele>
        <time>2021-06-14T12:55:53Z</time>
      </trkpt>
      <trkpt lat="46.52728" lon="5.21984">
        <ele>232.8</ele>
        <time>2021-06-14T12:55:55Z</time>
      </trkpt>
      <trkpt lat="46.52726" lon="5.2197">
        <ele>233.2</ele>
        <time>2021-06-14T12:55:57Z</time>
      </trkpt>
      <trkpt lat="46.52725" lon="5.21962">
        <ele>233.2</ele>
        <time>2021-06-14T12:55:58Z</time>
      </trkpt>
      <trkpt lat="46.52724" lon="5.21955">
        <ele>233.2</ele>
        <time>2021-06-14T12:55:59Z</time>
      </trkpt>
      <trkpt lat="46.52721" lon="5.2194">
        <ele>233.2</ele>
        <time>2021-06-14T12:56:01Z</time>
      </trkpt>
      <trkpt lat="46.52719" lon="5.21925">
        <ele>233.4</ele>
        <time>2021-06-14T12:56:03Z</time>
      </trkpt>
      <trkpt lat="46.52717" lon="5.2191">
        <ele>233.4</ele>
        <time>2021-06-14T12:56:05Z</time>
      </trkpt>
      <trkpt lat="46.52714" lon="5.21895">
        <ele>233.4</ele>
        <time>2021-06-14T12:56:07Z</time>
      </trkpt>
      <trkpt lat="46.52712" lon="5.21879">
        <ele>233.4</ele>
        <time>2021-06-14T12:56:09Z</time>
      </trkpt>
      <trkpt lat="46.52709" lon="5.21863">
        <ele>233.4</ele>
        <time>2021-06-14T12:56:11Z</time>
      </trkpt>
      <trkpt lat="46.52706" lon="5.21847">
        <ele>233.4</ele>
        <time>2021-06-14T12:56:13Z</time>
      </trkpt>
      <trkpt lat="46.52704" lon="5.21831">
        <ele>233.4</ele>
        <time>2021-06-14T12:56:15Z</time>
      </trkpt>
      <trkpt lat="46.52701" lon="5.21814">
        <ele>233.4</ele>
        <time>2021-06-14T12:56:17Z</time>
      </trkpt>
      <trkpt lat="46.527" lon="5.21806">
        <ele>233.4</ele>
        <time>2021-06-14T12:56:18Z</time>
      </trkpt>
      <trkpt lat="46.52698" lon="5.21798">
        <ele>233.4</ele>
        <time>2021-06-14T12:56:19Z</time>
      </trkpt>
      <trkpt lat="46.52696" lon="5.21782">
        <ele>233.4</ele>
        <time>2021-06-14T12:56:21Z</time>
      </trkpt>
      <trkpt lat="46.52693" lon="5.21765">
        <ele>233.6</ele>
        <time>2021-06-14T12:56:23Z</time>
      </trkpt>
      <trkpt lat="46.5269" lon="5.21749">
        <ele>233.6</ele>
        <time>2021-06-14T12:56:25Z</time>
      </trkpt>
      <trkpt lat="46.52688" lon="5.21732">
        <ele>233.6</ele>
        <time>2021-06-14T12:56:27Z</time>
      </trkpt>
      <trkpt lat="46.52685" lon="5.21715">
        <ele>233.6</ele>
        <time>2021-06-14T12:56:28Z</time>
      </trkpt>
      <trkpt lat="46.52685" lon="5.21715">
        <ele>233.6</ele>
        <time>2021-06-14T12:56:29Z</time>
      </trkpt>
      <trkpt lat="46.52682" lon="5.21697">
        <ele>233.6</ele>
        <time>2021-06-14T12:56:31Z</time>
      </trkpt>
      <trkpt lat="46.5268" lon="5.2168">
        <ele>233.6</ele>
        <time>2021-06-14T12:56:33Z</time>
      </trkpt>
      <trkpt lat="46.52676" lon="5.21663">
        <ele>233.8</ele>
        <time>2021-06-14T12:56:35Z</time>
      </trkpt>
      <trkpt lat="46.52673" lon="5.21645">
        <ele>233.8</ele>
        <time>2021-06-14T12:56:37Z</time>
      </trkpt>
      <trkpt lat="46.52671" lon="5.21627">
        <ele>233.8</ele>
        <time>2021-06-14T12:56:39Z</time>
      </trkpt>
      <trkpt lat="46.52668" lon="5.21608">
        <ele>233.8</ele>
        <time>2021-06-14T12:56:41Z</time>
      </trkpt>
      <trkpt lat="46.52665" lon="5.2159">
        <ele>233.6</ele>
        <time>2021-06-14T12:56:43Z</time>
      </trkpt>
      <trkpt lat="46.52662" lon="5.21571">
        <ele>233.6</ele>
        <time>2021-06-14T12:56:45Z</time>
      </trkpt>
      <trkpt lat="46.52659" lon="5.21553">
        <ele>233.4</ele>
        <time>2021-06-14T12:56:47Z</time>
      </trkpt>
      <trkpt lat="46.52656" lon="5.21535">
        <ele>233.4</ele>
        <time>2021-06-14T12:56:49Z</time>
      </trkpt>
      <trkpt lat="46.52653" lon="5.21517">
        <ele>233.4</ele>
        <time>2021-06-14T12:56:51Z</time>
      </trkpt>
      <trkpt lat="46.52651" lon="5.21498">
        <ele>233.4</ele>
        <time>2021-06-14T12:56:53Z</time>
      </trkpt>
      <trkpt lat="46.52648" lon="5.2148">
        <ele>233.2</ele>
        <time>2021-06-14T12:56:55Z</time>
      </trkpt>
      <trkpt lat="46.52644" lon="5.21462">
        <ele>233.2</ele>
        <time>2021-06-14T12:56:57Z</time>
      </trkpt>
      <trkpt lat="46.52642" lon="5.21443">
        <ele>233.2</ele>
        <time>2021-06-14T12:56:59Z</time>
      </trkpt>
      <trkpt lat="46.52639" lon="5.21425">
        <ele>233</ele>
        <time>2021-06-14T12:57:01Z</time>
      </trkpt>
      <trkpt lat="46.52636" lon="5.21407">
        <ele>233</ele>
        <time>2021-06-14T12:57:03Z</time>
      </trkpt>
      <trkpt lat="46.52633" lon="5.21389">
        <ele>233</ele>
        <time>2021-06-14T12:57:05Z</time>
      </trkpt>
      <trkpt lat="46.52629" lon="5.21373">
        <ele>233</ele>
        <time>2021-06-14T12:57:06Z</time>
      </trkpt>
      <trkpt lat="46.52629" lon="5.21373">
        <ele>233</ele>
        <time>2021-06-14T12:57:07Z</time>
      </trkpt>
      <trkpt lat="46.52626" lon="5.21361">
        <ele>233</ele>
        <time>2021-06-14T12:57:09Z</time>
      </trkpt>
      <trkpt lat="46.52624" lon="5.21351">
        <ele>233</ele>
        <time>2021-06-14T12:57:11Z</time>
      </trkpt>
      <trkpt lat="46.52623" lon="5.21339">
        <ele>233</ele>
        <time>2021-06-14T12:57:13Z</time>
      </trkpt>
      <trkpt lat="46.52622" lon="5.21325">
        <ele>233</ele>
        <time>2021-06-14T12:57:15Z</time>
      </trkpt>
      <trkpt lat="46.52621" lon="5.21316">
        <ele>233</ele>
        <time>2021-06-14T12:57:16Z</time>
      </trkpt>
      <trkpt lat="46.5262" lon="5.21308">
        <ele>233</ele>
        <time>2021-06-14T12:57:17Z</time>
      </trkpt>
      <trkpt lat="46.52617" lon="5.2129">
        <ele>232.8</ele>
        <time>2021-06-14T12:57:19Z</time>
      </trkpt>
      <trkpt lat="46.52615" lon="5.21272">
        <ele>232.8</ele>
        <time>2021-06-14T12:57:21Z</time>
      </trkpt>
      <trkpt lat="46.52612" lon="5.21254">
        <ele>232.8</ele>
        <time>2021-06-14T12:57:23Z</time>
      </trkpt>
      <trkpt lat="46.52608" lon="5.21234">
        <ele>232.2</ele>
        <time>2021-06-14T12:57:25Z</time>
      </trkpt>
      <trkpt lat="46.52605" lon="5.21215">
        <ele>231.6</ele>
        <time>2021-06-14T12:57:27Z</time>
      </trkpt>
      <trkpt lat="46.52602" lon="5.21196">
        <ele>231.2</ele>
        <time>2021-06-14T12:57:29Z</time>
      </trkpt>
      <trkpt lat="46.52601" lon="5.21187">
        <ele>230.8</ele>
        <time>2021-06-14T12:57:30Z</time>
      </trkpt>
      <trkpt lat="46.526" lon="5.2118">
        <ele>230.6</ele>
        <time>2021-06-14T12:57:31Z</time>
      </trkpt>
      <trkpt lat="46.52601" lon="5.21171">
        <ele>230.2</ele>
        <time>2021-06-14T12:57:33Z</time>
      </trkpt>
      <trkpt lat="46.52602" lon="5.21169">
        <ele>230</ele>
        <time>2021-06-14T12:57:35Z</time>
      </trkpt>
      <trkpt lat="46.52602" lon="5.21169">
        <ele>230</ele>
        <time>2021-06-14T12:57:36Z</time>
      </trkpt>
      <trkpt lat="46.52605" lon="5.21167">
        <ele>230</ele>
        <time>2021-06-14T12:58:47Z</time>
      </trkpt>
      <trkpt lat="46.52609" lon="5.21164">
        <ele>230</ele>
        <time>2021-06-14T12:58:49Z</time>
      </trkpt>
      <trkpt lat="46.52618" lon="5.2116">
        <ele>230.2</ele>
        <time>2021-06-14T12:58:51Z</time>
      </trkpt>
      <trkpt lat="46.52623" lon="5.21159">
        <ele>230.2</ele>
        <time>2021-06-14T12:58:52Z</time>
      </trkpt>
      <trkpt lat="46.52629" lon="5.21158">
        <ele>230</ele>
        <time>2021-06-14T12:58:53Z</time>
      </trkpt>
      <trkpt lat="46.52641" lon="5.21155">
        <ele>229.8</ele>
        <time>2021-06-14T12:58:55Z</time>
      </trkpt>
      <trkpt lat="46.52655" lon="5.21151">
        <ele>229.6</ele>
        <time>2021-06-14T12:58:57Z</time>
      </trkpt>
      <trkpt lat="46.52668" lon="5.21147">
        <ele>229</ele>
        <time>2021-06-14T12:58:59Z</time>
      </trkpt>
      <trkpt lat="46.52682" lon="5.21144">
        <ele>228.8</ele>
        <time>2021-06-14T12:59:01Z</time>
      </trkpt>
      <trkpt lat="46.52696" lon="5.2114">
        <ele>228.6</ele>
        <time>2021-06-14T12:59:03Z</time>
      </trkpt>
      <trkpt lat="46.5271" lon="5.21137">
        <ele>228.4</ele>
        <time>2021-06-14T12:59:05Z</time>
      </trkpt>
      <trkpt lat="46.52724" lon="5.21134">
        <ele>228</ele>
        <time>2021-06-14T12:59:07Z</time>
      </trkpt>
      <trkpt lat="46.52731" lon="5.21132">
        <ele>228</ele>
        <time>2021-06-14T12:59:08Z</time>
      </trkpt>
      <trkpt lat="46.52738" lon="5.2113">
        <ele>227.8</ele>
        <time>2021-06-14T12:59:09Z</time>
      </trkpt>
      <trkpt lat="46.52752" lon="5.21126">
        <ele>227.6</ele>
        <time>2021-06-14T12:59:11Z</time>
      </trkpt>
      <trkpt lat="46.52766" lon="5.21123">
        <ele>227.6</ele>
        <time>2021-06-14T12:59:13Z</time>
      </trkpt>
      <trkpt lat="46.52779" lon="5.21119">
        <ele>227.6</ele>
        <time>2021-06-14T12:59:15Z</time>
      </trkpt>
      <trkpt lat="46.52792" lon="5.21116">
        <ele>227.4</ele>
        <time>2021-06-14T12:59:17Z</time>
      </trkpt>
      <trkpt lat="46.52805" lon="5.21112">
        <ele>227.2</ele>
        <time>2021-06-14T12:59:19Z</time>
      </trkpt>
      <trkpt lat="46.52812" lon="5.21111">
        <ele>227.2</ele>
        <time>2021-06-14T12:59:20Z</time>
      </trkpt>
      <trkpt lat="46.52818" lon="5.21109">
        <ele>227.2</ele>
        <time>2021-06-14T12:59:21Z</time>
      </trkpt>
      <trkpt lat="46.5283" lon="5.21106">
        <ele>227.2</ele>
        <time>2021-06-14T12:59:23Z</time>
      </trkpt>
      <trkpt lat="46.52843" lon="5.21102">
        <ele>227.2</ele>
        <time>2021-06-14T12:59:25Z</time>
      </trkpt>
      <trkpt lat="46.52854" lon="5.21097">
        <ele>227.2</ele>
        <time>2021-06-14T12:59:27Z</time>
      </trkpt>
      <trkpt lat="46.52866" lon="5.21092">
        <ele>227.4</ele>
        <time>2021-06-14T12:59:29Z</time>
      </trkpt>
      <trkpt lat="46.52877" lon="5.21087">
        <ele>227.4</ele>
        <time>2021-06-14T12:59:31Z</time>
      </trkpt>
      <trkpt lat="46.52888" lon="5.21081">
        <ele>227.6</ele>
        <time>2021-06-14T12:59:33Z</time>
      </trkpt>
      <trkpt lat="46.529" lon="5.21075">
        <ele>227.8</ele>
        <time>2021-06-14T12:59:35Z</time>
      </trkpt>
      <trkpt lat="46.52911" lon="5.21069">
        <ele>228</ele>
        <time>2021-06-14T12:59:37Z</time>
      </trkpt>
      <trkpt lat="46.52923" lon="5.21063">
        <ele>228</ele>
        <time>2021-06-14T12:59:39Z</time>
      </trkpt>
      <trkpt lat="46.52936" lon="5.21056">
        <ele>228</ele>
        <time>2021-06-14T12:59:41Z</time>
      </trkpt>
      <trkpt lat="46.52948" lon="5.21049">
        <ele>228</ele>
        <time>2021-06-14T12:59:43Z</time>
      </trkpt>
      <trkpt lat="46.52955" lon="5.21045">
        <ele>228</ele>
        <time>2021-06-14T12:59:44Z</time>
      </trkpt>
      <trkpt lat="46.52961" lon="5.21042">
        <ele>228</ele>
        <time>2021-06-14T12:59:45Z</time>
      </trkpt>
      <trkpt lat="46.52973" lon="5.21035">
        <ele>228</ele>
        <time>2021-06-14T12:59:47Z</time>
      </trkpt>
      <trkpt lat="46.52986" lon="5.21029">
        <ele>228</ele>
        <time>2021-06-14T12:59:49Z</time>
      </trkpt>
      <trkpt lat="46.52999" lon="5.21023">
        <ele>228</ele>
        <time>2021-06-14T12:59:51Z</time>
      </trkpt>
      <trkpt lat="46.53005" lon="5.2102">
        <ele>228</ele>
        <time>2021-06-14T12:59:52Z</time>
      </trkpt>
      <trkpt lat="46.53012" lon="5.21016">
        <ele>228</ele>
        <time>2021-06-14T12:59:53Z</time>
      </trkpt>
      <trkpt lat="46.53024" lon="5.2101">
        <ele>228</ele>
        <time>2021-06-14T12:59:55Z</time>
      </trkpt>
      <trkpt lat="46.53036" lon="5.21004">
        <ele>227.4</ele>
        <time>2021-06-14T12:59:57Z</time>
      </trkpt>
      <trkpt lat="46.53041" lon="5.21">
        <ele>227.4</ele>
        <time>2021-06-14T12:59:58Z</time>
      </trkpt>
      <trkpt lat="46.53047" lon="5.20996">
        <ele>227.2</ele>
        <time>2021-06-14T12:59:59Z</time>
      </trkpt>
      <trkpt lat="46.53058" lon="5.20988">
        <ele>227.2</ele>
        <time>2021-06-14T13:00:01Z</time>
      </trkpt>
      <trkpt lat="46.53068" lon="5.20977">
        <ele>227.2</ele>
        <time>2021-06-14T13:00:03Z</time>
      </trkpt>
      <trkpt lat="46.53073" lon="5.20971">
        <ele>227.2</ele>
        <time>2021-06-14T13:00:04Z</time>
      </trkpt>
      <trkpt lat="46.53078" lon="5.20965">
        <ele>227.2</ele>
        <time>2021-06-14T13:00:05Z</time>
      </trkpt>
      <trkpt lat="46.53087" lon="5.20951">
        <ele>227.2</ele>
        <time>2021-06-14T13:00:07Z</time>
      </trkpt>
      <trkpt lat="46.53097" lon="5.20936">
        <ele>227.2</ele>
        <time>2021-06-14T13:00:09Z</time>
      </trkpt>
      <trkpt lat="46.53105" lon="5.20922">
        <ele>227.2</ele>
        <time>2021-06-14T13:00:11Z</time>
      </trkpt>
      <trkpt lat="46.5311" lon="5.20915">
        <ele>227.2</ele>
        <time>2021-06-14T13:00:12Z</time>
      </trkpt>
      <trkpt lat="46.53114" lon="5.20908">
        <ele>227.2</ele>
        <time>2021-06-14T13:00:13Z</time>
      </trkpt>
      <trkpt lat="46.53124" lon="5.20895">
        <ele>227.4</ele>
        <time>2021-06-14T13:00:15Z</time>
      </trkpt>
      <trkpt lat="46.53133" lon="5.20883">
        <ele>227.6</ele>
        <time>2021-06-14T13:00:17Z</time>
      </trkpt>
      <trkpt lat="46.53142" lon="5.20871">
        <ele>227.6</ele>
        <time>2021-06-14T13:00:19Z</time>
      </trkpt>
      <trkpt lat="46.53147" lon="5.20866">
        <ele>227.8</ele>
        <time>2021-06-14T13:00:20Z</time>
      </trkpt>
      <trkpt lat="46.53152" lon="5.20861">
        <ele>228</ele>
        <time>2021-06-14T13:00:21Z</time>
      </trkpt>
      <trkpt lat="46.53162" lon="5.20852">
        <ele>228.2</ele>
        <time>2021-06-14T13:00:23Z</time>
      </trkpt>
      <trkpt lat="46.53172" lon="5.20843">
        <ele>228.2</ele>
        <time>2021-06-14T13:00:25Z</time>
      </trkpt>
      <trkpt lat="46.53177" lon="5.2084">
        <ele>228.2</ele>
        <time>2021-06-14T13:00:26Z</time>
      </trkpt>
      <trkpt lat="46.53182" lon="5.20836">
        <ele>228.4</ele>
        <time>2021-06-14T13:00:27Z</time>
      </trkpt>
      <trkpt lat="46.53193" lon="5.20831">
        <ele>228.6</ele>
        <time>2021-06-14T13:00:29Z</time>
      </trkpt>
      <trkpt lat="46.53205" lon="5.20827">
        <ele>228.8</ele>
        <time>2021-06-14T13:00:31Z</time>
      </trkpt>
      <trkpt lat="46.5321" lon="5.20825">
        <ele>229</ele>
        <time>2021-06-14T13:00:32Z</time>
      </trkpt>
      <trkpt lat="46.53216" lon="5.20824">
        <ele>229.2</ele>
        <time>2021-06-14T13:00:33Z</time>
      </trkpt>
      <trkpt lat="46.53228" lon="5.20822">
        <ele>229.6</ele>
        <time>2021-06-14T13:00:35Z</time>
      </trkpt>
      <trkpt lat="46.53241" lon="5.2082">
        <ele>229.8</ele>
        <time>2021-06-14T13:00:37Z</time>
      </trkpt>
      <trkpt lat="46.53253" lon="5.20818">
        <ele>230</ele>
        <time>2021-06-14T13:00:39Z</time>
      </trkpt>
      <trkpt lat="46.53266" lon="5.20814">
        <ele>230.2</ele>
        <time>2021-06-14T13:00:41Z</time>
      </trkpt>
      <trkpt lat="46.53279" lon="5.20808">
        <ele>230.2</ele>
        <time>2021-06-14T13:00:43Z</time>
      </trkpt>
      <trkpt lat="46.53285" lon="5.20805">
        <ele>230.2</ele>
        <time>2021-06-14T13:00:44Z</time>
      </trkpt>
      <trkpt lat="46.53292" lon="5.20801">
        <ele>230.2</ele>
        <time>2021-06-14T13:00:45Z</time>
      </trkpt>
      <trkpt lat="46.53304" lon="5.20793">
        <ele>230</ele>
        <time>2021-06-14T13:00:47Z</time>
      </trkpt>
      <trkpt lat="46.53317" lon="5.20785">
        <ele>229.8</ele>
        <time>2021-06-14T13:00:49Z</time>
      </trkpt>
      <trkpt lat="46.53329" lon="5.20777">
        <ele>229.8</ele>
        <time>2021-06-14T13:00:51Z</time>
      </trkpt>
      <trkpt lat="46.53334" lon="5.20772">
        <ele>229.6</ele>
        <time>2021-06-14T13:00:52Z</time>
      </trkpt>
      <trkpt lat="46.5334" lon="5.20767">
        <ele>229.4</ele>
        <time>2021-06-14T13:00:53Z</time>
      </trkpt>
      <trkpt lat="46.53351" lon="5.20757">
        <ele>229.4</ele>
        <time>2021-06-14T13:00:55Z</time>
      </trkpt>
      <trkpt lat="46.53361" lon="5.20744">
        <ele>229.2</ele>
        <time>2021-06-14T13:00:57Z</time>
      </trkpt>
      <trkpt lat="46.53365" lon="5.20737">
        <ele>229.2</ele>
        <time>2021-06-14T13:00:58Z</time>
      </trkpt>
      <trkpt lat="46.53369" lon="5.2073">
        <ele>229.2</ele>
        <time>2021-06-14T13:00:59Z</time>
      </trkpt>
      <trkpt lat="46.53377" lon="5.20715">
        <ele>229.2</ele>
        <time>2021-06-14T13:01:01Z</time>
      </trkpt>
      <trkpt lat="46.53384" lon="5.20699">
        <ele>229</ele>
        <time>2021-06-14T13:01:03Z</time>
      </trkpt>
      <trkpt lat="46.53387" lon="5.20691">
        <ele>229</ele>
        <time>2021-06-14T13:01:04Z</time>
      </trkpt>
      <trkpt lat="46.53391" lon="5.20683">
        <ele>229</ele>
        <time>2021-06-14T13:01:05Z</time>
      </trkpt>
      <trkpt lat="46.53398" lon="5.20667">
        <ele>229</ele>
        <time>2021-06-14T13:01:07Z</time>
      </trkpt>
      <trkpt lat="46.53405" lon="5.20651">
        <ele>229</ele>
        <time>2021-06-14T13:01:09Z</time>
      </trkpt>
      <trkpt lat="46.53411" lon="5.20635">
        <ele>228.8</ele>
        <time>2021-06-14T13:01:11Z</time>
      </trkpt>
      <trkpt lat="46.53419" lon="5.20619">
        <ele>228.8</ele>
        <time>2021-06-14T13:01:13Z</time>
      </trkpt>
      <trkpt lat="46.53423" lon="5.20612">
        <ele>228.8</ele>
        <time>2021-06-14T13:01:14Z</time>
      </trkpt>
      <trkpt lat="46.53428" lon="5.20605">
        <ele>228.8</ele>
        <time>2021-06-14T13:01:15Z</time>
      </trkpt>
      <trkpt lat="46.53437" lon="5.20592">
        <ele>228.8</ele>
        <time>2021-06-14T13:01:17Z</time>
      </trkpt>
      <trkpt lat="46.53447" lon="5.20579">
        <ele>228.6</ele>
        <time>2021-06-14T13:01:19Z</time>
      </trkpt>
      <trkpt lat="46.53458" lon="5.20564">
        <ele>228.4</ele>
        <time>2021-06-14T13:01:21Z</time>
      </trkpt>
      <trkpt lat="46.53469" lon="5.2055">
        <ele>228.2</ele>
        <time>2021-06-14T13:01:22Z</time>
      </trkpt>
      <trkpt lat="46.53469" lon="5.2055">
        <ele>228</ele>
        <time>2021-06-14T13:01:23Z</time>
      </trkpt>
      <trkpt lat="46.53481" lon="5.20535">
        <ele>227.8</ele>
        <time>2021-06-14T13:01:25Z</time>
      </trkpt>
      <trkpt lat="46.53493" lon="5.20519">
        <ele>227.4</ele>
        <time>2021-06-14T13:01:27Z</time>
      </trkpt>
      <trkpt lat="46.53505" lon="5.20504">
        <ele>227</ele>
        <time>2021-06-14T13:01:29Z</time>
      </trkpt>
      <trkpt lat="46.53517" lon="5.20488">
        <ele>226.2</ele>
        <time>2021-06-14T13:01:31Z</time>
      </trkpt>
      <trkpt lat="46.53523" lon="5.2048">
        <ele>225.8</ele>
        <time>2021-06-14T13:01:32Z</time>
      </trkpt>
      <trkpt lat="46.53529" lon="5.20472">
        <ele>225.6</ele>
        <time>2021-06-14T13:01:33Z</time>
      </trkpt>
      <trkpt lat="46.5354" lon="5.20456">
        <ele>225</ele>
        <time>2021-06-14T13:01:35Z</time>
      </trkpt>
      <trkpt lat="46.53552" lon="5.20441">
        <ele>224.6</ele>
        <time>2021-06-14T13:01:36Z</time>
      </trkpt>
      <trkpt lat="46.53552" lon="5.20441">
        <ele>224.2</ele>
        <time>2021-06-14T13:01:37Z</time>
      </trkpt>
      <trkpt lat="46.53557" lon="5.20433">
        <ele>224</ele>
        <time>2021-06-14T13:01:38Z</time>
      </trkpt>
      <trkpt lat="46.53563" lon="5.20426">
        <ele>224</ele>
        <time>2021-06-14T13:01:39Z</time>
      </trkpt>
      <trkpt lat="46.53574" lon="5.20411">
        <ele>223.8</ele>
        <time>2021-06-14T13:01:41Z</time>
      </trkpt>
      <trkpt lat="46.53584" lon="5.20397">
        <ele>223.8</ele>
        <time>2021-06-14T13:01:43Z</time>
      </trkpt>
      <trkpt lat="46.53593" lon="5.20384">
        <ele>223.8</ele>
        <time>2021-06-14T13:01:45Z</time>
      </trkpt>
      <trkpt lat="46.53603" lon="5.20372">
        <ele>224</ele>
        <time>2021-06-14T13:01:47Z</time>
      </trkpt>
      <trkpt lat="46.53612" lon="5.20359">
        <ele>224</ele>
        <time>2021-06-14T13:01:49Z</time>
      </trkpt>
      <trkpt lat="46.5362" lon="5.20348">
        <ele>224.2</ele>
        <time>2021-06-14T13:01:51Z</time>
      </trkpt>
      <trkpt lat="46.53628" lon="5.20336">
        <ele>225</ele>
        <time>2021-06-14T13:01:53Z</time>
      </trkpt>
      <trkpt lat="46.53635" lon="5.20325">
        <ele>225.6</ele>
        <time>2021-06-14T13:01:55Z</time>
      </trkpt>
      <trkpt lat="46.53642" lon="5.20314">
        <ele>226.4</ele>
        <time>2021-06-14T13:01:57Z</time>
      </trkpt>
      <trkpt lat="46.53649" lon="5.20303">
        <ele>226.8</ele>
        <time>2021-06-14T13:01:59Z</time>
      </trkpt>
      <trkpt lat="46.53655" lon="5.20291">
        <ele>227.4</ele>
        <time>2021-06-14T13:02:01Z</time>
      </trkpt>
      <trkpt lat="46.53662" lon="5.20279">
        <ele>228.2</ele>
        <time>2021-06-14T13:02:03Z</time>
      </trkpt>
      <trkpt lat="46.53669" lon="5.20267">
        <ele>228.8</ele>
        <time>2021-06-14T13:02:05Z</time>
      </trkpt>
      <trkpt lat="46.53676" lon="5.20255">
        <ele>229</ele>
        <time>2021-06-14T13:02:07Z</time>
      </trkpt>
      <trkpt lat="46.5368" lon="5.20248">
        <ele>229.4</ele>
        <time>2021-06-14T13:02:08Z</time>
      </trkpt>
      <trkpt lat="46.53683" lon="5.20242">
        <ele>229.6</ele>
        <time>2021-06-14T13:02:09Z</time>
      </trkpt>
      <trkpt lat="46.5369" lon="5.2023">
        <ele>229.8</ele>
        <time>2021-06-14T13:02:11Z</time>
      </trkpt>
      <trkpt lat="46.53697" lon="5.20218">
        <ele>230</ele>
        <time>2021-06-14T13:02:13Z</time>
      </trkpt>
      <trkpt lat="46.53704" lon="5.20207">
        <ele>230.2</ele>
        <time>2021-06-14T13:02:15Z</time>
      </trkpt>
      <trkpt lat="46.53711" lon="5.20195">
        <ele>230.2</ele>
        <time>2021-06-14T13:02:17Z</time>
      </trkpt>
      <trkpt lat="46.53715" lon="5.20189">
        <ele>230.4</ele>
        <time>2021-06-14T13:02:18Z</time>
      </trkpt>
      <trkpt lat="46.53718" lon="5.20183">
        <ele>230.4</ele>
        <time>2021-06-14T13:02:19Z</time>
      </trkpt>
      <trkpt lat="46.53725" lon="5.20171">
        <ele>230.4</ele>
        <time>2021-06-14T13:02:21Z</time>
      </trkpt>
      <trkpt lat="46.53729" lon="5.20165">
        <ele>230.6</ele>
        <time>2021-06-14T13:02:22Z</time>
      </trkpt>
      <trkpt lat="46.53733" lon="5.20159">
        <ele>230.6</ele>
        <time>2021-06-14T13:02:23Z</time>
      </trkpt>
      <trkpt lat="46.5374" lon="5.20146">
        <ele>230.8</ele>
        <time>2021-06-14T13:02:25Z</time>
      </trkpt>
      <trkpt lat="46.53747" lon="5.20133">
        <ele>231</ele>
        <time>2021-06-14T13:02:27Z</time>
      </trkpt>
      <trkpt lat="46.53755" lon="5.20121">
        <ele>231</ele>
        <time>2021-06-14T13:02:29Z</time>
      </trkpt>
      <trkpt lat="46.53763" lon="5.20107">
        <ele>231</ele>
        <time>2021-06-14T13:02:31Z</time>
      </trkpt>
      <trkpt lat="46.5377" lon="5.20093">
        <ele>231</ele>
        <time>2021-06-14T13:02:33Z</time>
      </trkpt>
      <trkpt lat="46.53778" lon="5.2008">
        <ele>231</ele>
        <time>2021-06-14T13:02:35Z</time>
      </trkpt>
      <trkpt lat="46.53786" lon="5.20067">
        <ele>231</ele>
        <time>2021-06-14T13:02:37Z</time>
      </trkpt>
      <trkpt lat="46.53795" lon="5.20055">
        <ele>230.8</ele>
        <time>2021-06-14T13:02:39Z</time>
      </trkpt>
      <trkpt lat="46.53803" lon="5.20043">
        <ele>230.8</ele>
        <time>2021-06-14T13:02:41Z</time>
      </trkpt>
      <trkpt lat="46.53812" lon="5.20029">
        <ele>230.8</ele>
        <time>2021-06-14T13:02:43Z</time>
      </trkpt>
      <trkpt lat="46.53816" lon="5.20022">
        <ele>230.8</ele>
        <time>2021-06-14T13:02:44Z</time>
      </trkpt>
      <trkpt lat="46.53821" lon="5.20016">
        <ele>230.6</ele>
        <time>2021-06-14T13:02:45Z</time>
      </trkpt>
      <trkpt lat="46.53831" lon="5.20001">
        <ele>230.6</ele>
        <time>2021-06-14T13:02:47Z</time>
      </trkpt>
      <trkpt lat="46.53841" lon="5.19987">
        <ele>230.6</ele>
        <time>2021-06-14T13:02:49Z</time>
      </trkpt>
      <trkpt lat="46.53852" lon="5.19971">
        <ele>230.4</ele>
        <time>2021-06-14T13:02:51Z</time>
      </trkpt>
      <trkpt lat="46.53863" lon="5.19955">
        <ele>229.8</ele>
        <time>2021-06-14T13:02:53Z</time>
      </trkpt>
      <trkpt lat="46.53875" lon="5.19937">
        <ele>229.4</ele>
        <time>2021-06-14T13:02:55Z</time>
      </trkpt>
      <trkpt lat="46.53881" lon="5.19928">
        <ele>229.2</ele>
        <time>2021-06-14T13:02:56Z</time>
      </trkpt>
      <trkpt lat="46.53887" lon="5.19919">
        <ele>228.8</ele>
        <time>2021-06-14T13:02:57Z</time>
      </trkpt>
      <trkpt lat="46.53894" lon="5.1991">
        <ele>228.4</ele>
        <time>2021-06-14T13:02:58Z</time>
      </trkpt>
      <trkpt lat="46.539" lon="5.19901">
        <ele>228</ele>
        <time>2021-06-14T13:02:59Z</time>
      </trkpt>
      <trkpt lat="46.53913" lon="5.19882">
        <ele>226.8</ele>
        <time>2021-06-14T13:03:01Z</time>
      </trkpt>
      <trkpt lat="46.53926" lon="5.19862">
        <ele>225.6</ele>
        <time>2021-06-14T13:03:03Z</time>
      </trkpt>
      <trkpt lat="46.53932" lon="5.19852">
        <ele>224.6</ele>
        <time>2021-06-14T13:03:04Z</time>
      </trkpt>
      <trkpt lat="46.53937" lon="5.19842">
        <ele>224</ele>
        <time>2021-06-14T13:03:05Z</time>
      </trkpt>
      <trkpt lat="46.53942" lon="5.1983">
        <ele>223.2</ele>
        <time>2021-06-14T13:03:06Z</time>
      </trkpt>
      <trkpt lat="46.53946" lon="5.19819">
        <ele>222.4</ele>
        <time>2021-06-14T13:03:07Z</time>
      </trkpt>
      <trkpt lat="46.53951" lon="5.19808">
        <ele>222</ele>
        <time>2021-06-14T13:03:08Z</time>
      </trkpt>
      <trkpt lat="46.53956" lon="5.19797">
        <ele>221.8</ele>
        <time>2021-06-14T13:03:09Z</time>
      </trkpt>
      <trkpt lat="46.5396" lon="5.19786">
        <ele>221.6</ele>
        <time>2021-06-14T13:03:10Z</time>
      </trkpt>
      <trkpt lat="46.53965" lon="5.19774">
        <ele>221.6</ele>
        <time>2021-06-14T13:03:11Z</time>
      </trkpt>
      <trkpt lat="46.53973" lon="5.19753">
        <ele>221.4</ele>
        <time>2021-06-14T13:03:13Z</time>
      </trkpt>
      <trkpt lat="46.5398" lon="5.19732">
        <ele>221.4</ele>
        <time>2021-06-14T13:03:15Z</time>
      </trkpt>
      <trkpt lat="46.53988" lon="5.19711">
        <ele>221.2</ele>
        <time>2021-06-14T13:03:17Z</time>
      </trkpt>
      <trkpt lat="46.53992" lon="5.19702">
        <ele>221</ele>
        <time>2021-06-14T13:03:18Z</time>
      </trkpt>
      <trkpt lat="46.53995" lon="5.19692">
        <ele>221</ele>
        <time>2021-06-14T13:03:19Z</time>
      </trkpt>
      <trkpt lat="46.54002" lon="5.19675">
        <ele>220.8</ele>
        <time>2021-06-14T13:03:21Z</time>
      </trkpt>
      <trkpt lat="46.54008" lon="5.19657">
        <ele>220.8</ele>
        <time>2021-06-14T13:03:23Z</time>
      </trkpt>
      <trkpt lat="46.54015" lon="5.1964">
        <ele>220.6</ele>
        <time>2021-06-14T13:03:25Z</time>
      </trkpt>
      <trkpt lat="46.54021" lon="5.19623">
        <ele>221</ele>
        <time>2021-06-14T13:03:27Z</time>
      </trkpt>
      <trkpt lat="46.54028" lon="5.19606">
        <ele>221.8</ele>
        <time>2021-06-14T13:03:29Z</time>
      </trkpt>
      <trkpt lat="46.54032" lon="5.19598">
        <ele>222.4</ele>
        <time>2021-06-14T13:03:30Z</time>
      </trkpt>
      <trkpt lat="46.54035" lon="5.1959">
        <ele>222.6</ele>
        <time>2021-06-14T13:03:31Z</time>
      </trkpt>
      <trkpt lat="46.5404" lon="5.19583">
        <ele>222.8</ele>
        <time>2021-06-14T13:03:32Z</time>
      </trkpt>
      <trkpt lat="46.54045" lon="5.19577">
        <ele>223</ele>
        <time>2021-06-14T13:03:33Z</time>
      </trkpt>
      <trkpt lat="46.54055" lon="5.19565">
        <ele>223.2</ele>
        <time>2021-06-14T13:03:35Z</time>
      </trkpt>
      <trkpt lat="46.54066" lon="5.19556">
        <ele>223.4</ele>
        <time>2021-06-14T13:03:37Z</time>
      </trkpt>
      <trkpt lat="46.54078" lon="5.19548">
        <ele>223.4</ele>
        <time>2021-06-14T13:03:39Z</time>
      </trkpt>
      <trkpt lat="46.5409" lon="5.19541">
        <ele>223.4</ele>
        <time>2021-06-14T13:03:41Z</time>
      </trkpt>
      <trkpt lat="46.54103" lon="5.19534">
        <ele>223.6</ele>
        <time>2021-06-14T13:03:43Z</time>
      </trkpt>
      <trkpt lat="46.54109" lon="5.19531">
        <ele>223.6</ele>
        <time>2021-06-14T13:03:44Z</time>
      </trkpt>
      <trkpt lat="46.54115" lon="5.19529">
        <ele>223.6</ele>
        <time>2021-06-14T13:03:45Z</time>
      </trkpt>
      <trkpt lat="46.54127" lon="5.19524">
        <ele>223.6</ele>
        <time>2021-06-14T13:03:47Z</time>
      </trkpt>
      <trkpt lat="46.5414" lon="5.19522">
        <ele>223.8</ele>
        <time>2021-06-14T13:03:49Z</time>
      </trkpt>
      <trkpt lat="46.54152" lon="5.19519">
        <ele>223.8</ele>
        <time>2021-06-14T13:03:51Z</time>
      </trkpt>
      <trkpt lat="46.54164" lon="5.19517">
        <ele>223.8</ele>
        <time>2021-06-14T13:03:53Z</time>
      </trkpt>
      <trkpt lat="46.54176" lon="5.19514">
        <ele>224</ele>
        <time>2021-06-14T13:03:55Z</time>
      </trkpt>
      <trkpt lat="46.54189" lon="5.19512">
        <ele>224</ele>
        <time>2021-06-14T13:03:57Z</time>
      </trkpt>
      <trkpt lat="46.54201" lon="5.19509">
        <ele>224</ele>
        <time>2021-06-14T13:03:59Z</time>
      </trkpt>
      <trkpt lat="46.54213" lon="5.19506">
        <ele>224</ele>
        <time>2021-06-14T13:04:01Z</time>
      </trkpt>
      <trkpt lat="46.54226" lon="5.19503">
        <ele>224.2</ele>
        <time>2021-06-14T13:04:03Z</time>
      </trkpt>
      <trkpt lat="46.54238" lon="5.195">
        <ele>224.2</ele>
        <time>2021-06-14T13:04:05Z</time>
      </trkpt>
      <trkpt lat="46.54245" lon="5.19499">
        <ele>224.4</ele>
        <time>2021-06-14T13:04:06Z</time>
      </trkpt>
      <trkpt lat="46.54251" lon="5.19497">
        <ele>224.4</ele>
        <time>2021-06-14T13:04:07Z</time>
      </trkpt>
      <trkpt lat="46.54264" lon="5.19494">
        <ele>224.4</ele>
        <time>2021-06-14T13:04:09Z</time>
      </trkpt>
      <trkpt lat="46.54277" lon="5.19491">
        <ele>224.4</ele>
        <time>2021-06-14T13:04:11Z</time>
      </trkpt>
      <trkpt lat="46.5429" lon="5.19488">
        <ele>224.4</ele>
        <time>2021-06-14T13:04:13Z</time>
      </trkpt>
      <trkpt lat="46.54303" lon="5.19485">
        <ele>224.4</ele>
        <time>2021-06-14T13:04:15Z</time>
      </trkpt>
      <trkpt lat="46.54316" lon="5.19482">
        <ele>224.4</ele>
        <time>2021-06-14T13:04:17Z</time>
      </trkpt>
      <trkpt lat="46.54322" lon="5.19481">
        <ele>224.4</ele>
        <time>2021-06-14T13:04:18Z</time>
      </trkpt>
      <trkpt lat="46.54329" lon="5.19479">
        <ele>224.4</ele>
        <time>2021-06-14T13:04:19Z</time>
      </trkpt>
      <trkpt lat="46.54342" lon="5.19476">
        <ele>224.2</ele>
        <time>2021-06-14T13:04:21Z</time>
      </trkpt>
      <trkpt lat="46.54357" lon="5.19473">
        <ele>224.2</ele>
        <time>2021-06-14T13:04:23Z</time>
      </trkpt>
      <trkpt lat="46.54371" lon="5.19469">
        <ele>224.2</ele>
        <time>2021-06-14T13:04:25Z</time>
      </trkpt>
      <trkpt lat="46.54378" lon="5.19467">
        <ele>224.2</ele>
        <time>2021-06-14T13:04:26Z</time>
      </trkpt>
      <trkpt lat="46.54386" lon="5.19465">
        <ele>224.2</ele>
        <time>2021-06-14T13:04:27Z</time>
      </trkpt>
      <trkpt lat="46.54393" lon="5.19462">
        <ele>223.8</ele>
        <time>2021-06-14T13:04:28Z</time>
      </trkpt>
      <trkpt lat="46.54399" lon="5.19458">
        <ele>223.6</ele>
        <time>2021-06-14T13:04:29Z</time>
      </trkpt>
      <trkpt lat="46.54404" lon="5.19454">
        <ele>223.4</ele>
        <time>2021-06-14T13:04:30Z</time>
      </trkpt>
      <trkpt lat="46.54409" lon="5.19451">
        <ele>223.2</ele>
        <time>2021-06-14T13:04:31Z</time>
      </trkpt>
      <trkpt lat="46.54417" lon="5.19448">
        <ele>222.6</ele>
        <time>2021-06-14T13:04:33Z</time>
      </trkpt>
      <trkpt lat="46.5442" lon="5.19451">
        <ele>222.6</ele>
        <time>2021-06-14T13:04:35Z</time>
      </trkpt>
      <trkpt lat="46.54422" lon="5.19452">
        <ele>222.6</ele>
        <time>2021-06-14T13:04:36Z</time>
      </trkpt>
      <trkpt lat="46.54423" lon="5.19453">
        <ele>222.6</ele>
        <time>2021-06-14T13:04:37Z</time>
      </trkpt>
      <trkpt lat="46.54426" lon="5.1945">
        <ele>222.4</ele>
        <time>2021-06-14T13:04:39Z</time>
      </trkpt>
      <trkpt lat="46.54426" lon="5.19447">
        <ele>222.2</ele>
        <time>2021-06-14T13:04:40Z</time>
      </trkpt>
      <trkpt lat="46.54426" lon="5.19444">
        <ele>222.4</ele>
        <time>2021-06-14T13:04:41Z</time>
      </trkpt>
      <trkpt lat="46.54425" lon="5.19436">
        <ele>222.2</ele>
        <time>2021-06-14T13:04:43Z</time>
      </trkpt>
      <trkpt lat="46.54427" lon="5.19429">
        <ele>222</ele>
        <time>2021-06-14T13:04:45Z</time>
      </trkpt>
      <trkpt lat="46.54428" lon="5.19426">
        <ele>222</ele>
        <time>2021-06-14T13:04:46Z</time>
      </trkpt>
      <trkpt lat="46.5443" lon="5.19422">
        <ele>222</ele>
        <time>2021-06-14T13:04:47Z</time>
      </trkpt>
      <trkpt lat="46.54433" lon="5.19417">
        <ele>222</ele>
        <time>2021-06-14T13:04:49Z</time>
      </trkpt>
      <trkpt lat="46.54433" lon="5.19415">
        <ele>222.2</ele>
        <time>2021-06-14T13:04:50Z</time>
      </trkpt>
      <trkpt lat="46.54432" lon="5.19414">
        <ele>222.2</ele>
        <time>2021-06-14T13:04:51Z</time>
      </trkpt>
      <trkpt lat="46.5443" lon="5.19417">
        <ele>222.2</ele>
        <time>2021-06-14T13:04:53Z</time>
      </trkpt>
      <trkpt lat="46.54428" lon="5.19422">
        <ele>222.2</ele>
        <time>2021-06-14T13:04:55Z</time>
      </trkpt>
      <trkpt lat="46.54426" lon="5.19432">
        <ele>222</ele>
        <time>2021-06-14T13:04:57Z</time>
      </trkpt>
      <trkpt lat="46.54425" lon="5.19445">
        <ele>222.2</ele>
        <time>2021-06-14T13:04:59Z</time>
      </trkpt>
      <trkpt lat="46.54423" lon="5.19459">
        <ele>222.2</ele>
        <time>2021-06-14T13:05:01Z</time>
      </trkpt>
      <trkpt lat="46.54422" lon="5.19473">
        <ele>222.2</ele>
        <time>2021-06-14T13:05:03Z</time>
      </trkpt>
      <trkpt lat="46.54421" lon="5.19487">
        <ele>222.4</ele>
        <time>2021-06-14T13:05:05Z</time>
      </trkpt>
      <trkpt lat="46.54421" lon="5.19501">
        <ele>222.6</ele>
        <time>2021-06-14T13:05:07Z</time>
      </trkpt>
      <trkpt lat="46.54421" lon="5.19515">
        <ele>222.8</ele>
        <time>2021-06-14T13:05:09Z</time>
      </trkpt>
      <trkpt lat="46.54421" lon="5.19529">
        <ele>223</ele>
        <time>2021-06-14T13:05:11Z</time>
      </trkpt>
      <trkpt lat="46.54421" lon="5.19543">
        <ele>223.4</ele>
        <time>2021-06-14T13:05:13Z</time>
      </trkpt>
      <trkpt lat="46.54421" lon="5.19549">
        <ele>223.6</ele>
        <time>2021-06-14T13:05:14Z</time>
      </trkpt>
      <trkpt lat="46.54421" lon="5.19556">
        <ele>223.8</ele>
        <time>2021-06-14T13:05:15Z</time>
      </trkpt>
      <trkpt lat="46.54421" lon="5.19568">
        <ele>224.2</ele>
        <time>2021-06-14T13:05:17Z</time>
      </trkpt>
      <trkpt lat="46.54421" lon="5.19581">
        <ele>224.8</ele>
        <time>2021-06-14T13:05:19Z</time>
      </trkpt>
      <trkpt lat="46.54422" lon="5.19593">
        <ele>225.4</ele>
        <time>2021-06-14T13:05:21Z</time>
      </trkpt>
      <trkpt lat="46.54423" lon="5.19605">
        <ele>226</ele>
        <time>2021-06-14T13:05:23Z</time>
      </trkpt>
      <trkpt lat="46.54424" lon="5.19612">
        <ele>226.4</ele>
        <time>2021-06-14T13:05:24Z</time>
      </trkpt>
      <trkpt lat="46.54425" lon="5.19618">
        <ele>226.6</ele>
        <time>2021-06-14T13:05:25Z</time>
      </trkpt>
      <trkpt lat="46.54427" lon="5.19629">
        <ele>227.2</ele>
        <time>2021-06-14T13:05:27Z</time>
      </trkpt>
      <trkpt lat="46.54428" lon="5.19635">
        <ele>227.4</ele>
        <time>2021-06-14T13:05:28Z</time>
      </trkpt>
      <trkpt lat="46.5443" lon="5.19641">
        <ele>227.6</ele>
        <time>2021-06-14T13:05:29Z</time>
      </trkpt>
      <trkpt lat="46.54431" lon="5.19647">
        <ele>227.8</ele>
        <time>2021-06-14T13:05:30Z</time>
      </trkpt>
      <trkpt lat="46.54433" lon="5.19653">
        <ele>228</ele>
        <time>2021-06-14T13:05:31Z</time>
      </trkpt>
      <trkpt lat="46.54434" lon="5.19659">
        <ele>228.2</ele>
        <time>2021-06-14T13:05:32Z</time>
      </trkpt>
      <trkpt lat="46.54436" lon="5.19665">
        <ele>228.6</ele>
        <time>2021-06-14T13:05:33Z</time>
      </trkpt>
      <trkpt lat="46.54438" lon="5.19671">
        <ele>228.8</ele>
        <time>2021-06-14T13:05:34Z</time>
      </trkpt>
      <trkpt lat="46.54439" lon="5.19677">
        <ele>228.8</ele>
        <time>2021-06-14T13:05:35Z</time>
      </trkpt>
      <trkpt lat="46.54443" lon="5.19689">
        <ele>229</ele>
        <time>2021-06-14T13:05:37Z</time>
      </trkpt>
      <trkpt lat="46.54448" lon="5.197">
        <ele>229.2</ele>
        <time>2021-06-14T13:05:39Z</time>
      </trkpt>
      <trkpt lat="46.5445" lon="5.19706">
        <ele>229.4</ele>
        <time>2021-06-14T13:05:40Z</time>
      </trkpt>
      <trkpt lat="46.54453" lon="5.19711">
        <ele>229.4</ele>
        <time>2021-06-14T13:05:41Z</time>
      </trkpt>
      <trkpt lat="46.54456" lon="5.19716">
        <ele>229.4</ele>
        <time>2021-06-14T13:05:42Z</time>
      </trkpt>
      <trkpt lat="46.54459" lon="5.19721">
        <ele>229.6</ele>
        <time>2021-06-14T13:05:43Z</time>
      </trkpt>
      <trkpt lat="46.54465" lon="5.19731">
        <ele>229.8</ele>
        <time>2021-06-14T13:05:45Z</time>
      </trkpt>
      <trkpt lat="46.54471" lon="5.19741">
        <ele>230.2</ele>
        <time>2021-06-14T13:05:47Z</time>
      </trkpt>
      <trkpt lat="46.54478" lon="5.19751">
        <ele>230.4</ele>
        <time>2021-06-14T13:05:49Z</time>
      </trkpt>
      <trkpt lat="46.54485" lon="5.19761">
        <ele>230.6</ele>
        <time>2021-06-14T13:05:51Z</time>
      </trkpt>
      <trkpt lat="46.54488" lon="5.19765">
        <ele>230.6</ele>
        <time>2021-06-14T13:05:52Z</time>
      </trkpt>
      <trkpt lat="46.54492" lon="5.19771">
        <ele>230.8</ele>
        <time>2021-06-14T13:05:53Z</time>
      </trkpt>
      <trkpt lat="46.545" lon="5.19781">
        <ele>230.8</ele>
        <time>2021-06-14T13:05:55Z</time>
      </trkpt>
      <trkpt lat="46.54507" lon="5.19792">
        <ele>231</ele>
        <time>2021-06-14T13:05:57Z</time>
      </trkpt>
      <trkpt lat="46.54515" lon="5.19803">
        <ele>231</ele>
        <time>2021-06-14T13:05:59Z</time>
      </trkpt>
      <trkpt lat="46.54518" lon="5.19808">
        <ele>231</ele>
        <time>2021-06-14T13:06:00Z</time>
      </trkpt>
      <trkpt lat="46.54522" lon="5.19813">
        <ele>231</ele>
        <time>2021-06-14T13:06:01Z</time>
      </trkpt>
      <trkpt lat="46.5453" lon="5.19824">
        <ele>231</ele>
        <time>2021-06-14T13:06:03Z</time>
      </trkpt>
      <trkpt lat="46.54539" lon="5.19833">
        <ele>231</ele>
        <time>2021-06-14T13:06:05Z</time>
      </trkpt>
      <trkpt lat="46.54547" lon="5.19842">
        <ele>231</ele>
        <time>2021-06-14T13:06:07Z</time>
      </trkpt>
      <trkpt lat="46.54556" lon="5.19851">
        <ele>231</ele>
        <time>2021-06-14T13:06:09Z</time>
      </trkpt>
      <trkpt lat="46.54565" lon="5.19862">
        <ele>231</ele>
        <time>2021-06-14T13:06:11Z</time>
      </trkpt>
      <trkpt lat="46.54573" lon="5.19874">
        <ele>231</ele>
        <time>2021-06-14T13:06:13Z</time>
      </trkpt>
      <trkpt lat="46.5458" lon="5.19886">
        <ele>231</ele>
        <time>2021-06-14T13:06:15Z</time>
      </trkpt>
      <trkpt lat="46.54584" lon="5.19893">
        <ele>231</ele>
        <time>2021-06-14T13:06:16Z</time>
      </trkpt>
      <trkpt lat="46.54587" lon="5.199">
        <ele>231</ele>
        <time>2021-06-14T13:06:17Z</time>
      </trkpt>
      <trkpt lat="46.54595" lon="5.19914">
        <ele>231</ele>
        <time>2021-06-14T13:06:19Z</time>
      </trkpt>
      <trkpt lat="46.54603" lon="5.19928">
        <ele>231</ele>
        <time>2021-06-14T13:06:21Z</time>
      </trkpt>
      <trkpt lat="46.54611" lon="5.19942">
        <ele>231</ele>
        <time>2021-06-14T13:06:23Z</time>
      </trkpt>
      <trkpt lat="46.54619" lon="5.19957">
        <ele>231</ele>
        <time>2021-06-14T13:06:25Z</time>
      </trkpt>
      <trkpt lat="46.54626" lon="5.19972">
        <ele>231</ele>
        <time>2021-06-14T13:06:27Z</time>
      </trkpt>
      <trkpt lat="46.54634" lon="5.19986">
        <ele>231</ele>
        <time>2021-06-14T13:06:29Z</time>
      </trkpt>
      <trkpt lat="46.54642" lon="5.20001">
        <ele>231</ele>
        <time>2021-06-14T13:06:31Z</time>
      </trkpt>
      <trkpt lat="46.54647" lon="5.20009">
        <ele>231</ele>
        <time>2021-06-14T13:06:32Z</time>
      </trkpt>
      <trkpt lat="46.54651" lon="5.20016">
        <ele>231.2</ele>
        <time>2021-06-14T13:06:33Z</time>
      </trkpt>
      <trkpt lat="46.54659" lon="5.2003">
        <ele>231.2</ele>
        <time>2021-06-14T13:06:35Z</time>
      </trkpt>
      <trkpt lat="46.54669" lon="5.20042">
        <ele>231.2</ele>
        <time>2021-06-14T13:06:37Z</time>
      </trkpt>
      <trkpt lat="46.54675" lon="5.20047">
        <ele>231.4</ele>
        <time>2021-06-14T13:06:38Z</time>
      </trkpt>
      <trkpt lat="46.5468" lon="5.20052">
        <ele>231.4</ele>
        <time>2021-06-14T13:06:39Z</time>
      </trkpt>
      <trkpt lat="46.54691" lon="5.2006">
        <ele>231.6</ele>
        <time>2021-06-14T13:06:41Z</time>
      </trkpt>
      <trkpt lat="46.54696" lon="5.20064">
        <ele>231.6</ele>
        <time>2021-06-14T13:06:42Z</time>
      </trkpt>
      <trkpt lat="46.54701" lon="5.20067">
        <ele>231.8</ele>
        <time>2021-06-14T13:06:43Z</time>
      </trkpt>
      <trkpt lat="46.54706" lon="5.20071">
        <ele>231.8</ele>
        <time>2021-06-14T13:06:44Z</time>
      </trkpt>
      <trkpt lat="46.54712" lon="5.20074">
        <ele>231.8</ele>
        <time>2021-06-14T13:06:45Z</time>
      </trkpt>
      <trkpt lat="46.54717" lon="5.20077">
        <ele>232</ele>
        <time>2021-06-14T13:06:46Z</time>
      </trkpt>
      <trkpt lat="46.54722" lon="5.2008">
        <ele>232.2</ele>
        <time>2021-06-14T13:06:47Z</time>
      </trkpt>
      <trkpt lat="46.54731" lon="5.20087">
        <ele>232.6</ele>
        <time>2021-06-14T13:06:49Z</time>
      </trkpt>
      <trkpt lat="46.54736" lon="5.20091">
        <ele>232.6</ele>
        <time>2021-06-14T13:06:50Z</time>
      </trkpt>
      <trkpt lat="46.5474" lon="5.20094">
        <ele>232.8</ele>
        <time>2021-06-14T13:06:51Z</time>
      </trkpt>
      <trkpt lat="46.54745" lon="5.20099">
        <ele>232.8</ele>
        <time>2021-06-14T13:06:52Z</time>
      </trkpt>
      <trkpt lat="46.54749" lon="5.20104">
        <ele>233</ele>
        <time>2021-06-14T13:06:53Z</time>
      </trkpt>
      <trkpt lat="46.54758" lon="5.20115">
        <ele>233</ele>
        <time>2021-06-14T13:06:55Z</time>
      </trkpt>
      <trkpt lat="46.54767" lon="5.20126">
        <ele>233.2</ele>
        <time>2021-06-14T13:06:57Z</time>
      </trkpt>
      <trkpt lat="46.54776" lon="5.20138">
        <ele>233.4</ele>
        <time>2021-06-14T13:06:59Z</time>
      </trkpt>
      <trkpt lat="46.54786" lon="5.20149">
        <ele>233.4</ele>
        <time>2021-06-14T13:07:01Z</time>
      </trkpt>
      <trkpt lat="46.5479" lon="5.20155">
        <ele>233.4</ele>
        <time>2021-06-14T13:07:02Z</time>
      </trkpt>
      <trkpt lat="46.54795" lon="5.20162">
        <ele>233.2</ele>
        <time>2021-06-14T13:07:03Z</time>
      </trkpt>
      <trkpt lat="46.54802" lon="5.20173">
        <ele>233.2</ele>
        <time>2021-06-14T13:07:05Z</time>
      </trkpt>
      <trkpt lat="46.5481" lon="5.20186">
        <ele>233.4</ele>
        <time>2021-06-14T13:07:07Z</time>
      </trkpt>
      <trkpt lat="46.54818" lon="5.20199">
        <ele>233.4</ele>
        <time>2021-06-14T13:07:09Z</time>
      </trkpt>
      <trkpt lat="46.54827" lon="5.20213">
        <ele>233.6</ele>
        <time>2021-06-14T13:07:11Z</time>
      </trkpt>
      <trkpt lat="46.54837" lon="5.20227">
        <ele>233.8</ele>
        <time>2021-06-14T13:07:13Z</time>
      </trkpt>
      <trkpt lat="46.54847" lon="5.20242">
        <ele>233.8</ele>
        <time>2021-06-14T13:07:15Z</time>
      </trkpt>
      <trkpt lat="46.54857" lon="5.20257">
        <ele>234</ele>
        <time>2021-06-14T13:07:17Z</time>
      </trkpt>
      <trkpt lat="46.54866" lon="5.20272">
        <ele>234</ele>
        <time>2021-06-14T13:07:19Z</time>
      </trkpt>
      <trkpt lat="46.54876" lon="5.20288">
        <ele>234</ele>
        <time>2021-06-14T13:07:21Z</time>
      </trkpt>
      <trkpt lat="46.54885" lon="5.20304">
        <ele>234.2</ele>
        <time>2021-06-14T13:07:23Z</time>
      </trkpt>
      <trkpt lat="46.54894" lon="5.2032">
        <ele>234.2</ele>
        <time>2021-06-14T13:07:25Z</time>
      </trkpt>
      <trkpt lat="46.54904" lon="5.20335">
        <ele>234.2</ele>
        <time>2021-06-14T13:07:27Z</time>
      </trkpt>
      <trkpt lat="46.54914" lon="5.20351">
        <ele>234.2</ele>
        <time>2021-06-14T13:07:29Z</time>
      </trkpt>
      <trkpt lat="46.54919" lon="5.20359">
        <ele>234.2</ele>
        <time>2021-06-14T13:07:30Z</time>
      </trkpt>
      <trkpt lat="46.54924" lon="5.20367">
        <ele>234</ele>
        <time>2021-06-14T13:07:31Z</time>
      </trkpt>
      <trkpt lat="46.54932" lon="5.20382">
        <ele>233.8</ele>
        <time>2021-06-14T13:07:33Z</time>
      </trkpt>
      <trkpt lat="46.54941" lon="5.20398">
        <ele>233.8</ele>
        <time>2021-06-14T13:07:35Z</time>
      </trkpt>
      <trkpt lat="46.5495" lon="5.20413">
        <ele>233.6</ele>
        <time>2021-06-14T13:07:37Z</time>
      </trkpt>
      <trkpt lat="46.54959" lon="5.20428">
        <ele>233.6</ele>
        <time>2021-06-14T13:07:39Z</time>
      </trkpt>
      <trkpt lat="46.5497" lon="5.20441">
        <ele>233.6</ele>
        <time>2021-06-14T13:07:41Z</time>
      </trkpt>
      <trkpt lat="46.54975" lon="5.20447">
        <ele>233.6</ele>
        <time>2021-06-14T13:07:42Z</time>
      </trkpt>
      <trkpt lat="46.5498" lon="5.20453">
        <ele>233.6</ele>
        <time>2021-06-14T13:07:43Z</time>
      </trkpt>
      <trkpt lat="46.54986" lon="5.20458">
        <ele>233.6</ele>
        <time>2021-06-14T13:07:44Z</time>
      </trkpt>
      <trkpt lat="46.54993" lon="5.20462">
        <ele>233.6</ele>
        <time>2021-06-14T13:07:45Z</time>
      </trkpt>
      <trkpt lat="46.55007" lon="5.20469">
        <ele>233.6</ele>
        <time>2021-06-14T13:07:47Z</time>
      </trkpt>
      <trkpt lat="46.5502" lon="5.20477">
        <ele>233.6</ele>
        <time>2021-06-14T13:07:49Z</time>
      </trkpt>
      <trkpt lat="46.55035" lon="5.20483">
        <ele>233.6</ele>
        <time>2021-06-14T13:07:51Z</time>
      </trkpt>
      <trkpt lat="46.55048" lon="5.20488">
        <ele>233.6</ele>
        <time>2021-06-14T13:07:53Z</time>
      </trkpt>
      <trkpt lat="46.55062" lon="5.20492">
        <ele>233.6</ele>
        <time>2021-06-14T13:07:55Z</time>
      </trkpt>
      <trkpt lat="46.55076" lon="5.20498">
        <ele>233.8</ele>
        <time>2021-06-14T13:07:57Z</time>
      </trkpt>
      <trkpt lat="46.55082" lon="5.20503">
        <ele>233.8</ele>
        <time>2021-06-14T13:07:58Z</time>
      </trkpt>
      <trkpt lat="46.55089" lon="5.20508">
        <ele>234</ele>
        <time>2021-06-14T13:07:59Z</time>
      </trkpt>
      <trkpt lat="46.551" lon="5.2052">
        <ele>234</ele>
        <time>2021-06-14T13:08:01Z</time>
      </trkpt>
      <trkpt lat="46.55111" lon="5.20536">
        <ele>234</ele>
        <time>2021-06-14T13:08:03Z</time>
      </trkpt>
      <trkpt lat="46.55116" lon="5.20544">
        <ele>234.2</ele>
        <time>2021-06-14T13:08:04Z</time>
      </trkpt>
      <trkpt lat="46.55121" lon="5.20553">
        <ele>234.2</ele>
        <time>2021-06-14T13:08:05Z</time>
      </trkpt>
      <trkpt lat="46.55131" lon="5.20569">
        <ele>234.2</ele>
        <time>2021-06-14T13:08:07Z</time>
      </trkpt>
      <trkpt lat="46.55141" lon="5.20586">
        <ele>234.2</ele>
        <time>2021-06-14T13:08:09Z</time>
      </trkpt>
      <trkpt lat="46.55152" lon="5.20602">
        <ele>234.2</ele>
        <time>2021-06-14T13:08:11Z</time>
      </trkpt>
      <trkpt lat="46.55157" lon="5.20611">
        <ele>233.8</ele>
        <time>2021-06-14T13:08:12Z</time>
      </trkpt>
      <trkpt lat="46.55162" lon="5.20619">
        <ele>233.6</ele>
        <time>2021-06-14T13:08:13Z</time>
      </trkpt>
      <trkpt lat="46.55173" lon="5.20636">
        <ele>233</ele>
        <time>2021-06-14T13:08:15Z</time>
      </trkpt>
      <trkpt lat="46.55184" lon="5.20653">
        <ele>232.4</ele>
        <time>2021-06-14T13:08:17Z</time>
      </trkpt>
      <trkpt lat="46.55194" lon="5.2067">
        <ele>232</ele>
        <time>2021-06-14T13:08:19Z</time>
      </trkpt>
      <trkpt lat="46.55205" lon="5.20687">
        <ele>231.6</ele>
        <time>2021-06-14T13:08:21Z</time>
      </trkpt>
      <trkpt lat="46.55211" lon="5.20696">
        <ele>231.4</ele>
        <time>2021-06-14T13:08:22Z</time>
      </trkpt>
      <trkpt lat="46.55216" lon="5.20704">
        <ele>231.4</ele>
        <time>2021-06-14T13:08:23Z</time>
      </trkpt>
      <trkpt lat="46.55227" lon="5.2072">
        <ele>231.2</ele>
        <time>2021-06-14T13:08:25Z</time>
      </trkpt>
      <trkpt lat="46.55238" lon="5.20734">
        <ele>231.2</ele>
        <time>2021-06-14T13:08:27Z</time>
      </trkpt>
      <trkpt lat="46.55249" lon="5.20749">
        <ele>231.2</ele>
        <time>2021-06-14T13:08:29Z</time>
      </trkpt>
      <trkpt lat="46.55258" lon="5.20765">
        <ele>231</ele>
        <time>2021-06-14T13:08:31Z</time>
      </trkpt>
      <trkpt lat="46.55265" lon="5.20784">
        <ele>231</ele>
        <time>2021-06-14T13:08:33Z</time>
      </trkpt>
      <trkpt lat="46.55267" lon="5.20804">
        <ele>231</ele>
        <time>2021-06-14T13:08:35Z</time>
      </trkpt>
      <trkpt lat="46.55268" lon="5.20814">
        <ele>231</ele>
        <time>2021-06-14T13:08:36Z</time>
      </trkpt>
      <trkpt lat="46.55268" lon="5.20824">
        <ele>231</ele>
        <time>2021-06-14T13:08:37Z</time>
      </trkpt>
      <trkpt lat="46.55269" lon="5.20834">
        <ele>231</ele>
        <time>2021-06-14T13:08:38Z</time>
      </trkpt>
      <trkpt lat="46.55271" lon="5.20844">
        <ele>231</ele>
        <time>2021-06-14T13:08:39Z</time>
      </trkpt>
      <trkpt lat="46.55274" lon="5.20853">
        <ele>231.2</ele>
        <time>2021-06-14T13:08:40Z</time>
      </trkpt>
      <trkpt lat="46.55278" lon="5.20861">
        <ele>231.2</ele>
        <time>2021-06-14T13:08:41Z</time>
      </trkpt>
      <trkpt lat="46.55287" lon="5.20876">
        <ele>231.2</ele>
        <time>2021-06-14T13:08:43Z</time>
      </trkpt>
      <trkpt lat="46.55293" lon="5.20883">
        <ele>231.4</ele>
        <time>2021-06-14T13:08:44Z</time>
      </trkpt>
      <trkpt lat="46.55299" lon="5.20888">
        <ele>231.4</ele>
        <time>2021-06-14T13:08:45Z</time>
      </trkpt>
      <trkpt lat="46.55305" lon="5.20894">
        <ele>231.4</ele>
        <time>2021-06-14T13:08:46Z</time>
      </trkpt>
      <trkpt lat="46.55311" lon="5.20899">
        <ele>231.6</ele>
        <time>2021-06-14T13:08:47Z</time>
      </trkpt>
      <trkpt lat="46.55323" lon="5.20911">
        <ele>231.6</ele>
        <time>2021-06-14T13:08:49Z</time>
      </trkpt>
      <trkpt lat="46.55328" lon="5.20917">
        <ele>231.6</ele>
        <time>2021-06-14T13:08:50Z</time>
      </trkpt>
      <trkpt lat="46.55334" lon="5.20925">
        <ele>231.6</ele>
        <time>2021-06-14T13:08:51Z</time>
      </trkpt>
      <trkpt lat="46.55344" lon="5.20941">
        <ele>231.6</ele>
        <time>2021-06-14T13:08:53Z</time>
      </trkpt>
      <trkpt lat="46.55355" lon="5.20958">
        <ele>231.4</ele>
        <time>2021-06-14T13:08:55Z</time>
      </trkpt>
      <trkpt lat="46.55361" lon="5.20965">
        <ele>231.2</ele>
        <time>2021-06-14T13:08:56Z</time>
      </trkpt>
      <trkpt lat="46.55369" lon="5.20971">
        <ele>231.2</ele>
        <time>2021-06-14T13:08:57Z</time>
      </trkpt>
      <trkpt lat="46.55377" lon="5.20975">
        <ele>231.2</ele>
        <time>2021-06-14T13:08:58Z</time>
      </trkpt>
      <trkpt lat="46.55385" lon="5.20978">
        <ele>231</ele>
        <time>2021-06-14T13:08:59Z</time>
      </trkpt>
      <trkpt lat="46.55395" lon="5.2098">
        <ele>231</ele>
        <time>2021-06-14T13:09:00Z</time>
      </trkpt>
      <trkpt lat="46.55404" lon="5.20982">
        <ele>230.6</ele>
        <time>2021-06-14T13:09:01Z</time>
      </trkpt>
      <trkpt lat="46.55413" lon="5.20984">
        <ele>230.2</ele>
        <time>2021-06-14T13:09:02Z</time>
      </trkpt>
      <trkpt lat="46.55422" lon="5.20987">
        <ele>229.6</ele>
        <time>2021-06-14T13:09:03Z</time>
      </trkpt>
      <trkpt lat="46.5543" lon="5.2099">
        <ele>229</ele>
        <time>2021-06-14T13:09:04Z</time>
      </trkpt>
      <trkpt lat="46.55439" lon="5.20994">
        <ele>228.2</ele>
        <time>2021-06-14T13:09:05Z</time>
      </trkpt>
      <trkpt lat="46.55456" lon="5.21002">
        <ele>227.4</ele>
        <time>2021-06-14T13:09:07Z</time>
      </trkpt>
      <trkpt lat="46.55464" lon="5.21007">
        <ele>226.4</ele>
        <time>2021-06-14T13:09:08Z</time>
      </trkpt>
      <trkpt lat="46.55473" lon="5.21012">
        <ele>225.8</ele>
        <time>2021-06-14T13:09:09Z</time>
      </trkpt>
      <trkpt lat="46.55481" lon="5.21017">
        <ele>225.2</ele>
        <time>2021-06-14T13:09:10Z</time>
      </trkpt>
      <trkpt lat="46.55489" lon="5.21021">
        <ele>225</ele>
        <time>2021-06-14T13:09:11Z</time>
      </trkpt>
      <trkpt lat="46.55506" lon="5.21028">
        <ele>224.6</ele>
        <time>2021-06-14T13:09:13Z</time>
      </trkpt>
      <trkpt lat="46.55514" lon="5.21031">
        <ele>224.6</ele>
        <time>2021-06-14T13:09:14Z</time>
      </trkpt>
      <trkpt lat="46.55522" lon="5.21033">
        <ele>224.6</ele>
        <time>2021-06-14T13:09:15Z</time>
      </trkpt>
      <trkpt lat="46.55538" lon="5.21036">
        <ele>224.6</ele>
        <time>2021-06-14T13:09:17Z</time>
      </trkpt>
      <trkpt lat="46.55554" lon="5.21037">
        <ele>224.6</ele>
        <time>2021-06-14T13:09:19Z</time>
      </trkpt>
      <trkpt lat="46.55562" lon="5.21037">
        <ele>224.6</ele>
        <time>2021-06-14T13:09:20Z</time>
      </trkpt>
      <trkpt lat="46.5557" lon="5.21038">
        <ele>224.8</ele>
        <time>2021-06-14T13:09:21Z</time>
      </trkpt>
      <trkpt lat="46.55577" lon="5.2104">
        <ele>225</ele>
        <time>2021-06-14T13:09:22Z</time>
      </trkpt>
      <trkpt lat="46.55585" lon="5.21042">
        <ele>225</ele>
        <time>2021-06-14T13:09:23Z</time>
      </trkpt>
      <trkpt lat="46.556" lon="5.2105">
        <ele>225.4</ele>
        <time>2021-06-14T13:09:25Z</time>
      </trkpt>
      <trkpt lat="46.55613" lon="5.21059">
        <ele>225.4</ele>
        <time>2021-06-14T13:09:27Z</time>
      </trkpt>
      <trkpt lat="46.55626" lon="5.2107">
        <ele>225.6</ele>
        <time>2021-06-14T13:09:29Z</time>
      </trkpt>
      <trkpt lat="46.55638" lon="5.2108">
        <ele>226</ele>
        <time>2021-06-14T13:09:31Z</time>
      </trkpt>
      <trkpt lat="46.5565" lon="5.21089">
        <ele>226.4</ele>
        <time>2021-06-14T13:09:33Z</time>
      </trkpt>
      <trkpt lat="46.55661" lon="5.21098">
        <ele>226.8</ele>
        <time>2021-06-14T13:09:35Z</time>
      </trkpt>
      <trkpt lat="46.55673" lon="5.21103">
        <ele>227</ele>
        <time>2021-06-14T13:09:37Z</time>
      </trkpt>
      <trkpt lat="46.55685" lon="5.21108">
        <ele>227.4</ele>
        <time>2021-06-14T13:09:39Z</time>
      </trkpt>
      <trkpt lat="46.55696" lon="5.21111">
        <ele>227.8</ele>
        <time>2021-06-14T13:09:41Z</time>
      </trkpt>
      <trkpt lat="46.55708" lon="5.21114">
        <ele>227.8</ele>
        <time>2021-06-14T13:09:43Z</time>
      </trkpt>
      <trkpt lat="46.5572" lon="5.21114">
        <ele>228</ele>
        <time>2021-06-14T13:09:45Z</time>
      </trkpt>
      <trkpt lat="46.55732" lon="5.21113">
        <ele>228.4</ele>
        <time>2021-06-14T13:09:47Z</time>
      </trkpt>
      <trkpt lat="46.55744" lon="5.21111">
        <ele>228.8</ele>
        <time>2021-06-14T13:09:49Z</time>
      </trkpt>
      <trkpt lat="46.55756" lon="5.21108">
        <ele>228.8</ele>
        <time>2021-06-14T13:09:51Z</time>
      </trkpt>
      <trkpt lat="46.55762" lon="5.21107">
        <ele>228.8</ele>
        <time>2021-06-14T13:09:52Z</time>
      </trkpt>
      <trkpt lat="46.55768" lon="5.21106">
        <ele>228.8</ele>
        <time>2021-06-14T13:09:53Z</time>
      </trkpt>
      <trkpt lat="46.55779" lon="5.21105">
        <ele>229</ele>
        <time>2021-06-14T13:09:55Z</time>
      </trkpt>
      <trkpt lat="46.55791" lon="5.21106">
        <ele>229</ele>
        <time>2021-06-14T13:09:57Z</time>
      </trkpt>
      <trkpt lat="46.55801" lon="5.21109">
        <ele>229.2</ele>
        <time>2021-06-14T13:09:59Z</time>
      </trkpt>
      <trkpt lat="46.55812" lon="5.21112">
        <ele>229.2</ele>
        <time>2021-06-14T13:10:01Z</time>
      </trkpt>
      <trkpt lat="46.55817" lon="5.21114">
        <ele>229.6</ele>
        <time>2021-06-14T13:10:02Z</time>
      </trkpt>
      <trkpt lat="46.55823" lon="5.21116">
        <ele>230</ele>
        <time>2021-06-14T13:10:03Z</time>
      </trkpt>
      <trkpt lat="46.55833" lon="5.2112">
        <ele>231</ele>
        <time>2021-06-14T13:10:05Z</time>
      </trkpt>
      <trkpt lat="46.55843" lon="5.21125">
        <ele>231.4</ele>
        <time>2021-06-14T13:10:07Z</time>
      </trkpt>
      <trkpt lat="46.55847" lon="5.21127">
        <ele>231.6</ele>
        <time>2021-06-14T13:10:08Z</time>
      </trkpt>
      <trkpt lat="46.55851" lon="5.21129">
        <ele>232</ele>
        <time>2021-06-14T13:10:09Z</time>
      </trkpt>
      <trkpt lat="46.55855" lon="5.2113">
        <ele>232.2</ele>
        <time>2021-06-14T13:10:10Z</time>
      </trkpt>
      <trkpt lat="46.55858" lon="5.21132">
        <ele>232.4</ele>
        <time>2021-06-14T13:10:11Z</time>
      </trkpt>
      <trkpt lat="46.55861" lon="5.21135">
        <ele>232.6</ele>
        <time>2021-06-14T13:10:12Z</time>
      </trkpt>
      <trkpt lat="46.55863" lon="5.21138">
        <ele>232.8</ele>
        <time>2021-06-14T13:10:13Z</time>
      </trkpt>
      <trkpt lat="46.55864" lon="5.21148">
        <ele>233.4</ele>
        <time>2021-06-14T13:10:15Z</time>
      </trkpt>
      <trkpt lat="46.55864" lon="5.21154">
        <ele>233.6</ele>
        <time>2021-06-14T13:10:16Z</time>
      </trkpt>
      <trkpt lat="46.55863" lon="5.21161">
        <ele>234</ele>
        <time>2021-06-14T13:10:17Z</time>
      </trkpt>
      <trkpt lat="46.55863" lon="5.21176">
        <ele>234.4</ele>
        <time>2021-06-14T13:10:19Z</time>
      </trkpt>
      <trkpt lat="46.55863" lon="5.21192">
        <ele>234.6</ele>
        <time>2021-06-14T13:10:21Z</time>
      </trkpt>
      <trkpt lat="46.55863" lon="5.21209">
        <ele>234.8</ele>
        <time>2021-06-14T13:10:23Z</time>
      </trkpt>
      <trkpt lat="46.55863" lon="5.21226">
        <ele>234.8</ele>
        <time>2021-06-14T13:10:25Z</time>
      </trkpt>
      <trkpt lat="46.55863" lon="5.21244">
        <ele>234.8</ele>
        <time>2021-06-14T13:10:27Z</time>
      </trkpt>
      <trkpt lat="46.55863" lon="5.21262">
        <ele>234.8</ele>
        <time>2021-06-14T13:10:29Z</time>
      </trkpt>
      <trkpt lat="46.55863" lon="5.21271">
        <ele>234.8</ele>
        <time>2021-06-14T13:10:30Z</time>
      </trkpt>
      <trkpt lat="46.55863" lon="5.21281">
        <ele>234.8</ele>
        <time>2021-06-14T13:10:31Z</time>
      </trkpt>
      <trkpt lat="46.55863" lon="5.21299">
        <ele>234.6</ele>
        <time>2021-06-14T13:10:33Z</time>
      </trkpt>
      <trkpt lat="46.55863" lon="5.21318">
        <ele>234.6</ele>
        <time>2021-06-14T13:10:35Z</time>
      </trkpt>
      <trkpt lat="46.55863" lon="5.21336">
        <ele>234.6</ele>
        <time>2021-06-14T13:10:37Z</time>
      </trkpt>
      <trkpt lat="46.55863" lon="5.21354">
        <ele>234.6</ele>
        <time>2021-06-14T13:10:39Z</time>
      </trkpt>
      <trkpt lat="46.55863" lon="5.21373">
        <ele>234.6</ele>
        <time>2021-06-14T13:10:41Z</time>
      </trkpt>
      <trkpt lat="46.55863" lon="5.21391">
        <ele>234.8</ele>
        <time>2021-06-14T13:10:43Z</time>
      </trkpt>
      <trkpt lat="46.55863" lon="5.2141">
        <ele>234.6</ele>
        <time>2021-06-14T13:10:45Z</time>
      </trkpt>
      <trkpt lat="46.55863" lon="5.2143">
        <ele>234.4</ele>
        <time>2021-06-14T13:10:47Z</time>
      </trkpt>
      <trkpt lat="46.55863" lon="5.2145">
        <ele>234.4</ele>
        <time>2021-06-14T13:10:49Z</time>
      </trkpt>
      <trkpt lat="46.55863" lon="5.21471">
        <ele>234.4</ele>
        <time>2021-06-14T13:10:51Z</time>
      </trkpt>
      <trkpt lat="46.55863" lon="5.21494">
        <ele>234.2</ele>
        <time>2021-06-14T13:10:53Z</time>
      </trkpt>
      <trkpt lat="46.55863" lon="5.21506">
        <ele>234.2</ele>
        <time>2021-06-14T13:10:54Z</time>
      </trkpt>
      <trkpt lat="46.55863" lon="5.21518">
        <ele>234</ele>
        <time>2021-06-14T13:10:55Z</time>
      </trkpt>
      <trkpt lat="46.55865" lon="5.21544">
        <ele>233.4</ele>
        <time>2021-06-14T13:10:57Z</time>
      </trkpt>
      <trkpt lat="46.55867" lon="5.21557">
        <ele>232.8</ele>
        <time>2021-06-14T13:10:58Z</time>
      </trkpt>
      <trkpt lat="46.55868" lon="5.2157">
        <ele>232.4</ele>
        <time>2021-06-14T13:10:59Z</time>
      </trkpt>
      <trkpt lat="46.5587" lon="5.21583">
        <ele>232</ele>
        <time>2021-06-14T13:11:00Z</time>
      </trkpt>
      <trkpt lat="46.55871" lon="5.21596">
        <ele>230.8</ele>
        <time>2021-06-14T13:11:01Z</time>
      </trkpt>
      <trkpt lat="46.55874" lon="5.21623">
        <ele>229.6</ele>
        <time>2021-06-14T13:11:03Z</time>
      </trkpt>
      <trkpt lat="46.55877" lon="5.21651">
        <ele>228.2</ele>
        <time>2021-06-14T13:11:05Z</time>
      </trkpt>
      <trkpt lat="46.5588" lon="5.2168">
        <ele>227.2</ele>
        <time>2021-06-14T13:11:07Z</time>
      </trkpt>
      <trkpt lat="46.55883" lon="5.21709">
        <ele>226.2</ele>
        <time>2021-06-14T13:11:09Z</time>
      </trkpt>
      <trkpt lat="46.55886" lon="5.21738">
        <ele>226</ele>
        <time>2021-06-14T13:11:10Z</time>
      </trkpt>
      <trkpt lat="46.55886" lon="5.21738">
        <ele>225.8</ele>
        <time>2021-06-14T13:11:11Z</time>
      </trkpt>
      <trkpt lat="46.55891" lon="5.21768">
        <ele>225.6</ele>
        <time>2021-06-14T13:11:12Z</time>
      </trkpt>
      <trkpt lat="46.55891" lon="5.21768">
        <ele>225.2</ele>
        <time>2021-06-14T13:11:13Z</time>
      </trkpt>
      <trkpt lat="46.55894" lon="5.21782">
        <ele>224.6</ele>
        <time>2021-06-14T13:11:14Z</time>
      </trkpt>
      <trkpt lat="46.55898" lon="5.21796">
        <ele>224.2</ele>
        <time>2021-06-14T13:11:15Z</time>
      </trkpt>
      <trkpt lat="46.55901" lon="5.2181">
        <ele>223.6</ele>
        <time>2021-06-14T13:11:16Z</time>
      </trkpt>
      <trkpt lat="46.55905" lon="5.21824">
        <ele>222.8</ele>
        <time>2021-06-14T13:11:17Z</time>
      </trkpt>
      <trkpt lat="46.5591" lon="5.21837">
        <ele>222.4</ele>
        <time>2021-06-14T13:11:18Z</time>
      </trkpt>
      <trkpt lat="46.55914" lon="5.2185">
        <ele>221.8</ele>
        <time>2021-06-14T13:11:19Z</time>
      </trkpt>
      <trkpt lat="46.55922" lon="5.21875">
        <ele>220.8</ele>
        <time>2021-06-14T13:11:21Z</time>
      </trkpt>
      <trkpt lat="46.55929" lon="5.21898">
        <ele>220</ele>
        <time>2021-06-14T13:11:23Z</time>
      </trkpt>
      <trkpt lat="46.55936" lon="5.21922">
        <ele>219.6</ele>
        <time>2021-06-14T13:11:25Z</time>
      </trkpt>
      <trkpt lat="46.55939" lon="5.21933">
        <ele>219.6</ele>
        <time>2021-06-14T13:11:26Z</time>
      </trkpt>
      <trkpt lat="46.55943" lon="5.21945">
        <ele>219.6</ele>
        <time>2021-06-14T13:11:27Z</time>
      </trkpt>
      <trkpt lat="46.5595" lon="5.21968">
        <ele>219.4</ele>
        <time>2021-06-14T13:11:29Z</time>
      </trkpt>
      <trkpt lat="46.55957" lon="5.21991">
        <ele>219.4</ele>
        <time>2021-06-14T13:11:31Z</time>
      </trkpt>
      <trkpt lat="46.55964" lon="5.22014">
        <ele>219.2</ele>
        <time>2021-06-14T13:11:33Z</time>
      </trkpt>
      <trkpt lat="46.55971" lon="5.22036">
        <ele>219.4</ele>
        <time>2021-06-14T13:11:35Z</time>
      </trkpt>
      <trkpt lat="46.55978" lon="5.22057">
        <ele>219.6</ele>
        <time>2021-06-14T13:11:37Z</time>
      </trkpt>
      <trkpt lat="46.55984" lon="5.22079">
        <ele>219.6</ele>
        <time>2021-06-14T13:11:39Z</time>
      </trkpt>
      <trkpt lat="46.55991" lon="5.221">
        <ele>219.6</ele>
        <time>2021-06-14T13:11:41Z</time>
      </trkpt>
      <trkpt lat="46.55997" lon="5.22121">
        <ele>219.6</ele>
        <time>2021-06-14T13:11:43Z</time>
      </trkpt>
      <trkpt lat="46.56003" lon="5.22141">
        <ele>220</ele>
        <time>2021-06-14T13:11:45Z</time>
      </trkpt>
      <trkpt lat="46.5601" lon="5.22161">
        <ele>220.2</ele>
        <time>2021-06-14T13:11:47Z</time>
      </trkpt>
      <trkpt lat="46.56015" lon="5.2218">
        <ele>220.6</ele>
        <time>2021-06-14T13:11:49Z</time>
      </trkpt>
      <trkpt lat="46.56021" lon="5.222">
        <ele>220.8</ele>
        <time>2021-06-14T13:11:51Z</time>
      </trkpt>
      <trkpt lat="46.56024" lon="5.22209">
        <ele>221</ele>
        <time>2021-06-14T13:11:52Z</time>
      </trkpt>
      <trkpt lat="46.56027" lon="5.22218">
        <ele>221</ele>
        <time>2021-06-14T13:11:53Z</time>
      </trkpt>
      <trkpt lat="46.56032" lon="5.22238">
        <ele>221</ele>
        <time>2021-06-14T13:11:55Z</time>
      </trkpt>
      <trkpt lat="46.56035" lon="5.22247">
        <ele>221</ele>
        <time>2021-06-14T13:11:56Z</time>
      </trkpt>
      <trkpt lat="46.56038" lon="5.22257">
        <ele>221</ele>
        <time>2021-06-14T13:11:57Z</time>
      </trkpt>
      <trkpt lat="46.56045" lon="5.22277">
        <ele>221</ele>
        <time>2021-06-14T13:11:59Z</time>
      </trkpt>
      <trkpt lat="46.56051" lon="5.22298">
        <ele>221</ele>
        <time>2021-06-14T13:12:01Z</time>
      </trkpt>
      <trkpt lat="46.56057" lon="5.22318">
        <ele>221</ele>
        <time>2021-06-14T13:12:03Z</time>
      </trkpt>
      <trkpt lat="46.56063" lon="5.22338">
        <ele>220.8</ele>
        <time>2021-06-14T13:12:05Z</time>
      </trkpt>
      <trkpt lat="46.56066" lon="5.22349">
        <ele>220.8</ele>
        <time>2021-06-14T13:12:06Z</time>
      </trkpt>
      <trkpt lat="46.56069" lon="5.22359">
        <ele>220.6</ele>
        <time>2021-06-14T13:12:07Z</time>
      </trkpt>
      <trkpt lat="46.56075" lon="5.22378">
        <ele>220.4</ele>
        <time>2021-06-14T13:12:09Z</time>
      </trkpt>
      <trkpt lat="46.56081" lon="5.22398">
        <ele>220.2</ele>
        <time>2021-06-14T13:12:11Z</time>
      </trkpt>
      <trkpt lat="46.56087" lon="5.22417">
        <ele>220.2</ele>
        <time>2021-06-14T13:12:13Z</time>
      </trkpt>
      <trkpt lat="46.56093" lon="5.22436">
        <ele>220</ele>
        <time>2021-06-14T13:12:15Z</time>
      </trkpt>
      <trkpt lat="46.56098" lon="5.22454">
        <ele>220</ele>
        <time>2021-06-14T13:12:17Z</time>
      </trkpt>
      <trkpt lat="46.56104" lon="5.22473">
        <ele>219.8</ele>
        <time>2021-06-14T13:12:19Z</time>
      </trkpt>
      <trkpt lat="46.5611" lon="5.22491">
        <ele>219.8</ele>
        <time>2021-06-14T13:12:21Z</time>
      </trkpt>
      <trkpt lat="46.56115" lon="5.2251">
        <ele>219.6</ele>
        <time>2021-06-14T13:12:23Z</time>
      </trkpt>
      <trkpt lat="46.56121" lon="5.22528">
        <ele>219.8</ele>
        <time>2021-06-14T13:12:25Z</time>
      </trkpt>
      <trkpt lat="46.56126" lon="5.22546">
        <ele>219.8</ele>
        <time>2021-06-14T13:12:27Z</time>
      </trkpt>
      <trkpt lat="46.56132" lon="5.22565">
        <ele>219.8</ele>
        <time>2021-06-14T13:12:29Z</time>
      </trkpt>
      <trkpt lat="46.56135" lon="5.22574">
        <ele>219.8</ele>
        <time>2021-06-14T13:12:30Z</time>
      </trkpt>
      <trkpt lat="46.56138" lon="5.22583">
        <ele>219.8</ele>
        <time>2021-06-14T13:12:31Z</time>
      </trkpt>
      <trkpt lat="46.56144" lon="5.22601">
        <ele>219.8</ele>
        <time>2021-06-14T13:12:33Z</time>
      </trkpt>
      <trkpt lat="46.5615" lon="5.22619">
        <ele>219.8</ele>
        <time>2021-06-14T13:12:35Z</time>
      </trkpt>
      <trkpt lat="46.56157" lon="5.22637">
        <ele>219.8</ele>
        <time>2021-06-14T13:12:37Z</time>
      </trkpt>
      <trkpt lat="46.56163" lon="5.22654">
        <ele>220</ele>
        <time>2021-06-14T13:12:39Z</time>
      </trkpt>
      <trkpt lat="46.56166" lon="5.22663">
        <ele>220</ele>
        <time>2021-06-14T13:12:40Z</time>
      </trkpt>
      <trkpt lat="46.5617" lon="5.22671">
        <ele>220</ele>
        <time>2021-06-14T13:12:41Z</time>
      </trkpt>
      <trkpt lat="46.56176" lon="5.22688">
        <ele>220</ele>
        <time>2021-06-14T13:12:43Z</time>
      </trkpt>
      <trkpt lat="46.56182" lon="5.22705">
        <ele>220</ele>
        <time>2021-06-14T13:12:45Z</time>
      </trkpt>
      <trkpt lat="46.56188" lon="5.22721">
        <ele>220.2</ele>
        <time>2021-06-14T13:12:47Z</time>
      </trkpt>
      <trkpt lat="46.56194" lon="5.22736">
        <ele>220.4</ele>
        <time>2021-06-14T13:12:49Z</time>
      </trkpt>
      <trkpt lat="46.56199" lon="5.22751">
        <ele>220.6</ele>
        <time>2021-06-14T13:12:51Z</time>
      </trkpt>
      <trkpt lat="46.56205" lon="5.22765">
        <ele>221</ele>
        <time>2021-06-14T13:12:53Z</time>
      </trkpt>
      <trkpt lat="46.5621" lon="5.22779">
        <ele>221.4</ele>
        <time>2021-06-14T13:12:55Z</time>
      </trkpt>
      <trkpt lat="46.56215" lon="5.22792">
        <ele>222</ele>
        <time>2021-06-14T13:12:57Z</time>
      </trkpt>
      <trkpt lat="46.56217" lon="5.22798">
        <ele>222.4</ele>
        <time>2021-06-14T13:12:58Z</time>
      </trkpt>
      <trkpt lat="46.5622" lon="5.22805">
        <ele>222.6</ele>
        <time>2021-06-14T13:12:59Z</time>
      </trkpt>
      <trkpt lat="46.56225" lon="5.22817">
        <ele>223.4</ele>
        <time>2021-06-14T13:13:01Z</time>
      </trkpt>
      <trkpt lat="46.56227" lon="5.22823">
        <ele>223.6</ele>
        <time>2021-06-14T13:13:02Z</time>
      </trkpt>
      <trkpt lat="46.56229" lon="5.2283">
        <ele>224</ele>
        <time>2021-06-14T13:13:03Z</time>
      </trkpt>
      <trkpt lat="46.56234" lon="5.22842">
        <ele>224.8</ele>
        <time>2021-06-14T13:13:05Z</time>
      </trkpt>
      <trkpt lat="46.56236" lon="5.22848">
        <ele>225.2</ele>
        <time>2021-06-14T13:13:06Z</time>
      </trkpt>
      <trkpt lat="46.56238" lon="5.22854">
        <ele>225.4</ele>
        <time>2021-06-14T13:13:07Z</time>
      </trkpt>
      <trkpt lat="46.56242" lon="5.22865">
        <ele>225.8</ele>
        <time>2021-06-14T13:13:09Z</time>
      </trkpt>
      <trkpt lat="46.56246" lon="5.22876">
        <ele>226.2</ele>
        <time>2021-06-14T13:13:11Z</time>
      </trkpt>
      <trkpt lat="46.5625" lon="5.22887">
        <ele>226.8</ele>
        <time>2021-06-14T13:13:13Z</time>
      </trkpt>
      <trkpt lat="46.56252" lon="5.22892">
        <ele>227.2</ele>
        <time>2021-06-14T13:13:14Z</time>
      </trkpt>
      <trkpt lat="46.56253" lon="5.22897">
        <ele>227.4</ele>
        <time>2021-06-14T13:13:15Z</time>
      </trkpt>
      <trkpt lat="46.56256" lon="5.22907">
        <ele>228</ele>
        <time>2021-06-14T13:13:17Z</time>
      </trkpt>
      <trkpt lat="46.56259" lon="5.22918">
        <ele>228.4</ele>
        <time>2021-06-14T13:13:19Z</time>
      </trkpt>
      <trkpt lat="46.56261" lon="5.22928">
        <ele>229.2</ele>
        <time>2021-06-14T13:13:21Z</time>
      </trkpt>
      <trkpt lat="46.56263" lon="5.22933">
        <ele>229.4</ele>
        <time>2021-06-14T13:13:22Z</time>
      </trkpt>
      <trkpt lat="46.56264" lon="5.22938">
        <ele>229.8</ele>
        <time>2021-06-14T13:13:23Z</time>
      </trkpt>
      <trkpt lat="46.56268" lon="5.22947">
        <ele>230</ele>
        <time>2021-06-14T13:13:25Z</time>
      </trkpt>
      <trkpt lat="46.5627" lon="5.22952">
        <ele>230.2</ele>
        <time>2021-06-14T13:13:26Z</time>
      </trkpt>
      <trkpt lat="46.56271" lon="5.22957">
        <ele>230.4</ele>
        <time>2021-06-14T13:13:27Z</time>
      </trkpt>
      <trkpt lat="46.56272" lon="5.22961">
        <ele>230.6</ele>
        <time>2021-06-14T13:13:28Z</time>
      </trkpt>
      <trkpt lat="46.56274" lon="5.22966">
        <ele>231</ele>
        <time>2021-06-14T13:13:29Z</time>
      </trkpt>
      <trkpt lat="46.56278" lon="5.22976">
        <ele>231.4</ele>
        <time>2021-06-14T13:13:31Z</time>
      </trkpt>
      <trkpt lat="46.56282" lon="5.22986">
        <ele>231.8</ele>
        <time>2021-06-14T13:13:33Z</time>
      </trkpt>
      <trkpt lat="46.56285" lon="5.22996">
        <ele>232.2</ele>
        <time>2021-06-14T13:13:35Z</time>
      </trkpt>
      <trkpt lat="46.56287" lon="5.23002">
        <ele>232.4</ele>
        <time>2021-06-14T13:13:36Z</time>
      </trkpt>
      <trkpt lat="46.56289" lon="5.23007">
        <ele>232.6</ele>
        <time>2021-06-14T13:13:37Z</time>
      </trkpt>
      <trkpt lat="46.56292" lon="5.23016">
        <ele>233</ele>
        <time>2021-06-14T13:13:39Z</time>
      </trkpt>
      <trkpt lat="46.56295" lon="5.23024">
        <ele>233.4</ele>
        <time>2021-06-14T13:13:41Z</time>
      </trkpt>
      <trkpt lat="46.56296" lon="5.23029">
        <ele>233.6</ele>
        <time>2021-06-14T13:13:42Z</time>
      </trkpt>
      <trkpt lat="46.56298" lon="5.23033">
        <ele>233.8</ele>
        <time>2021-06-14T13:13:43Z</time>
      </trkpt>
      <trkpt lat="46.56301" lon="5.23043">
        <ele>234.2</ele>
        <time>2021-06-14T13:13:45Z</time>
      </trkpt>
      <trkpt lat="46.56306" lon="5.23053">
        <ele>234.8</ele>
        <time>2021-06-14T13:13:47Z</time>
      </trkpt>
      <trkpt lat="46.56309" lon="5.23062">
        <ele>235.2</ele>
        <time>2021-06-14T13:13:49Z</time>
      </trkpt>
      <trkpt lat="46.56311" lon="5.23068">
        <ele>235.8</ele>
        <time>2021-06-14T13:13:50Z</time>
      </trkpt>
      <trkpt lat="46.56313" lon="5.23074">
        <ele>235.8</ele>
        <time>2021-06-14T13:13:51Z</time>
      </trkpt>
      <trkpt lat="46.56317" lon="5.23087">
        <ele>236.2</ele>
        <time>2021-06-14T13:13:53Z</time>
      </trkpt>
      <trkpt lat="46.56322" lon="5.231">
        <ele>236.4</ele>
        <time>2021-06-14T13:13:55Z</time>
      </trkpt>
      <trkpt lat="46.56324" lon="5.23107">
        <ele>236.6</ele>
        <time>2021-06-14T13:13:56Z</time>
      </trkpt>
      <trkpt lat="46.56327" lon="5.23114">
        <ele>236.6</ele>
        <time>2021-06-14T13:13:57Z</time>
      </trkpt>
      <trkpt lat="46.56333" lon="5.23128">
        <ele>236.8</ele>
        <time>2021-06-14T13:13:59Z</time>
      </trkpt>
      <trkpt lat="46.56339" lon="5.23142">
        <ele>237</ele>
        <time>2021-06-14T13:14:01Z</time>
      </trkpt>
      <trkpt lat="46.56345" lon="5.23155">
        <ele>237</ele>
        <time>2021-06-14T13:14:03Z</time>
      </trkpt>
      <trkpt lat="46.5635" lon="5.23169">
        <ele>237</ele>
        <time>2021-06-14T13:14:05Z</time>
      </trkpt>
      <trkpt lat="46.56355" lon="5.23182">
        <ele>237</ele>
        <time>2021-06-14T13:14:07Z</time>
      </trkpt>
      <trkpt lat="46.5636" lon="5.23196">
        <ele>237</ele>
        <time>2021-06-14T13:14:09Z</time>
      </trkpt>
      <trkpt lat="46.56363" lon="5.23202">
        <ele>237</ele>
        <time>2021-06-14T13:14:10Z</time>
      </trkpt>
      <trkpt lat="46.56366" lon="5.23209">
        <ele>237</ele>
        <time>2021-06-14T13:14:11Z</time>
      </trkpt>
      <trkpt lat="46.56368" lon="5.23216">
        <ele>237</ele>
        <time>2021-06-14T13:14:12Z</time>
      </trkpt>
      <trkpt lat="46.56371" lon="5.23223">
        <ele>237</ele>
        <time>2021-06-14T13:14:13Z</time>
      </trkpt>
      <trkpt lat="46.56376" lon="5.23238">
        <ele>237</ele>
        <time>2021-06-14T13:14:15Z</time>
      </trkpt>
      <trkpt lat="46.5638" lon="5.23245">
        <ele>236.8</ele>
        <time>2021-06-14T13:14:16Z</time>
      </trkpt>
      <trkpt lat="46.56383" lon="5.23253">
        <ele>236.8</ele>
        <time>2021-06-14T13:14:17Z</time>
      </trkpt>
      <trkpt lat="46.56389" lon="5.23269">
        <ele>236.8</ele>
        <time>2021-06-14T13:14:19Z</time>
      </trkpt>
      <trkpt lat="46.56395" lon="5.23285">
        <ele>236.6</ele>
        <time>2021-06-14T13:14:21Z</time>
      </trkpt>
      <trkpt lat="46.56401" lon="5.233">
        <ele>236.6</ele>
        <time>2021-06-14T13:14:23Z</time>
      </trkpt>
      <trkpt lat="46.56407" lon="5.23316">
        <ele>236.2</ele>
        <time>2021-06-14T13:14:25Z</time>
      </trkpt>
      <trkpt lat="46.56413" lon="5.23333">
        <ele>236.2</ele>
        <time>2021-06-14T13:14:27Z</time>
      </trkpt>
      <trkpt lat="46.5642" lon="5.23349">
        <ele>236.2</ele>
        <time>2021-06-14T13:14:29Z</time>
      </trkpt>
      <trkpt lat="46.56426" lon="5.23366">
        <ele>236.2</ele>
        <time>2021-06-14T13:14:31Z</time>
      </trkpt>
      <trkpt lat="46.5643" lon="5.23374">
        <ele>236.2</ele>
        <time>2021-06-14T13:14:32Z</time>
      </trkpt>
      <trkpt lat="46.56433" lon="5.23382">
        <ele>236.2</ele>
        <time>2021-06-14T13:14:33Z</time>
      </trkpt>
      <trkpt lat="46.56441" lon="5.23398">
        <ele>236.2</ele>
        <time>2021-06-14T13:14:35Z</time>
      </trkpt>
      <trkpt lat="46.56448" lon="5.23413">
        <ele>236.2</ele>
        <time>2021-06-14T13:14:37Z</time>
      </trkpt>
      <trkpt lat="46.56457" lon="5.23428">
        <ele>236.2</ele>
        <time>2021-06-14T13:14:39Z</time>
      </trkpt>
      <trkpt lat="46.56461" lon="5.23435">
        <ele>236.2</ele>
        <time>2021-06-14T13:14:40Z</time>
      </trkpt>
      <trkpt lat="46.56466" lon="5.23442">
        <ele>236.2</ele>
        <time>2021-06-14T13:14:41Z</time>
      </trkpt>
      <trkpt lat="46.56475" lon="5.23457">
        <ele>236.2</ele>
        <time>2021-06-14T13:14:43Z</time>
      </trkpt>
      <trkpt lat="46.56485" lon="5.23471">
        <ele>236.4</ele>
        <time>2021-06-14T13:14:45Z</time>
      </trkpt>
      <trkpt lat="46.56495" lon="5.23486">
        <ele>236.4</ele>
        <time>2021-06-14T13:14:47Z</time>
      </trkpt>
      <trkpt lat="46.56505" lon="5.23501">
        <ele>236.4</ele>
        <time>2021-06-14T13:14:49Z</time>
      </trkpt>
      <trkpt lat="46.56516" lon="5.23516">
        <ele>236.4</ele>
        <time>2021-06-14T13:14:51Z</time>
      </trkpt>
      <trkpt lat="46.56527" lon="5.2353">
        <ele>236.4</ele>
        <time>2021-06-14T13:14:53Z</time>
      </trkpt>
      <trkpt lat="46.56538" lon="5.23544">
        <ele>236.4</ele>
        <time>2021-06-14T13:14:55Z</time>
      </trkpt>
      <trkpt lat="46.56549" lon="5.23558">
        <ele>236.2</ele>
        <time>2021-06-14T13:14:57Z</time>
      </trkpt>
      <trkpt lat="46.56562" lon="5.23571">
        <ele>236.2</ele>
        <time>2021-06-14T13:14:59Z</time>
      </trkpt>
      <trkpt lat="46.56568" lon="5.23577">
        <ele>236.2</ele>
        <time>2021-06-14T13:15:00Z</time>
      </trkpt>
      <trkpt lat="46.56574" lon="5.23582">
        <ele>236.2</ele>
        <time>2021-06-14T13:15:01Z</time>
      </trkpt>
      <trkpt lat="46.56588" lon="5.23591">
        <ele>236</ele>
        <time>2021-06-14T13:15:03Z</time>
      </trkpt>
      <trkpt lat="46.56601" lon="5.236">
        <ele>235.8</ele>
        <time>2021-06-14T13:15:05Z</time>
      </trkpt>
      <trkpt lat="46.56615" lon="5.23609">
        <ele>235.6</ele>
        <time>2021-06-14T13:15:07Z</time>
      </trkpt>
      <trkpt lat="46.56622" lon="5.23614">
        <ele>235.4</ele>
        <time>2021-06-14T13:15:08Z</time>
      </trkpt>
      <trkpt lat="46.56629" lon="5.23618">
        <ele>235.4</ele>
        <time>2021-06-14T13:15:09Z</time>
      </trkpt>
      <trkpt lat="46.56642" lon="5.23628">
        <ele>235</ele>
        <time>2021-06-14T13:15:11Z</time>
      </trkpt>
      <trkpt lat="46.56655" lon="5.2364">
        <ele>234.6</ele>
        <time>2021-06-14T13:15:13Z</time>
      </trkpt>
      <trkpt lat="46.56661" lon="5.23646">
        <ele>234.6</ele>
        <time>2021-06-14T13:15:14Z</time>
      </trkpt>
      <trkpt lat="46.56667" lon="5.23652">
        <ele>234.4</ele>
        <time>2021-06-14T13:15:15Z</time>
      </trkpt>
      <trkpt lat="46.56679" lon="5.23666">
        <ele>234.4</ele>
        <time>2021-06-14T13:15:17Z</time>
      </trkpt>
      <trkpt lat="46.56691" lon="5.23683">
        <ele>234.4</ele>
        <time>2021-06-14T13:15:19Z</time>
      </trkpt>
      <trkpt lat="46.56698" lon="5.23692">
        <ele>234.2</ele>
        <time>2021-06-14T13:15:20Z</time>
      </trkpt>
      <trkpt lat="46.56704" lon="5.237">
        <ele>234.2</ele>
        <time>2021-06-14T13:15:21Z</time>
      </trkpt>
      <trkpt lat="46.56716" lon="5.23719">
        <ele>234.2</ele>
        <time>2021-06-14T13:15:23Z</time>
      </trkpt>
      <trkpt lat="46.56728" lon="5.23737">
        <ele>233.8</ele>
        <time>2021-06-14T13:15:25Z</time>
      </trkpt>
      <trkpt lat="46.56733" lon="5.23746">
        <ele>233.4</ele>
        <time>2021-06-14T13:15:26Z</time>
      </trkpt>
      <trkpt lat="46.56739" lon="5.23756">
        <ele>233</ele>
        <time>2021-06-14T13:15:27Z</time>
      </trkpt>
      <trkpt lat="46.56744" lon="5.23765">
        <ele>232.4</ele>
        <time>2021-06-14T13:15:28Z</time>
      </trkpt>
      <trkpt lat="46.56749" lon="5.23775">
        <ele>231.8</ele>
        <time>2021-06-14T13:15:29Z</time>
      </trkpt>
      <trkpt lat="46.56759" lon="5.23794">
        <ele>231.2</ele>
        <time>2021-06-14T13:15:31Z</time>
      </trkpt>
      <trkpt lat="46.56768" lon="5.23813">
        <ele>231.2</ele>
        <time>2021-06-14T13:15:33Z</time>
      </trkpt>
      <trkpt lat="46.56778" lon="5.23831">
        <ele>231.2</ele>
        <time>2021-06-14T13:15:35Z</time>
      </trkpt>
      <trkpt lat="46.56788" lon="5.23846">
        <ele>231.2</ele>
        <time>2021-06-14T13:15:37Z</time>
      </trkpt>
      <trkpt lat="46.568" lon="5.2386">
        <ele>231.2</ele>
        <time>2021-06-14T13:15:39Z</time>
      </trkpt>
      <trkpt lat="46.56813" lon="5.2387">
        <ele>231.4</ele>
        <time>2021-06-14T13:15:41Z</time>
      </trkpt>
      <trkpt lat="46.56819" lon="5.23875">
        <ele>231.4</ele>
        <time>2021-06-14T13:15:42Z</time>
      </trkpt>
      <trkpt lat="46.56825" lon="5.23879">
        <ele>231.4</ele>
        <time>2021-06-14T13:15:43Z</time>
      </trkpt>
      <trkpt lat="46.56838" lon="5.23887">
        <ele>231.6</ele>
        <time>2021-06-14T13:15:45Z</time>
      </trkpt>
      <trkpt lat="46.56851" lon="5.23895">
        <ele>231.6</ele>
        <time>2021-06-14T13:15:47Z</time>
      </trkpt>
      <trkpt lat="46.56857" lon="5.23899">
        <ele>231.6</ele>
        <time>2021-06-14T13:15:48Z</time>
      </trkpt>
      <trkpt lat="46.56863" lon="5.23903">
        <ele>231.6</ele>
        <time>2021-06-14T13:15:49Z</time>
      </trkpt>
      <trkpt lat="46.56875" lon="5.2391">
        <ele>232.2</ele>
        <time>2021-06-14T13:15:51Z</time>
      </trkpt>
      <trkpt lat="46.56887" lon="5.23918">
        <ele>232.8</ele>
        <time>2021-06-14T13:15:53Z</time>
      </trkpt>
      <trkpt lat="46.56899" lon="5.23925">
        <ele>233.4</ele>
        <time>2021-06-14T13:15:55Z</time>
      </trkpt>
      <trkpt lat="46.56911" lon="5.23932">
        <ele>234.2</ele>
        <time>2021-06-14T13:15:57Z</time>
      </trkpt>
      <trkpt lat="46.56917" lon="5.23935">
        <ele>234.4</ele>
        <time>2021-06-14T13:15:58Z</time>
      </trkpt>
      <trkpt lat="46.56923" lon="5.23938">
        <ele>234.6</ele>
        <time>2021-06-14T13:15:59Z</time>
      </trkpt>
      <trkpt lat="46.56934" lon="5.23944">
        <ele>234.8</ele>
        <time>2021-06-14T13:16:01Z</time>
      </trkpt>
      <trkpt lat="46.56945" lon="5.23949">
        <ele>235</ele>
        <time>2021-06-14T13:16:03Z</time>
      </trkpt>
      <trkpt lat="46.56957" lon="5.23953">
        <ele>235.6</ele>
        <time>2021-06-14T13:16:05Z</time>
      </trkpt>
      <trkpt lat="46.56963" lon="5.23955">
        <ele>235.6</ele>
        <time>2021-06-14T13:16:06Z</time>
      </trkpt>
      <trkpt lat="46.56969" lon="5.23957">
        <ele>235.6</ele>
        <time>2021-06-14T13:16:07Z</time>
      </trkpt>
      <trkpt lat="46.56981" lon="5.2396">
        <ele>235.8</ele>
        <time>2021-06-14T13:16:09Z</time>
      </trkpt>
      <trkpt lat="46.56994" lon="5.23965">
        <ele>235.8</ele>
        <time>2021-06-14T13:16:11Z</time>
      </trkpt>
      <trkpt lat="46.57006" lon="5.23968">
        <ele>235.8</ele>
        <time>2021-06-14T13:16:13Z</time>
      </trkpt>
      <trkpt lat="46.57012" lon="5.2397">
        <ele>235.8</ele>
        <time>2021-06-14T13:16:14Z</time>
      </trkpt>
      <trkpt lat="46.57018" lon="5.23972">
        <ele>235.6</ele>
        <time>2021-06-14T13:16:15Z</time>
      </trkpt>
      <trkpt lat="46.5703" lon="5.23975">
        <ele>235.6</ele>
        <time>2021-06-14T13:16:17Z</time>
      </trkpt>
      <trkpt lat="46.57043" lon="5.23978">
        <ele>235.6</ele>
        <time>2021-06-14T13:16:19Z</time>
      </trkpt>
      <trkpt lat="46.57055" lon="5.23983">
        <ele>235.6</ele>
        <time>2021-06-14T13:16:21Z</time>
      </trkpt>
      <trkpt lat="46.57061" lon="5.23984">
        <ele>235.6</ele>
        <time>2021-06-14T13:16:22Z</time>
      </trkpt>
      <trkpt lat="46.57068" lon="5.23986">
        <ele>235.6</ele>
        <time>2021-06-14T13:16:23Z</time>
      </trkpt>
      <trkpt lat="46.5708" lon="5.23989">
        <ele>235.4</ele>
        <time>2021-06-14T13:16:25Z</time>
      </trkpt>
      <trkpt lat="46.57092" lon="5.23993">
        <ele>235.4</ele>
        <time>2021-06-14T13:16:27Z</time>
      </trkpt>
      <trkpt lat="46.57104" lon="5.23998">
        <ele>235.4</ele>
        <time>2021-06-14T13:16:29Z</time>
      </trkpt>
      <trkpt lat="46.57116" lon="5.24005">
        <ele>235.4</ele>
        <time>2021-06-14T13:16:31Z</time>
      </trkpt>
      <trkpt lat="46.57122" lon="5.24009">
        <ele>235.4</ele>
        <time>2021-06-14T13:16:32Z</time>
      </trkpt>
      <trkpt lat="46.57127" lon="5.24015">
        <ele>235.4</ele>
        <time>2021-06-14T13:16:33Z</time>
      </trkpt>
      <trkpt lat="46.57138" lon="5.24027">
        <ele>235.4</ele>
        <time>2021-06-14T13:16:35Z</time>
      </trkpt>
      <trkpt lat="46.57147" lon="5.2404">
        <ele>235.4</ele>
        <time>2021-06-14T13:16:37Z</time>
      </trkpt>
      <trkpt lat="46.57156" lon="5.24055">
        <ele>235.4</ele>
        <time>2021-06-14T13:16:39Z</time>
      </trkpt>
      <trkpt lat="46.57165" lon="5.24072">
        <ele>235.4</ele>
        <time>2021-06-14T13:16:41Z</time>
      </trkpt>
      <trkpt lat="46.57174" lon="5.24091">
        <ele>235.4</ele>
        <time>2021-06-14T13:16:43Z</time>
      </trkpt>
      <trkpt lat="46.57183" lon="5.24113">
        <ele>235.4</ele>
        <time>2021-06-14T13:16:45Z</time>
      </trkpt>
      <trkpt lat="46.57193" lon="5.24135">
        <ele>234.8</ele>
        <time>2021-06-14T13:16:47Z</time>
      </trkpt>
      <trkpt lat="46.57198" lon="5.24146">
        <ele>234.4</ele>
        <time>2021-06-14T13:16:48Z</time>
      </trkpt>
      <trkpt lat="46.57204" lon="5.24157">
        <ele>234</ele>
        <time>2021-06-14T13:16:49Z</time>
      </trkpt>
      <trkpt lat="46.57219" lon="5.24175">
        <ele>233</ele>
        <time>2021-06-14T13:16:51Z</time>
      </trkpt>
      <trkpt lat="46.57237" lon="5.24187">
        <ele>231.6</ele>
        <time>2021-06-14T13:16:53Z</time>
      </trkpt>
      <trkpt lat="46.57257" lon="5.242">
        <ele>230.2</ele>
        <time>2021-06-14T13:16:55Z</time>
      </trkpt>
      <trkpt lat="46.57266" lon="5.24208">
        <ele>229.4</ele>
        <time>2021-06-14T13:16:56Z</time>
      </trkpt>
      <trkpt lat="46.57275" lon="5.24218">
        <ele>228.8</ele>
        <time>2021-06-14T13:16:57Z</time>
      </trkpt>
      <trkpt lat="46.57289" lon="5.24243">
        <ele>227.6</ele>
        <time>2021-06-14T13:16:59Z</time>
      </trkpt>
      <trkpt lat="46.57295" lon="5.24258">
        <ele>226.4</ele>
        <time>2021-06-14T13:17:00Z</time>
      </trkpt>
      <trkpt lat="46.57299" lon="5.24274">
        <ele>225.2</ele>
        <time>2021-06-14T13:17:01Z</time>
      </trkpt>
      <trkpt lat="46.57302" lon="5.2429">
        <ele>224.2</ele>
        <time>2021-06-14T13:17:02Z</time>
      </trkpt>
      <trkpt lat="46.57305" lon="5.24307">
        <ele>223</ele>
        <time>2021-06-14T13:17:03Z</time>
      </trkpt>
      <trkpt lat="46.57307" lon="5.24324">
        <ele>222.2</ele>
        <time>2021-06-14T13:17:04Z</time>
      </trkpt>
      <trkpt lat="46.57309" lon="5.2434">
        <ele>221.4</ele>
        <time>2021-06-14T13:17:05Z</time>
      </trkpt>
      <trkpt lat="46.57311" lon="5.24357">
        <ele>220.2</ele>
        <time>2021-06-14T13:17:06Z</time>
      </trkpt>
      <trkpt lat="46.57312" lon="5.24374">
        <ele>219.6</ele>
        <time>2021-06-14T13:17:07Z</time>
      </trkpt>
      <trkpt lat="46.57313" lon="5.24391">
        <ele>218.8</ele>
        <time>2021-06-14T13:17:08Z</time>
      </trkpt>
      <trkpt lat="46.57313" lon="5.24408">
        <ele>217.8</ele>
        <time>2021-06-14T13:17:09Z</time>
      </trkpt>
      <trkpt lat="46.57311" lon="5.24424">
        <ele>217</ele>
        <time>2021-06-14T13:17:10Z</time>
      </trkpt>
      <trkpt lat="46.57308" lon="5.2444">
        <ele>216.4</ele>
        <time>2021-06-14T13:17:11Z</time>
      </trkpt>
      <trkpt lat="46.57304" lon="5.24455">
        <ele>215.8</ele>
        <time>2021-06-14T13:17:12Z</time>
      </trkpt>
      <trkpt lat="46.573" lon="5.24469">
        <ele>215.6</ele>
        <time>2021-06-14T13:17:13Z</time>
      </trkpt>
      <trkpt lat="46.57293" lon="5.24497">
        <ele>214.6</ele>
        <time>2021-06-14T13:17:15Z</time>
      </trkpt>
      <trkpt lat="46.57286" lon="5.24524">
        <ele>213.8</ele>
        <time>2021-06-14T13:17:17Z</time>
      </trkpt>
      <trkpt lat="46.57282" lon="5.2455">
        <ele>213.6</ele>
        <time>2021-06-14T13:17:19Z</time>
      </trkpt>
      <trkpt lat="46.57281" lon="5.24563">
        <ele>213.4</ele>
        <time>2021-06-14T13:17:20Z</time>
      </trkpt>
      <trkpt lat="46.57281" lon="5.24577">
        <ele>213.4</ele>
        <time>2021-06-14T13:17:21Z</time>
      </trkpt>
      <trkpt lat="46.57282" lon="5.24602">
        <ele>213</ele>
        <time>2021-06-14T13:17:23Z</time>
      </trkpt>
      <trkpt lat="46.57283" lon="5.24625">
        <ele>212.8</ele>
        <time>2021-06-14T13:17:25Z</time>
      </trkpt>
      <trkpt lat="46.57283" lon="5.24634">
        <ele>212.8</ele>
        <time>2021-06-14T13:17:26Z</time>
      </trkpt>
      <trkpt lat="46.57282" lon="5.2464">
        <ele>212.8</ele>
        <time>2021-06-14T13:17:27Z</time>
      </trkpt>
      <trkpt lat="46.5728" lon="5.24648">
        <ele>213</ele>
        <time>2021-06-14T13:17:29Z</time>
      </trkpt>
      <trkpt lat="46.5728" lon="5.24652">
        <ele>213.2</ele>
        <time>2021-06-14T13:17:30Z</time>
      </trkpt>
      <trkpt lat="46.57281" lon="5.24656">
        <ele>213.4</ele>
        <time>2021-06-14T13:17:31Z</time>
      </trkpt>
      <trkpt lat="46.57284" lon="5.24661">
        <ele>213.4</ele>
        <time>2021-06-14T13:17:32Z</time>
      </trkpt>
      <trkpt lat="46.57286" lon="5.24667">
        <ele>213.6</ele>
        <time>2021-06-14T13:17:33Z</time>
      </trkpt>
      <trkpt lat="46.57289" lon="5.24674">
        <ele>213.6</ele>
        <time>2021-06-14T13:17:34Z</time>
      </trkpt>
      <trkpt lat="46.57291" lon="5.24681">
        <ele>213.8</ele>
        <time>2021-06-14T13:17:35Z</time>
      </trkpt>
      <trkpt lat="46.57294" lon="5.24688">
        <ele>213.8</ele>
        <time>2021-06-14T13:17:36Z</time>
      </trkpt>
      <trkpt lat="46.57296" lon="5.24696">
        <ele>213.8</ele>
        <time>2021-06-14T13:17:37Z</time>
      </trkpt>
      <trkpt lat="46.57303" lon="5.24711">
        <ele>213.8</ele>
        <time>2021-06-14T13:17:39Z</time>
      </trkpt>
      <trkpt lat="46.57307" lon="5.24718">
        <ele>213.8</ele>
        <time>2021-06-14T13:17:40Z</time>
      </trkpt>
      <trkpt lat="46.57312" lon="5.24725">
        <ele>213.8</ele>
        <time>2021-06-14T13:17:41Z</time>
      </trkpt>
      <trkpt lat="46.57323" lon="5.24736">
        <ele>213.8</ele>
        <time>2021-06-14T13:17:43Z</time>
      </trkpt>
      <trkpt lat="46.57333" lon="5.24747">
        <ele>214</ele>
        <time>2021-06-14T13:17:45Z</time>
      </trkpt>
      <trkpt lat="46.57343" lon="5.24757">
        <ele>214</ele>
        <time>2021-06-14T13:17:47Z</time>
      </trkpt>
      <trkpt lat="46.57354" lon="5.24767">
        <ele>214</ele>
        <time>2021-06-14T13:17:49Z</time>
      </trkpt>
      <trkpt lat="46.57364" lon="5.24776">
        <ele>214</ele>
        <time>2021-06-14T13:17:51Z</time>
      </trkpt>
      <trkpt lat="46.57375" lon="5.24788">
        <ele>214</ele>
        <time>2021-06-14T13:17:53Z</time>
      </trkpt>
      <trkpt lat="46.57379" lon="5.24795">
        <ele>214.2</ele>
        <time>2021-06-14T13:17:54Z</time>
      </trkpt>
      <trkpt lat="46.57384" lon="5.24803">
        <ele>214.2</ele>
        <time>2021-06-14T13:17:55Z</time>
      </trkpt>
      <trkpt lat="46.57391" lon="5.24819">
        <ele>214.2</ele>
        <time>2021-06-14T13:17:57Z</time>
      </trkpt>
      <trkpt lat="46.57398" lon="5.24836">
        <ele>214.2</ele>
        <time>2021-06-14T13:17:59Z</time>
      </trkpt>
      <trkpt lat="46.57405" lon="5.24852">
        <ele>214</ele>
        <time>2021-06-14T13:18:01Z</time>
      </trkpt>
      <trkpt lat="46.57412" lon="5.24869">
        <ele>214</ele>
        <time>2021-06-14T13:18:03Z</time>
      </trkpt>
      <trkpt lat="46.57419" lon="5.24885">
        <ele>214</ele>
        <time>2021-06-14T13:18:05Z</time>
      </trkpt>
      <trkpt lat="46.57422" lon="5.24893">
        <ele>214</ele>
        <time>2021-06-14T13:18:06Z</time>
      </trkpt>
      <trkpt lat="46.57426" lon="5.249">
        <ele>214</ele>
        <time>2021-06-14T13:18:07Z</time>
      </trkpt>
      <trkpt lat="46.57434" lon="5.24916">
        <ele>214</ele>
        <time>2021-06-14T13:18:09Z</time>
      </trkpt>
      <trkpt lat="46.57441" lon="5.24931">
        <ele>214</ele>
        <time>2021-06-14T13:18:11Z</time>
      </trkpt>
      <trkpt lat="46.57448" lon="5.24946">
        <ele>214</ele>
        <time>2021-06-14T13:18:13Z</time>
      </trkpt>
      <trkpt lat="46.57452" lon="5.24953">
        <ele>214.2</ele>
        <time>2021-06-14T13:18:14Z</time>
      </trkpt>
      <trkpt lat="46.57456" lon="5.24961">
        <ele>214.2</ele>
        <time>2021-06-14T13:18:15Z</time>
      </trkpt>
      <trkpt lat="46.57463" lon="5.24977">
        <ele>214.2</ele>
        <time>2021-06-14T13:18:17Z</time>
      </trkpt>
      <trkpt lat="46.5747" lon="5.24993">
        <ele>214.4</ele>
        <time>2021-06-14T13:18:19Z</time>
      </trkpt>
      <trkpt lat="46.57477" lon="5.2501">
        <ele>214.8</ele>
        <time>2021-06-14T13:18:21Z</time>
      </trkpt>
      <trkpt lat="46.57484" lon="5.25026">
        <ele>214.8</ele>
        <time>2021-06-14T13:18:23Z</time>
      </trkpt>
      <trkpt lat="46.57487" lon="5.25034">
        <ele>215</ele>
        <time>2021-06-14T13:18:24Z</time>
      </trkpt>
      <trkpt lat="46.57491" lon="5.25042">
        <ele>214.8</ele>
        <time>2021-06-14T13:18:25Z</time>
      </trkpt>
      <trkpt lat="46.57499" lon="5.25059">
        <ele>214.8</ele>
        <time>2021-06-14T13:18:27Z</time>
      </trkpt>
      <trkpt lat="46.57506" lon="5.25074">
        <ele>215</ele>
        <time>2021-06-14T13:18:29Z</time>
      </trkpt>
      <trkpt lat="46.57515" lon="5.2509">
        <ele>215.2</ele>
        <time>2021-06-14T13:18:31Z</time>
      </trkpt>
      <trkpt lat="46.57519" lon="5.25097">
        <ele>215.2</ele>
        <time>2021-06-14T13:18:32Z</time>
      </trkpt>
      <trkpt lat="46.57524" lon="5.25104">
        <ele>215.2</ele>
        <time>2021-06-14T13:18:33Z</time>
      </trkpt>
      <trkpt lat="46.57533" lon="5.25116">
        <ele>215.2</ele>
        <time>2021-06-14T13:18:35Z</time>
      </trkpt>
      <trkpt lat="46.57544" lon="5.25126">
        <ele>215.2</ele>
        <time>2021-06-14T13:18:37Z</time>
      </trkpt>
      <trkpt lat="46.57554" lon="5.25133">
        <ele>215.4</ele>
        <time>2021-06-14T13:18:39Z</time>
      </trkpt>
      <trkpt lat="46.57565" lon="5.25139">
        <ele>215.6</ele>
        <time>2021-06-14T13:18:41Z</time>
      </trkpt>
      <trkpt lat="46.57571" lon="5.25142">
        <ele>215.8</ele>
        <time>2021-06-14T13:18:42Z</time>
      </trkpt>
      <trkpt lat="46.57576" lon="5.25144">
        <ele>216</ele>
        <time>2021-06-14T13:18:43Z</time>
      </trkpt>
      <trkpt lat="46.57587" lon="5.25146">
        <ele>216.4</ele>
        <time>2021-06-14T13:18:45Z</time>
      </trkpt>
      <trkpt lat="46.57598" lon="5.25147">
        <ele>217</ele>
        <time>2021-06-14T13:18:47Z</time>
      </trkpt>
      <trkpt lat="46.57609" lon="5.25146">
        <ele>217.4</ele>
        <time>2021-06-14T13:18:49Z</time>
      </trkpt>
      <trkpt lat="46.5762" lon="5.25143">
        <ele>217.6</ele>
        <time>2021-06-14T13:18:51Z</time>
      </trkpt>
      <trkpt lat="46.5763" lon="5.25139">
        <ele>217.8</ele>
        <time>2021-06-14T13:18:53Z</time>
      </trkpt>
      <trkpt lat="46.57636" lon="5.25137">
        <ele>218.2</ele>
        <time>2021-06-14T13:18:54Z</time>
      </trkpt>
      <trkpt lat="46.57641" lon="5.25134">
        <ele>218.2</ele>
        <time>2021-06-14T13:18:55Z</time>
      </trkpt>
      <trkpt lat="46.57646" lon="5.25131">
        <ele>218.4</ele>
        <time>2021-06-14T13:18:56Z</time>
      </trkpt>
      <trkpt lat="46.57651" lon="5.25128">
        <ele>218.8</ele>
        <time>2021-06-14T13:18:57Z</time>
      </trkpt>
      <trkpt lat="46.5766" lon="5.25122">
        <ele>219.2</ele>
        <time>2021-06-14T13:18:59Z</time>
      </trkpt>
      <trkpt lat="46.5767" lon="5.25116">
        <ele>219.4</ele>
        <time>2021-06-14T13:19:01Z</time>
      </trkpt>
      <trkpt lat="46.57679" lon="5.2511">
        <ele>219.6</ele>
        <time>2021-06-14T13:19:03Z</time>
      </trkpt>
      <trkpt lat="46.57689" lon="5.25106">
        <ele>219.8</ele>
        <time>2021-06-14T13:19:05Z</time>
      </trkpt>
      <trkpt lat="46.57694" lon="5.25104">
        <ele>220</ele>
        <time>2021-06-14T13:19:06Z</time>
      </trkpt>
      <trkpt lat="46.57699" lon="5.25102">
        <ele>220.2</ele>
        <time>2021-06-14T13:19:07Z</time>
      </trkpt>
      <trkpt lat="46.57704" lon="5.25101">
        <ele>220.4</ele>
        <time>2021-06-14T13:19:08Z</time>
      </trkpt>
      <trkpt lat="46.57709" lon="5.251">
        <ele>220.4</ele>
        <time>2021-06-14T13:19:09Z</time>
      </trkpt>
      <trkpt lat="46.5772" lon="5.25099">
        <ele>220.6</ele>
        <time>2021-06-14T13:19:11Z</time>
      </trkpt>
      <trkpt lat="46.5773" lon="5.25098">
        <ele>221.2</ele>
        <time>2021-06-14T13:19:13Z</time>
      </trkpt>
      <trkpt lat="46.57735" lon="5.25098">
        <ele>221.6</ele>
        <time>2021-06-14T13:19:14Z</time>
      </trkpt>
      <trkpt lat="46.57741" lon="5.25098">
        <ele>221.8</ele>
        <time>2021-06-14T13:19:15Z</time>
      </trkpt>
      <trkpt lat="46.57751" lon="5.25098">
        <ele>222</ele>
        <time>2021-06-14T13:19:17Z</time>
      </trkpt>
      <trkpt lat="46.57761" lon="5.25098">
        <ele>222.6</ele>
        <time>2021-06-14T13:19:19Z</time>
      </trkpt>
      <trkpt lat="46.57771" lon="5.25098">
        <ele>222.8</ele>
        <time>2021-06-14T13:19:21Z</time>
      </trkpt>
      <trkpt lat="46.57776" lon="5.25098">
        <ele>223</ele>
        <time>2021-06-14T13:19:22Z</time>
      </trkpt>
      <trkpt lat="46.57782" lon="5.25098">
        <ele>223</ele>
        <time>2021-06-14T13:19:23Z</time>
      </trkpt>
      <trkpt lat="46.57792" lon="5.25099">
        <ele>223</ele>
        <time>2021-06-14T13:19:25Z</time>
      </trkpt>
      <trkpt lat="46.57803" lon="5.251">
        <ele>223</ele>
        <time>2021-06-14T13:19:27Z</time>
      </trkpt>
      <trkpt lat="46.57814" lon="5.251">
        <ele>223</ele>
        <time>2021-06-14T13:19:29Z</time>
      </trkpt>
      <trkpt lat="46.5782" lon="5.25101">
        <ele>223</ele>
        <time>2021-06-14T13:19:30Z</time>
      </trkpt>
      <trkpt lat="46.57825" lon="5.25101">
        <ele>223</ele>
        <time>2021-06-14T13:19:31Z</time>
      </trkpt>
      <trkpt lat="46.57837" lon="5.25101">
        <ele>223</ele>
        <time>2021-06-14T13:19:33Z</time>
      </trkpt>
      <trkpt lat="46.5785" lon="5.25101">
        <ele>222.6</ele>
        <time>2021-06-14T13:19:35Z</time>
      </trkpt>
      <trkpt lat="46.57863" lon="5.25102">
        <ele>222.6</ele>
        <time>2021-06-14T13:19:37Z</time>
      </trkpt>
      <trkpt lat="46.57877" lon="5.25102">
        <ele>222.4</ele>
        <time>2021-06-14T13:19:39Z</time>
      </trkpt>
      <trkpt lat="46.57891" lon="5.25102">
        <ele>222</ele>
        <time>2021-06-14T13:19:41Z</time>
      </trkpt>
      <trkpt lat="46.57898" lon="5.25102">
        <ele>221.6</ele>
        <time>2021-06-14T13:19:42Z</time>
      </trkpt>
      <trkpt lat="46.57905" lon="5.25102">
        <ele>221.4</ele>
        <time>2021-06-14T13:19:43Z</time>
      </trkpt>
      <trkpt lat="46.5792" lon="5.25101">
        <ele>221.2</ele>
        <time>2021-06-14T13:19:45Z</time>
      </trkpt>
      <trkpt lat="46.57936" lon="5.25101">
        <ele>220.8</ele>
        <time>2021-06-14T13:19:47Z</time>
      </trkpt>
      <trkpt lat="46.57943" lon="5.25101">
        <ele>220.8</ele>
        <time>2021-06-14T13:19:48Z</time>
      </trkpt>
      <trkpt lat="46.57951" lon="5.251">
        <ele>220.6</ele>
        <time>2021-06-14T13:19:49Z</time>
      </trkpt>
      <trkpt lat="46.57966" lon="5.25099">
        <ele>220</ele>
        <time>2021-06-14T13:19:51Z</time>
      </trkpt>
      <trkpt lat="46.57974" lon="5.25099">
        <ele>219.4</ele>
        <time>2021-06-14T13:19:52Z</time>
      </trkpt>
      <trkpt lat="46.57982" lon="5.25098">
        <ele>219.2</ele>
        <time>2021-06-14T13:19:53Z</time>
      </trkpt>
      <trkpt lat="46.57997" lon="5.25096">
        <ele>218.8</ele>
        <time>2021-06-14T13:19:55Z</time>
      </trkpt>
      <trkpt lat="46.58005" lon="5.25096">
        <ele>218.6</ele>
        <time>2021-06-14T13:19:56Z</time>
      </trkpt>
      <trkpt lat="46.58013" lon="5.25095">
        <ele>218.2</ele>
        <time>2021-06-14T13:19:57Z</time>
      </trkpt>
      <trkpt lat="46.58029" lon="5.25095">
        <ele>217.6</ele>
        <time>2021-06-14T13:19:59Z</time>
      </trkpt>
      <trkpt lat="46.58044" lon="5.25095">
        <ele>217.2</ele>
        <time>2021-06-14T13:20:01Z</time>
      </trkpt>
      <trkpt lat="46.58059" lon="5.25095">
        <ele>217</ele>
        <time>2021-06-14T13:20:03Z</time>
      </trkpt>
      <trkpt lat="46.58074" lon="5.25096">
        <ele>216.8</ele>
        <time>2021-06-14T13:20:05Z</time>
      </trkpt>
      <trkpt lat="46.58089" lon="5.25096">
        <ele>216.8</ele>
        <time>2021-06-14T13:20:07Z</time>
      </trkpt>
      <trkpt lat="46.58103" lon="5.25097">
        <ele>216.8</ele>
        <time>2021-06-14T13:20:09Z</time>
      </trkpt>
      <trkpt lat="46.58117" lon="5.25098">
        <ele>216.8</ele>
        <time>2021-06-14T13:20:11Z</time>
      </trkpt>
      <trkpt lat="46.58132" lon="5.25099">
        <ele>216.8</ele>
        <time>2021-06-14T13:20:13Z</time>
      </trkpt>
      <trkpt lat="46.58146" lon="5.25098">
        <ele>217</ele>
        <time>2021-06-14T13:20:15Z</time>
      </trkpt>
      <trkpt lat="46.5816" lon="5.25097">
        <ele>217.2</ele>
        <time>2021-06-14T13:20:17Z</time>
      </trkpt>
      <trkpt lat="46.58174" lon="5.25095">
        <ele>217.2</ele>
        <time>2021-06-14T13:20:19Z</time>
      </trkpt>
      <trkpt lat="46.58187" lon="5.25092">
        <ele>217.4</ele>
        <time>2021-06-14T13:20:21Z</time>
      </trkpt>
      <trkpt lat="46.58201" lon="5.25087">
        <ele>217.4</ele>
        <time>2021-06-14T13:20:23Z</time>
      </trkpt>
      <trkpt lat="46.58214" lon="5.25082">
        <ele>217.4</ele>
        <time>2021-06-14T13:20:25Z</time>
      </trkpt>
      <trkpt lat="46.58228" lon="5.25077">
        <ele>217.4</ele>
        <time>2021-06-14T13:20:27Z</time>
      </trkpt>
      <trkpt lat="46.58242" lon="5.25071">
        <ele>217.4</ele>
        <time>2021-06-14T13:20:29Z</time>
      </trkpt>
      <trkpt lat="46.58257" lon="5.25065">
        <ele>217.2</ele>
        <time>2021-06-14T13:20:31Z</time>
      </trkpt>
      <trkpt lat="46.58271" lon="5.25058">
        <ele>217.2</ele>
        <time>2021-06-14T13:20:33Z</time>
      </trkpt>
      <trkpt lat="46.58286" lon="5.25052">
        <ele>217</ele>
        <time>2021-06-14T13:20:35Z</time>
      </trkpt>
      <trkpt lat="46.58301" lon="5.25046">
        <ele>217</ele>
        <time>2021-06-14T13:20:37Z</time>
      </trkpt>
      <trkpt lat="46.58316" lon="5.2504">
        <ele>216.8</ele>
        <time>2021-06-14T13:20:39Z</time>
      </trkpt>
      <trkpt lat="46.58331" lon="5.25034">
        <ele>216.4</ele>
        <time>2021-06-14T13:20:41Z</time>
      </trkpt>
      <trkpt lat="46.58338" lon="5.25031">
        <ele>216.2</ele>
        <time>2021-06-14T13:20:42Z</time>
      </trkpt>
      <trkpt lat="46.58346" lon="5.25028">
        <ele>215.8</ele>
        <time>2021-06-14T13:20:43Z</time>
      </trkpt>
      <trkpt lat="46.5836" lon="5.25021">
        <ele>215.6</ele>
        <time>2021-06-14T13:20:45Z</time>
      </trkpt>
      <trkpt lat="46.58374" lon="5.25016">
        <ele>215.4</ele>
        <time>2021-06-14T13:20:47Z</time>
      </trkpt>
      <trkpt lat="46.58388" lon="5.2501">
        <ele>215.4</ele>
        <time>2021-06-14T13:20:49Z</time>
      </trkpt>
      <trkpt lat="46.58401" lon="5.25004">
        <ele>215.4</ele>
        <time>2021-06-14T13:20:51Z</time>
      </trkpt>
      <trkpt lat="46.58413" lon="5.24998">
        <ele>215.4</ele>
        <time>2021-06-14T13:20:53Z</time>
      </trkpt>
      <trkpt lat="46.58426" lon="5.24993">
        <ele>215.4</ele>
        <time>2021-06-14T13:20:55Z</time>
      </trkpt>
      <trkpt lat="46.58438" lon="5.24988">
        <ele>215.8</ele>
        <time>2021-06-14T13:20:57Z</time>
      </trkpt>
      <trkpt lat="46.58449" lon="5.24984">
        <ele>216.4</ele>
        <time>2021-06-14T13:20:59Z</time>
      </trkpt>
      <trkpt lat="46.5846" lon="5.24979">
        <ele>217</ele>
        <time>2021-06-14T13:21:01Z</time>
      </trkpt>
      <trkpt lat="46.58466" lon="5.24977">
        <ele>217.4</ele>
        <time>2021-06-14T13:21:02Z</time>
      </trkpt>
      <trkpt lat="46.58471" lon="5.24974">
        <ele>217.8</ele>
        <time>2021-06-14T13:21:03Z</time>
      </trkpt>
      <trkpt lat="46.58482" lon="5.2497">
        <ele>218</ele>
        <time>2021-06-14T13:21:05Z</time>
      </trkpt>
      <trkpt lat="46.58492" lon="5.24966">
        <ele>218.2</ele>
        <time>2021-06-14T13:21:07Z</time>
      </trkpt>
      <trkpt lat="46.58502" lon="5.24962">
        <ele>218.4</ele>
        <time>2021-06-14T13:21:09Z</time>
      </trkpt>
      <trkpt lat="46.58512" lon="5.24957">
        <ele>218.6</ele>
        <time>2021-06-14T13:21:11Z</time>
      </trkpt>
      <trkpt lat="46.58521" lon="5.24953">
        <ele>218.8</ele>
        <time>2021-06-14T13:21:13Z</time>
      </trkpt>
      <trkpt lat="46.58526" lon="5.24951">
        <ele>219</ele>
        <time>2021-06-14T13:21:14Z</time>
      </trkpt>
      <trkpt lat="46.58531" lon="5.24949">
        <ele>219.2</ele>
        <time>2021-06-14T13:21:15Z</time>
      </trkpt>
      <trkpt lat="46.5854" lon="5.24945">
        <ele>220</ele>
        <time>2021-06-14T13:21:17Z</time>
      </trkpt>
      <trkpt lat="46.58549" lon="5.24942">
        <ele>220.6</ele>
        <time>2021-06-14T13:21:19Z</time>
      </trkpt>
      <trkpt lat="46.58558" lon="5.24938">
        <ele>221.2</ele>
        <time>2021-06-14T13:21:21Z</time>
      </trkpt>
      <trkpt lat="46.58567" lon="5.24935">
        <ele>221.6</ele>
        <time>2021-06-14T13:21:23Z</time>
      </trkpt>
      <trkpt lat="46.58571" lon="5.24933">
        <ele>221.8</ele>
        <time>2021-06-14T13:21:24Z</time>
      </trkpt>
      <trkpt lat="46.58576" lon="5.24931">
        <ele>222</ele>
        <time>2021-06-14T13:21:25Z</time>
      </trkpt>
      <trkpt lat="46.58584" lon="5.24928">
        <ele>222.4</ele>
        <time>2021-06-14T13:21:27Z</time>
      </trkpt>
      <trkpt lat="46.58592" lon="5.24924">
        <ele>222.8</ele>
        <time>2021-06-14T13:21:29Z</time>
      </trkpt>
      <trkpt lat="46.586" lon="5.24921">
        <ele>223.4</ele>
        <time>2021-06-14T13:21:31Z</time>
      </trkpt>
      <trkpt lat="46.58604" lon="5.24919">
        <ele>223.8</ele>
        <time>2021-06-14T13:21:32Z</time>
      </trkpt>
      <trkpt lat="46.58608" lon="5.24917">
        <ele>224.2</ele>
        <time>2021-06-14T13:21:33Z</time>
      </trkpt>
      <trkpt lat="46.58613" lon="5.24915">
        <ele>224.4</ele>
        <time>2021-06-14T13:21:34Z</time>
      </trkpt>
      <trkpt lat="46.58617" lon="5.24914">
        <ele>224.8</ele>
        <time>2021-06-14T13:21:35Z</time>
      </trkpt>
      <trkpt lat="46.58621" lon="5.24912">
        <ele>225.2</ele>
        <time>2021-06-14T13:21:36Z</time>
      </trkpt>
      <trkpt lat="46.58625" lon="5.2491">
        <ele>225.4</ele>
        <time>2021-06-14T13:21:37Z</time>
      </trkpt>
      <trkpt lat="46.58633" lon="5.24907">
        <ele>225.8</ele>
        <time>2021-06-14T13:21:39Z</time>
      </trkpt>
      <trkpt lat="46.58641" lon="5.24903">
        <ele>226.2</ele>
        <time>2021-06-14T13:21:41Z</time>
      </trkpt>
      <trkpt lat="46.58649" lon="5.249">
        <ele>226.4</ele>
        <time>2021-06-14T13:21:43Z</time>
      </trkpt>
      <trkpt lat="46.58657" lon="5.24897">
        <ele>227</ele>
        <time>2021-06-14T13:21:45Z</time>
      </trkpt>
      <trkpt lat="46.58665" lon="5.24894">
        <ele>227.4</ele>
        <time>2021-06-14T13:21:47Z</time>
      </trkpt>
      <trkpt lat="46.58673" lon="5.24891">
        <ele>227.4</ele>
        <time>2021-06-14T13:21:49Z</time>
      </trkpt>
      <trkpt lat="46.58681" lon="5.24888">
        <ele>227.8</ele>
        <time>2021-06-14T13:21:51Z</time>
      </trkpt>
      <trkpt lat="46.58689" lon="5.24884">
        <ele>228</ele>
        <time>2021-06-14T13:21:53Z</time>
      </trkpt>
      <trkpt lat="46.58693" lon="5.24883">
        <ele>228.2</ele>
        <time>2021-06-14T13:21:54Z</time>
      </trkpt>
      <trkpt lat="46.58697" lon="5.24882">
        <ele>228.6</ele>
        <time>2021-06-14T13:21:55Z</time>
      </trkpt>
      <trkpt lat="46.58705" lon="5.24878">
        <ele>229.2</ele>
        <time>2021-06-14T13:21:57Z</time>
      </trkpt>
      <trkpt lat="46.58713" lon="5.24875">
        <ele>229.6</ele>
        <time>2021-06-14T13:21:59Z</time>
      </trkpt>
      <trkpt lat="46.58717" lon="5.24873">
        <ele>229.8</ele>
        <time>2021-06-14T13:22:00Z</time>
      </trkpt>
      <trkpt lat="46.5872" lon="5.24872">
        <ele>230</ele>
        <time>2021-06-14T13:22:01Z</time>
      </trkpt>
      <trkpt lat="46.58728" lon="5.24868">
        <ele>230.4</ele>
        <time>2021-06-14T13:22:03Z</time>
      </trkpt>
      <trkpt lat="46.58736" lon="5.24865">
        <ele>230.6</ele>
        <time>2021-06-14T13:22:05Z</time>
      </trkpt>
      <trkpt lat="46.58744" lon="5.24861">
        <ele>231</ele>
        <time>2021-06-14T13:22:07Z</time>
      </trkpt>
      <trkpt lat="46.58752" lon="5.24858">
        <ele>231.2</ele>
        <time>2021-06-14T13:22:09Z</time>
      </trkpt>
      <trkpt lat="46.5876" lon="5.24855">
        <ele>231.6</ele>
        <time>2021-06-14T13:22:11Z</time>
      </trkpt>
      <trkpt lat="46.58768" lon="5.24852">
        <ele>232</ele>
        <time>2021-06-14T13:22:13Z</time>
      </trkpt>
      <trkpt lat="46.58775" lon="5.24848">
        <ele>232.4</ele>
        <time>2021-06-14T13:22:15Z</time>
      </trkpt>
      <trkpt lat="46.58783" lon="5.24845">
        <ele>233</ele>
        <time>2021-06-14T13:22:17Z</time>
      </trkpt>
      <trkpt lat="46.58787" lon="5.24843">
        <ele>233.2</ele>
        <time>2021-06-14T13:22:18Z</time>
      </trkpt>
      <trkpt lat="46.58792" lon="5.24841">
        <ele>233.4</ele>
        <time>2021-06-14T13:22:19Z</time>
      </trkpt>
      <trkpt lat="46.58801" lon="5.24838">
        <ele>234</ele>
        <time>2021-06-14T13:22:21Z</time>
      </trkpt>
      <trkpt lat="46.5881" lon="5.24834">
        <ele>234.4</ele>
        <time>2021-06-14T13:22:23Z</time>
      </trkpt>
      <trkpt lat="46.58819" lon="5.2483">
        <ele>234.8</ele>
        <time>2021-06-14T13:22:25Z</time>
      </trkpt>
      <trkpt lat="46.58828" lon="5.24826">
        <ele>235</ele>
        <time>2021-06-14T13:22:27Z</time>
      </trkpt>
      <trkpt lat="46.58837" lon="5.24822">
        <ele>235</ele>
        <time>2021-06-14T13:22:29Z</time>
      </trkpt>
      <trkpt lat="46.58846" lon="5.24818">
        <ele>235.4</ele>
        <time>2021-06-14T13:22:31Z</time>
      </trkpt>
      <trkpt lat="46.58856" lon="5.24815">
        <ele>235.4</ele>
        <time>2021-06-14T13:22:33Z</time>
      </trkpt>
      <trkpt lat="46.58861" lon="5.24813">
        <ele>235.6</ele>
        <time>2021-06-14T13:22:34Z</time>
      </trkpt>
      <trkpt lat="46.58866" lon="5.24811">
        <ele>235.6</ele>
        <time>2021-06-14T13:22:35Z</time>
      </trkpt>
      <trkpt lat="46.58876" lon="5.24806">
        <ele>235.6</ele>
        <time>2021-06-14T13:22:37Z</time>
      </trkpt>
      <trkpt lat="46.58887" lon="5.24802">
        <ele>235.8</ele>
        <time>2021-06-14T13:22:39Z</time>
      </trkpt>
      <trkpt lat="46.58892" lon="5.248">
        <ele>235.8</ele>
        <time>2021-06-14T13:22:40Z</time>
      </trkpt>
      <trkpt lat="46.58898" lon="5.24798">
        <ele>235.8</ele>
        <time>2021-06-14T13:22:41Z</time>
      </trkpt>
      <trkpt lat="46.58909" lon="5.24793">
        <ele>235.8</ele>
        <time>2021-06-14T13:22:43Z</time>
      </trkpt>
      <trkpt lat="46.5892" lon="5.24788">
        <ele>235.8</ele>
        <time>2021-06-14T13:22:45Z</time>
      </trkpt>
      <trkpt lat="46.58931" lon="5.24783">
        <ele>235.8</ele>
        <time>2021-06-14T13:22:47Z</time>
      </trkpt>
      <trkpt lat="46.58943" lon="5.24779">
        <ele>235.8</ele>
        <time>2021-06-14T13:22:49Z</time>
      </trkpt>
      <trkpt lat="46.58955" lon="5.24774">
        <ele>235.8</ele>
        <time>2021-06-14T13:22:51Z</time>
      </trkpt>
      <trkpt lat="46.58967" lon="5.24768">
        <ele>235.8</ele>
        <time>2021-06-14T13:22:53Z</time>
      </trkpt>
      <trkpt lat="46.58979" lon="5.24763">
        <ele>235.8</ele>
        <time>2021-06-14T13:22:55Z</time>
      </trkpt>
      <trkpt lat="46.58992" lon="5.24758">
        <ele>235.6</ele>
        <time>2021-06-14T13:22:57Z</time>
      </trkpt>
      <trkpt lat="46.58998" lon="5.24755">
        <ele>235.6</ele>
        <time>2021-06-14T13:22:58Z</time>
      </trkpt>
      <trkpt lat="46.59004" lon="5.24753">
        <ele>235.6</ele>
        <time>2021-06-14T13:22:59Z</time>
      </trkpt>
      <trkpt lat="46.59017" lon="5.24747">
        <ele>235.6</ele>
        <time>2021-06-14T13:23:01Z</time>
      </trkpt>
      <trkpt lat="46.59029" lon="5.24742">
        <ele>235.6</ele>
        <time>2021-06-14T13:23:03Z</time>
      </trkpt>
      <trkpt lat="46.59041" lon="5.24737">
        <ele>235.6</ele>
        <time>2021-06-14T13:23:05Z</time>
      </trkpt>
      <trkpt lat="46.59053" lon="5.24733">
        <ele>235.4</ele>
        <time>2021-06-14T13:23:07Z</time>
      </trkpt>
      <trkpt lat="46.59066" lon="5.24728">
        <ele>235.4</ele>
        <time>2021-06-14T13:23:09Z</time>
      </trkpt>
      <trkpt lat="46.59078" lon="5.24722">
        <ele>235.4</ele>
        <time>2021-06-14T13:23:11Z</time>
      </trkpt>
      <trkpt lat="46.5909" lon="5.24717">
        <ele>235.4</ele>
        <time>2021-06-14T13:23:13Z</time>
      </trkpt>
      <trkpt lat="46.59097" lon="5.24714">
        <ele>235.4</ele>
        <time>2021-06-14T13:23:14Z</time>
      </trkpt>
      <trkpt lat="46.59103" lon="5.24712">
        <ele>235.4</ele>
        <time>2021-06-14T13:23:15Z</time>
      </trkpt>
      <trkpt lat="46.59109" lon="5.24709">
        <ele>235.4</ele>
        <time>2021-06-14T13:23:16Z</time>
      </trkpt>
      <trkpt lat="46.59122" lon="5.24704">
        <ele>235.4</ele>
        <time>2021-06-14T13:23:18Z</time>
      </trkpt>
      <trkpt lat="46.59128" lon="5.24701">
        <ele>235.4</ele>
        <time>2021-06-14T13:23:19Z</time>
      </trkpt>
      <trkpt lat="46.59141" lon="5.24696">
        <ele>235.4</ele>
        <time>2021-06-14T13:23:21Z</time>
      </trkpt>
      <trkpt lat="46.59154" lon="5.2469">
        <ele>235.4</ele>
        <time>2021-06-14T13:23:23Z</time>
      </trkpt>
      <trkpt lat="46.5916" lon="5.24688">
        <ele>235.4</ele>
        <time>2021-06-14T13:23:24Z</time>
      </trkpt>
      <trkpt lat="46.59167" lon="5.24685">
        <ele>235.4</ele>
        <time>2021-06-14T13:23:25Z</time>
      </trkpt>
      <trkpt lat="46.5918" lon="5.2468">
        <ele>235.2</ele>
        <time>2021-06-14T13:23:27Z</time>
      </trkpt>
      <trkpt lat="46.59193" lon="5.24675">
        <ele>235.2</ele>
        <time>2021-06-14T13:23:29Z</time>
      </trkpt>
      <trkpt lat="46.59206" lon="5.2467">
        <ele>235.2</ele>
        <time>2021-06-14T13:23:31Z</time>
      </trkpt>
      <trkpt lat="46.5922" lon="5.24668">
        <ele>235.2</ele>
        <time>2021-06-14T13:23:33Z</time>
      </trkpt>
      <trkpt lat="46.59234" lon="5.24668">
        <ele>235.2</ele>
        <time>2021-06-14T13:23:35Z</time>
      </trkpt>
      <trkpt lat="46.59248" lon="5.24669">
        <ele>235.2</ele>
        <time>2021-06-14T13:23:37Z</time>
      </trkpt>
      <trkpt lat="46.59254" lon="5.24671">
        <ele>235</ele>
        <time>2021-06-14T13:23:38Z</time>
      </trkpt>
      <trkpt lat="46.59261" lon="5.24673">
        <ele>235</ele>
        <time>2021-06-14T13:23:39Z</time>
      </trkpt>
      <trkpt lat="46.59274" lon="5.24678">
        <ele>235</ele>
        <time>2021-06-14T13:23:41Z</time>
      </trkpt>
      <trkpt lat="46.59288" lon="5.24683">
        <ele>235</ele>
        <time>2021-06-14T13:23:43Z</time>
      </trkpt>
      <trkpt lat="46.59301" lon="5.24688">
        <ele>235</ele>
        <time>2021-06-14T13:23:45Z</time>
      </trkpt>
      <trkpt lat="46.59315" lon="5.24693">
        <ele>235</ele>
        <time>2021-06-14T13:23:47Z</time>
      </trkpt>
      <trkpt lat="46.59328" lon="5.24698">
        <ele>234.8</ele>
        <time>2021-06-14T13:23:49Z</time>
      </trkpt>
      <trkpt lat="46.59342" lon="5.24703">
        <ele>234.8</ele>
        <time>2021-06-14T13:23:51Z</time>
      </trkpt>
      <trkpt lat="46.59356" lon="5.24708">
        <ele>234.8</ele>
        <time>2021-06-14T13:23:53Z</time>
      </trkpt>
      <trkpt lat="46.5937" lon="5.24713">
        <ele>235</ele>
        <time>2021-06-14T13:23:55Z</time>
      </trkpt>
      <trkpt lat="46.59377" lon="5.24715">
        <ele>235</ele>
        <time>2021-06-14T13:23:56Z</time>
      </trkpt>
      <trkpt lat="46.59384" lon="5.24718">
        <ele>235</ele>
        <time>2021-06-14T13:23:57Z</time>
      </trkpt>
      <trkpt lat="46.59397" lon="5.24723">
        <ele>235</ele>
        <time>2021-06-14T13:23:59Z</time>
      </trkpt>
      <trkpt lat="46.59411" lon="5.24728">
        <ele>235</ele>
        <time>2021-06-14T13:24:01Z</time>
      </trkpt>
      <trkpt lat="46.59425" lon="5.24733">
        <ele>235</ele>
        <time>2021-06-14T13:24:03Z</time>
      </trkpt>
      <trkpt lat="46.59439" lon="5.24738">
        <ele>235</ele>
        <time>2021-06-14T13:24:05Z</time>
      </trkpt>
      <trkpt lat="46.59452" lon="5.24743">
        <ele>235</ele>
        <time>2021-06-14T13:24:07Z</time>
      </trkpt>
      <trkpt lat="46.5946" lon="5.24746">
        <ele>235</ele>
        <time>2021-06-14T13:24:08Z</time>
      </trkpt>
      <trkpt lat="46.59467" lon="5.24748">
        <ele>235</ele>
        <time>2021-06-14T13:24:09Z</time>
      </trkpt>
      <trkpt lat="46.59481" lon="5.24753">
        <ele>234.8</ele>
        <time>2021-06-14T13:24:11Z</time>
      </trkpt>
      <trkpt lat="46.59495" lon="5.24758">
        <ele>234.8</ele>
        <time>2021-06-14T13:24:13Z</time>
      </trkpt>
      <trkpt lat="46.59509" lon="5.24763">
        <ele>234.8</ele>
        <time>2021-06-14T13:24:15Z</time>
      </trkpt>
      <trkpt lat="46.59524" lon="5.24769">
        <ele>234.6</ele>
        <time>2021-06-14T13:24:17Z</time>
      </trkpt>
      <trkpt lat="46.59538" lon="5.24775">
        <ele>234.4</ele>
        <time>2021-06-14T13:24:19Z</time>
      </trkpt>
      <trkpt lat="46.59552" lon="5.24783">
        <ele>234.2</ele>
        <time>2021-06-14T13:24:21Z</time>
      </trkpt>
      <trkpt lat="46.59566" lon="5.24793">
        <ele>234</ele>
        <time>2021-06-14T13:24:23Z</time>
      </trkpt>
      <trkpt lat="46.59572" lon="5.24799">
        <ele>234</ele>
        <time>2021-06-14T13:24:24Z</time>
      </trkpt>
      <trkpt lat="46.59578" lon="5.24805">
        <ele>234</ele>
        <time>2021-06-14T13:24:25Z</time>
      </trkpt>
      <trkpt lat="46.5959" lon="5.24817">
        <ele>234</ele>
        <time>2021-06-14T13:24:27Z</time>
      </trkpt>
      <trkpt lat="46.59602" lon="5.2483">
        <ele>234</ele>
        <time>2021-06-14T13:24:29Z</time>
      </trkpt>
      <trkpt lat="46.59614" lon="5.24842">
        <ele>234</ele>
        <time>2021-06-14T13:24:31Z</time>
      </trkpt>
      <trkpt lat="46.59626" lon="5.24856">
        <ele>234</ele>
        <time>2021-06-14T13:24:33Z</time>
      </trkpt>
      <trkpt lat="46.59638" lon="5.24867">
        <ele>234</ele>
        <time>2021-06-14T13:24:35Z</time>
      </trkpt>
      <trkpt lat="46.5965" lon="5.24878">
        <ele>234.2</ele>
        <time>2021-06-14T13:24:37Z</time>
      </trkpt>
      <trkpt lat="46.59663" lon="5.24886">
        <ele>234.2</ele>
        <time>2021-06-14T13:24:39Z</time>
      </trkpt>
      <trkpt lat="46.59677" lon="5.24893">
        <ele>234.4</ele>
        <time>2021-06-14T13:24:41Z</time>
      </trkpt>
      <trkpt lat="46.5969" lon="5.249">
        <ele>234.4</ele>
        <time>2021-06-14T13:24:43Z</time>
      </trkpt>
      <trkpt lat="46.59703" lon="5.24906">
        <ele>234.4</ele>
        <time>2021-06-14T13:24:45Z</time>
      </trkpt>
      <trkpt lat="46.59717" lon="5.24911">
        <ele>234.4</ele>
        <time>2021-06-14T13:24:47Z</time>
      </trkpt>
      <trkpt lat="46.5973" lon="5.24914">
        <ele>234.4</ele>
        <time>2021-06-14T13:24:49Z</time>
      </trkpt>
      <trkpt lat="46.59744" lon="5.24917">
        <ele>234.4</ele>
        <time>2021-06-14T13:24:51Z</time>
      </trkpt>
      <trkpt lat="46.59757" lon="5.24921">
        <ele>234.4</ele>
        <time>2021-06-14T13:24:53Z</time>
      </trkpt>
      <trkpt lat="46.59764" lon="5.24925">
        <ele>234.2</ele>
        <time>2021-06-14T13:24:54Z</time>
      </trkpt>
      <trkpt lat="46.5977" lon="5.24928">
        <ele>234.2</ele>
        <time>2021-06-14T13:24:55Z</time>
      </trkpt>
      <trkpt lat="46.59775" lon="5.24933">
        <ele>234.2</ele>
        <time>2021-06-14T13:24:56Z</time>
      </trkpt>
      <trkpt lat="46.5978" lon="5.24938">
        <ele>234.2</ele>
        <time>2021-06-14T13:24:57Z</time>
      </trkpt>
      <trkpt lat="46.59789" lon="5.2495">
        <ele>234.2</ele>
        <time>2021-06-14T13:24:59Z</time>
      </trkpt>
      <trkpt lat="46.59796" lon="5.24965">
        <ele>234.4</ele>
        <time>2021-06-14T13:25:01Z</time>
      </trkpt>
      <trkpt lat="46.59802" lon="5.24982">
        <ele>234.4</ele>
        <time>2021-06-14T13:25:03Z</time>
      </trkpt>
      <trkpt lat="46.59814" lon="5.24992">
        <ele>234.6</ele>
        <time>2021-06-14T13:25:05Z</time>
      </trkpt>
      <trkpt lat="46.59821" lon="5.24995">
        <ele>234.6</ele>
        <time>2021-06-14T13:25:06Z</time>
      </trkpt>
      <trkpt lat="46.59828" lon="5.24998">
        <ele>234.6</ele>
        <time>2021-06-14T13:25:07Z</time>
      </trkpt>
      <trkpt lat="46.59841" lon="5.2501">
        <ele>234.6</ele>
        <time>2021-06-14T13:25:09Z</time>
      </trkpt>
      <trkpt lat="46.59851" lon="5.25027">
        <ele>234.6</ele>
        <time>2021-06-14T13:25:11Z</time>
      </trkpt>
      <trkpt lat="46.59855" lon="5.25036">
        <ele>234.6</ele>
        <time>2021-06-14T13:25:12Z</time>
      </trkpt>
      <trkpt lat="46.59859" lon="5.25046">
        <ele>234.6</ele>
        <time>2021-06-14T13:25:13Z</time>
      </trkpt>
      <trkpt lat="46.59867" lon="5.25064">
        <ele>234.6</ele>
        <time>2021-06-14T13:25:15Z</time>
      </trkpt>
      <trkpt lat="46.59875" lon="5.25082">
        <ele>234.6</ele>
        <time>2021-06-14T13:25:17Z</time>
      </trkpt>
      <trkpt lat="46.59883" lon="5.25099">
        <ele>234.6</ele>
        <time>2021-06-14T13:25:19Z</time>
      </trkpt>
      <trkpt lat="46.5989" lon="5.25115">
        <ele>234.4</ele>
        <time>2021-06-14T13:25:21Z</time>
      </trkpt>
      <trkpt lat="46.59898" lon="5.25131">
        <ele>234.4</ele>
        <time>2021-06-14T13:25:23Z</time>
      </trkpt>
      <trkpt lat="46.59905" lon="5.25147">
        <ele>234.4</ele>
        <time>2021-06-14T13:25:25Z</time>
      </trkpt>
      <trkpt lat="46.59913" lon="5.25163">
        <ele>234.2</ele>
        <time>2021-06-14T13:25:27Z</time>
      </trkpt>
      <trkpt lat="46.5992" lon="5.25179">
        <ele>234.2</ele>
        <time>2021-06-14T13:25:29Z</time>
      </trkpt>
      <trkpt lat="46.59927" lon="5.25194">
        <ele>234.2</ele>
        <time>2021-06-14T13:25:31Z</time>
      </trkpt>
      <trkpt lat="46.59935" lon="5.2521">
        <ele>234.2</ele>
        <time>2021-06-14T13:25:33Z</time>
      </trkpt>
      <trkpt lat="46.59942" lon="5.25227">
        <ele>234.2</ele>
        <time>2021-06-14T13:25:35Z</time>
      </trkpt>
      <trkpt lat="46.5995" lon="5.25243">
        <ele>234.4</ele>
        <time>2021-06-14T13:25:37Z</time>
      </trkpt>
      <trkpt lat="46.59958" lon="5.2526">
        <ele>234.4</ele>
        <time>2021-06-14T13:25:39Z</time>
      </trkpt>
      <trkpt lat="46.59966" lon="5.25277">
        <ele>234.2</ele>
        <time>2021-06-14T13:25:41Z</time>
      </trkpt>
      <trkpt lat="46.59974" lon="5.25294">
        <ele>234.2</ele>
        <time>2021-06-14T13:25:43Z</time>
      </trkpt>
      <trkpt lat="46.59983" lon="5.2531">
        <ele>234.2</ele>
        <time>2021-06-14T13:25:45Z</time>
      </trkpt>
      <trkpt lat="46.59988" lon="5.25318">
        <ele>234.2</ele>
        <time>2021-06-14T13:25:46Z</time>
      </trkpt>
      <trkpt lat="46.59993" lon="5.25325">
        <ele>234.2</ele>
        <time>2021-06-14T13:25:47Z</time>
      </trkpt>
      <trkpt lat="46.60003" lon="5.2534">
        <ele>234.2</ele>
        <time>2021-06-14T13:25:49Z</time>
      </trkpt>
      <trkpt lat="46.60014" lon="5.25354">
        <ele>234.2</ele>
        <time>2021-06-14T13:25:51Z</time>
      </trkpt>
      <trkpt lat="46.60026" lon="5.25367">
        <ele>234</ele>
        <time>2021-06-14T13:25:53Z</time>
      </trkpt>
      <trkpt lat="46.60031" lon="5.25374">
        <ele>234</ele>
        <time>2021-06-14T13:25:54Z</time>
      </trkpt>
      <trkpt lat="46.60037" lon="5.2538">
        <ele>233.8</ele>
        <time>2021-06-14T13:25:55Z</time>
      </trkpt>
      <trkpt lat="46.60049" lon="5.2539">
        <ele>233.8</ele>
        <time>2021-06-14T13:25:57Z</time>
      </trkpt>
      <trkpt lat="46.60062" lon="5.25399">
        <ele>233.6</ele>
        <time>2021-06-14T13:25:59Z</time>
      </trkpt>
      <trkpt lat="46.60068" lon="5.25402">
        <ele>233.6</ele>
        <time>2021-06-14T13:26:00Z</time>
      </trkpt>
      <trkpt lat="46.60075" lon="5.25404">
        <ele>233.6</ele>
        <time>2021-06-14T13:26:01Z</time>
      </trkpt>
      <trkpt lat="46.60089" lon="5.25408">
        <ele>233.6</ele>
        <time>2021-06-14T13:26:03Z</time>
      </trkpt>
      <trkpt lat="46.60096" lon="5.25409">
        <ele>233.6</ele>
        <time>2021-06-14T13:26:04Z</time>
      </trkpt>
      <trkpt lat="46.60103" lon="5.2541">
        <ele>233.6</ele>
        <time>2021-06-14T13:26:05Z</time>
      </trkpt>
      <trkpt lat="46.60116" lon="5.25412">
        <ele>233.6</ele>
        <time>2021-06-14T13:26:07Z</time>
      </trkpt>
      <trkpt lat="46.6013" lon="5.25414">
        <ele>233.6</ele>
        <time>2021-06-14T13:26:09Z</time>
      </trkpt>
      <trkpt lat="46.60143" lon="5.25417">
        <ele>233.6</ele>
        <time>2021-06-14T13:26:11Z</time>
      </trkpt>
      <trkpt lat="46.60157" lon="5.25421">
        <ele>233.6</ele>
        <time>2021-06-14T13:26:13Z</time>
      </trkpt>
      <trkpt lat="46.6017" lon="5.25427">
        <ele>233.6</ele>
        <time>2021-06-14T13:26:15Z</time>
      </trkpt>
      <trkpt lat="46.60183" lon="5.25433">
        <ele>233.6</ele>
        <time>2021-06-14T13:26:17Z</time>
      </trkpt>
      <trkpt lat="46.60189" lon="5.25437">
        <ele>233.4</ele>
        <time>2021-06-14T13:26:18Z</time>
      </trkpt>
      <trkpt lat="46.60196" lon="5.2544">
        <ele>233.4</ele>
        <time>2021-06-14T13:26:19Z</time>
      </trkpt>
      <trkpt lat="46.60209" lon="5.25447">
        <ele>233.4</ele>
        <time>2021-06-14T13:26:21Z</time>
      </trkpt>
      <trkpt lat="46.60222" lon="5.25454">
        <ele>233.4</ele>
        <time>2021-06-14T13:26:23Z</time>
      </trkpt>
      <trkpt lat="46.60236" lon="5.2546">
        <ele>233.4</ele>
        <time>2021-06-14T13:26:25Z</time>
      </trkpt>
      <trkpt lat="46.60249" lon="5.25467">
        <ele>233.4</ele>
        <time>2021-06-14T13:26:27Z</time>
      </trkpt>
      <trkpt lat="46.60255" lon="5.2547">
        <ele>233.4</ele>
        <time>2021-06-14T13:26:28Z</time>
      </trkpt>
      <trkpt lat="46.60262" lon="5.25473">
        <ele>233.4</ele>
        <time>2021-06-14T13:26:29Z</time>
      </trkpt>
      <trkpt lat="46.60274" lon="5.2548">
        <ele>233.4</ele>
        <time>2021-06-14T13:26:31Z</time>
      </trkpt>
      <trkpt lat="46.60287" lon="5.25487">
        <ele>233.2</ele>
        <time>2021-06-14T13:26:33Z</time>
      </trkpt>
      <trkpt lat="46.60294" lon="5.25489">
        <ele>233.2</ele>
        <time>2021-06-14T13:26:34Z</time>
      </trkpt>
      <trkpt lat="46.60301" lon="5.25491">
        <ele>233.2</ele>
        <time>2021-06-14T13:26:35Z</time>
      </trkpt>
      <trkpt lat="46.60314" lon="5.25495">
        <ele>233.2</ele>
        <time>2021-06-14T13:26:37Z</time>
      </trkpt>
      <trkpt lat="46.60327" lon="5.25498">
        <ele>233.2</ele>
        <time>2021-06-14T13:26:39Z</time>
      </trkpt>
      <trkpt lat="46.60334" lon="5.255">
        <ele>233.2</ele>
        <time>2021-06-14T13:26:40Z</time>
      </trkpt>
      <trkpt lat="46.60341" lon="5.25502">
        <ele>233.4</ele>
        <time>2021-06-14T13:26:41Z</time>
      </trkpt>
      <trkpt lat="46.60355" lon="5.25505">
        <ele>233.4</ele>
        <time>2021-06-14T13:26:43Z</time>
      </trkpt>
      <trkpt lat="46.60368" lon="5.25508">
        <ele>233.2</ele>
        <time>2021-06-14T13:26:45Z</time>
      </trkpt>
      <trkpt lat="46.60382" lon="5.25511">
        <ele>233.2</ele>
        <time>2021-06-14T13:26:47Z</time>
      </trkpt>
      <trkpt lat="46.60389" lon="5.25513">
        <ele>233.2</ele>
        <time>2021-06-14T13:26:48Z</time>
      </trkpt>
      <trkpt lat="46.60396" lon="5.25514">
        <ele>233.2</ele>
        <time>2021-06-14T13:26:49Z</time>
      </trkpt>
      <trkpt lat="46.6041" lon="5.25517">
        <ele>233.2</ele>
        <time>2021-06-14T13:26:51Z</time>
      </trkpt>
      <trkpt lat="46.60424" lon="5.25521">
        <ele>233</ele>
        <time>2021-06-14T13:26:53Z</time>
      </trkpt>
      <trkpt lat="46.60437" lon="5.25525">
        <ele>232.8</ele>
        <time>2021-06-14T13:26:55Z</time>
      </trkpt>
      <trkpt lat="46.6045" lon="5.25528">
        <ele>232.6</ele>
        <time>2021-06-14T13:26:57Z</time>
      </trkpt>
      <trkpt lat="46.60457" lon="5.25529">
        <ele>232.6</ele>
        <time>2021-06-14T13:26:58Z</time>
      </trkpt>
      <trkpt lat="46.60465" lon="5.25531">
        <ele>232.4</ele>
        <time>2021-06-14T13:26:59Z</time>
      </trkpt>
      <trkpt lat="46.60472" lon="5.25533">
        <ele>232.4</ele>
        <time>2021-06-14T13:27:00Z</time>
      </trkpt>
      <trkpt lat="46.6048" lon="5.25534">
        <ele>232.4</ele>
        <time>2021-06-14T13:27:01Z</time>
      </trkpt>
      <trkpt lat="46.60495" lon="5.25537">
        <ele>232.2</ele>
        <time>2021-06-14T13:27:03Z</time>
      </trkpt>
      <trkpt lat="46.60504" lon="5.25538">
        <ele>232</ele>
        <time>2021-06-14T13:27:04Z</time>
      </trkpt>
      <trkpt lat="46.60512" lon="5.25539">
        <ele>231.8</ele>
        <time>2021-06-14T13:27:05Z</time>
      </trkpt>
      <trkpt lat="46.6053" lon="5.25545">
        <ele>231.2</ele>
        <time>2021-06-14T13:27:07Z</time>
      </trkpt>
      <trkpt lat="46.60539" lon="5.25548">
        <ele>231</ele>
        <time>2021-06-14T13:27:08Z</time>
      </trkpt>
      <trkpt lat="46.60547" lon="5.25551">
        <ele>230.6</ele>
        <time>2021-06-14T13:27:09Z</time>
      </trkpt>
      <trkpt lat="46.60564" lon="5.2556">
        <ele>230.2</ele>
        <time>2021-06-14T13:27:11Z</time>
      </trkpt>
      <trkpt lat="46.60578" lon="5.25569">
        <ele>229.2</ele>
        <time>2021-06-14T13:27:13Z</time>
      </trkpt>
      <trkpt lat="46.60585" lon="5.25574">
        <ele>228.6</ele>
        <time>2021-06-14T13:27:14Z</time>
      </trkpt>
      <trkpt lat="46.60592" lon="5.25579">
        <ele>228.2</ele>
        <time>2021-06-14T13:27:15Z</time>
      </trkpt>
      <trkpt lat="46.60606" lon="5.25588">
        <ele>227.8</ele>
        <time>2021-06-14T13:27:17Z</time>
      </trkpt>
      <trkpt lat="46.60619" lon="5.25597">
        <ele>227.6</ele>
        <time>2021-06-14T13:27:19Z</time>
      </trkpt>
      <trkpt lat="46.60626" lon="5.25601">
        <ele>227.4</ele>
        <time>2021-06-14T13:27:20Z</time>
      </trkpt>
      <trkpt lat="46.60633" lon="5.25607">
        <ele>227.4</ele>
        <time>2021-06-14T13:27:21Z</time>
      </trkpt>
      <trkpt lat="46.60648" lon="5.25617">
        <ele>227.2</ele>
        <time>2021-06-14T13:27:23Z</time>
      </trkpt>
      <trkpt lat="46.60664" lon="5.25628">
        <ele>227</ele>
        <time>2021-06-14T13:27:25Z</time>
      </trkpt>
      <trkpt lat="46.60672" lon="5.25633">
        <ele>227</ele>
        <time>2021-06-14T13:27:26Z</time>
      </trkpt>
      <trkpt lat="46.6068" lon="5.2564">
        <ele>227</ele>
        <time>2021-06-14T13:27:27Z</time>
      </trkpt>
      <trkpt lat="46.60688" lon="5.25647">
        <ele>227</ele>
        <time>2021-06-14T13:27:28Z</time>
      </trkpt>
      <trkpt lat="46.60692" lon="5.25658">
        <ele>226.8</ele>
        <time>2021-06-14T13:27:29Z</time>
      </trkpt>
      <trkpt lat="46.60695" lon="5.25671">
        <ele>226.4</ele>
        <time>2021-06-14T13:27:30Z</time>
      </trkpt>
      <trkpt lat="46.60695" lon="5.25685">
        <ele>225.8</ele>
        <time>2021-06-14T13:27:31Z</time>
      </trkpt>
      <trkpt lat="46.60694" lon="5.25699">
        <ele>225.2</ele>
        <time>2021-06-14T13:27:32Z</time>
      </trkpt>
      <trkpt lat="46.60691" lon="5.25712">
        <ele>224.8</ele>
        <time>2021-06-14T13:27:33Z</time>
      </trkpt>
      <trkpt lat="46.60688" lon="5.25726">
        <ele>224.4</ele>
        <time>2021-06-14T13:27:34Z</time>
      </trkpt>
      <trkpt lat="46.60685" lon="5.2574">
        <ele>223.8</ele>
        <time>2021-06-14T13:27:35Z</time>
      </trkpt>
      <trkpt lat="46.60678" lon="5.25768">
        <ele>222.2</ele>
        <time>2021-06-14T13:27:37Z</time>
      </trkpt>
      <trkpt lat="46.60671" lon="5.25797">
        <ele>221</ele>
        <time>2021-06-14T13:27:39Z</time>
      </trkpt>
      <trkpt lat="46.60668" lon="5.25813">
        <ele>220.4</ele>
        <time>2021-06-14T13:27:40Z</time>
      </trkpt>
      <trkpt lat="46.60665" lon="5.25828">
        <ele>220</ele>
        <time>2021-06-14T13:27:41Z</time>
      </trkpt>
      <trkpt lat="46.60663" lon="5.25844">
        <ele>219.6</ele>
        <time>2021-06-14T13:27:42Z</time>
      </trkpt>
      <trkpt lat="46.60662" lon="5.25859">
        <ele>219.2</ele>
        <time>2021-06-14T13:27:43Z</time>
      </trkpt>
      <trkpt lat="46.60661" lon="5.25875">
        <ele>218.6</ele>
        <time>2021-06-14T13:27:44Z</time>
      </trkpt>
      <trkpt lat="46.60661" lon="5.25891">
        <ele>217.4</ele>
        <time>2021-06-14T13:27:45Z</time>
      </trkpt>
      <trkpt lat="46.60663" lon="5.25921">
        <ele>215.8</ele>
        <time>2021-06-14T13:27:47Z</time>
      </trkpt>
      <trkpt lat="46.60665" lon="5.2595">
        <ele>214.8</ele>
        <time>2021-06-14T13:27:49Z</time>
      </trkpt>
      <trkpt lat="46.60666" lon="5.25965">
        <ele>214.6</ele>
        <time>2021-06-14T13:27:50Z</time>
      </trkpt>
      <trkpt lat="46.60667" lon="5.25979">
        <ele>214.4</ele>
        <time>2021-06-14T13:27:51Z</time>
      </trkpt>
      <trkpt lat="46.60669" lon="5.26008">
        <ele>213.8</ele>
        <time>2021-06-14T13:27:53Z</time>
      </trkpt>
      <trkpt lat="46.60671" lon="5.26036">
        <ele>213.6</ele>
        <time>2021-06-14T13:27:55Z</time>
      </trkpt>
      <trkpt lat="46.60671" lon="5.2605">
        <ele>213.6</ele>
        <time>2021-06-14T13:27:56Z</time>
      </trkpt>
      <trkpt lat="46.6067" lon="5.26064">
        <ele>213.6</ele>
        <time>2021-06-14T13:27:57Z</time>
      </trkpt>
      <trkpt lat="46.60668" lon="5.2609">
        <ele>213.2</ele>
        <time>2021-06-14T13:27:59Z</time>
      </trkpt>
      <trkpt lat="46.60668" lon="5.26116">
        <ele>213</ele>
        <time>2021-06-14T13:28:01Z</time>
      </trkpt>
      <trkpt lat="46.60668" lon="5.26141">
        <ele>212.8</ele>
        <time>2021-06-14T13:28:03Z</time>
      </trkpt>
      <trkpt lat="46.60669" lon="5.26166">
        <ele>212.8</ele>
        <time>2021-06-14T13:28:05Z</time>
      </trkpt>
      <trkpt lat="46.60671" lon="5.26189">
        <ele>212.8</ele>
        <time>2021-06-14T13:28:07Z</time>
      </trkpt>
      <trkpt lat="46.60672" lon="5.26201">
        <ele>212.8</ele>
        <time>2021-06-14T13:28:08Z</time>
      </trkpt>
      <trkpt lat="46.60674" lon="5.26212">
        <ele>212.8</ele>
        <time>2021-06-14T13:28:09Z</time>
      </trkpt>
      <trkpt lat="46.60679" lon="5.26234">
        <ele>212.8</ele>
        <time>2021-06-14T13:28:11Z</time>
      </trkpt>
      <trkpt lat="46.60682" lon="5.26244">
        <ele>213</ele>
        <time>2021-06-14T13:28:12Z</time>
      </trkpt>
      <trkpt lat="46.60685" lon="5.26254">
        <ele>213</ele>
        <time>2021-06-14T13:28:13Z</time>
      </trkpt>
      <trkpt lat="46.60692" lon="5.26275">
        <ele>213.2</ele>
        <time>2021-06-14T13:28:15Z</time>
      </trkpt>
      <trkpt lat="46.60698" lon="5.26295">
        <ele>213.4</ele>
        <time>2021-06-14T13:28:17Z</time>
      </trkpt>
      <trkpt lat="46.60705" lon="5.26315">
        <ele>213.4</ele>
        <time>2021-06-14T13:28:19Z</time>
      </trkpt>
      <trkpt lat="46.60712" lon="5.26335">
        <ele>213.4</ele>
        <time>2021-06-14T13:28:21Z</time>
      </trkpt>
      <trkpt lat="46.60718" lon="5.26354">
        <ele>213.4</ele>
        <time>2021-06-14T13:28:23Z</time>
      </trkpt>
      <trkpt lat="46.60725" lon="5.26374">
        <ele>213.4</ele>
        <time>2021-06-14T13:28:25Z</time>
      </trkpt>
      <trkpt lat="46.60731" lon="5.26393">
        <ele>213.6</ele>
        <time>2021-06-14T13:28:27Z</time>
      </trkpt>
      <trkpt lat="46.60737" lon="5.26412">
        <ele>213.6</ele>
        <time>2021-06-14T13:28:29Z</time>
      </trkpt>
      <trkpt lat="46.60743" lon="5.2643">
        <ele>213.6</ele>
        <time>2021-06-14T13:28:31Z</time>
      </trkpt>
      <trkpt lat="46.60746" lon="5.26439">
        <ele>213.6</ele>
        <time>2021-06-14T13:28:32Z</time>
      </trkpt>
      <trkpt lat="46.60749" lon="5.26448">
        <ele>213.6</ele>
        <time>2021-06-14T13:28:33Z</time>
      </trkpt>
      <trkpt lat="46.60754" lon="5.26467">
        <ele>213.6</ele>
        <time>2021-06-14T13:28:35Z</time>
      </trkpt>
      <trkpt lat="46.60759" lon="5.26485">
        <ele>213.8</ele>
        <time>2021-06-14T13:28:37Z</time>
      </trkpt>
      <trkpt lat="46.60762" lon="5.26504">
        <ele>214</ele>
        <time>2021-06-14T13:28:39Z</time>
      </trkpt>
      <trkpt lat="46.60764" lon="5.26513">
        <ele>214</ele>
        <time>2021-06-14T13:28:40Z</time>
      </trkpt>
      <trkpt lat="46.60766" lon="5.26522">
        <ele>214.2</ele>
        <time>2021-06-14T13:28:41Z</time>
      </trkpt>
      <trkpt lat="46.6077" lon="5.26539">
        <ele>214.4</ele>
        <time>2021-06-14T13:28:43Z</time>
      </trkpt>
      <trkpt lat="46.60775" lon="5.26555">
        <ele>214.8</ele>
        <time>2021-06-14T13:28:45Z</time>
      </trkpt>
      <trkpt lat="46.60781" lon="5.26569">
        <ele>215.2</ele>
        <time>2021-06-14T13:28:47Z</time>
      </trkpt>
      <trkpt lat="46.60787" lon="5.26581">
        <ele>215.6</ele>
        <time>2021-06-14T13:28:49Z</time>
      </trkpt>
      <trkpt lat="46.6079" lon="5.26586">
        <ele>216</ele>
        <time>2021-06-14T13:28:50Z</time>
      </trkpt>
      <trkpt lat="46.60794" lon="5.26592">
        <ele>216.4</ele>
        <time>2021-06-14T13:28:51Z</time>
      </trkpt>
      <trkpt lat="46.608" lon="5.26601">
        <ele>217.2</ele>
        <time>2021-06-14T13:28:53Z</time>
      </trkpt>
      <trkpt lat="46.60804" lon="5.26605">
        <ele>217.6</ele>
        <time>2021-06-14T13:28:54Z</time>
      </trkpt>
      <trkpt lat="46.60808" lon="5.26609">
        <ele>217.8</ele>
        <time>2021-06-14T13:28:55Z</time>
      </trkpt>
      <trkpt lat="46.60815" lon="5.26617">
        <ele>218.4</ele>
        <time>2021-06-14T13:28:57Z</time>
      </trkpt>
      <trkpt lat="46.60819" lon="5.2662">
        <ele>218.6</ele>
        <time>2021-06-14T13:28:58Z</time>
      </trkpt>
      <trkpt lat="46.60822" lon="5.26624">
        <ele>218.8</ele>
        <time>2021-06-14T13:28:59Z</time>
      </trkpt>
      <trkpt lat="46.60831" lon="5.26629">
        <ele>219.4</ele>
        <time>2021-06-14T13:29:01Z</time>
      </trkpt>
      <trkpt lat="46.6084" lon="5.26636">
        <ele>220</ele>
        <time>2021-06-14T13:29:03Z</time>
      </trkpt>
      <trkpt lat="46.60849" lon="5.26643">
        <ele>221</ele>
        <time>2021-06-14T13:29:05Z</time>
      </trkpt>
      <trkpt lat="46.60859" lon="5.26649">
        <ele>221.2</ele>
        <time>2021-06-14T13:29:07Z</time>
      </trkpt>
      <trkpt lat="46.60864" lon="5.26652">
        <ele>221.4</ele>
        <time>2021-06-14T13:29:08Z</time>
      </trkpt>
      <trkpt lat="46.6087" lon="5.26655">
        <ele>221.4</ele>
        <time>2021-06-14T13:29:09Z</time>
      </trkpt>
      <trkpt lat="46.60881" lon="5.26659">
        <ele>221.4</ele>
        <time>2021-06-14T13:29:11Z</time>
      </trkpt>
      <trkpt lat="46.60894" lon="5.26658">
        <ele>221.4</ele>
        <time>2021-06-14T13:29:13Z</time>
      </trkpt>
      <trkpt lat="46.60907" lon="5.26653">
        <ele>221.2</ele>
        <time>2021-06-14T13:29:15Z</time>
      </trkpt>
      <trkpt lat="46.60915" lon="5.26652">
        <ele>221</ele>
        <time>2021-06-14T13:29:16Z</time>
      </trkpt>
      <trkpt lat="46.60922" lon="5.26653">
        <ele>220.8</ele>
        <time>2021-06-14T13:29:17Z</time>
      </trkpt>
      <trkpt lat="46.60937" lon="5.26664">
        <ele>220.6</ele>
        <time>2021-06-14T13:29:19Z</time>
      </trkpt>
      <trkpt lat="46.60943" lon="5.26673">
        <ele>220.4</ele>
        <time>2021-06-14T13:29:20Z</time>
      </trkpt>
      <trkpt lat="46.60949" lon="5.26683">
        <ele>219.8</ele>
        <time>2021-06-14T13:29:21Z</time>
      </trkpt>
      <trkpt lat="46.60963" lon="5.267">
        <ele>218.6</ele>
        <time>2021-06-14T13:29:23Z</time>
      </trkpt>
      <trkpt lat="46.60978" lon="5.26715">
        <ele>216.8</ele>
        <time>2021-06-14T13:29:25Z</time>
      </trkpt>
      <trkpt lat="46.60985" lon="5.26722">
        <ele>215.8</ele>
        <time>2021-06-14T13:29:26Z</time>
      </trkpt>
      <trkpt lat="46.60993" lon="5.26729">
        <ele>215</ele>
        <time>2021-06-14T13:29:27Z</time>
      </trkpt>
      <trkpt lat="46.61" lon="5.26736">
        <ele>214.4</ele>
        <time>2021-06-14T13:29:28Z</time>
      </trkpt>
      <trkpt lat="46.61008" lon="5.26744">
        <ele>214</ele>
        <time>2021-06-14T13:29:29Z</time>
      </trkpt>
      <trkpt lat="46.61022" lon="5.26757">
        <ele>213.4</ele>
        <time>2021-06-14T13:29:31Z</time>
      </trkpt>
      <trkpt lat="46.61029" lon="5.26765">
        <ele>213.2</ele>
        <time>2021-06-14T13:29:32Z</time>
      </trkpt>
      <trkpt lat="46.61036" lon="5.26772">
        <ele>213</ele>
        <time>2021-06-14T13:29:33Z</time>
      </trkpt>
      <trkpt lat="46.6105" lon="5.26787">
        <ele>212.6</ele>
        <time>2021-06-14T13:29:35Z</time>
      </trkpt>
      <trkpt lat="46.61062" lon="5.26803">
        <ele>212.4</ele>
        <time>2021-06-14T13:29:37Z</time>
      </trkpt>
      <trkpt lat="46.61067" lon="5.26813">
        <ele>212.4</ele>
        <time>2021-06-14T13:29:38Z</time>
      </trkpt>
      <trkpt lat="46.61071" lon="5.26823">
        <ele>212.4</ele>
        <time>2021-06-14T13:29:39Z</time>
      </trkpt>
      <trkpt lat="46.61078" lon="5.26843">
        <ele>212.4</ele>
        <time>2021-06-14T13:29:41Z</time>
      </trkpt>
      <trkpt lat="46.61085" lon="5.26862">
        <ele>212.4</ele>
        <time>2021-06-14T13:29:43Z</time>
      </trkpt>
      <trkpt lat="46.61092" lon="5.26881">
        <ele>212.6</ele>
        <time>2021-06-14T13:29:45Z</time>
      </trkpt>
      <trkpt lat="46.611" lon="5.269">
        <ele>212.8</ele>
        <time>2021-06-14T13:29:47Z</time>
      </trkpt>
      <trkpt lat="46.61108" lon="5.26918">
        <ele>213</ele>
        <time>2021-06-14T13:29:49Z</time>
      </trkpt>
      <trkpt lat="46.61113" lon="5.26927">
        <ele>213</ele>
        <time>2021-06-14T13:29:50Z</time>
      </trkpt>
      <trkpt lat="46.61117" lon="5.26936">
        <ele>213</ele>
        <time>2021-06-14T13:29:51Z</time>
      </trkpt>
      <trkpt lat="46.61127" lon="5.26952">
        <ele>213</ele>
        <time>2021-06-14T13:29:53Z</time>
      </trkpt>
      <trkpt lat="46.61138" lon="5.26966">
        <ele>213</ele>
        <time>2021-06-14T13:29:55Z</time>
      </trkpt>
      <trkpt lat="46.6115" lon="5.26977">
        <ele>213</ele>
        <time>2021-06-14T13:29:57Z</time>
      </trkpt>
      <trkpt lat="46.61163" lon="5.26988">
        <ele>213</ele>
        <time>2021-06-14T13:29:59Z</time>
      </trkpt>
      <trkpt lat="46.61168" lon="5.26995">
        <ele>212.8</ele>
        <time>2021-06-14T13:30:00Z</time>
      </trkpt>
      <trkpt lat="46.61174" lon="5.27002">
        <ele>212.8</ele>
        <time>2021-06-14T13:30:01Z</time>
      </trkpt>
      <trkpt lat="46.61183" lon="5.27017">
        <ele>212.8</ele>
        <time>2021-06-14T13:30:03Z</time>
      </trkpt>
      <trkpt lat="46.61191" lon="5.27033">
        <ele>212.8</ele>
        <time>2021-06-14T13:30:05Z</time>
      </trkpt>
      <trkpt lat="46.612" lon="5.27046">
        <ele>212.8</ele>
        <time>2021-06-14T13:30:07Z</time>
      </trkpt>
      <trkpt lat="46.61209" lon="5.27059">
        <ele>212.8</ele>
        <time>2021-06-14T13:30:09Z</time>
      </trkpt>
      <trkpt lat="46.61217" lon="5.2707">
        <ele>213</ele>
        <time>2021-06-14T13:30:11Z</time>
      </trkpt>
      <trkpt lat="46.61221" lon="5.27075">
        <ele>213</ele>
        <time>2021-06-14T13:30:12Z</time>
      </trkpt>
      <trkpt lat="46.61224" lon="5.27079">
        <ele>213</ele>
        <time>2021-06-14T13:30:13Z</time>
      </trkpt>
      <trkpt lat="46.61227" lon="5.2708">
        <ele>213</ele>
        <time>2021-06-14T13:30:14Z</time>
      </trkpt>
      <trkpt lat="46.61231" lon="5.27079">
        <ele>213.2</ele>
        <time>2021-06-14T13:30:15Z</time>
      </trkpt>
      <trkpt lat="46.61237" lon="5.27071">
        <ele>213.4</ele>
        <time>2021-06-14T13:30:17Z</time>
      </trkpt>
      <trkpt lat="46.61242" lon="5.2706">
        <ele>213.6</ele>
        <time>2021-06-14T13:30:19Z</time>
      </trkpt>
      <trkpt lat="46.61248" lon="5.27046">
        <ele>214</ele>
        <time>2021-06-14T13:30:21Z</time>
      </trkpt>
      <trkpt lat="46.61251" lon="5.27039">
        <ele>214.2</ele>
        <time>2021-06-14T13:30:22Z</time>
      </trkpt>
      <trkpt lat="46.61254" lon="5.27031">
        <ele>214.4</ele>
        <time>2021-06-14T13:30:23Z</time>
      </trkpt>
      <trkpt lat="46.61257" lon="5.27022">
        <ele>214.4</ele>
        <time>2021-06-14T13:30:24Z</time>
      </trkpt>
      <trkpt lat="46.6126" lon="5.27014">
        <ele>214.4</ele>
        <time>2021-06-14T13:30:25Z</time>
      </trkpt>
      <trkpt lat="46.61266" lon="5.26999">
        <ele>214.4</ele>
        <time>2021-06-14T13:30:27Z</time>
      </trkpt>
      <trkpt lat="46.61274" lon="5.26985">
        <ele>214.4</ele>
        <time>2021-06-14T13:30:29Z</time>
      </trkpt>
      <trkpt lat="46.61282" lon="5.26973">
        <ele>214.4</ele>
        <time>2021-06-14T13:30:31Z</time>
      </trkpt>
      <trkpt lat="46.61286" lon="5.26967">
        <ele>214.4</ele>
        <time>2021-06-14T13:30:32Z</time>
      </trkpt>
      <trkpt lat="46.6129" lon="5.26961">
        <ele>214.6</ele>
        <time>2021-06-14T13:30:33Z</time>
      </trkpt>
      <trkpt lat="46.613" lon="5.26949">
        <ele>214.6</ele>
        <time>2021-06-14T13:30:35Z</time>
      </trkpt>
      <trkpt lat="46.61311" lon="5.26938">
        <ele>214.6</ele>
        <time>2021-06-14T13:30:37Z</time>
      </trkpt>
      <trkpt lat="46.61323" lon="5.26932">
        <ele>214.6</ele>
        <time>2021-06-14T13:30:39Z</time>
      </trkpt>
      <trkpt lat="46.6133" lon="5.26934">
        <ele>214.6</ele>
        <time>2021-06-14T13:30:40Z</time>
      </trkpt>
      <trkpt lat="46.61336" lon="5.26937">
        <ele>214.4</ele>
        <time>2021-06-14T13:30:41Z</time>
      </trkpt>
      <trkpt lat="46.61348" lon="5.26945">
        <ele>214.4</ele>
        <time>2021-06-14T13:30:43Z</time>
      </trkpt>
      <trkpt lat="46.61355" lon="5.2695">
        <ele>214.2</ele>
        <time>2021-06-14T13:30:44Z</time>
      </trkpt>
      <trkpt lat="46.61361" lon="5.26954">
        <ele>214.4</ele>
        <time>2021-06-14T13:30:45Z</time>
      </trkpt>
      <trkpt lat="46.61375" lon="5.26962">
        <ele>213.8</ele>
        <time>2021-06-14T13:30:47Z</time>
      </trkpt>
      <trkpt lat="46.61388" lon="5.26968">
        <ele>213.6</ele>
        <time>2021-06-14T13:30:49Z</time>
      </trkpt>
      <trkpt lat="46.61395" lon="5.26971">
        <ele>213.6</ele>
        <time>2021-06-14T13:30:50Z</time>
      </trkpt>
      <trkpt lat="46.61402" lon="5.26973">
        <ele>213.6</ele>
        <time>2021-06-14T13:30:51Z</time>
      </trkpt>
      <trkpt lat="46.61417" lon="5.26977">
        <ele>213.4</ele>
        <time>2021-06-14T13:30:53Z</time>
      </trkpt>
      <trkpt lat="46.61431" lon="5.26981">
        <ele>213.4</ele>
        <time>2021-06-14T13:30:55Z</time>
      </trkpt>
      <trkpt lat="46.61445" lon="5.26984">
        <ele>213.4</ele>
        <time>2021-06-14T13:30:57Z</time>
      </trkpt>
      <trkpt lat="46.6146" lon="5.26989">
        <ele>213.6</ele>
        <time>2021-06-14T13:30:59Z</time>
      </trkpt>
      <trkpt lat="46.61467" lon="5.2699">
        <ele>213.6</ele>
        <time>2021-06-14T13:31:00Z</time>
      </trkpt>
      <trkpt lat="46.61474" lon="5.26992">
        <ele>213.6</ele>
        <time>2021-06-14T13:31:01Z</time>
      </trkpt>
      <trkpt lat="46.61489" lon="5.26996">
        <ele>213.6</ele>
        <time>2021-06-14T13:31:03Z</time>
      </trkpt>
      <trkpt lat="46.61503" lon="5.27">
        <ele>213.6</ele>
        <time>2021-06-14T13:31:05Z</time>
      </trkpt>
      <trkpt lat="46.61518" lon="5.27003">
        <ele>213.6</ele>
        <time>2021-06-14T13:31:07Z</time>
      </trkpt>
      <trkpt lat="46.61526" lon="5.27003">
        <ele>213.6</ele>
        <time>2021-06-14T13:31:08Z</time>
      </trkpt>
      <trkpt lat="46.61533" lon="5.27001">
        <ele>213.6</ele>
        <time>2021-06-14T13:31:09Z</time>
      </trkpt>
      <trkpt lat="46.61545" lon="5.26991">
        <ele>213.6</ele>
        <time>2021-06-14T13:31:11Z</time>
      </trkpt>
      <trkpt lat="46.61556" lon="5.26977">
        <ele>213.6</ele>
        <time>2021-06-14T13:31:13Z</time>
      </trkpt>
      <trkpt lat="46.61565" lon="5.26962">
        <ele>213.6</ele>
        <time>2021-06-14T13:31:15Z</time>
      </trkpt>
      <trkpt lat="46.6157" lon="5.26955">
        <ele>213.6</ele>
        <time>2021-06-14T13:31:16Z</time>
      </trkpt>
      <trkpt lat="46.61574" lon="5.26947">
        <ele>213.6</ele>
        <time>2021-06-14T13:31:17Z</time>
      </trkpt>
      <trkpt lat="46.61582" lon="5.26932">
        <ele>213.6</ele>
        <time>2021-06-14T13:31:19Z</time>
      </trkpt>
      <trkpt lat="46.61589" lon="5.26918">
        <ele>213.6</ele>
        <time>2021-06-14T13:31:21Z</time>
      </trkpt>
      <trkpt lat="46.61597" lon="5.26904">
        <ele>213.6</ele>
        <time>2021-06-14T13:31:23Z</time>
      </trkpt>
      <trkpt lat="46.61601" lon="5.26897">
        <ele>213.6</ele>
        <time>2021-06-14T13:31:24Z</time>
      </trkpt>
      <trkpt lat="46.61604" lon="5.2689">
        <ele>213.6</ele>
        <time>2021-06-14T13:31:25Z</time>
      </trkpt>
      <trkpt lat="46.61612" lon="5.26876">
        <ele>214.2</ele>
        <time>2021-06-14T13:31:27Z</time>
      </trkpt>
      <trkpt lat="46.61616" lon="5.2687">
        <ele>214.6</ele>
        <time>2021-06-14T13:31:28Z</time>
      </trkpt>
      <trkpt lat="46.61621" lon="5.26865">
        <ele>214.8</ele>
        <time>2021-06-14T13:31:29Z</time>
      </trkpt>
      <trkpt lat="46.61626" lon="5.2686">
        <ele>215</ele>
        <time>2021-06-14T13:31:30Z</time>
      </trkpt>
      <trkpt lat="46.61631" lon="5.26855">
        <ele>215.2</ele>
        <time>2021-06-14T13:31:31Z</time>
      </trkpt>
      <trkpt lat="46.61641" lon="5.26847">
        <ele>215.2</ele>
        <time>2021-06-14T13:31:33Z</time>
      </trkpt>
      <trkpt lat="46.61652" lon="5.26839">
        <ele>215.2</ele>
        <time>2021-06-14T13:31:35Z</time>
      </trkpt>
      <trkpt lat="46.61664" lon="5.26832">
        <ele>215.4</ele>
        <time>2021-06-14T13:31:37Z</time>
      </trkpt>
      <trkpt lat="46.61676" lon="5.26832">
        <ele>215.4</ele>
        <time>2021-06-14T13:31:39Z</time>
      </trkpt>
      <trkpt lat="46.61682" lon="5.26834">
        <ele>215.6</ele>
        <time>2021-06-14T13:31:40Z</time>
      </trkpt>
      <trkpt lat="46.61688" lon="5.26837">
        <ele>215.6</ele>
        <time>2021-06-14T13:31:41Z</time>
      </trkpt>
      <trkpt lat="46.617" lon="5.26846">
        <ele>215.8</ele>
        <time>2021-06-14T13:31:43Z</time>
      </trkpt>
      <trkpt lat="46.61705" lon="5.26851">
        <ele>215.8</ele>
        <time>2021-06-14T13:31:44Z</time>
      </trkpt>
      <trkpt lat="46.61711" lon="5.26857">
        <ele>215.8</ele>
        <time>2021-06-14T13:31:45Z</time>
      </trkpt>
      <trkpt lat="46.61721" lon="5.26868">
        <ele>216</ele>
        <time>2021-06-14T13:31:47Z</time>
      </trkpt>
      <trkpt lat="46.61732" lon="5.26879">
        <ele>216</ele>
        <time>2021-06-14T13:31:49Z</time>
      </trkpt>
      <trkpt lat="46.61741" lon="5.26892">
        <ele>216</ele>
        <time>2021-06-14T13:31:51Z</time>
      </trkpt>
      <trkpt lat="46.6175" lon="5.26905">
        <ele>216</ele>
        <time>2021-06-14T13:31:53Z</time>
      </trkpt>
      <trkpt lat="46.61759" lon="5.26918">
        <ele>216.2</ele>
        <time>2021-06-14T13:31:55Z</time>
      </trkpt>
      <trkpt lat="46.61767" lon="5.26933">
        <ele>216.2</ele>
        <time>2021-06-14T13:31:57Z</time>
      </trkpt>
      <trkpt lat="46.61775" lon="5.26947">
        <ele>216.2</ele>
        <time>2021-06-14T13:31:59Z</time>
      </trkpt>
      <trkpt lat="46.61783" lon="5.26961">
        <ele>216.2</ele>
        <time>2021-06-14T13:32:01Z</time>
      </trkpt>
      <trkpt lat="46.61791" lon="5.26974">
        <ele>216.4</ele>
        <time>2021-06-14T13:32:03Z</time>
      </trkpt>
      <trkpt lat="46.61799" lon="5.26988">
        <ele>216.4</ele>
        <time>2021-06-14T13:32:05Z</time>
      </trkpt>
      <trkpt lat="46.61807" lon="5.27001">
        <ele>216.4</ele>
        <time>2021-06-14T13:32:07Z</time>
      </trkpt>
      <trkpt lat="46.61814" lon="5.27013">
        <ele>216.4</ele>
        <time>2021-06-14T13:32:09Z</time>
      </trkpt>
      <trkpt lat="46.6182" lon="5.27024">
        <ele>216.4</ele>
        <time>2021-06-14T13:32:11Z</time>
      </trkpt>
      <trkpt lat="46.61822" lon="5.2703">
        <ele>216.4</ele>
        <time>2021-06-14T13:32:12Z</time>
      </trkpt>
      <trkpt lat="46.61823" lon="5.27037">
        <ele>216.4</ele>
        <time>2021-06-14T13:32:13Z</time>
      </trkpt>
      <trkpt lat="46.61822" lon="5.27053">
        <ele>216.6</ele>
        <time>2021-06-14T13:32:15Z</time>
      </trkpt>
      <trkpt lat="46.61819" lon="5.2707">
        <ele>217.2</ele>
        <time>2021-06-14T13:32:17Z</time>
      </trkpt>
      <trkpt lat="46.61818" lon="5.2708">
        <ele>217.4</ele>
        <time>2021-06-14T13:32:18Z</time>
      </trkpt>
      <trkpt lat="46.61817" lon="5.27089">
        <ele>217.6</ele>
        <time>2021-06-14T13:32:19Z</time>
      </trkpt>
      <trkpt lat="46.61815" lon="5.27108">
        <ele>217.8</ele>
        <time>2021-06-14T13:32:21Z</time>
      </trkpt>
      <trkpt lat="46.61812" lon="5.27127">
        <ele>217.8</ele>
        <time>2021-06-14T13:32:23Z</time>
      </trkpt>
      <trkpt lat="46.6181" lon="5.27145">
        <ele>218</ele>
        <time>2021-06-14T13:32:25Z</time>
      </trkpt>
      <trkpt lat="46.61807" lon="5.27164">
        <ele>218</ele>
        <time>2021-06-14T13:32:27Z</time>
      </trkpt>
      <trkpt lat="46.61805" lon="5.27182">
        <ele>218.2</ele>
        <time>2021-06-14T13:32:29Z</time>
      </trkpt>
      <trkpt lat="46.61802" lon="5.27201">
        <ele>218.2</ele>
        <time>2021-06-14T13:32:31Z</time>
      </trkpt>
      <trkpt lat="46.618" lon="5.27219">
        <ele>218.2</ele>
        <time>2021-06-14T13:32:33Z</time>
      </trkpt>
      <trkpt lat="46.61798" lon="5.27238">
        <ele>218.2</ele>
        <time>2021-06-14T13:32:35Z</time>
      </trkpt>
      <trkpt lat="46.61795" lon="5.27256">
        <ele>218.2</ele>
        <time>2021-06-14T13:32:37Z</time>
      </trkpt>
      <trkpt lat="46.61793" lon="5.27275">
        <ele>218.4</ele>
        <time>2021-06-14T13:32:39Z</time>
      </trkpt>
      <trkpt lat="46.61792" lon="5.27284">
        <ele>218.6</ele>
        <time>2021-06-14T13:32:40Z</time>
      </trkpt>
      <trkpt lat="46.6179" lon="5.27293">
        <ele>218.6</ele>
        <time>2021-06-14T13:32:41Z</time>
      </trkpt>
      <trkpt lat="46.61789" lon="5.27302">
        <ele>218.6</ele>
        <time>2021-06-14T13:32:42Z</time>
      </trkpt>
      <trkpt lat="46.61788" lon="5.27311">
        <ele>218.8</ele>
        <time>2021-06-14T13:32:43Z</time>
      </trkpt>
      <trkpt lat="46.61786" lon="5.27329">
        <ele>218.8</ele>
        <time>2021-06-14T13:32:45Z</time>
      </trkpt>
      <trkpt lat="46.61783" lon="5.27347">
        <ele>218.8</ele>
        <time>2021-06-14T13:32:47Z</time>
      </trkpt>
      <trkpt lat="46.61781" lon="5.27365">
        <ele>218.8</ele>
        <time>2021-06-14T13:32:49Z</time>
      </trkpt>
      <trkpt lat="46.6178" lon="5.27374">
        <ele>218.8</ele>
        <time>2021-06-14T13:32:50Z</time>
      </trkpt>
      <trkpt lat="46.61779" lon="5.27382">
        <ele>218.8</ele>
        <time>2021-06-14T13:32:51Z</time>
      </trkpt>
      <trkpt lat="46.61776" lon="5.274">
        <ele>219</ele>
        <time>2021-06-14T13:32:53Z</time>
      </trkpt>
      <trkpt lat="46.61774" lon="5.27417">
        <ele>219.2</ele>
        <time>2021-06-14T13:32:55Z</time>
      </trkpt>
      <trkpt lat="46.61772" lon="5.27434">
        <ele>219.2</ele>
        <time>2021-06-14T13:32:57Z</time>
      </trkpt>
      <trkpt lat="46.61771" lon="5.27451">
        <ele>219.4</ele>
        <time>2021-06-14T13:32:59Z</time>
      </trkpt>
      <trkpt lat="46.61771" lon="5.27469">
        <ele>219.6</ele>
        <time>2021-06-14T13:33:01Z</time>
      </trkpt>
      <trkpt lat="46.6177" lon="5.27486">
        <ele>219.6</ele>
        <time>2021-06-14T13:33:03Z</time>
      </trkpt>
      <trkpt lat="46.6177" lon="5.27495">
        <ele>219.8</ele>
        <time>2021-06-14T13:33:04Z</time>
      </trkpt>
      <trkpt lat="46.6177" lon="5.27504">
        <ele>219.8</ele>
        <time>2021-06-14T13:33:05Z</time>
      </trkpt>
      <trkpt lat="46.61771" lon="5.27522">
        <ele>219.8</ele>
        <time>2021-06-14T13:33:07Z</time>
      </trkpt>
      <trkpt lat="46.61771" lon="5.27531">
        <ele>219.8</ele>
        <time>2021-06-14T13:33:08Z</time>
      </trkpt>
      <trkpt lat="46.61772" lon="5.2754">
        <ele>220</ele>
        <time>2021-06-14T13:33:09Z</time>
      </trkpt>
      <trkpt lat="46.61774" lon="5.27558">
        <ele>220</ele>
        <time>2021-06-14T13:33:11Z</time>
      </trkpt>
      <trkpt lat="46.61776" lon="5.27576">
        <ele>220.2</ele>
        <time>2021-06-14T13:33:13Z</time>
      </trkpt>
      <trkpt lat="46.61779" lon="5.27596">
        <ele>220.4</ele>
        <time>2021-06-14T13:33:15Z</time>
      </trkpt>
      <trkpt lat="46.61783" lon="5.27617">
        <ele>220.4</ele>
        <time>2021-06-14T13:33:17Z</time>
      </trkpt>
      <trkpt lat="46.61788" lon="5.27639">
        <ele>220.4</ele>
        <time>2021-06-14T13:33:19Z</time>
      </trkpt>
      <trkpt lat="46.61794" lon="5.27662">
        <ele>220.4</ele>
        <time>2021-06-14T13:33:21Z</time>
      </trkpt>
      <trkpt lat="46.61799" lon="5.27685">
        <ele>220.4</ele>
        <time>2021-06-14T13:33:23Z</time>
      </trkpt>
      <trkpt lat="46.61804" lon="5.27707">
        <ele>219.6</ele>
        <time>2021-06-14T13:33:25Z</time>
      </trkpt>
      <trkpt lat="46.61807" lon="5.27718">
        <ele>218.8</ele>
        <time>2021-06-14T13:33:26Z</time>
      </trkpt>
      <trkpt lat="46.61809" lon="5.27729">
        <ele>218.4</ele>
        <time>2021-06-14T13:33:27Z</time>
      </trkpt>
      <trkpt lat="46.61815" lon="5.27751">
        <ele>217.8</ele>
        <time>2021-06-14T13:33:29Z</time>
      </trkpt>
      <trkpt lat="46.6182" lon="5.27773">
        <ele>217.6</ele>
        <time>2021-06-14T13:33:31Z</time>
      </trkpt>
      <trkpt lat="46.61825" lon="5.27794">
        <ele>217.4</ele>
        <time>2021-06-14T13:33:33Z</time>
      </trkpt>
      <trkpt lat="46.6183" lon="5.27815">
        <ele>217.2</ele>
        <time>2021-06-14T13:33:35Z</time>
      </trkpt>
      <trkpt lat="46.61835" lon="5.27836">
        <ele>217</ele>
        <time>2021-06-14T13:33:37Z</time>
      </trkpt>
      <trkpt lat="46.61839" lon="5.27856">
        <ele>217</ele>
        <time>2021-06-14T13:33:39Z</time>
      </trkpt>
      <trkpt lat="46.61843" lon="5.27876">
        <ele>217</ele>
        <time>2021-06-14T13:33:41Z</time>
      </trkpt>
      <trkpt lat="46.61845" lon="5.27896">
        <ele>217</ele>
        <time>2021-06-14T13:33:43Z</time>
      </trkpt>
      <trkpt lat="46.61847" lon="5.27917">
        <ele>217.2</ele>
        <time>2021-06-14T13:33:45Z</time>
      </trkpt>
      <trkpt lat="46.61847" lon="5.27927">
        <ele>217.2</ele>
        <time>2021-06-14T13:33:46Z</time>
      </trkpt>
      <trkpt lat="46.61847" lon="5.27938">
        <ele>217.2</ele>
        <time>2021-06-14T13:33:47Z</time>
      </trkpt>
      <trkpt lat="46.61847" lon="5.27959">
        <ele>217.4</ele>
        <time>2021-06-14T13:33:49Z</time>
      </trkpt>
      <trkpt lat="46.61846" lon="5.27981">
        <ele>217.4</ele>
        <time>2021-06-14T13:33:51Z</time>
      </trkpt>
      <trkpt lat="46.61845" lon="5.27992">
        <ele>217.4</ele>
        <time>2021-06-14T13:33:52Z</time>
      </trkpt>
      <trkpt lat="46.61844" lon="5.28004">
        <ele>217.4</ele>
        <time>2021-06-14T13:33:53Z</time>
      </trkpt>
      <trkpt lat="46.61842" lon="5.28027">
        <ele>217.4</ele>
        <time>2021-06-14T13:33:55Z</time>
      </trkpt>
      <trkpt lat="46.61839" lon="5.28049">
        <ele>217.4</ele>
        <time>2021-06-14T13:33:57Z</time>
      </trkpt>
      <trkpt lat="46.61836" lon="5.28072">
        <ele>217.2</ele>
        <time>2021-06-14T13:33:59Z</time>
      </trkpt>
      <trkpt lat="46.61833" lon="5.28083">
        <ele>216.8</ele>
        <time>2021-06-14T13:34:00Z</time>
      </trkpt>
      <trkpt lat="46.61831" lon="5.28093">
        <ele>216.4</ele>
        <time>2021-06-14T13:34:01Z</time>
      </trkpt>
      <trkpt lat="46.61824" lon="5.28114">
        <ele>215.4</ele>
        <time>2021-06-14T13:34:03Z</time>
      </trkpt>
      <trkpt lat="46.61818" lon="5.28135">
        <ele>215</ele>
        <time>2021-06-14T13:34:05Z</time>
      </trkpt>
      <trkpt lat="46.61814" lon="5.28145">
        <ele>214.8</ele>
        <time>2021-06-14T13:34:06Z</time>
      </trkpt>
      <trkpt lat="46.61811" lon="5.28155">
        <ele>214.6</ele>
        <time>2021-06-14T13:34:07Z</time>
      </trkpt>
      <trkpt lat="46.61804" lon="5.28174">
        <ele>214.6</ele>
        <time>2021-06-14T13:34:09Z</time>
      </trkpt>
      <trkpt lat="46.61797" lon="5.28194">
        <ele>214.6</ele>
        <time>2021-06-14T13:34:11Z</time>
      </trkpt>
      <trkpt lat="46.6179" lon="5.28213">
        <ele>214.6</ele>
        <time>2021-06-14T13:34:13Z</time>
      </trkpt>
      <trkpt lat="46.61782" lon="5.28232">
        <ele>214.4</ele>
        <time>2021-06-14T13:34:15Z</time>
      </trkpt>
      <trkpt lat="46.61776" lon="5.28251">
        <ele>214.6</ele>
        <time>2021-06-14T13:34:17Z</time>
      </trkpt>
      <trkpt lat="46.61769" lon="5.2827">
        <ele>214.6</ele>
        <time>2021-06-14T13:34:19Z</time>
      </trkpt>
      <trkpt lat="46.61763" lon="5.28288">
        <ele>214.6</ele>
        <time>2021-06-14T13:34:21Z</time>
      </trkpt>
      <trkpt lat="46.61757" lon="5.28307">
        <ele>214.6</ele>
        <time>2021-06-14T13:34:23Z</time>
      </trkpt>
      <trkpt lat="46.6175" lon="5.28326">
        <ele>214.6</ele>
        <time>2021-06-14T13:34:25Z</time>
      </trkpt>
      <trkpt lat="46.61744" lon="5.28344">
        <ele>214.6</ele>
        <time>2021-06-14T13:34:27Z</time>
      </trkpt>
      <trkpt lat="46.61737" lon="5.28363">
        <ele>214.6</ele>
        <time>2021-06-14T13:34:29Z</time>
      </trkpt>
      <trkpt lat="46.61734" lon="5.28372">
        <ele>214.8</ele>
        <time>2021-06-14T13:34:30Z</time>
      </trkpt>
      <trkpt lat="46.61731" lon="5.28381">
        <ele>214.8</ele>
        <time>2021-06-14T13:34:31Z</time>
      </trkpt>
      <trkpt lat="46.61728" lon="5.2839">
        <ele>215</ele>
        <time>2021-06-14T13:34:32Z</time>
      </trkpt>
      <trkpt lat="46.61722" lon="5.28408">
        <ele>215</ele>
        <time>2021-06-14T13:34:34Z</time>
      </trkpt>
      <trkpt lat="46.61715" lon="5.28426">
        <ele>215</ele>
        <time>2021-06-14T13:34:36Z</time>
      </trkpt>
      <trkpt lat="46.61709" lon="5.28443">
        <ele>215</ele>
        <time>2021-06-14T13:34:38Z</time>
      </trkpt>
      <trkpt lat="46.61703" lon="5.2846">
        <ele>215.2</ele>
        <time>2021-06-14T13:34:40Z</time>
      </trkpt>
      <trkpt lat="46.61697" lon="5.28478">
        <ele>215.2</ele>
        <time>2021-06-14T13:34:42Z</time>
      </trkpt>
      <trkpt lat="46.61691" lon="5.28495">
        <ele>215.4</ele>
        <time>2021-06-14T13:34:44Z</time>
      </trkpt>
      <trkpt lat="46.61685" lon="5.28513">
        <ele>215.6</ele>
        <time>2021-06-14T13:34:46Z</time>
      </trkpt>
      <trkpt lat="46.6168" lon="5.2853">
        <ele>215.6</ele>
        <time>2021-06-14T13:34:48Z</time>
      </trkpt>
      <trkpt lat="46.61674" lon="5.28547">
        <ele>216</ele>
        <time>2021-06-14T13:34:50Z</time>
      </trkpt>
      <trkpt lat="46.61668" lon="5.28564">
        <ele>216</ele>
        <time>2021-06-14T13:34:52Z</time>
      </trkpt>
      <trkpt lat="46.61665" lon="5.28573">
        <ele>216</ele>
        <time>2021-06-14T13:34:53Z</time>
      </trkpt>
      <trkpt lat="46.61662" lon="5.28582">
        <ele>216.2</ele>
        <time>2021-06-14T13:34:54Z</time>
      </trkpt>
      <trkpt lat="46.61656" lon="5.28599">
        <ele>216.2</ele>
        <time>2021-06-14T13:34:56Z</time>
      </trkpt>
      <trkpt lat="46.6165" lon="5.28616">
        <ele>216.4</ele>
        <time>2021-06-14T13:34:58Z</time>
      </trkpt>
      <trkpt lat="46.61647" lon="5.28624">
        <ele>216.6</ele>
        <time>2021-06-14T13:34:59Z</time>
      </trkpt>
      <trkpt lat="46.61644" lon="5.28633">
        <ele>216.6</ele>
        <time>2021-06-14T13:35:00Z</time>
      </trkpt>
      <trkpt lat="46.61638" lon="5.2865">
        <ele>216.8</ele>
        <time>2021-06-14T13:35:02Z</time>
      </trkpt>
      <trkpt lat="46.61632" lon="5.28667">
        <ele>216.8</ele>
        <time>2021-06-14T13:35:04Z</time>
      </trkpt>
      <trkpt lat="46.61626" lon="5.28684">
        <ele>217</ele>
        <time>2021-06-14T13:35:06Z</time>
      </trkpt>
      <trkpt lat="46.61623" lon="5.28692">
        <ele>217.2</ele>
        <time>2021-06-14T13:35:07Z</time>
      </trkpt>
      <trkpt lat="46.6162" lon="5.28701">
        <ele>217.2</ele>
        <time>2021-06-14T13:35:08Z</time>
      </trkpt>
      <trkpt lat="46.61615" lon="5.28717">
        <ele>217.4</ele>
        <time>2021-06-14T13:35:10Z</time>
      </trkpt>
      <trkpt lat="46.61609" lon="5.28734">
        <ele>217.4</ele>
        <time>2021-06-14T13:35:12Z</time>
      </trkpt>
      <trkpt lat="46.61603" lon="5.2875">
        <ele>217.6</ele>
        <time>2021-06-14T13:35:14Z</time>
      </trkpt>
      <trkpt lat="46.61598" lon="5.28766">
        <ele>217.8</ele>
        <time>2021-06-14T13:35:16Z</time>
      </trkpt>
      <trkpt lat="46.61592" lon="5.28781">
        <ele>217.8</ele>
        <time>2021-06-14T13:35:18Z</time>
      </trkpt>
      <trkpt lat="46.61589" lon="5.28788">
        <ele>217.8</ele>
        <time>2021-06-14T13:35:19Z</time>
      </trkpt>
      <trkpt lat="46.61587" lon="5.28796">
        <ele>218</ele>
        <time>2021-06-14T13:35:20Z</time>
      </trkpt>
      <trkpt lat="46.61582" lon="5.28811">
        <ele>218.2</ele>
        <time>2021-06-14T13:35:22Z</time>
      </trkpt>
      <trkpt lat="46.61577" lon="5.28824">
        <ele>218.6</ele>
        <time>2021-06-14T13:35:24Z</time>
      </trkpt>
      <trkpt lat="46.61575" lon="5.28831">
        <ele>218.6</ele>
        <time>2021-06-14T13:35:25Z</time>
      </trkpt>
      <trkpt lat="46.61572" lon="5.28838">
        <ele>219</ele>
        <time>2021-06-14T13:35:26Z</time>
      </trkpt>
      <trkpt lat="46.61568" lon="5.28851">
        <ele>219.6</ele>
        <time>2021-06-14T13:35:28Z</time>
      </trkpt>
      <trkpt lat="46.61564" lon="5.28863">
        <ele>220.2</ele>
        <time>2021-06-14T13:35:30Z</time>
      </trkpt>
      <trkpt lat="46.61559" lon="5.28875">
        <ele>220.8</ele>
        <time>2021-06-14T13:35:32Z</time>
      </trkpt>
      <trkpt lat="46.61555" lon="5.28887">
        <ele>221.2</ele>
        <time>2021-06-14T13:35:34Z</time>
      </trkpt>
      <trkpt lat="46.61551" lon="5.28898">
        <ele>222.2</ele>
        <time>2021-06-14T13:35:36Z</time>
      </trkpt>
      <trkpt lat="46.61549" lon="5.28904">
        <ele>222.6</ele>
        <time>2021-06-14T13:35:37Z</time>
      </trkpt>
      <trkpt lat="46.61547" lon="5.28909">
        <ele>222.8</ele>
        <time>2021-06-14T13:35:38Z</time>
      </trkpt>
      <trkpt lat="46.61545" lon="5.28915">
        <ele>223</ele>
        <time>2021-06-14T13:35:39Z</time>
      </trkpt>
      <trkpt lat="46.61543" lon="5.2892">
        <ele>223.4</ele>
        <time>2021-06-14T13:35:40Z</time>
      </trkpt>
      <trkpt lat="46.61541" lon="5.28926">
        <ele>224</ele>
        <time>2021-06-14T13:35:41Z</time>
      </trkpt>
      <trkpt lat="46.61539" lon="5.28931">
        <ele>224.4</ele>
        <time>2021-06-14T13:35:42Z</time>
      </trkpt>
      <trkpt lat="46.61536" lon="5.28942">
        <ele>224.6</ele>
        <time>2021-06-14T13:35:44Z</time>
      </trkpt>
      <trkpt lat="46.61532" lon="5.28953">
        <ele>225</ele>
        <time>2021-06-14T13:35:46Z</time>
      </trkpt>
      <trkpt lat="46.61529" lon="5.28964">
        <ele>225.6</ele>
        <time>2021-06-14T13:35:48Z</time>
      </trkpt>
      <trkpt lat="46.61525" lon="5.28974">
        <ele>226</ele>
        <time>2021-06-14T13:35:50Z</time>
      </trkpt>
      <trkpt lat="46.61523" lon="5.28979">
        <ele>226.2</ele>
        <time>2021-06-14T13:35:51Z</time>
      </trkpt>
      <trkpt lat="46.61522" lon="5.28984">
        <ele>226.6</ele>
        <time>2021-06-14T13:35:52Z</time>
      </trkpt>
      <trkpt lat="46.6152" lon="5.2899">
        <ele>226.8</ele>
        <time>2021-06-14T13:35:53Z</time>
      </trkpt>
      <trkpt lat="46.61518" lon="5.28995">
        <ele>227</ele>
        <time>2021-06-14T13:35:54Z</time>
      </trkpt>
      <trkpt lat="46.61515" lon="5.29">
        <ele>227.2</ele>
        <time>2021-06-14T13:35:55Z</time>
      </trkpt>
      <trkpt lat="46.61513" lon="5.29005">
        <ele>227.4</ele>
        <time>2021-06-14T13:35:56Z</time>
      </trkpt>
      <trkpt lat="46.61509" lon="5.29015">
        <ele>228</ele>
        <time>2021-06-14T13:35:58Z</time>
      </trkpt>
      <trkpt lat="46.61505" lon="5.29026">
        <ele>228.6</ele>
        <time>2021-06-14T13:36:00Z</time>
      </trkpt>
      <trkpt lat="46.61502" lon="5.29037">
        <ele>229</ele>
        <time>2021-06-14T13:36:02Z</time>
      </trkpt>
      <trkpt lat="46.615" lon="5.29043">
        <ele>229.2</ele>
        <time>2021-06-14T13:36:03Z</time>
      </trkpt>
      <trkpt lat="46.61498" lon="5.29049">
        <ele>229.4</ele>
        <time>2021-06-14T13:36:04Z</time>
      </trkpt>
      <trkpt lat="46.61494" lon="5.29061">
        <ele>229.6</ele>
        <time>2021-06-14T13:36:06Z</time>
      </trkpt>
      <trkpt lat="46.6149" lon="5.29072">
        <ele>230</ele>
        <time>2021-06-14T13:36:08Z</time>
      </trkpt>
      <trkpt lat="46.61486" lon="5.29084">
        <ele>230.8</ele>
        <time>2021-06-14T13:36:10Z</time>
      </trkpt>
      <trkpt lat="46.61482" lon="5.29096">
        <ele>231.4</ele>
        <time>2021-06-14T13:36:12Z</time>
      </trkpt>
      <trkpt lat="46.61478" lon="5.29108">
        <ele>231.6</ele>
        <time>2021-06-14T13:36:14Z</time>
      </trkpt>
      <trkpt lat="46.61474" lon="5.2912">
        <ele>231.8</ele>
        <time>2021-06-14T13:36:16Z</time>
      </trkpt>
      <trkpt lat="46.61469" lon="5.29133">
        <ele>231.8</ele>
        <time>2021-06-14T13:36:18Z</time>
      </trkpt>
      <trkpt lat="46.61465" lon="5.29146">
        <ele>232.2</ele>
        <time>2021-06-14T13:36:20Z</time>
      </trkpt>
      <trkpt lat="46.6146" lon="5.29158">
        <ele>232.6</ele>
        <time>2021-06-14T13:36:22Z</time>
      </trkpt>
      <trkpt lat="46.61456" lon="5.29171">
        <ele>232.6</ele>
        <time>2021-06-14T13:36:24Z</time>
      </trkpt>
      <trkpt lat="46.61452" lon="5.29184">
        <ele>232.8</ele>
        <time>2021-06-14T13:36:26Z</time>
      </trkpt>
      <trkpt lat="46.61447" lon="5.29198">
        <ele>232.8</ele>
        <time>2021-06-14T13:36:28Z</time>
      </trkpt>
      <trkpt lat="46.61443" lon="5.29212">
        <ele>232.8</ele>
        <time>2021-06-14T13:36:30Z</time>
      </trkpt>
      <trkpt lat="46.61441" lon="5.2922">
        <ele>232.8</ele>
        <time>2021-06-14T13:36:31Z</time>
      </trkpt>
      <trkpt lat="46.61439" lon="5.29229">
        <ele>232.8</ele>
        <time>2021-06-14T13:36:32Z</time>
      </trkpt>
      <trkpt lat="46.61436" lon="5.29247">
        <ele>232.8</ele>
        <time>2021-06-14T13:36:34Z</time>
      </trkpt>
      <trkpt lat="46.61434" lon="5.29266">
        <ele>232.8</ele>
        <time>2021-06-14T13:36:36Z</time>
      </trkpt>
      <trkpt lat="46.61433" lon="5.29277">
        <ele>232.8</ele>
        <time>2021-06-14T13:36:37Z</time>
      </trkpt>
      <trkpt lat="46.61432" lon="5.29288">
        <ele>232.6</ele>
        <time>2021-06-14T13:36:38Z</time>
      </trkpt>
      <trkpt lat="46.6143" lon="5.29311">
        <ele>232</ele>
        <time>2021-06-14T13:36:40Z</time>
      </trkpt>
      <trkpt lat="46.61429" lon="5.29323">
        <ele>231.4</ele>
        <time>2021-06-14T13:36:41Z</time>
      </trkpt>
      <trkpt lat="46.61427" lon="5.29335">
        <ele>230.8</ele>
        <time>2021-06-14T13:36:42Z</time>
      </trkpt>
      <trkpt lat="46.61426" lon="5.29347">
        <ele>230.4</ele>
        <time>2021-06-14T13:36:43Z</time>
      </trkpt>
      <trkpt lat="46.61424" lon="5.2936">
        <ele>230</ele>
        <time>2021-06-14T13:36:44Z</time>
      </trkpt>
      <trkpt lat="46.61417" lon="5.29385">
        <ele>229</ele>
        <time>2021-06-14T13:36:46Z</time>
      </trkpt>
      <trkpt lat="46.61413" lon="5.29397">
        <ele>228.6</ele>
        <time>2021-06-14T13:36:47Z</time>
      </trkpt>
      <trkpt lat="46.61408" lon="5.29409">
        <ele>227.8</ele>
        <time>2021-06-14T13:36:48Z</time>
      </trkpt>
      <trkpt lat="46.61397" lon="5.29433">
        <ele>226.6</ele>
        <time>2021-06-14T13:36:50Z</time>
      </trkpt>
      <trkpt lat="46.61387" lon="5.29456">
        <ele>225.6</ele>
        <time>2021-06-14T13:36:52Z</time>
      </trkpt>
      <trkpt lat="46.61382" lon="5.29468">
        <ele>225.2</ele>
        <time>2021-06-14T13:36:53Z</time>
      </trkpt>
      <trkpt lat="46.61376" lon="5.2948">
        <ele>224.6</ele>
        <time>2021-06-14T13:36:54Z</time>
      </trkpt>
      <trkpt lat="46.61371" lon="5.29492">
        <ele>224.2</ele>
        <time>2021-06-14T13:36:55Z</time>
      </trkpt>
      <trkpt lat="46.61366" lon="5.29503">
        <ele>223.8</ele>
        <time>2021-06-14T13:36:56Z</time>
      </trkpt>
      <trkpt lat="46.61355" lon="5.29526">
        <ele>223</ele>
        <time>2021-06-14T13:36:58Z</time>
      </trkpt>
      <trkpt lat="46.61345" lon="5.29549">
        <ele>222</ele>
        <time>2021-06-14T13:37:00Z</time>
      </trkpt>
      <trkpt lat="46.61339" lon="5.29561">
        <ele>221.6</ele>
        <time>2021-06-14T13:37:01Z</time>
      </trkpt>
      <trkpt lat="46.61334" lon="5.29572">
        <ele>221.2</ele>
        <time>2021-06-14T13:37:02Z</time>
      </trkpt>
      <trkpt lat="46.61324" lon="5.29594">
        <ele>220.4</ele>
        <time>2021-06-14T13:37:04Z</time>
      </trkpt>
      <trkpt lat="46.61314" lon="5.29616">
        <ele>219.6</ele>
        <time>2021-06-14T13:37:06Z</time>
      </trkpt>
      <trkpt lat="46.61304" lon="5.29637">
        <ele>219.4</ele>
        <time>2021-06-14T13:37:08Z</time>
      </trkpt>
      <trkpt lat="46.61295" lon="5.29658">
        <ele>219.2</ele>
        <time>2021-06-14T13:37:10Z</time>
      </trkpt>
      <trkpt lat="46.61285" lon="5.29679">
        <ele>219.2</ele>
        <time>2021-06-14T13:37:12Z</time>
      </trkpt>
      <trkpt lat="46.61276" lon="5.29699">
        <ele>219.2</ele>
        <time>2021-06-14T13:37:14Z</time>
      </trkpt>
      <trkpt lat="46.61267" lon="5.29719">
        <ele>219.2</ele>
        <time>2021-06-14T13:37:16Z</time>
      </trkpt>
      <trkpt lat="46.61253" lon="5.29749">
        <ele>219.2</ele>
        <time>2021-06-14T13:37:18Z</time>
      </trkpt>
      <trkpt lat="46.61248" lon="5.29759">
        <ele>219.2</ele>
        <time>2021-06-14T13:37:20Z</time>
      </trkpt>
      <trkpt lat="46.61239" lon="5.29779">
        <ele>219.6</ele>
        <time>2021-06-14T13:37:22Z</time>
      </trkpt>
      <trkpt lat="46.6123" lon="5.29799">
        <ele>219.6</ele>
        <time>2021-06-14T13:37:24Z</time>
      </trkpt>
      <trkpt lat="46.6122" lon="5.29818">
        <ele>219.4</ele>
        <time>2021-06-14T13:37:26Z</time>
      </trkpt>
      <trkpt lat="46.61207" lon="5.29846">
        <ele>219.6</ele>
        <time>2021-06-14T13:37:28Z</time>
      </trkpt>
      <trkpt lat="46.61199" lon="5.29864">
        <ele>219.6</ele>
        <time>2021-06-14T13:37:30Z</time>
      </trkpt>
      <trkpt lat="46.61194" lon="5.29873">
        <ele>219.4</ele>
        <time>2021-06-14T13:37:32Z</time>
      </trkpt>
      <trkpt lat="46.61182" lon="5.29898">
        <ele>219.4</ele>
        <time>2021-06-14T13:37:34Z</time>
      </trkpt>
      <trkpt lat="46.61174" lon="5.29915">
        <ele>219.6</ele>
        <time>2021-06-14T13:37:36Z</time>
      </trkpt>
      <trkpt lat="46.6117" lon="5.29923">
        <ele>219.4</ele>
        <time>2021-06-14T13:37:38Z</time>
      </trkpt>
      <trkpt lat="46.61162" lon="5.29939">
        <ele>219.4</ele>
        <time>2021-06-14T13:37:40Z</time>
      </trkpt>
      <trkpt lat="46.61158" lon="5.29946">
        <ele>219.4</ele>
        <time>2021-06-14T13:37:41Z</time>
      </trkpt>
      <trkpt lat="46.61154" lon="5.29953">
        <ele>219.4</ele>
        <time>2021-06-14T13:37:42Z</time>
      </trkpt>
      <trkpt lat="46.61145" lon="5.29967">
        <ele>219.8</ele>
        <time>2021-06-14T13:37:44Z</time>
      </trkpt>
      <trkpt lat="46.61136" lon="5.2998">
        <ele>220</ele>
        <time>2021-06-14T13:37:46Z</time>
      </trkpt>
      <trkpt lat="46.61126" lon="5.29992">
        <ele>220.2</ele>
        <time>2021-06-14T13:37:48Z</time>
      </trkpt>
      <trkpt lat="46.61121" lon="5.29998">
        <ele>220.2</ele>
        <time>2021-06-14T13:37:49Z</time>
      </trkpt>
      <trkpt lat="46.61116" lon="5.30004">
        <ele>220.4</ele>
        <time>2021-06-14T13:37:50Z</time>
      </trkpt>
      <trkpt lat="46.61111" lon="5.30009">
        <ele>220.6</ele>
        <time>2021-06-14T13:37:51Z</time>
      </trkpt>
      <trkpt lat="46.61106" lon="5.30015">
        <ele>220.8</ele>
        <time>2021-06-14T13:37:52Z</time>
      </trkpt>
      <trkpt lat="46.61095" lon="5.30026">
        <ele>221</ele>
        <time>2021-06-14T13:37:54Z</time>
      </trkpt>
      <trkpt lat="46.61084" lon="5.30036">
        <ele>221</ele>
        <time>2021-06-14T13:37:56Z</time>
      </trkpt>
      <trkpt lat="46.61073" lon="5.30046">
        <ele>221.2</ele>
        <time>2021-06-14T13:37:58Z</time>
      </trkpt>
      <trkpt lat="46.61061" lon="5.30056">
        <ele>221.2</ele>
        <time>2021-06-14T13:38:00Z</time>
      </trkpt>
      <trkpt lat="46.61048" lon="5.30067">
        <ele>221.4</ele>
        <time>2021-06-14T13:38:02Z</time>
      </trkpt>
      <trkpt lat="46.61035" lon="5.30077">
        <ele>221.4</ele>
        <time>2021-06-14T13:38:04Z</time>
      </trkpt>
      <trkpt lat="46.61022" lon="5.30088">
        <ele>221.4</ele>
        <time>2021-06-14T13:38:06Z</time>
      </trkpt>
      <trkpt lat="46.6101" lon="5.30098">
        <ele>221.4</ele>
        <time>2021-06-14T13:38:08Z</time>
      </trkpt>
      <trkpt lat="46.60997" lon="5.30109">
        <ele>221.2</ele>
        <time>2021-06-14T13:38:10Z</time>
      </trkpt>
      <trkpt lat="46.60984" lon="5.3012">
        <ele>221.2</ele>
        <time>2021-06-14T13:38:12Z</time>
      </trkpt>
      <trkpt lat="46.60971" lon="5.3013">
        <ele>221</ele>
        <time>2021-06-14T13:38:14Z</time>
      </trkpt>
      <trkpt lat="46.60959" lon="5.3014">
        <ele>221</ele>
        <time>2021-06-14T13:38:16Z</time>
      </trkpt>
      <trkpt lat="46.60946" lon="5.3015">
        <ele>221</ele>
        <time>2021-06-14T13:38:18Z</time>
      </trkpt>
      <trkpt lat="46.60934" lon="5.3016">
        <ele>221</ele>
        <time>2021-06-14T13:38:20Z</time>
      </trkpt>
      <trkpt lat="46.60922" lon="5.30171">
        <ele>221</ele>
        <time>2021-06-14T13:38:22Z</time>
      </trkpt>
      <trkpt lat="46.6091" lon="5.30181">
        <ele>221.2</ele>
        <time>2021-06-14T13:38:24Z</time>
      </trkpt>
      <trkpt lat="46.60898" lon="5.30191">
        <ele>221.4</ele>
        <time>2021-06-14T13:38:26Z</time>
      </trkpt>
      <trkpt lat="46.60885" lon="5.30201">
        <ele>221.6</ele>
        <time>2021-06-14T13:38:28Z</time>
      </trkpt>
      <trkpt lat="46.60879" lon="5.30205">
        <ele>221.8</ele>
        <time>2021-06-14T13:38:29Z</time>
      </trkpt>
      <trkpt lat="46.60873" lon="5.3021">
        <ele>222</ele>
        <time>2021-06-14T13:38:30Z</time>
      </trkpt>
      <trkpt lat="46.60861" lon="5.3022">
        <ele>222.2</ele>
        <time>2021-06-14T13:38:32Z</time>
      </trkpt>
      <trkpt lat="46.6085" lon="5.30229">
        <ele>222.4</ele>
        <time>2021-06-14T13:38:34Z</time>
      </trkpt>
      <trkpt lat="46.60839" lon="5.30238">
        <ele>222.6</ele>
        <time>2021-06-14T13:38:36Z</time>
      </trkpt>
      <trkpt lat="46.60829" lon="5.30247">
        <ele>222.8</ele>
        <time>2021-06-14T13:38:38Z</time>
      </trkpt>
      <trkpt lat="46.60824" lon="5.30251">
        <ele>223</ele>
        <time>2021-06-14T13:38:39Z</time>
      </trkpt>
      <trkpt lat="46.60819" lon="5.30255">
        <ele>223.2</ele>
        <time>2021-06-14T13:38:40Z</time>
      </trkpt>
      <trkpt lat="46.60809" lon="5.30263">
        <ele>223.8</ele>
        <time>2021-06-14T13:38:42Z</time>
      </trkpt>
      <trkpt lat="46.60804" lon="5.30267">
        <ele>224</ele>
        <time>2021-06-14T13:38:43Z</time>
      </trkpt>
      <trkpt lat="46.60799" lon="5.30271">
        <ele>224.2</ele>
        <time>2021-06-14T13:38:44Z</time>
      </trkpt>
      <trkpt lat="46.6079" lon="5.30278">
        <ele>224.8</ele>
        <time>2021-06-14T13:38:46Z</time>
      </trkpt>
      <trkpt lat="46.60781" lon="5.30286">
        <ele>225.2</ele>
        <time>2021-06-14T13:38:48Z</time>
      </trkpt>
      <trkpt lat="46.60771" lon="5.30294">
        <ele>225.6</ele>
        <time>2021-06-14T13:38:50Z</time>
      </trkpt>
      <trkpt lat="46.60763" lon="5.30301">
        <ele>226.2</ele>
        <time>2021-06-14T13:38:52Z</time>
      </trkpt>
      <trkpt lat="46.60753" lon="5.30308">
        <ele>226.6</ele>
        <time>2021-06-14T13:38:54Z</time>
      </trkpt>
      <trkpt lat="46.60745" lon="5.30316">
        <ele>227</ele>
        <time>2021-06-14T13:38:56Z</time>
      </trkpt>
      <trkpt lat="46.6074" lon="5.30319">
        <ele>227.6</ele>
        <time>2021-06-14T13:38:57Z</time>
      </trkpt>
      <trkpt lat="46.60735" lon="5.30323">
        <ele>227.8</ele>
        <time>2021-06-14T13:38:58Z</time>
      </trkpt>
      <trkpt lat="46.60727" lon="5.3033">
        <ele>228.2</ele>
        <time>2021-06-14T13:39:00Z</time>
      </trkpt>
      <trkpt lat="46.60718" lon="5.30337">
        <ele>229</ele>
        <time>2021-06-14T13:39:02Z</time>
      </trkpt>
      <trkpt lat="46.60709" lon="5.30344">
        <ele>229.6</ele>
        <time>2021-06-14T13:39:04Z</time>
      </trkpt>
      <trkpt lat="46.60701" lon="5.30351">
        <ele>230</ele>
        <time>2021-06-14T13:39:06Z</time>
      </trkpt>
      <trkpt lat="46.60696" lon="5.30355">
        <ele>230.2</ele>
        <time>2021-06-14T13:39:07Z</time>
      </trkpt>
      <trkpt lat="46.60692" lon="5.30359">
        <ele>230.6</ele>
        <time>2021-06-14T13:39:08Z</time>
      </trkpt>
      <trkpt lat="46.60682" lon="5.30367">
        <ele>231.2</ele>
        <time>2021-06-14T13:39:10Z</time>
      </trkpt>
      <trkpt lat="46.60678" lon="5.30371">
        <ele>231.4</ele>
        <time>2021-06-14T13:39:11Z</time>
      </trkpt>
      <trkpt lat="46.60673" lon="5.30375">
        <ele>231.6</ele>
        <time>2021-06-14T13:39:12Z</time>
      </trkpt>
      <trkpt lat="46.60664" lon="5.30382">
        <ele>231.8</ele>
        <time>2021-06-14T13:39:14Z</time>
      </trkpt>
      <trkpt lat="46.60655" lon="5.3039">
        <ele>232</ele>
        <time>2021-06-14T13:39:16Z</time>
      </trkpt>
      <trkpt lat="46.60646" lon="5.30398">
        <ele>232.4</ele>
        <time>2021-06-14T13:39:18Z</time>
      </trkpt>
      <trkpt lat="46.60637" lon="5.30405">
        <ele>232.6</ele>
        <time>2021-06-14T13:39:20Z</time>
      </trkpt>
      <trkpt lat="46.60623" lon="5.30416">
        <ele>232.8</ele>
        <time>2021-06-14T13:39:22Z</time>
      </trkpt>
      <trkpt lat="46.60623" lon="5.30416">
        <ele>233</ele>
        <time>2021-06-14T13:39:23Z</time>
      </trkpt>
      <trkpt lat="46.60618" lon="5.3042">
        <ele>233</ele>
        <time>2021-06-14T13:39:24Z</time>
      </trkpt>
      <trkpt lat="46.60609" lon="5.30428">
        <ele>233.4</ele>
        <time>2021-06-14T13:39:26Z</time>
      </trkpt>
      <trkpt lat="46.60604" lon="5.30432">
        <ele>233.6</ele>
        <time>2021-06-14T13:39:27Z</time>
      </trkpt>
      <trkpt lat="46.606" lon="5.30436">
        <ele>233.8</ele>
        <time>2021-06-14T13:39:28Z</time>
      </trkpt>
      <trkpt lat="46.6059" lon="5.30444">
        <ele>234</ele>
        <time>2021-06-14T13:39:30Z</time>
      </trkpt>
      <trkpt lat="46.6058" lon="5.30453">
        <ele>234.4</ele>
        <time>2021-06-14T13:39:32Z</time>
      </trkpt>
      <trkpt lat="46.6057" lon="5.30461">
        <ele>234.6</ele>
        <time>2021-06-14T13:39:34Z</time>
      </trkpt>
      <trkpt lat="46.60559" lon="5.30471">
        <ele>234.6</ele>
        <time>2021-06-14T13:39:36Z</time>
      </trkpt>
      <trkpt lat="46.60548" lon="5.30481">
        <ele>234.8</ele>
        <time>2021-06-14T13:39:38Z</time>
      </trkpt>
      <trkpt lat="46.60543" lon="5.30485">
        <ele>234.8</ele>
        <time>2021-06-14T13:39:39Z</time>
      </trkpt>
      <trkpt lat="46.60537" lon="5.30489">
        <ele>234.8</ele>
        <time>2021-06-14T13:39:40Z</time>
      </trkpt>
      <trkpt lat="46.60525" lon="5.30498">
        <ele>235</ele>
        <time>2021-06-14T13:39:42Z</time>
      </trkpt>
      <trkpt lat="46.60514" lon="5.30508">
        <ele>235</ele>
        <time>2021-06-14T13:39:44Z</time>
      </trkpt>
      <trkpt lat="46.60502" lon="5.30517">
        <ele>235</ele>
        <time>2021-06-14T13:39:46Z</time>
      </trkpt>
      <trkpt lat="46.6049" lon="5.30527">
        <ele>235.2</ele>
        <time>2021-06-14T13:39:48Z</time>
      </trkpt>
      <trkpt lat="46.60478" lon="5.30537">
        <ele>235.2</ele>
        <time>2021-06-14T13:39:50Z</time>
      </trkpt>
      <trkpt lat="46.60466" lon="5.30547">
        <ele>235.2</ele>
        <time>2021-06-14T13:39:52Z</time>
      </trkpt>
      <trkpt lat="46.60455" lon="5.30556">
        <ele>235.2</ele>
        <time>2021-06-14T13:39:54Z</time>
      </trkpt>
      <trkpt lat="46.60449" lon="5.30561">
        <ele>235.2</ele>
        <time>2021-06-14T13:39:55Z</time>
      </trkpt>
      <trkpt lat="46.60443" lon="5.30566">
        <ele>235.2</ele>
        <time>2021-06-14T13:39:56Z</time>
      </trkpt>
      <trkpt lat="46.60432" lon="5.30575">
        <ele>235.2</ele>
        <time>2021-06-14T13:39:58Z</time>
      </trkpt>
      <trkpt lat="46.60426" lon="5.3058">
        <ele>235.2</ele>
        <time>2021-06-14T13:39:59Z</time>
      </trkpt>
      <trkpt lat="46.60415" lon="5.3059">
        <ele>235.2</ele>
        <time>2021-06-14T13:40:01Z</time>
      </trkpt>
      <trkpt lat="46.60403" lon="5.30599">
        <ele>235.2</ele>
        <time>2021-06-14T13:40:03Z</time>
      </trkpt>
      <trkpt lat="46.60392" lon="5.30608">
        <ele>235.2</ele>
        <time>2021-06-14T13:40:05Z</time>
      </trkpt>
      <trkpt lat="46.60381" lon="5.30617">
        <ele>235.6</ele>
        <time>2021-06-14T13:40:07Z</time>
      </trkpt>
      <trkpt lat="46.60369" lon="5.30627">
        <ele>235.6</ele>
        <time>2021-06-14T13:40:09Z</time>
      </trkpt>
      <trkpt lat="46.60357" lon="5.30637">
        <ele>235.8</ele>
        <time>2021-06-14T13:40:11Z</time>
      </trkpt>
      <trkpt lat="46.60345" lon="5.30647">
        <ele>235.8</ele>
        <time>2021-06-14T13:40:13Z</time>
      </trkpt>
      <trkpt lat="46.60333" lon="5.30658">
        <ele>235.8</ele>
        <time>2021-06-14T13:40:15Z</time>
      </trkpt>
      <trkpt lat="46.6032" lon="5.30669">
        <ele>235.8</ele>
        <time>2021-06-14T13:40:17Z</time>
      </trkpt>
      <trkpt lat="46.60306" lon="5.30679">
        <ele>235.8</ele>
        <time>2021-06-14T13:40:19Z</time>
      </trkpt>
      <trkpt lat="46.60294" lon="5.30691">
        <ele>235.4</ele>
        <time>2021-06-14T13:40:21Z</time>
      </trkpt>
      <trkpt lat="46.60281" lon="5.30704">
        <ele>235.4</ele>
        <time>2021-06-14T13:40:22Z</time>
      </trkpt>
      <trkpt lat="46.60281" lon="5.30704">
        <ele>235.4</ele>
        <time>2021-06-14T13:40:23Z</time>
      </trkpt>
      <trkpt lat="46.6027" lon="5.30718">
        <ele>235.4</ele>
        <time>2021-06-14T13:40:24Z</time>
      </trkpt>
      <trkpt lat="46.6027" lon="5.30718">
        <ele>235.4</ele>
        <time>2021-06-14T13:40:25Z</time>
      </trkpt>
      <trkpt lat="46.6026" lon="5.30735">
        <ele>235.4</ele>
        <time>2021-06-14T13:40:27Z</time>
      </trkpt>
      <trkpt lat="46.6025" lon="5.30753">
        <ele>235.2</ele>
        <time>2021-06-14T13:40:28Z</time>
      </trkpt>
      <trkpt lat="46.6025" lon="5.30753">
        <ele>235.2</ele>
        <time>2021-06-14T13:40:29Z</time>
      </trkpt>
      <trkpt lat="46.6024" lon="5.3077">
        <ele>235.2</ele>
        <time>2021-06-14T13:40:31Z</time>
      </trkpt>
      <trkpt lat="46.60231" lon="5.30787">
        <ele>235.2</ele>
        <time>2021-06-14T13:40:33Z</time>
      </trkpt>
      <trkpt lat="46.60222" lon="5.30805">
        <ele>235.2</ele>
        <time>2021-06-14T13:40:35Z</time>
      </trkpt>
      <trkpt lat="46.60212" lon="5.30822">
        <ele>234.8</ele>
        <time>2021-06-14T13:40:37Z</time>
      </trkpt>
      <trkpt lat="46.60203" lon="5.30838">
        <ele>234.6</ele>
        <time>2021-06-14T13:40:39Z</time>
      </trkpt>
      <trkpt lat="46.60194" lon="5.30855">
        <ele>234.6</ele>
        <time>2021-06-14T13:40:41Z</time>
      </trkpt>
      <trkpt lat="46.60185" lon="5.30871">
        <ele>234.6</ele>
        <time>2021-06-14T13:40:43Z</time>
      </trkpt>
      <trkpt lat="46.60176" lon="5.30888">
        <ele>234.6</ele>
        <time>2021-06-14T13:40:45Z</time>
      </trkpt>
      <trkpt lat="46.60166" lon="5.30904">
        <ele>234.6</ele>
        <time>2021-06-14T13:40:47Z</time>
      </trkpt>
      <trkpt lat="46.60157" lon="5.3092">
        <ele>234.6</ele>
        <time>2021-06-14T13:40:49Z</time>
      </trkpt>
      <trkpt lat="46.60148" lon="5.30937">
        <ele>234.6</ele>
        <time>2021-06-14T13:40:51Z</time>
      </trkpt>
      <trkpt lat="46.60135" lon="5.30962">
        <ele>234.6</ele>
        <time>2021-06-14T13:40:53Z</time>
      </trkpt>
      <trkpt lat="46.6013" lon="5.3097">
        <ele>234.6</ele>
        <time>2021-06-14T13:40:55Z</time>
      </trkpt>
      <trkpt lat="46.60122" lon="5.30985">
        <ele>234.8</ele>
        <time>2021-06-14T13:40:57Z</time>
      </trkpt>
      <trkpt lat="46.60117" lon="5.30991">
        <ele>234.8</ele>
        <time>2021-06-14T13:40:58Z</time>
      </trkpt>
      <trkpt lat="46.60111" lon="5.30994">
        <ele>234.8</ele>
        <time>2021-06-14T13:40:59Z</time>
      </trkpt>
      <trkpt lat="46.60105" lon="5.30993">
        <ele>234.8</ele>
        <time>2021-06-14T13:41:00Z</time>
      </trkpt>
      <trkpt lat="46.601" lon="5.30989">
        <ele>234.8</ele>
        <time>2021-06-14T13:41:01Z</time>
      </trkpt>
      <trkpt lat="46.6009" lon="5.30976">
        <ele>234.8</ele>
        <time>2021-06-14T13:41:03Z</time>
      </trkpt>
      <trkpt lat="46.60079" lon="5.30963">
        <ele>234.8</ele>
        <time>2021-06-14T13:41:05Z</time>
      </trkpt>
      <trkpt lat="46.60067" lon="5.30949">
        <ele>234.6</ele>
        <time>2021-06-14T13:41:07Z</time>
      </trkpt>
      <trkpt lat="46.60055" lon="5.30935">
        <ele>234.6</ele>
        <time>2021-06-14T13:41:09Z</time>
      </trkpt>
      <trkpt lat="46.60043" lon="5.30922">
        <ele>234.6</ele>
        <time>2021-06-14T13:41:11Z</time>
      </trkpt>
      <trkpt lat="46.60031" lon="5.30908">
        <ele>234.4</ele>
        <time>2021-06-14T13:41:13Z</time>
      </trkpt>
      <trkpt lat="46.60018" lon="5.30893">
        <ele>234</ele>
        <time>2021-06-14T13:41:15Z</time>
      </trkpt>
      <trkpt lat="46.60012" lon="5.30886">
        <ele>233.4</ele>
        <time>2021-06-14T13:41:16Z</time>
      </trkpt>
      <trkpt lat="46.60005" lon="5.30878">
        <ele>233</ele>
        <time>2021-06-14T13:41:17Z</time>
      </trkpt>
      <trkpt lat="46.59991" lon="5.30863">
        <ele>232.8</ele>
        <time>2021-06-14T13:41:19Z</time>
      </trkpt>
      <trkpt lat="46.59977" lon="5.30848">
        <ele>232.4</ele>
        <time>2021-06-14T13:41:21Z</time>
      </trkpt>
      <trkpt lat="46.59962" lon="5.30835">
        <ele>232</ele>
        <time>2021-06-14T13:41:23Z</time>
      </trkpt>
      <trkpt lat="46.59945" lon="5.30829">
        <ele>231.4</ele>
        <time>2021-06-14T13:41:25Z</time>
      </trkpt>
      <trkpt lat="46.59936" lon="5.30827">
        <ele>231.2</ele>
        <time>2021-06-14T13:41:26Z</time>
      </trkpt>
      <trkpt lat="46.59927" lon="5.30826">
        <ele>231.2</ele>
        <time>2021-06-14T13:41:27Z</time>
      </trkpt>
      <trkpt lat="46.59909" lon="5.30823">
        <ele>230.4</ele>
        <time>2021-06-14T13:41:29Z</time>
      </trkpt>
      <trkpt lat="46.599" lon="5.30822">
        <ele>230</ele>
        <time>2021-06-14T13:41:30Z</time>
      </trkpt>
      <trkpt lat="46.59891" lon="5.30819">
        <ele>229.6</ele>
        <time>2021-06-14T13:41:31Z</time>
      </trkpt>
      <trkpt lat="46.59873" lon="5.30815">
        <ele>229</ele>
        <time>2021-06-14T13:41:33Z</time>
      </trkpt>
      <trkpt lat="46.59864" lon="5.30812">
        <ele>228.8</ele>
        <time>2021-06-14T13:41:34Z</time>
      </trkpt>
      <trkpt lat="46.59855" lon="5.3081">
        <ele>228.6</ele>
        <time>2021-06-14T13:41:35Z</time>
      </trkpt>
      <trkpt lat="46.59837" lon="5.30805">
        <ele>228.4</ele>
        <time>2021-06-14T13:41:37Z</time>
      </trkpt>
      <trkpt lat="46.5982" lon="5.30798">
        <ele>228</ele>
        <time>2021-06-14T13:41:39Z</time>
      </trkpt>
      <trkpt lat="46.59812" lon="5.30794">
        <ele>228</ele>
        <time>2021-06-14T13:41:40Z</time>
      </trkpt>
      <trkpt lat="46.59803" lon="5.3079">
        <ele>227.8</ele>
        <time>2021-06-14T13:41:41Z</time>
      </trkpt>
      <trkpt lat="46.59786" lon="5.30784">
        <ele>227.4</ele>
        <time>2021-06-14T13:41:43Z</time>
      </trkpt>
      <trkpt lat="46.59768" lon="5.3078">
        <ele>226.4</ele>
        <time>2021-06-14T13:41:45Z</time>
      </trkpt>
      <trkpt lat="46.59749" lon="5.30781">
        <ele>226</ele>
        <time>2021-06-14T13:41:47Z</time>
      </trkpt>
      <trkpt lat="46.5973" lon="5.30783">
        <ele>225.8</ele>
        <time>2021-06-14T13:41:49Z</time>
      </trkpt>
      <trkpt lat="46.5972" lon="5.30784">
        <ele>225.8</ele>
        <time>2021-06-14T13:41:50Z</time>
      </trkpt>
      <trkpt lat="46.5971" lon="5.30784">
        <ele>225.6</ele>
        <time>2021-06-14T13:41:51Z</time>
      </trkpt>
      <trkpt lat="46.597" lon="5.30785">
        <ele>225.2</ele>
        <time>2021-06-14T13:41:52Z</time>
      </trkpt>
      <trkpt lat="46.59689" lon="5.30786">
        <ele>224.8</ele>
        <time>2021-06-14T13:41:53Z</time>
      </trkpt>
      <trkpt lat="46.59679" lon="5.30787">
        <ele>223.8</ele>
        <time>2021-06-14T13:41:54Z</time>
      </trkpt>
      <trkpt lat="46.59669" lon="5.30787">
        <ele>222.8</ele>
        <time>2021-06-14T13:41:55Z</time>
      </trkpt>
      <trkpt lat="46.59659" lon="5.30788">
        <ele>222</ele>
        <time>2021-06-14T13:41:56Z</time>
      </trkpt>
      <trkpt lat="46.59649" lon="5.30788">
        <ele>221.6</ele>
        <time>2021-06-14T13:41:57Z</time>
      </trkpt>
      <trkpt lat="46.59629" lon="5.3079">
        <ele>220.6</ele>
        <time>2021-06-14T13:41:59Z</time>
      </trkpt>
      <trkpt lat="46.5961" lon="5.30793">
        <ele>219.4</ele>
        <time>2021-06-14T13:42:01Z</time>
      </trkpt>
      <trkpt lat="46.59591" lon="5.30796">
        <ele>218.8</ele>
        <time>2021-06-14T13:42:03Z</time>
      </trkpt>
      <trkpt lat="46.59573" lon="5.30799">
        <ele>218.2</ele>
        <time>2021-06-14T13:42:05Z</time>
      </trkpt>
      <trkpt lat="46.59564" lon="5.308">
        <ele>218</ele>
        <time>2021-06-14T13:42:06Z</time>
      </trkpt>
      <trkpt lat="46.59556" lon="5.30801">
        <ele>218</ele>
        <time>2021-06-14T13:42:07Z</time>
      </trkpt>
      <trkpt lat="46.59539" lon="5.30803">
        <ele>218</ele>
        <time>2021-06-14T13:42:09Z</time>
      </trkpt>
      <trkpt lat="46.59523" lon="5.30805">
        <ele>218</ele>
        <time>2021-06-14T13:42:11Z</time>
      </trkpt>
      <trkpt lat="46.59515" lon="5.30806">
        <ele>218</ele>
        <time>2021-06-14T13:42:12Z</time>
      </trkpt>
      <trkpt lat="46.59506" lon="5.30807">
        <ele>218</ele>
        <time>2021-06-14T13:42:13Z</time>
      </trkpt>
      <trkpt lat="46.59491" lon="5.3081">
        <ele>218</ele>
        <time>2021-06-14T13:42:15Z</time>
      </trkpt>
      <trkpt lat="46.59475" lon="5.30812">
        <ele>218</ele>
        <time>2021-06-14T13:42:17Z</time>
      </trkpt>
      <trkpt lat="46.59459" lon="5.30814">
        <ele>218.2</ele>
        <time>2021-06-14T13:42:19Z</time>
      </trkpt>
      <trkpt lat="46.59444" lon="5.30816">
        <ele>218.2</ele>
        <time>2021-06-14T13:42:21Z</time>
      </trkpt>
      <trkpt lat="46.5943" lon="5.30818">
        <ele>218.4</ele>
        <time>2021-06-14T13:42:23Z</time>
      </trkpt>
      <trkpt lat="46.59416" lon="5.3082">
        <ele>218.4</ele>
        <time>2021-06-14T13:42:25Z</time>
      </trkpt>
      <trkpt lat="46.59402" lon="5.30822">
        <ele>218.6</ele>
        <time>2021-06-14T13:42:27Z</time>
      </trkpt>
      <trkpt lat="46.59389" lon="5.30824">
        <ele>218.4</ele>
        <time>2021-06-14T13:42:29Z</time>
      </trkpt>
      <trkpt lat="46.59377" lon="5.30825">
        <ele>218.6</ele>
        <time>2021-06-14T13:42:31Z</time>
      </trkpt>
      <trkpt lat="46.59365" lon="5.30826">
        <ele>218.8</ele>
        <time>2021-06-14T13:42:33Z</time>
      </trkpt>
      <trkpt lat="46.59353" lon="5.30829">
        <ele>219.2</ele>
        <time>2021-06-14T13:42:35Z</time>
      </trkpt>
      <trkpt lat="46.59342" lon="5.3083">
        <ele>220</ele>
        <time>2021-06-14T13:42:37Z</time>
      </trkpt>
      <trkpt lat="46.5933" lon="5.30832">
        <ele>220.6</ele>
        <time>2021-06-14T13:42:39Z</time>
      </trkpt>
      <trkpt lat="46.59319" lon="5.30833">
        <ele>221</ele>
        <time>2021-06-14T13:42:41Z</time>
      </trkpt>
      <trkpt lat="46.59307" lon="5.30835">
        <ele>221.4</ele>
        <time>2021-06-14T13:42:43Z</time>
      </trkpt>
      <trkpt lat="46.59302" lon="5.30836">
        <ele>221.6</ele>
        <time>2021-06-14T13:42:44Z</time>
      </trkpt>
      <trkpt lat="46.59296" lon="5.30836">
        <ele>221.6</ele>
        <time>2021-06-14T13:42:45Z</time>
      </trkpt>
      <trkpt lat="46.59285" lon="5.30838">
        <ele>222</ele>
        <time>2021-06-14T13:42:47Z</time>
      </trkpt>
      <trkpt lat="46.59274" lon="5.3084">
        <ele>222.6</ele>
        <time>2021-06-14T13:42:49Z</time>
      </trkpt>
      <trkpt lat="46.59263" lon="5.30841">
        <ele>223.2</ele>
        <time>2021-06-14T13:42:51Z</time>
      </trkpt>
      <trkpt lat="46.59253" lon="5.30842">
        <ele>223.4</ele>
        <time>2021-06-14T13:42:53Z</time>
      </trkpt>
      <trkpt lat="46.59247" lon="5.30843">
        <ele>223.8</ele>
        <time>2021-06-14T13:42:54Z</time>
      </trkpt>
      <trkpt lat="46.59242" lon="5.30843">
        <ele>223.8</ele>
        <time>2021-06-14T13:42:55Z</time>
      </trkpt>
      <trkpt lat="46.59232" lon="5.30844">
        <ele>224.4</ele>
        <time>2021-06-14T13:42:57Z</time>
      </trkpt>
      <trkpt lat="46.59221" lon="5.30846">
        <ele>224.6</ele>
        <time>2021-06-14T13:42:59Z</time>
      </trkpt>
      <trkpt lat="46.59211" lon="5.30847">
        <ele>225</ele>
        <time>2021-06-14T13:43:01Z</time>
      </trkpt>
      <trkpt lat="46.592" lon="5.30848">
        <ele>225.2</ele>
        <time>2021-06-14T13:43:03Z</time>
      </trkpt>
      <trkpt lat="46.5919" lon="5.3085">
        <ele>225.8</ele>
        <time>2021-06-14T13:43:05Z</time>
      </trkpt>
      <trkpt lat="46.59185" lon="5.30851">
        <ele>226</ele>
        <time>2021-06-14T13:43:06Z</time>
      </trkpt>
      <trkpt lat="46.5918" lon="5.30851">
        <ele>226</ele>
        <time>2021-06-14T13:43:07Z</time>
      </trkpt>
      <trkpt lat="46.5917" lon="5.30852">
        <ele>226.6</ele>
        <time>2021-06-14T13:43:09Z</time>
      </trkpt>
      <trkpt lat="46.59165" lon="5.30853">
        <ele>227.2</ele>
        <time>2021-06-14T13:43:10Z</time>
      </trkpt>
      <trkpt lat="46.5916" lon="5.30854">
        <ele>227.2</ele>
        <time>2021-06-14T13:43:11Z</time>
      </trkpt>
      <trkpt lat="46.59151" lon="5.30855">
        <ele>227.6</ele>
        <time>2021-06-14T13:43:13Z</time>
      </trkpt>
      <trkpt lat="46.59141" lon="5.30856">
        <ele>227.8</ele>
        <time>2021-06-14T13:43:15Z</time>
      </trkpt>
      <trkpt lat="46.59131" lon="5.30858">
        <ele>228</ele>
        <time>2021-06-14T13:43:17Z</time>
      </trkpt>
      <trkpt lat="46.59121" lon="5.30859">
        <ele>228.4</ele>
        <time>2021-06-14T13:43:19Z</time>
      </trkpt>
      <trkpt lat="46.59112" lon="5.3086">
        <ele>229</ele>
        <time>2021-06-14T13:43:21Z</time>
      </trkpt>
      <trkpt lat="46.59102" lon="5.30861">
        <ele>229</ele>
        <time>2021-06-14T13:43:23Z</time>
      </trkpt>
      <trkpt lat="46.59097" lon="5.30862">
        <ele>229.2</ele>
        <time>2021-06-14T13:43:24Z</time>
      </trkpt>
      <trkpt lat="46.59093" lon="5.30863">
        <ele>229.6</ele>
        <time>2021-06-14T13:43:25Z</time>
      </trkpt>
      <trkpt lat="46.59083" lon="5.30864">
        <ele>229.8</ele>
        <time>2021-06-14T13:43:27Z</time>
      </trkpt>
      <trkpt lat="46.59073" lon="5.30866">
        <ele>230.4</ele>
        <time>2021-06-14T13:43:29Z</time>
      </trkpt>
      <trkpt lat="46.59064" lon="5.30867">
        <ele>230.6</ele>
        <time>2021-06-14T13:43:31Z</time>
      </trkpt>
      <trkpt lat="46.59054" lon="5.30868">
        <ele>231</ele>
        <time>2021-06-14T13:43:33Z</time>
      </trkpt>
      <trkpt lat="46.59045" lon="5.30869">
        <ele>231.2</ele>
        <time>2021-06-14T13:43:35Z</time>
      </trkpt>
      <trkpt lat="46.5904" lon="5.3087">
        <ele>231.6</ele>
        <time>2021-06-14T13:43:36Z</time>
      </trkpt>
      <trkpt lat="46.59035" lon="5.3087">
        <ele>232.2</ele>
        <time>2021-06-14T13:43:37Z</time>
      </trkpt>
      <trkpt lat="46.59026" lon="5.30872">
        <ele>232.4</ele>
        <time>2021-06-14T13:43:39Z</time>
      </trkpt>
      <trkpt lat="46.59021" lon="5.30873">
        <ele>232.8</ele>
        <time>2021-06-14T13:43:40Z</time>
      </trkpt>
      <trkpt lat="46.59016" lon="5.30873">
        <ele>233</ele>
        <time>2021-06-14T13:43:41Z</time>
      </trkpt>
      <trkpt lat="46.59007" lon="5.30875">
        <ele>233.6</ele>
        <time>2021-06-14T13:43:43Z</time>
      </trkpt>
      <trkpt lat="46.59002" lon="5.30875">
        <ele>233.6</ele>
        <time>2021-06-14T13:43:44Z</time>
      </trkpt>
      <trkpt lat="46.58998" lon="5.30876">
        <ele>233.8</ele>
        <time>2021-06-14T13:43:45Z</time>
      </trkpt>
      <trkpt lat="46.58988" lon="5.30877">
        <ele>234.4</ele>
        <time>2021-06-14T13:43:47Z</time>
      </trkpt>
      <trkpt lat="46.58979" lon="5.30879">
        <ele>234.8</ele>
        <time>2021-06-14T13:43:49Z</time>
      </trkpt>
      <trkpt lat="46.5897" lon="5.3088">
        <ele>235</ele>
        <time>2021-06-14T13:43:51Z</time>
      </trkpt>
      <trkpt lat="46.5896" lon="5.30881">
        <ele>235.6</ele>
        <time>2021-06-14T13:43:53Z</time>
      </trkpt>
      <trkpt lat="46.58955" lon="5.30881">
        <ele>235.6</ele>
        <time>2021-06-14T13:43:54Z</time>
      </trkpt>
      <trkpt lat="46.5895" lon="5.30882">
        <ele>236</ele>
        <time>2021-06-14T13:43:55Z</time>
      </trkpt>
      <trkpt lat="46.5894" lon="5.30883">
        <ele>236.2</ele>
        <time>2021-06-14T13:43:57Z</time>
      </trkpt>
      <trkpt lat="46.5893" lon="5.30885">
        <ele>236.8</ele>
        <time>2021-06-14T13:43:59Z</time>
      </trkpt>
      <trkpt lat="46.58925" lon="5.30885">
        <ele>237</ele>
        <time>2021-06-14T13:44:00Z</time>
      </trkpt>
      <trkpt lat="46.5892" lon="5.30886">
        <ele>237.4</ele>
        <time>2021-06-14T13:44:01Z</time>
      </trkpt>
      <trkpt lat="46.5891" lon="5.30887">
        <ele>237.4</ele>
        <time>2021-06-14T13:44:03Z</time>
      </trkpt>
      <trkpt lat="46.58899" lon="5.30888">
        <ele>238.2</ele>
        <time>2021-06-14T13:44:05Z</time>
      </trkpt>
      <trkpt lat="46.58888" lon="5.3089">
        <ele>238.6</ele>
        <time>2021-06-14T13:44:07Z</time>
      </trkpt>
      <trkpt lat="46.58878" lon="5.30891">
        <ele>238.6</ele>
        <time>2021-06-14T13:44:09Z</time>
      </trkpt>
      <trkpt lat="46.58867" lon="5.30893">
        <ele>238.8</ele>
        <time>2021-06-14T13:44:11Z</time>
      </trkpt>
      <trkpt lat="46.58856" lon="5.30895">
        <ele>238.8</ele>
        <time>2021-06-14T13:44:13Z</time>
      </trkpt>
      <trkpt lat="46.5885" lon="5.30896">
        <ele>238.8</ele>
        <time>2021-06-14T13:44:14Z</time>
      </trkpt>
      <trkpt lat="46.58844" lon="5.30897">
        <ele>238.8</ele>
        <time>2021-06-14T13:44:15Z</time>
      </trkpt>
      <trkpt lat="46.58833" lon="5.30899">
        <ele>238.8</ele>
        <time>2021-06-14T13:44:17Z</time>
      </trkpt>
      <trkpt lat="46.58822" lon="5.30902">
        <ele>238.8</ele>
        <time>2021-06-14T13:44:19Z</time>
      </trkpt>
      <trkpt lat="46.58811" lon="5.30907">
        <ele>238.8</ele>
        <time>2021-06-14T13:44:21Z</time>
      </trkpt>
      <trkpt lat="46.58805" lon="5.30911">
        <ele>239</ele>
        <time>2021-06-14T13:44:22Z</time>
      </trkpt>
      <trkpt lat="46.58799" lon="5.30915">
        <ele>238.8</ele>
        <time>2021-06-14T13:44:23Z</time>
      </trkpt>
      <trkpt lat="46.58794" lon="5.3092">
        <ele>238.8</ele>
        <time>2021-06-14T13:44:24Z</time>
      </trkpt>
      <trkpt lat="46.58783" lon="5.30931">
        <ele>238.8</ele>
        <time>2021-06-14T13:44:26Z</time>
      </trkpt>
      <trkpt lat="46.58777" lon="5.30937">
        <ele>238.8</ele>
        <time>2021-06-14T13:44:27Z</time>
      </trkpt>
      <trkpt lat="46.58771" lon="5.30944">
        <ele>238.8</ele>
        <time>2021-06-14T13:44:28Z</time>
      </trkpt>
      <trkpt lat="46.58764" lon="5.3095">
        <ele>238.8</ele>
        <time>2021-06-14T13:44:29Z</time>
      </trkpt>
      <trkpt lat="46.58751" lon="5.30963">
        <ele>238.6</ele>
        <time>2021-06-14T13:44:31Z</time>
      </trkpt>
      <trkpt lat="46.58738" lon="5.30977">
        <ele>237.8</ele>
        <time>2021-06-14T13:44:33Z</time>
      </trkpt>
      <trkpt lat="46.58731" lon="5.30984">
        <ele>237.6</ele>
        <time>2021-06-14T13:44:34Z</time>
      </trkpt>
      <trkpt lat="46.58724" lon="5.30991">
        <ele>237.4</ele>
        <time>2021-06-14T13:44:35Z</time>
      </trkpt>
      <trkpt lat="46.58717" lon="5.30999">
        <ele>237.2</ele>
        <time>2021-06-14T13:44:36Z</time>
      </trkpt>
      <trkpt lat="46.5871" lon="5.31006">
        <ele>237</ele>
        <time>2021-06-14T13:44:37Z</time>
      </trkpt>
      <trkpt lat="46.58696" lon="5.31021">
        <ele>236.4</ele>
        <time>2021-06-14T13:44:39Z</time>
      </trkpt>
      <trkpt lat="46.58689" lon="5.31029">
        <ele>236</ele>
        <time>2021-06-14T13:44:40Z</time>
      </trkpt>
      <trkpt lat="46.58682" lon="5.31036">
        <ele>235.2</ele>
        <time>2021-06-14T13:44:41Z</time>
      </trkpt>
      <trkpt lat="46.58668" lon="5.31051">
        <ele>234.8</ele>
        <time>2021-06-14T13:44:43Z</time>
      </trkpt>
      <trkpt lat="46.58654" lon="5.31065">
        <ele>234.4</ele>
        <time>2021-06-14T13:44:45Z</time>
      </trkpt>
      <trkpt lat="46.5864" lon="5.3108">
        <ele>234.2</ele>
        <time>2021-06-14T13:44:47Z</time>
      </trkpt>
      <trkpt lat="46.58626" lon="5.31094">
        <ele>234.2</ele>
        <time>2021-06-14T13:44:49Z</time>
      </trkpt>
      <trkpt lat="46.58613" lon="5.31107">
        <ele>234.2</ele>
        <time>2021-06-14T13:44:51Z</time>
      </trkpt>
      <trkpt lat="46.586" lon="5.31121">
        <ele>234.2</ele>
        <time>2021-06-14T13:44:53Z</time>
      </trkpt>
      <trkpt lat="46.58587" lon="5.31134">
        <ele>234.2</ele>
        <time>2021-06-14T13:44:55Z</time>
      </trkpt>
      <trkpt lat="46.58574" lon="5.31146">
        <ele>234.2</ele>
        <time>2021-06-14T13:44:57Z</time>
      </trkpt>
      <trkpt lat="46.58562" lon="5.31158">
        <ele>234.2</ele>
        <time>2021-06-14T13:44:59Z</time>
      </trkpt>
      <trkpt lat="46.58549" lon="5.31169">
        <ele>234.4</ele>
        <time>2021-06-14T13:45:01Z</time>
      </trkpt>
      <trkpt lat="46.58536" lon="5.31178">
        <ele>234.8</ele>
        <time>2021-06-14T13:45:03Z</time>
      </trkpt>
      <trkpt lat="46.58523" lon="5.31186">
        <ele>235.2</ele>
        <time>2021-06-14T13:45:05Z</time>
      </trkpt>
      <trkpt lat="46.58509" lon="5.31193">
        <ele>235.4</ele>
        <time>2021-06-14T13:45:07Z</time>
      </trkpt>
      <trkpt lat="46.58496" lon="5.31198">
        <ele>235.4</ele>
        <time>2021-06-14T13:45:09Z</time>
      </trkpt>
      <trkpt lat="46.58482" lon="5.31204">
        <ele>235.6</ele>
        <time>2021-06-14T13:45:11Z</time>
      </trkpt>
      <trkpt lat="46.58469" lon="5.31209">
        <ele>235.8</ele>
        <time>2021-06-14T13:45:13Z</time>
      </trkpt>
      <trkpt lat="46.58455" lon="5.31214">
        <ele>235.8</ele>
        <time>2021-06-14T13:45:15Z</time>
      </trkpt>
      <trkpt lat="46.58448" lon="5.31217">
        <ele>235.8</ele>
        <time>2021-06-14T13:45:16Z</time>
      </trkpt>
      <trkpt lat="46.58441" lon="5.3122">
        <ele>235.8</ele>
        <time>2021-06-14T13:45:17Z</time>
      </trkpt>
      <trkpt lat="46.58427" lon="5.31226">
        <ele>236</ele>
        <time>2021-06-14T13:45:19Z</time>
      </trkpt>
      <trkpt lat="46.58413" lon="5.31232">
        <ele>235.8</ele>
        <time>2021-06-14T13:45:21Z</time>
      </trkpt>
      <trkpt lat="46.58398" lon="5.31238">
        <ele>236</ele>
        <time>2021-06-14T13:45:23Z</time>
      </trkpt>
      <trkpt lat="46.58391" lon="5.31241">
        <ele>236</ele>
        <time>2021-06-14T13:45:24Z</time>
      </trkpt>
      <trkpt lat="46.58384" lon="5.31244">
        <ele>236</ele>
        <time>2021-06-14T13:45:25Z</time>
      </trkpt>
      <trkpt lat="46.5837" lon="5.3125">
        <ele>236</ele>
        <time>2021-06-14T13:45:27Z</time>
      </trkpt>
      <trkpt lat="46.58356" lon="5.31257">
        <ele>236</ele>
        <time>2021-06-14T13:45:29Z</time>
      </trkpt>
      <trkpt lat="46.58342" lon="5.31264">
        <ele>236</ele>
        <time>2021-06-14T13:45:31Z</time>
      </trkpt>
      <trkpt lat="46.58335" lon="5.31268">
        <ele>235.8</ele>
        <time>2021-06-14T13:45:32Z</time>
      </trkpt>
      <trkpt lat="46.58329" lon="5.31272">
        <ele>235.8</ele>
        <time>2021-06-14T13:45:33Z</time>
      </trkpt>
      <trkpt lat="46.58316" lon="5.31281">
        <ele>235.8</ele>
        <time>2021-06-14T13:45:35Z</time>
      </trkpt>
      <trkpt lat="46.58303" lon="5.31291">
        <ele>236</ele>
        <time>2021-06-14T13:45:37Z</time>
      </trkpt>
      <trkpt lat="46.58297" lon="5.31296">
        <ele>236</ele>
        <time>2021-06-14T13:45:38Z</time>
      </trkpt>
      <trkpt lat="46.58291" lon="5.31301">
        <ele>236</ele>
        <time>2021-06-14T13:45:39Z</time>
      </trkpt>
      <trkpt lat="46.58279" lon="5.31311">
        <ele>236</ele>
        <time>2021-06-14T13:45:41Z</time>
      </trkpt>
      <trkpt lat="46.58267" lon="5.31321">
        <ele>236.2</ele>
        <time>2021-06-14T13:45:43Z</time>
      </trkpt>
      <trkpt lat="46.58255" lon="5.3133">
        <ele>236.2</ele>
        <time>2021-06-14T13:45:45Z</time>
      </trkpt>
      <trkpt lat="46.58242" lon="5.3134">
        <ele>236.4</ele>
        <time>2021-06-14T13:45:47Z</time>
      </trkpt>
      <trkpt lat="46.5823" lon="5.3135">
        <ele>236.6</ele>
        <time>2021-06-14T13:45:49Z</time>
      </trkpt>
      <trkpt lat="46.58219" lon="5.3136">
        <ele>237</ele>
        <time>2021-06-14T13:45:51Z</time>
      </trkpt>
      <trkpt lat="46.58207" lon="5.31369">
        <ele>237.2</ele>
        <time>2021-06-14T13:45:53Z</time>
      </trkpt>
      <trkpt lat="46.58195" lon="5.31378">
        <ele>237.4</ele>
        <time>2021-06-14T13:45:55Z</time>
      </trkpt>
      <trkpt lat="46.58183" lon="5.31388">
        <ele>237.8</ele>
        <time>2021-06-14T13:45:57Z</time>
      </trkpt>
      <trkpt lat="46.58177" lon="5.31392">
        <ele>238</ele>
        <time>2021-06-14T13:45:58Z</time>
      </trkpt>
      <trkpt lat="46.58171" lon="5.31397">
        <ele>238</ele>
        <time>2021-06-14T13:45:59Z</time>
      </trkpt>
      <trkpt lat="46.58166" lon="5.31402">
        <ele>238</ele>
        <time>2021-06-14T13:46:00Z</time>
      </trkpt>
      <trkpt lat="46.5816" lon="5.31406">
        <ele>238.2</ele>
        <time>2021-06-14T13:46:01Z</time>
      </trkpt>
      <trkpt lat="46.58148" lon="5.31415">
        <ele>238.2</ele>
        <time>2021-06-14T13:46:03Z</time>
      </trkpt>
      <trkpt lat="46.58135" lon="5.31423">
        <ele>238.6</ele>
        <time>2021-06-14T13:46:05Z</time>
      </trkpt>
      <trkpt lat="46.58128" lon="5.31425">
        <ele>238.8</ele>
        <time>2021-06-14T13:46:06Z</time>
      </trkpt>
      <trkpt lat="46.58122" lon="5.31427">
        <ele>239</ele>
        <time>2021-06-14T13:46:07Z</time>
      </trkpt>
      <trkpt lat="46.58108" lon="5.31427">
        <ele>239.2</ele>
        <time>2021-06-14T13:46:09Z</time>
      </trkpt>
      <trkpt lat="46.581" lon="5.31427">
        <ele>239.4</ele>
        <time>2021-06-14T13:46:10Z</time>
      </trkpt>
      <trkpt lat="46.58093" lon="5.31426">
        <ele>239.4</ele>
        <time>2021-06-14T13:46:11Z</time>
      </trkpt>
      <trkpt lat="46.58079" lon="5.31424">
        <ele>239.4</ele>
        <time>2021-06-14T13:46:12Z</time>
      </trkpt>
      <trkpt lat="46.58079" lon="5.31424">
        <ele>239.6</ele>
        <time>2021-06-14T13:46:13Z</time>
      </trkpt>
      <trkpt lat="46.58064" lon="5.31423">
        <ele>239.6</ele>
        <time>2021-06-14T13:46:15Z</time>
      </trkpt>
      <trkpt lat="46.58049" lon="5.31423">
        <ele>239.6</ele>
        <time>2021-06-14T13:46:17Z</time>
      </trkpt>
      <trkpt lat="46.58034" lon="5.31424">
        <ele>239.6</ele>
        <time>2021-06-14T13:46:19Z</time>
      </trkpt>
      <trkpt lat="46.58027" lon="5.31425">
        <ele>239.6</ele>
        <time>2021-06-14T13:46:20Z</time>
      </trkpt>
      <trkpt lat="46.5802" lon="5.31427">
        <ele>239.6</ele>
        <time>2021-06-14T13:46:21Z</time>
      </trkpt>
      <trkpt lat="46.58005" lon="5.31432">
        <ele>239.6</ele>
        <time>2021-06-14T13:46:23Z</time>
      </trkpt>
      <trkpt lat="46.57991" lon="5.31437">
        <ele>239.6</ele>
        <time>2021-06-14T13:46:25Z</time>
      </trkpt>
      <trkpt lat="46.57983" lon="5.31439">
        <ele>239.6</ele>
        <time>2021-06-14T13:46:26Z</time>
      </trkpt>
      <trkpt lat="46.57976" lon="5.31441">
        <ele>239.6</ele>
        <time>2021-06-14T13:46:27Z</time>
      </trkpt>
      <trkpt lat="46.57962" lon="5.31445">
        <ele>239.6</ele>
        <time>2021-06-14T13:46:29Z</time>
      </trkpt>
      <trkpt lat="46.57947" lon="5.31448">
        <ele>239.6</ele>
        <time>2021-06-14T13:46:31Z</time>
      </trkpt>
      <trkpt lat="46.57933" lon="5.31452">
        <ele>239.6</ele>
        <time>2021-06-14T13:46:33Z</time>
      </trkpt>
      <trkpt lat="46.57919" lon="5.31457">
        <ele>239.6</ele>
        <time>2021-06-14T13:46:34Z</time>
      </trkpt>
      <trkpt lat="46.57919" lon="5.31457">
        <ele>239.6</ele>
        <time>2021-06-14T13:46:35Z</time>
      </trkpt>
      <trkpt lat="46.57905" lon="5.31461">
        <ele>239.6</ele>
        <time>2021-06-14T13:46:37Z</time>
      </trkpt>
      <trkpt lat="46.57892" lon="5.31465">
        <ele>239.8</ele>
        <time>2021-06-14T13:46:39Z</time>
      </trkpt>
      <trkpt lat="46.57878" lon="5.31469">
        <ele>239.8</ele>
        <time>2021-06-14T13:46:41Z</time>
      </trkpt>
      <trkpt lat="46.57864" lon="5.31473">
        <ele>240</ele>
        <time>2021-06-14T13:46:43Z</time>
      </trkpt>
      <trkpt lat="46.57857" lon="5.31475">
        <ele>240</ele>
        <time>2021-06-14T13:46:44Z</time>
      </trkpt>
      <trkpt lat="46.57851" lon="5.31477">
        <ele>240.2</ele>
        <time>2021-06-14T13:46:45Z</time>
      </trkpt>
      <trkpt lat="46.57837" lon="5.31482">
        <ele>240.4</ele>
        <time>2021-06-14T13:46:47Z</time>
      </trkpt>
      <trkpt lat="46.57824" lon="5.31488">
        <ele>240.6</ele>
        <time>2021-06-14T13:46:49Z</time>
      </trkpt>
      <trkpt lat="46.57811" lon="5.31495">
        <ele>240.8</ele>
        <time>2021-06-14T13:46:51Z</time>
      </trkpt>
      <trkpt lat="46.57804" lon="5.31499">
        <ele>241</ele>
        <time>2021-06-14T13:46:52Z</time>
      </trkpt>
      <trkpt lat="46.57798" lon="5.31503">
        <ele>241.2</ele>
        <time>2021-06-14T13:46:53Z</time>
      </trkpt>
      <trkpt lat="46.57786" lon="5.31512">
        <ele>241.2</ele>
        <time>2021-06-14T13:46:55Z</time>
      </trkpt>
      <trkpt lat="46.57774" lon="5.31522">
        <ele>241.4</ele>
        <time>2021-06-14T13:46:57Z</time>
      </trkpt>
      <trkpt lat="46.57763" lon="5.31532">
        <ele>242</ele>
        <time>2021-06-14T13:46:59Z</time>
      </trkpt>
      <trkpt lat="46.57751" lon="5.31541">
        <ele>242.2</ele>
        <time>2021-06-14T13:47:00Z</time>
      </trkpt>
      <trkpt lat="46.57751" lon="5.31541">
        <ele>242.4</ele>
        <time>2021-06-14T13:47:01Z</time>
      </trkpt>
      <trkpt lat="46.57739" lon="5.3155">
        <ele>242.6</ele>
        <time>2021-06-14T13:47:03Z</time>
      </trkpt>
      <trkpt lat="46.5772" lon="5.31562">
        <ele>242.8</ele>
        <time>2021-06-14T13:47:05Z</time>
      </trkpt>
      <trkpt lat="46.57714" lon="5.31566">
        <ele>243</ele>
        <time>2021-06-14T13:47:07Z</time>
      </trkpt>
      <trkpt lat="46.57701" lon="5.31572">
        <ele>243</ele>
        <time>2021-06-14T13:47:09Z</time>
      </trkpt>
      <trkpt lat="46.57689" lon="5.31577">
        <ele>243.2</ele>
        <time>2021-06-14T13:47:11Z</time>
      </trkpt>
      <trkpt lat="46.57676" lon="5.3158">
        <ele>243.4</ele>
        <time>2021-06-14T13:47:13Z</time>
      </trkpt>
      <trkpt lat="46.57663" lon="5.31583">
        <ele>243.4</ele>
        <time>2021-06-14T13:47:15Z</time>
      </trkpt>
      <trkpt lat="46.5765" lon="5.31585">
        <ele>243.6</ele>
        <time>2021-06-14T13:47:17Z</time>
      </trkpt>
      <trkpt lat="46.57636" lon="5.31586">
        <ele>243.6</ele>
        <time>2021-06-14T13:47:19Z</time>
      </trkpt>
      <trkpt lat="46.57623" lon="5.31588">
        <ele>243.8</ele>
        <time>2021-06-14T13:47:21Z</time>
      </trkpt>
      <trkpt lat="46.5761" lon="5.3159">
        <ele>243.8</ele>
        <time>2021-06-14T13:47:23Z</time>
      </trkpt>
      <trkpt lat="46.57596" lon="5.31592">
        <ele>243.8</ele>
        <time>2021-06-14T13:47:25Z</time>
      </trkpt>
      <trkpt lat="46.57583" lon="5.31593">
        <ele>243.8</ele>
        <time>2021-06-14T13:47:27Z</time>
      </trkpt>
      <trkpt lat="46.5757" lon="5.31596">
        <ele>243.8</ele>
        <time>2021-06-14T13:47:29Z</time>
      </trkpt>
      <trkpt lat="46.57556" lon="5.31598">
        <ele>243.8</ele>
        <time>2021-06-14T13:47:31Z</time>
      </trkpt>
      <trkpt lat="46.57543" lon="5.316">
        <ele>243.8</ele>
        <time>2021-06-14T13:47:33Z</time>
      </trkpt>
      <trkpt lat="46.57529" lon="5.31602">
        <ele>243.8</ele>
        <time>2021-06-14T13:47:35Z</time>
      </trkpt>
      <trkpt lat="46.57515" lon="5.31604">
        <ele>243.8</ele>
        <time>2021-06-14T13:47:37Z</time>
      </trkpt>
      <trkpt lat="46.57501" lon="5.31606">
        <ele>243.8</ele>
        <time>2021-06-14T13:47:39Z</time>
      </trkpt>
      <trkpt lat="46.57487" lon="5.31607">
        <ele>243.8</ele>
        <time>2021-06-14T13:47:41Z</time>
      </trkpt>
      <trkpt lat="46.57473" lon="5.31609">
        <ele>243.8</ele>
        <time>2021-06-14T13:47:43Z</time>
      </trkpt>
      <trkpt lat="46.57459" lon="5.31611">
        <ele>243.8</ele>
        <time>2021-06-14T13:47:45Z</time>
      </trkpt>
      <trkpt lat="46.57451" lon="5.31612">
        <ele>243.8</ele>
        <time>2021-06-14T13:47:46Z</time>
      </trkpt>
      <trkpt lat="46.57444" lon="5.31612">
        <ele>243.8</ele>
        <time>2021-06-14T13:47:47Z</time>
      </trkpt>
      <trkpt lat="46.57429" lon="5.31612">
        <ele>243.8</ele>
        <time>2021-06-14T13:47:49Z</time>
      </trkpt>
      <trkpt lat="46.57414" lon="5.31612">
        <ele>243.8</ele>
        <time>2021-06-14T13:47:51Z</time>
      </trkpt>
      <trkpt lat="46.57399" lon="5.31612">
        <ele>243.8</ele>
        <time>2021-06-14T13:47:53Z</time>
      </trkpt>
      <trkpt lat="46.57385" lon="5.31612">
        <ele>243.8</ele>
        <time>2021-06-14T13:47:55Z</time>
      </trkpt>
      <trkpt lat="46.57377" lon="5.31611">
        <ele>243.8</ele>
        <time>2021-06-14T13:47:56Z</time>
      </trkpt>
      <trkpt lat="46.5737" lon="5.3161">
        <ele>243.8</ele>
        <time>2021-06-14T13:47:57Z</time>
      </trkpt>
      <trkpt lat="46.57362" lon="5.31608">
        <ele>243.8</ele>
        <time>2021-06-14T13:47:58Z</time>
      </trkpt>
      <trkpt lat="46.57355" lon="5.31605">
        <ele>243.8</ele>
        <time>2021-06-14T13:47:59Z</time>
      </trkpt>
      <trkpt lat="46.57341" lon="5.31595">
        <ele>243.8</ele>
        <time>2021-06-14T13:48:01Z</time>
      </trkpt>
      <trkpt lat="46.57329" lon="5.31583">
        <ele>243.8</ele>
        <time>2021-06-14T13:48:03Z</time>
      </trkpt>
      <trkpt lat="46.57318" lon="5.3157">
        <ele>243.8</ele>
        <time>2021-06-14T13:48:05Z</time>
      </trkpt>
      <trkpt lat="46.57308" lon="5.31555">
        <ele>243.8</ele>
        <time>2021-06-14T13:48:06Z</time>
      </trkpt>
      <trkpt lat="46.57308" lon="5.31555">
        <ele>243.8</ele>
        <time>2021-06-14T13:48:07Z</time>
      </trkpt>
      <trkpt lat="46.57299" lon="5.31539">
        <ele>243.8</ele>
        <time>2021-06-14T13:48:09Z</time>
      </trkpt>
      <trkpt lat="46.57289" lon="5.31523">
        <ele>244</ele>
        <time>2021-06-14T13:48:11Z</time>
      </trkpt>
      <trkpt lat="46.57279" lon="5.31508">
        <ele>244</ele>
        <time>2021-06-14T13:48:13Z</time>
      </trkpt>
      <trkpt lat="46.57274" lon="5.31501">
        <ele>244.2</ele>
        <time>2021-06-14T13:48:14Z</time>
      </trkpt>
      <trkpt lat="46.57269" lon="5.31493">
        <ele>244.2</ele>
        <time>2021-06-14T13:48:15Z</time>
      </trkpt>
      <trkpt lat="46.57259" lon="5.31477">
        <ele>244.2</ele>
        <time>2021-06-14T13:48:16Z</time>
      </trkpt>
      <trkpt lat="46.57259" lon="5.31477">
        <ele>244.4</ele>
        <time>2021-06-14T13:48:17Z</time>
      </trkpt>
      <trkpt lat="46.57249" lon="5.3146">
        <ele>244.4</ele>
        <time>2021-06-14T13:48:18Z</time>
      </trkpt>
      <trkpt lat="46.57249" lon="5.3146">
        <ele>244.4</ele>
        <time>2021-06-14T13:48:19Z</time>
      </trkpt>
      <trkpt lat="46.57245" lon="5.31451">
        <ele>244.4</ele>
        <time>2021-06-14T13:48:20Z</time>
      </trkpt>
      <trkpt lat="46.57242" lon="5.31442">
        <ele>244.2</ele>
        <time>2021-06-14T13:48:21Z</time>
      </trkpt>
      <trkpt lat="46.57237" lon="5.31421">
        <ele>244</ele>
        <time>2021-06-14T13:48:23Z</time>
      </trkpt>
      <trkpt lat="46.57232" lon="5.314">
        <ele>243.6</ele>
        <time>2021-06-14T13:48:25Z</time>
      </trkpt>
      <trkpt lat="46.57226" lon="5.31379">
        <ele>243.6</ele>
        <time>2021-06-14T13:48:27Z</time>
      </trkpt>
      <trkpt lat="46.57218" lon="5.31359">
        <ele>243.4</ele>
        <time>2021-06-14T13:48:28Z</time>
      </trkpt>
      <trkpt lat="46.57218" lon="5.31359">
        <ele>243.4</ele>
        <time>2021-06-14T13:48:29Z</time>
      </trkpt>
      <trkpt lat="46.57208" lon="5.31342">
        <ele>243.4</ele>
        <time>2021-06-14T13:48:30Z</time>
      </trkpt>
      <trkpt lat="46.57208" lon="5.31342">
        <ele>243.2</ele>
        <time>2021-06-14T13:48:31Z</time>
      </trkpt>
      <trkpt lat="46.57196" lon="5.31326">
        <ele>243</ele>
        <time>2021-06-14T13:48:33Z</time>
      </trkpt>
      <trkpt lat="46.57184" lon="5.31312">
        <ele>242.6</ele>
        <time>2021-06-14T13:48:34Z</time>
      </trkpt>
      <trkpt lat="46.57184" lon="5.31312">
        <ele>242.4</ele>
        <time>2021-06-14T13:48:35Z</time>
      </trkpt>
      <trkpt lat="46.57169" lon="5.313">
        <ele>242.2</ele>
        <time>2021-06-14T13:48:36Z</time>
      </trkpt>
      <trkpt lat="46.57169" lon="5.313">
        <ele>242</ele>
        <time>2021-06-14T13:48:37Z</time>
      </trkpt>
      <trkpt lat="46.57162" lon="5.31297">
        <ele>241.8</ele>
        <time>2021-06-14T13:48:38Z</time>
      </trkpt>
      <trkpt lat="46.57153" lon="5.31295">
        <ele>241.8</ele>
        <time>2021-06-14T13:48:39Z</time>
      </trkpt>
      <trkpt lat="46.57136" lon="5.31293">
        <ele>241.8</ele>
        <time>2021-06-14T13:48:40Z</time>
      </trkpt>
      <trkpt lat="46.57136" lon="5.31293">
        <ele>241.6</ele>
        <time>2021-06-14T13:48:41Z</time>
      </trkpt>
      <trkpt lat="46.57118" lon="5.31293">
        <ele>241.6</ele>
        <time>2021-06-14T13:48:43Z</time>
      </trkpt>
      <trkpt lat="46.57099" lon="5.31291">
        <ele>240.6</ele>
        <time>2021-06-14T13:48:45Z</time>
      </trkpt>
      <trkpt lat="46.5709" lon="5.31289">
        <ele>240.2</ele>
        <time>2021-06-14T13:48:46Z</time>
      </trkpt>
      <trkpt lat="46.57081" lon="5.31285">
        <ele>240.2</ele>
        <time>2021-06-14T13:48:47Z</time>
      </trkpt>
      <trkpt lat="46.57063" lon="5.31274">
        <ele>239.8</ele>
        <time>2021-06-14T13:48:49Z</time>
      </trkpt>
      <trkpt lat="46.57055" lon="5.31267">
        <ele>239.6</ele>
        <time>2021-06-14T13:48:50Z</time>
      </trkpt>
      <trkpt lat="46.57047" lon="5.3126">
        <ele>239</ele>
        <time>2021-06-14T13:48:51Z</time>
      </trkpt>
      <trkpt lat="46.57031" lon="5.31246">
        <ele>238.2</ele>
        <time>2021-06-14T13:48:53Z</time>
      </trkpt>
      <trkpt lat="46.57015" lon="5.31232">
        <ele>237.6</ele>
        <time>2021-06-14T13:48:55Z</time>
      </trkpt>
      <trkpt lat="46.57" lon="5.31218">
        <ele>237.2</ele>
        <time>2021-06-14T13:48:57Z</time>
      </trkpt>
      <trkpt lat="46.56985" lon="5.31204">
        <ele>237</ele>
        <time>2021-06-14T13:48:58Z</time>
      </trkpt>
      <trkpt lat="46.56985" lon="5.31204">
        <ele>237</ele>
        <time>2021-06-14T13:48:59Z</time>
      </trkpt>
      <trkpt lat="46.5697" lon="5.31191">
        <ele>237</ele>
        <time>2021-06-14T13:49:01Z</time>
      </trkpt>
      <trkpt lat="46.56954" lon="5.31178">
        <ele>236.8</ele>
        <time>2021-06-14T13:49:03Z</time>
      </trkpt>
      <trkpt lat="46.56939" lon="5.31165">
        <ele>236.8</ele>
        <time>2021-06-14T13:49:05Z</time>
      </trkpt>
      <trkpt lat="46.56931" lon="5.3116">
        <ele>236.8</ele>
        <time>2021-06-14T13:49:06Z</time>
      </trkpt>
      <trkpt lat="46.56923" lon="5.31156">
        <ele>236.8</ele>
        <time>2021-06-14T13:49:07Z</time>
      </trkpt>
      <trkpt lat="46.56906" lon="5.31153">
        <ele>236.8</ele>
        <time>2021-06-14T13:49:09Z</time>
      </trkpt>
      <trkpt lat="46.56888" lon="5.31151">
        <ele>236.6</ele>
        <time>2021-06-14T13:49:11Z</time>
      </trkpt>
      <trkpt lat="46.5687" lon="5.31146">
        <ele>236.6</ele>
        <time>2021-06-14T13:49:13Z</time>
      </trkpt>
      <trkpt lat="46.56853" lon="5.31136">
        <ele>236.4</ele>
        <time>2021-06-14T13:49:15Z</time>
      </trkpt>
      <trkpt lat="46.56839" lon="5.31121">
        <ele>236.2</ele>
        <time>2021-06-14T13:49:17Z</time>
      </trkpt>
      <trkpt lat="46.56826" lon="5.31102">
        <ele>236</ele>
        <time>2021-06-14T13:49:18Z</time>
      </trkpt>
      <trkpt lat="46.56826" lon="5.31102">
        <ele>235.6</ele>
        <time>2021-06-14T13:49:19Z</time>
      </trkpt>
      <trkpt lat="46.56821" lon="5.31092">
        <ele>235.4</ele>
        <time>2021-06-14T13:49:20Z</time>
      </trkpt>
      <trkpt lat="46.56817" lon="5.31081">
        <ele>235</ele>
        <time>2021-06-14T13:49:21Z</time>
      </trkpt>
      <trkpt lat="46.56811" lon="5.31058">
        <ele>234.8</ele>
        <time>2021-06-14T13:49:22Z</time>
      </trkpt>
      <trkpt lat="46.56811" lon="5.31058">
        <ele>234.6</ele>
        <time>2021-06-14T13:49:23Z</time>
      </trkpt>
      <trkpt lat="46.56807" lon="5.31034">
        <ele>234.4</ele>
        <time>2021-06-14T13:49:24Z</time>
      </trkpt>
      <trkpt lat="46.56807" lon="5.31034">
        <ele>234.4</ele>
        <time>2021-06-14T13:49:25Z</time>
      </trkpt>
      <trkpt lat="46.56807" lon="5.31022">
        <ele>234.2</ele>
        <time>2021-06-14T13:49:26Z</time>
      </trkpt>
      <trkpt lat="46.56808" lon="5.30999">
        <ele>234</ele>
        <time>2021-06-14T13:49:27Z</time>
      </trkpt>
      <trkpt lat="46.5681" lon="5.30975">
        <ele>234</ele>
        <time>2021-06-14T13:49:29Z</time>
      </trkpt>
      <trkpt lat="46.56811" lon="5.30952">
        <ele>233.8</ele>
        <time>2021-06-14T13:49:31Z</time>
      </trkpt>
      <trkpt lat="46.56811" lon="5.30929">
        <ele>233.8</ele>
        <time>2021-06-14T13:49:33Z</time>
      </trkpt>
      <trkpt lat="46.5681" lon="5.30917">
        <ele>233.6</ele>
        <time>2021-06-14T13:49:35Z</time>
      </trkpt>
      <trkpt lat="46.56808" lon="5.30895">
        <ele>233.6</ele>
        <time>2021-06-14T13:49:37Z</time>
      </trkpt>
      <trkpt lat="46.56805" lon="5.30873">
        <ele>233.6</ele>
        <time>2021-06-14T13:49:39Z</time>
      </trkpt>
      <trkpt lat="46.56801" lon="5.30853">
        <ele>233.6</ele>
        <time>2021-06-14T13:49:41Z</time>
      </trkpt>
      <trkpt lat="46.56797" lon="5.30832">
        <ele>233.6</ele>
        <time>2021-06-14T13:49:43Z</time>
      </trkpt>
      <trkpt lat="46.56793" lon="5.30812">
        <ele>233.6</ele>
        <time>2021-06-14T13:49:45Z</time>
      </trkpt>
      <trkpt lat="46.56787" lon="5.30793">
        <ele>233.8</ele>
        <time>2021-06-14T13:49:46Z</time>
      </trkpt>
      <trkpt lat="46.56787" lon="5.30793">
        <ele>233.8</ele>
        <time>2021-06-14T13:49:47Z</time>
      </trkpt>
      <trkpt lat="46.56779" lon="5.30776">
        <ele>233.8</ele>
        <time>2021-06-14T13:49:48Z</time>
      </trkpt>
      <trkpt lat="46.56779" lon="5.30776">
        <ele>233.8</ele>
        <time>2021-06-14T13:49:49Z</time>
      </trkpt>
      <trkpt lat="46.56771" lon="5.3076">
        <ele>234</ele>
        <time>2021-06-14T13:49:51Z</time>
      </trkpt>
      <trkpt lat="46.56764" lon="5.30744">
        <ele>234.2</ele>
        <time>2021-06-14T13:49:52Z</time>
      </trkpt>
      <trkpt lat="46.56764" lon="5.30744">
        <ele>234.4</ele>
        <time>2021-06-14T13:49:53Z</time>
      </trkpt>
      <trkpt lat="46.56757" lon="5.30729">
        <ele>234.8</ele>
        <time>2021-06-14T13:49:54Z</time>
      </trkpt>
      <trkpt lat="46.56757" lon="5.30729">
        <ele>234.8</ele>
        <time>2021-06-14T13:49:55Z</time>
      </trkpt>
      <trkpt lat="46.56749" lon="5.30714">
        <ele>235.2</ele>
        <time>2021-06-14T13:49:57Z</time>
      </trkpt>
      <trkpt lat="46.56742" lon="5.307">
        <ele>235.6</ele>
        <time>2021-06-14T13:49:59Z</time>
      </trkpt>
      <trkpt lat="46.56738" lon="5.30693">
        <ele>235.8</ele>
        <time>2021-06-14T13:50:00Z</time>
      </trkpt>
      <trkpt lat="46.56734" lon="5.30686">
        <ele>236</ele>
        <time>2021-06-14T13:50:01Z</time>
      </trkpt>
      <trkpt lat="46.56726" lon="5.30673">
        <ele>236.6</ele>
        <time>2021-06-14T13:50:03Z</time>
      </trkpt>
      <trkpt lat="46.56717" lon="5.30661">
        <ele>237</ele>
        <time>2021-06-14T13:50:04Z</time>
      </trkpt>
      <trkpt lat="46.56717" lon="5.30661">
        <ele>237.4</ele>
        <time>2021-06-14T13:50:05Z</time>
      </trkpt>
      <trkpt lat="46.56708" lon="5.3065">
        <ele>238</ele>
        <time>2021-06-14T13:50:07Z</time>
      </trkpt>
      <trkpt lat="46.56698" lon="5.30641">
        <ele>238.4</ele>
        <time>2021-06-14T13:50:09Z</time>
      </trkpt>
      <trkpt lat="46.56688" lon="5.30631">
        <ele>238.4</ele>
        <time>2021-06-14T13:50:11Z</time>
      </trkpt>
      <trkpt lat="46.56678" lon="5.30623">
        <ele>238.8</ele>
        <time>2021-06-14T13:50:13Z</time>
      </trkpt>
      <trkpt lat="46.56667" lon="5.30615">
        <ele>239.2</ele>
        <time>2021-06-14T13:50:15Z</time>
      </trkpt>
      <trkpt lat="46.56656" lon="5.30609">
        <ele>239.4</ele>
        <time>2021-06-14T13:50:16Z</time>
      </trkpt>
      <trkpt lat="46.56656" lon="5.30609">
        <ele>239.4</ele>
        <time>2021-06-14T13:50:17Z</time>
      </trkpt>
      <trkpt lat="46.56644" lon="5.30603">
        <ele>239.6</ele>
        <time>2021-06-14T13:50:18Z</time>
      </trkpt>
      <trkpt lat="46.56644" lon="5.30603">
        <ele>239.6</ele>
        <time>2021-06-14T13:50:19Z</time>
      </trkpt>
      <trkpt lat="46.56632" lon="5.30599">
        <ele>239.8</ele>
        <time>2021-06-14T13:50:21Z</time>
      </trkpt>
      <trkpt lat="46.5662" lon="5.30597">
        <ele>239.8</ele>
        <time>2021-06-14T13:50:22Z</time>
      </trkpt>
      <trkpt lat="46.56613" lon="5.30596">
        <ele>239.8</ele>
        <time>2021-06-14T13:50:23Z</time>
      </trkpt>
      <trkpt lat="46.56601" lon="5.30594">
        <ele>239.8</ele>
        <time>2021-06-14T13:50:25Z</time>
      </trkpt>
      <trkpt lat="46.56588" lon="5.30593">
        <ele>239.8</ele>
        <time>2021-06-14T13:50:27Z</time>
      </trkpt>
      <trkpt lat="46.56575" lon="5.30593">
        <ele>239.8</ele>
        <time>2021-06-14T13:50:29Z</time>
      </trkpt>
      <trkpt lat="46.56569" lon="5.30594">
        <ele>239.8</ele>
        <time>2021-06-14T13:50:31Z</time>
      </trkpt>
      <trkpt lat="46.56549" lon="5.30596">
        <ele>239.8</ele>
        <time>2021-06-14T13:50:33Z</time>
      </trkpt>
      <trkpt lat="46.56536" lon="5.30598">
        <ele>239.8</ele>
        <time>2021-06-14T13:50:35Z</time>
      </trkpt>
      <trkpt lat="46.56523" lon="5.306">
        <ele>239.8</ele>
        <time>2021-06-14T13:50:37Z</time>
      </trkpt>
      <trkpt lat="46.5651" lon="5.30602">
        <ele>239.8</ele>
        <time>2021-06-14T13:50:39Z</time>
      </trkpt>
      <trkpt lat="46.56503" lon="5.30603">
        <ele>239.8</ele>
        <time>2021-06-14T13:50:40Z</time>
      </trkpt>
      <trkpt lat="46.56497" lon="5.30604">
        <ele>239.8</ele>
        <time>2021-06-14T13:50:41Z</time>
      </trkpt>
      <trkpt lat="46.56484" lon="5.30606">
        <ele>239.8</ele>
        <time>2021-06-14T13:50:43Z</time>
      </trkpt>
      <trkpt lat="46.56477" lon="5.30608">
        <ele>239.8</ele>
        <time>2021-06-14T13:50:45Z</time>
      </trkpt>
      <trkpt lat="46.56465" lon="5.30611">
        <ele>239.8</ele>
        <time>2021-06-14T13:50:46Z</time>
      </trkpt>
      <trkpt lat="46.56465" lon="5.30611">
        <ele>240</ele>
        <time>2021-06-14T13:50:47Z</time>
      </trkpt>
      <trkpt lat="46.56453" lon="5.30614">
        <ele>240</ele>
        <time>2021-06-14T13:50:48Z</time>
      </trkpt>
      <trkpt lat="46.56453" lon="5.30614">
        <ele>240</ele>
        <time>2021-06-14T13:50:49Z</time>
      </trkpt>
      <trkpt lat="46.56442" lon="5.30617">
        <ele>240</ele>
        <time>2021-06-14T13:50:51Z</time>
      </trkpt>
      <trkpt lat="46.56434" lon="5.30611">
        <ele>240.2</ele>
        <time>2021-06-14T13:50:53Z</time>
      </trkpt>
      <trkpt lat="46.56431" lon="5.30607">
        <ele>240.4</ele>
        <time>2021-06-14T13:50:55Z</time>
      </trkpt>
      <trkpt lat="46.56428" lon="5.30605">
        <ele>241.6</ele>
        <time>2021-06-14T13:51:16Z</time>
      </trkpt>
      <trkpt lat="46.56428" lon="5.30605">
        <ele>241.6</ele>
        <time>2021-06-14T13:51:17Z</time>
      </trkpt>
      <trkpt lat="46.56423" lon="5.30606">
        <ele>241.6</ele>
        <time>2021-06-14T13:51:18Z</time>
      </trkpt>
      <trkpt lat="46.56423" lon="5.30606">
        <ele>241.6</ele>
        <time>2021-06-14T13:51:19Z</time>
      </trkpt>
      <trkpt lat="46.56419" lon="5.30607">
        <ele>241.6</ele>
        <time>2021-06-14T13:51:20Z</time>
      </trkpt>
      <trkpt lat="46.56415" lon="5.30608">
        <ele>241.6</ele>
        <time>2021-06-14T13:51:21Z</time>
      </trkpt>
      <trkpt lat="46.56406" lon="5.30602">
        <ele>241.4</ele>
        <time>2021-06-14T13:51:23Z</time>
      </trkpt>
      <trkpt lat="46.56399" lon="5.30591">
        <ele>241.4</ele>
        <time>2021-06-14T13:51:24Z</time>
      </trkpt>
      <trkpt lat="46.56399" lon="5.30591">
        <ele>241.4</ele>
        <time>2021-06-14T13:51:25Z</time>
      </trkpt>
      <trkpt lat="46.56391" lon="5.3058">
        <ele>241.2</ele>
        <time>2021-06-14T13:51:27Z</time>
      </trkpt>
      <trkpt lat="46.56387" lon="5.30574">
        <ele>241</ele>
        <time>2021-06-14T13:51:28Z</time>
      </trkpt>
      <trkpt lat="46.56383" lon="5.30568">
        <ele>241</ele>
        <time>2021-06-14T13:51:29Z</time>
      </trkpt>
      <trkpt lat="46.56374" lon="5.30557">
        <ele>241</ele>
        <time>2021-06-14T13:51:31Z</time>
      </trkpt>
      <trkpt lat="46.56365" lon="5.30544">
        <ele>240.8</ele>
        <time>2021-06-14T13:51:33Z</time>
      </trkpt>
      <trkpt lat="46.56355" lon="5.30531">
        <ele>240.8</ele>
        <time>2021-06-14T13:51:35Z</time>
      </trkpt>
      <trkpt lat="46.56346" lon="5.30518">
        <ele>240.8</ele>
        <time>2021-06-14T13:51:37Z</time>
      </trkpt>
      <trkpt lat="46.56336" lon="5.30506">
        <ele>241</ele>
        <time>2021-06-14T13:51:39Z</time>
      </trkpt>
      <trkpt lat="46.56327" lon="5.30493">
        <ele>241</ele>
        <time>2021-06-14T13:51:41Z</time>
      </trkpt>
      <trkpt lat="46.56317" lon="5.3048">
        <ele>241.2</ele>
        <time>2021-06-14T13:51:43Z</time>
      </trkpt>
      <trkpt lat="46.56312" lon="5.30473">
        <ele>241.2</ele>
        <time>2021-06-14T13:51:44Z</time>
      </trkpt>
      <trkpt lat="46.56302" lon="5.3046">
        <ele>241.2</ele>
        <time>2021-06-14T13:51:45Z</time>
      </trkpt>
      <trkpt lat="46.56292" lon="5.30447">
        <ele>241.2</ele>
        <time>2021-06-14T13:51:47Z</time>
      </trkpt>
      <trkpt lat="46.56282" lon="5.30433">
        <ele>241.2</ele>
        <time>2021-06-14T13:51:49Z</time>
      </trkpt>
      <trkpt lat="46.56272" lon="5.3042">
        <ele>241.2</ele>
        <time>2021-06-14T13:51:51Z</time>
      </trkpt>
      <trkpt lat="46.56262" lon="5.30406">
        <ele>241.2</ele>
        <time>2021-06-14T13:51:53Z</time>
      </trkpt>
      <trkpt lat="46.56257" lon="5.30399">
        <ele>241.2</ele>
        <time>2021-06-14T13:51:55Z</time>
      </trkpt>
      <trkpt lat="46.56243" lon="5.30378">
        <ele>241.2</ele>
        <time>2021-06-14T13:51:57Z</time>
      </trkpt>
      <trkpt lat="46.56238" lon="5.30371">
        <ele>241.2</ele>
        <time>2021-06-14T13:51:58Z</time>
      </trkpt>
      <trkpt lat="46.56238" lon="5.30371">
        <ele>241.2</ele>
        <time>2021-06-14T13:51:59Z</time>
      </trkpt>
      <trkpt lat="46.56229" lon="5.30356">
        <ele>240.6</ele>
        <time>2021-06-14T13:52:01Z</time>
      </trkpt>
      <trkpt lat="46.56225" lon="5.30349">
        <ele>240.4</ele>
        <time>2021-06-14T13:52:02Z</time>
      </trkpt>
      <trkpt lat="46.56221" lon="5.30341">
        <ele>240.4</ele>
        <time>2021-06-14T13:52:03Z</time>
      </trkpt>
      <trkpt lat="46.56213" lon="5.30325">
        <ele>240.4</ele>
        <time>2021-06-14T13:52:05Z</time>
      </trkpt>
      <trkpt lat="46.56204" lon="5.3031">
        <ele>240.4</ele>
        <time>2021-06-14T13:52:06Z</time>
      </trkpt>
      <trkpt lat="46.56204" lon="5.3031">
        <ele>240.2</ele>
        <time>2021-06-14T13:52:07Z</time>
      </trkpt>
      <trkpt lat="46.56195" lon="5.30296">
        <ele>240.2</ele>
        <time>2021-06-14T13:52:09Z</time>
      </trkpt>
      <trkpt lat="46.56185" lon="5.30283">
        <ele>240.2</ele>
        <time>2021-06-14T13:52:11Z</time>
      </trkpt>
      <trkpt lat="46.56176" lon="5.3027">
        <ele>240.2</ele>
        <time>2021-06-14T13:52:13Z</time>
      </trkpt>
      <trkpt lat="46.56171" lon="5.30263">
        <ele>240.2</ele>
        <time>2021-06-14T13:52:14Z</time>
      </trkpt>
      <trkpt lat="46.56166" lon="5.30257">
        <ele>240.2</ele>
        <time>2021-06-14T13:52:15Z</time>
      </trkpt>
      <trkpt lat="46.56156" lon="5.30245">
        <ele>240.2</ele>
        <time>2021-06-14T13:52:17Z</time>
      </trkpt>
      <trkpt lat="46.56147" lon="5.30232">
        <ele>240.2</ele>
        <time>2021-06-14T13:52:19Z</time>
      </trkpt>
      <trkpt lat="46.56137" lon="5.30219">
        <ele>240.2</ele>
        <time>2021-06-14T13:52:21Z</time>
      </trkpt>
      <trkpt lat="46.56122" lon="5.30199">
        <ele>240.4</ele>
        <time>2021-06-14T13:52:23Z</time>
      </trkpt>
      <trkpt lat="46.56117" lon="5.30192">
        <ele>240.4</ele>
        <time>2021-06-14T13:52:25Z</time>
      </trkpt>
      <trkpt lat="46.56102" lon="5.30171">
        <ele>240.4</ele>
        <time>2021-06-14T13:52:27Z</time>
      </trkpt>
      <trkpt lat="46.56092" lon="5.30158">
        <ele>240.4</ele>
        <time>2021-06-14T13:52:29Z</time>
      </trkpt>
      <trkpt lat="46.56081" lon="5.30144">
        <ele>240.6</ele>
        <time>2021-06-14T13:52:31Z</time>
      </trkpt>
      <trkpt lat="46.56071" lon="5.3013">
        <ele>240.6</ele>
        <time>2021-06-14T13:52:33Z</time>
      </trkpt>
      <trkpt lat="46.5606" lon="5.30116">
        <ele>240.4</ele>
        <time>2021-06-14T13:52:35Z</time>
      </trkpt>
      <trkpt lat="46.56055" lon="5.30108">
        <ele>240.4</ele>
        <time>2021-06-14T13:52:36Z</time>
      </trkpt>
      <trkpt lat="46.5605" lon="5.30101">
        <ele>240.4</ele>
        <time>2021-06-14T13:52:37Z</time>
      </trkpt>
      <trkpt lat="46.56038" lon="5.30085">
        <ele>240.4</ele>
        <time>2021-06-14T13:52:39Z</time>
      </trkpt>
      <trkpt lat="46.56032" lon="5.30077">
        <ele>240</ele>
        <time>2021-06-14T13:52:41Z</time>
      </trkpt>
      <trkpt lat="46.56019" lon="5.3006">
        <ele>239.6</ele>
        <time>2021-06-14T13:52:43Z</time>
      </trkpt>
      <trkpt lat="46.56013" lon="5.30051">
        <ele>239.4</ele>
        <time>2021-06-14T13:52:44Z</time>
      </trkpt>
      <trkpt lat="46.55999" lon="5.30033">
        <ele>239.2</ele>
        <time>2021-06-14T13:52:45Z</time>
      </trkpt>
      <trkpt lat="46.55986" lon="5.30015">
        <ele>238.8</ele>
        <time>2021-06-14T13:52:47Z</time>
      </trkpt>
      <trkpt lat="46.55972" lon="5.29996">
        <ele>238</ele>
        <time>2021-06-14T13:52:49Z</time>
      </trkpt>
      <trkpt lat="46.55958" lon="5.29977">
        <ele>237</ele>
        <time>2021-06-14T13:52:51Z</time>
      </trkpt>
      <trkpt lat="46.55944" lon="5.29959">
        <ele>236.2</ele>
        <time>2021-06-14T13:52:53Z</time>
      </trkpt>
      <trkpt lat="46.55938" lon="5.2995">
        <ele>235.8</ele>
        <time>2021-06-14T13:52:54Z</time>
      </trkpt>
      <trkpt lat="46.55938" lon="5.2995">
        <ele>235.2</ele>
        <time>2021-06-14T13:52:55Z</time>
      </trkpt>
      <trkpt lat="46.55932" lon="5.29942">
        <ele>234.6</ele>
        <time>2021-06-14T13:52:56Z</time>
      </trkpt>
      <trkpt lat="46.5592" lon="5.29926">
        <ele>234.2</ele>
        <time>2021-06-14T13:52:57Z</time>
      </trkpt>
      <trkpt lat="46.55909" lon="5.29912">
        <ele>234</ele>
        <time>2021-06-14T13:52:59Z</time>
      </trkpt>
      <trkpt lat="46.559" lon="5.29899">
        <ele>234</ele>
        <time>2021-06-14T13:53:01Z</time>
      </trkpt>
      <trkpt lat="46.55891" lon="5.29887">
        <ele>234</ele>
        <time>2021-06-14T13:53:03Z</time>
      </trkpt>
      <trkpt lat="46.55881" lon="5.29875">
        <ele>234</ele>
        <time>2021-06-14T13:53:05Z</time>
      </trkpt>
      <trkpt lat="46.55877" lon="5.29869">
        <ele>234.6</ele>
        <time>2021-06-14T13:53:07Z</time>
      </trkpt>
      <trkpt lat="46.55865" lon="5.29852">
        <ele>235.6</ele>
        <time>2021-06-14T13:53:09Z</time>
      </trkpt>
      <trkpt lat="46.55861" lon="5.29847">
        <ele>236</ele>
        <time>2021-06-14T13:53:10Z</time>
      </trkpt>
      <trkpt lat="46.55857" lon="5.29842">
        <ele>236.4</ele>
        <time>2021-06-14T13:53:11Z</time>
      </trkpt>
      <trkpt lat="46.55849" lon="5.29831">
        <ele>237.4</ele>
        <time>2021-06-14T13:53:13Z</time>
      </trkpt>
      <trkpt lat="46.55841" lon="5.29821">
        <ele>237.8</ele>
        <time>2021-06-14T13:53:15Z</time>
      </trkpt>
      <trkpt lat="46.55832" lon="5.29809">
        <ele>238.6</ele>
        <time>2021-06-14T13:53:17Z</time>
      </trkpt>
      <trkpt lat="46.55823" lon="5.29797">
        <ele>238.8</ele>
        <time>2021-06-14T13:53:19Z</time>
      </trkpt>
      <trkpt lat="46.55818" lon="5.29791">
        <ele>239</ele>
        <time>2021-06-14T13:53:21Z</time>
      </trkpt>
      <trkpt lat="46.55809" lon="5.29778">
        <ele>239.2</ele>
        <time>2021-06-14T13:53:23Z</time>
      </trkpt>
      <trkpt lat="46.558" lon="5.29766">
        <ele>239.2</ele>
        <time>2021-06-14T13:53:25Z</time>
      </trkpt>
      <trkpt lat="46.55791" lon="5.29754">
        <ele>239.2</ele>
        <time>2021-06-14T13:53:27Z</time>
      </trkpt>
      <trkpt lat="46.55783" lon="5.29741">
        <ele>239.2</ele>
        <time>2021-06-14T13:53:28Z</time>
      </trkpt>
      <trkpt lat="46.55783" lon="5.29741">
        <ele>239.2</ele>
        <time>2021-06-14T13:53:29Z</time>
      </trkpt>
      <trkpt lat="46.55779" lon="5.29728">
        <ele>239.2</ele>
        <time>2021-06-14T13:53:31Z</time>
      </trkpt>
      <trkpt lat="46.55776" lon="5.29722">
        <ele>239.2</ele>
        <time>2021-06-14T13:53:32Z</time>
      </trkpt>
      <trkpt lat="46.55772" lon="5.29717">
        <ele>239</ele>
        <time>2021-06-14T13:53:33Z</time>
      </trkpt>
      <trkpt lat="46.55755" lon="5.29706">
        <ele>239</ele>
        <time>2021-06-14T13:53:35Z</time>
      </trkpt>
      <trkpt lat="46.55742" lon="5.29699">
        <ele>238.8</ele>
        <time>2021-06-14T13:53:37Z</time>
      </trkpt>
      <trkpt lat="46.55728" lon="5.29693">
        <ele>238.8</ele>
        <time>2021-06-14T13:53:39Z</time>
      </trkpt>
      <trkpt lat="46.55712" lon="5.29688">
        <ele>238.6</ele>
        <time>2021-06-14T13:53:41Z</time>
      </trkpt>
      <trkpt lat="46.55704" lon="5.29687">
        <ele>238.6</ele>
        <time>2021-06-14T13:53:42Z</time>
      </trkpt>
      <trkpt lat="46.55696" lon="5.29686">
        <ele>238.6</ele>
        <time>2021-06-14T13:53:43Z</time>
      </trkpt>
      <trkpt lat="46.55679" lon="5.29686">
        <ele>237.8</ele>
        <time>2021-06-14T13:53:45Z</time>
      </trkpt>
      <trkpt lat="46.5567" lon="5.29685">
        <ele>237.2</ele>
        <time>2021-06-14T13:53:47Z</time>
      </trkpt>
      <trkpt lat="46.55652" lon="5.29682">
        <ele>236.8</ele>
        <time>2021-06-14T13:53:48Z</time>
      </trkpt>
      <trkpt lat="46.55644" lon="5.29679">
        <ele>236.4</ele>
        <time>2021-06-14T13:53:49Z</time>
      </trkpt>
      <trkpt lat="46.55644" lon="5.29679">
        <ele>235.6</ele>
        <time>2021-06-14T13:53:50Z</time>
      </trkpt>
      <trkpt lat="46.55627" lon="5.29672">
        <ele>235</ele>
        <time>2021-06-14T13:53:51Z</time>
      </trkpt>
      <trkpt lat="46.55619" lon="5.29668">
        <ele>234.6</ele>
        <time>2021-06-14T13:53:52Z</time>
      </trkpt>
      <trkpt lat="46.55611" lon="5.29664">
        <ele>233.6</ele>
        <time>2021-06-14T13:53:53Z</time>
      </trkpt>
      <trkpt lat="46.55603" lon="5.2966">
        <ele>233.2</ele>
        <time>2021-06-14T13:53:54Z</time>
      </trkpt>
      <trkpt lat="46.55595" lon="5.29656">
        <ele>232.8</ele>
        <time>2021-06-14T13:53:55Z</time>
      </trkpt>
      <trkpt lat="46.55579" lon="5.29647">
        <ele>232.6</ele>
        <time>2021-06-14T13:53:57Z</time>
      </trkpt>
      <trkpt lat="46.55564" lon="5.29637">
        <ele>232.2</ele>
        <time>2021-06-14T13:53:59Z</time>
      </trkpt>
      <trkpt lat="46.55549" lon="5.29626">
        <ele>232.2</ele>
        <time>2021-06-14T13:54:01Z</time>
      </trkpt>
      <trkpt lat="46.55549" lon="5.29626">
        <ele>232</ele>
        <time>2021-06-14T13:54:02Z</time>
      </trkpt>
      <trkpt lat="46.55542" lon="5.29621">
        <ele>232</ele>
        <time>2021-06-14T13:54:03Z</time>
      </trkpt>
      <trkpt lat="46.55527" lon="5.2961">
        <ele>231.8</ele>
        <time>2021-06-14T13:54:05Z</time>
      </trkpt>
      <trkpt lat="46.55513" lon="5.296">
        <ele>231.8</ele>
        <time>2021-06-14T13:54:07Z</time>
      </trkpt>
      <trkpt lat="46.55498" lon="5.29589">
        <ele>231.6</ele>
        <time>2021-06-14T13:54:09Z</time>
      </trkpt>
      <trkpt lat="46.55484" lon="5.29579">
        <ele>231.6</ele>
        <time>2021-06-14T13:54:11Z</time>
      </trkpt>
      <trkpt lat="46.5547" lon="5.29568">
        <ele>231.6</ele>
        <time>2021-06-14T13:54:12Z</time>
      </trkpt>
      <trkpt lat="46.5547" lon="5.29568">
        <ele>231.4</ele>
        <time>2021-06-14T13:54:13Z</time>
      </trkpt>
      <trkpt lat="46.55456" lon="5.29558">
        <ele>231.4</ele>
        <time>2021-06-14T13:54:15Z</time>
      </trkpt>
      <trkpt lat="46.55442" lon="5.29548">
        <ele>231.4</ele>
        <time>2021-06-14T13:54:17Z</time>
      </trkpt>
      <trkpt lat="46.55429" lon="5.29538">
        <ele>231.2</ele>
        <time>2021-06-14T13:54:19Z</time>
      </trkpt>
      <trkpt lat="46.55414" lon="5.2953">
        <ele>231.2</ele>
        <time>2021-06-14T13:54:21Z</time>
      </trkpt>
      <trkpt lat="46.55407" lon="5.29526">
        <ele>231.2</ele>
        <time>2021-06-14T13:54:22Z</time>
      </trkpt>
      <trkpt lat="46.554" lon="5.29522">
        <ele>231.2</ele>
        <time>2021-06-14T13:54:23Z</time>
      </trkpt>
      <trkpt lat="46.55386" lon="5.29515">
        <ele>231.2</ele>
        <time>2021-06-14T13:54:25Z</time>
      </trkpt>
      <trkpt lat="46.55371" lon="5.2951">
        <ele>231.2</ele>
        <time>2021-06-14T13:54:27Z</time>
      </trkpt>
      <trkpt lat="46.55356" lon="5.29506">
        <ele>231.2</ele>
        <time>2021-06-14T13:54:28Z</time>
      </trkpt>
      <trkpt lat="46.55356" lon="5.29506">
        <ele>231.2</ele>
        <time>2021-06-14T13:54:29Z</time>
      </trkpt>
      <trkpt lat="46.55341" lon="5.29504">
        <ele>231.2</ele>
        <time>2021-06-14T13:54:31Z</time>
      </trkpt>
      <trkpt lat="46.55326" lon="5.29502">
        <ele>231.4</ele>
        <time>2021-06-14T13:54:33Z</time>
      </trkpt>
      <trkpt lat="46.55311" lon="5.29498">
        <ele>231.4</ele>
        <time>2021-06-14T13:54:35Z</time>
      </trkpt>
      <trkpt lat="46.55296" lon="5.29492">
        <ele>231.6</ele>
        <time>2021-06-14T13:54:36Z</time>
      </trkpt>
      <trkpt lat="46.55296" lon="5.29492">
        <ele>231.6</ele>
        <time>2021-06-14T13:54:37Z</time>
      </trkpt>
      <trkpt lat="46.55289" lon="5.29487">
        <ele>231.6</ele>
        <time>2021-06-14T13:54:38Z</time>
      </trkpt>
      <trkpt lat="46.55283" lon="5.29482">
        <ele>231.6</ele>
        <time>2021-06-14T13:54:39Z</time>
      </trkpt>
      <trkpt lat="46.55274" lon="5.29468">
        <ele>231.8</ele>
        <time>2021-06-14T13:54:40Z</time>
      </trkpt>
      <trkpt lat="46.55274" lon="5.29468">
        <ele>231.8</ele>
        <time>2021-06-14T13:54:41Z</time>
      </trkpt>
      <trkpt lat="46.5527" lon="5.2945">
        <ele>232</ele>
        <time>2021-06-14T13:54:42Z</time>
      </trkpt>
      <trkpt lat="46.5527" lon="5.2945">
        <ele>232</ele>
        <time>2021-06-14T13:54:43Z</time>
      </trkpt>
      <trkpt lat="46.55268" lon="5.29442">
        <ele>232.2</ele>
        <time>2021-06-14T13:54:44Z</time>
      </trkpt>
      <trkpt lat="46.55266" lon="5.29434">
        <ele>232.4</ele>
        <time>2021-06-14T13:54:45Z</time>
      </trkpt>
      <trkpt lat="46.55262" lon="5.29419">
        <ele>232.8</ele>
        <time>2021-06-14T13:54:47Z</time>
      </trkpt>
      <trkpt lat="46.55256" lon="5.29397">
        <ele>233.4</ele>
        <time>2021-06-14T13:54:49Z</time>
      </trkpt>
      <trkpt lat="46.55253" lon="5.29382">
        <ele>234.8</ele>
        <time>2021-06-14T13:54:51Z</time>
      </trkpt>
      <trkpt lat="46.55251" lon="5.29374">
        <ele>235.4</ele>
        <time>2021-06-14T13:54:52Z</time>
      </trkpt>
      <trkpt lat="46.55251" lon="5.29374">
        <ele>235.8</ele>
        <time>2021-06-14T13:54:53Z</time>
      </trkpt>
      <trkpt lat="46.55251" lon="5.29358">
        <ele>236.4</ele>
        <time>2021-06-14T13:54:54Z</time>
      </trkpt>
      <trkpt lat="46.55251" lon="5.29358">
        <ele>236.8</ele>
        <time>2021-06-14T13:54:55Z</time>
      </trkpt>
      <trkpt lat="46.55252" lon="5.29349">
        <ele>237</ele>
        <time>2021-06-14T13:54:56Z</time>
      </trkpt>
      <trkpt lat="46.55254" lon="5.29341">
        <ele>237.2</ele>
        <time>2021-06-14T13:54:57Z</time>
      </trkpt>
      <trkpt lat="46.55259" lon="5.29322">
        <ele>237.2</ele>
        <time>2021-06-14T13:54:59Z</time>
      </trkpt>
      <trkpt lat="46.55265" lon="5.29302">
        <ele>237.2</ele>
        <time>2021-06-14T13:55:00Z</time>
      </trkpt>
      <trkpt lat="46.55265" lon="5.29302">
        <ele>237.2</ele>
        <time>2021-06-14T13:55:01Z</time>
      </trkpt>
      <trkpt lat="46.55271" lon="5.2928">
        <ele>237.2</ele>
        <time>2021-06-14T13:55:03Z</time>
      </trkpt>
      <trkpt lat="46.55278" lon="5.29256">
        <ele>237.2</ele>
        <time>2021-06-14T13:55:05Z</time>
      </trkpt>
      <trkpt lat="46.55285" lon="5.29232">
        <ele>236</ele>
        <time>2021-06-14T13:55:07Z</time>
      </trkpt>
      <trkpt lat="46.55291" lon="5.29208">
        <ele>234.6</ele>
        <time>2021-06-14T13:55:09Z</time>
      </trkpt>
      <trkpt lat="46.55291" lon="5.29182">
        <ele>234</ele>
        <time>2021-06-14T13:55:10Z</time>
      </trkpt>
      <trkpt lat="46.55291" lon="5.29182">
        <ele>233.4</ele>
        <time>2021-06-14T13:55:11Z</time>
      </trkpt>
      <trkpt lat="46.55282" lon="5.2916">
        <ele>232.4</ele>
        <time>2021-06-14T13:55:12Z</time>
      </trkpt>
      <trkpt lat="46.55282" lon="5.2916">
        <ele>231.8</ele>
        <time>2021-06-14T13:55:13Z</time>
      </trkpt>
      <trkpt lat="46.55276" lon="5.29151">
        <ele>231.4</ele>
        <time>2021-06-14T13:55:14Z</time>
      </trkpt>
      <trkpt lat="46.55269" lon="5.29143">
        <ele>231</ele>
        <time>2021-06-14T13:55:15Z</time>
      </trkpt>
      <trkpt lat="46.55255" lon="5.29125">
        <ele>230.6</ele>
        <time>2021-06-14T13:55:16Z</time>
      </trkpt>
      <trkpt lat="46.55255" lon="5.29125">
        <ele>230.6</ele>
        <time>2021-06-14T13:55:17Z</time>
      </trkpt>
      <trkpt lat="46.55233" lon="5.29093">
        <ele>230.2</ele>
        <time>2021-06-14T13:55:19Z</time>
      </trkpt>
      <trkpt lat="46.55219" lon="5.2907">
        <ele>229.8</ele>
        <time>2021-06-14T13:55:21Z</time>
      </trkpt>
      <trkpt lat="46.55213" lon="5.29057">
        <ele>229.6</ele>
        <time>2021-06-14T13:55:22Z</time>
      </trkpt>
      <trkpt lat="46.55213" lon="5.29057">
        <ele>229.2</ele>
        <time>2021-06-14T13:55:23Z</time>
      </trkpt>
      <trkpt lat="46.55198" lon="5.29032">
        <ele>228.2</ele>
        <time>2021-06-14T13:55:25Z</time>
      </trkpt>
      <trkpt lat="46.55183" lon="5.29006">
        <ele>226.4</ele>
        <time>2021-06-14T13:55:27Z</time>
      </trkpt>
      <trkpt lat="46.55169" lon="5.2898">
        <ele>224.8</ele>
        <time>2021-06-14T13:55:29Z</time>
      </trkpt>
      <trkpt lat="46.55156" lon="5.28952">
        <ele>224.2</ele>
        <time>2021-06-14T13:55:30Z</time>
      </trkpt>
      <trkpt lat="46.55156" lon="5.28952">
        <ele>223</ele>
        <time>2021-06-14T13:55:31Z</time>
      </trkpt>
      <trkpt lat="46.55151" lon="5.28938">
        <ele>222</ele>
        <time>2021-06-14T13:55:32Z</time>
      </trkpt>
      <trkpt lat="46.55148" lon="5.28922">
        <ele>221</ele>
        <time>2021-06-14T13:55:33Z</time>
      </trkpt>
      <trkpt lat="46.55147" lon="5.28907">
        <ele>220</ele>
        <time>2021-06-14T13:55:34Z</time>
      </trkpt>
      <trkpt lat="46.55147" lon="5.28892">
        <ele>219.4</ele>
        <time>2021-06-14T13:55:35Z</time>
      </trkpt>
      <trkpt lat="46.5515" lon="5.28863">
        <ele>218.6</ele>
        <time>2021-06-14T13:55:36Z</time>
      </trkpt>
      <trkpt lat="46.5515" lon="5.28863">
        <ele>217.8</ele>
        <time>2021-06-14T13:55:37Z</time>
      </trkpt>
      <trkpt lat="46.55152" lon="5.28849">
        <ele>217.2</ele>
        <time>2021-06-14T13:55:38Z</time>
      </trkpt>
      <trkpt lat="46.55153" lon="5.28836">
        <ele>217</ele>
        <time>2021-06-14T13:55:39Z</time>
      </trkpt>
      <trkpt lat="46.55155" lon="5.2881">
        <ele>216.6</ele>
        <time>2021-06-14T13:55:41Z</time>
      </trkpt>
      <trkpt lat="46.55154" lon="5.28786">
        <ele>216.6</ele>
        <time>2021-06-14T13:55:42Z</time>
      </trkpt>
      <trkpt lat="46.55154" lon="5.28786">
        <ele>216.6</ele>
        <time>2021-06-14T13:55:43Z</time>
      </trkpt>
      <trkpt lat="46.55152" lon="5.28775">
        <ele>216.6</ele>
        <time>2021-06-14T13:55:44Z</time>
      </trkpt>
      <trkpt lat="46.55148" lon="5.28765">
        <ele>216.6</ele>
        <time>2021-06-14T13:55:45Z</time>
      </trkpt>
      <trkpt lat="46.55138" lon="5.28748">
        <ele>216.4</ele>
        <time>2021-06-14T13:55:46Z</time>
      </trkpt>
      <trkpt lat="46.55133" lon="5.28741">
        <ele>216.6</ele>
        <time>2021-06-14T13:55:47Z</time>
      </trkpt>
      <trkpt lat="46.55127" lon="5.28734">
        <ele>217.6</ele>
        <time>2021-06-14T13:55:49Z</time>
      </trkpt>
      <trkpt lat="46.55112" lon="5.28711">
        <ele>218</ele>
        <time>2021-06-14T13:55:51Z</time>
      </trkpt>
      <trkpt lat="46.55107" lon="5.28702">
        <ele>218</ele>
        <time>2021-06-14T13:55:53Z</time>
      </trkpt>
      <trkpt lat="46.55098" lon="5.28686">
        <ele>218.2</ele>
        <time>2021-06-14T13:55:54Z</time>
      </trkpt>
      <trkpt lat="46.55098" lon="5.28686">
        <ele>218.2</ele>
        <time>2021-06-14T13:55:55Z</time>
      </trkpt>
      <trkpt lat="46.55089" lon="5.2867">
        <ele>218.4</ele>
        <time>2021-06-14T13:55:57Z</time>
      </trkpt>
      <trkpt lat="46.5508" lon="5.28654">
        <ele>218.4</ele>
        <time>2021-06-14T13:55:59Z</time>
      </trkpt>
      <trkpt lat="46.55072" lon="5.28639">
        <ele>218.4</ele>
        <time>2021-06-14T13:56:01Z</time>
      </trkpt>
      <trkpt lat="46.55064" lon="5.28623">
        <ele>218.6</ele>
        <time>2021-06-14T13:56:03Z</time>
      </trkpt>
      <trkpt lat="46.55056" lon="5.28609">
        <ele>218.8</ele>
        <time>2021-06-14T13:56:05Z</time>
      </trkpt>
      <trkpt lat="46.55048" lon="5.28595">
        <ele>218.8</ele>
        <time>2021-06-14T13:56:07Z</time>
      </trkpt>
      <trkpt lat="46.5504" lon="5.28581">
        <ele>218.8</ele>
        <time>2021-06-14T13:56:09Z</time>
      </trkpt>
      <trkpt lat="46.55032" lon="5.28567">
        <ele>219.2</ele>
        <time>2021-06-14T13:56:11Z</time>
      </trkpt>
      <trkpt lat="46.55024" lon="5.28554">
        <ele>219.4</ele>
        <time>2021-06-14T13:56:12Z</time>
      </trkpt>
      <trkpt lat="46.55024" lon="5.28554">
        <ele>219.4</ele>
        <time>2021-06-14T13:56:13Z</time>
      </trkpt>
      <trkpt lat="46.5502" lon="5.28547">
        <ele>219.6</ele>
        <time>2021-06-14T13:56:14Z</time>
      </trkpt>
      <trkpt lat="46.55017" lon="5.28541">
        <ele>219.8</ele>
        <time>2021-06-14T13:56:15Z</time>
      </trkpt>
      <trkpt lat="46.5501" lon="5.28527">
        <ele>220.4</ele>
        <time>2021-06-14T13:56:16Z</time>
      </trkpt>
      <trkpt lat="46.5501" lon="5.28527">
        <ele>220.6</ele>
        <time>2021-06-14T13:56:17Z</time>
      </trkpt>
      <trkpt lat="46.55002" lon="5.28514">
        <ele>221</ele>
        <time>2021-06-14T13:56:19Z</time>
      </trkpt>
      <trkpt lat="46.54995" lon="5.28501">
        <ele>221.4</ele>
        <time>2021-06-14T13:56:21Z</time>
      </trkpt>
      <trkpt lat="46.54988" lon="5.28489">
        <ele>221.6</ele>
        <time>2021-06-14T13:56:22Z</time>
      </trkpt>
      <trkpt lat="46.54988" lon="5.28489">
        <ele>222</ele>
        <time>2021-06-14T13:56:23Z</time>
      </trkpt>
      <trkpt lat="46.54981" lon="5.28477">
        <ele>222.2</ele>
        <time>2021-06-14T13:56:24Z</time>
      </trkpt>
      <trkpt lat="46.54981" lon="5.28477">
        <ele>222.2</ele>
        <time>2021-06-14T13:56:25Z</time>
      </trkpt>
      <trkpt lat="46.54973" lon="5.28467">
        <ele>222.4</ele>
        <time>2021-06-14T13:56:27Z</time>
      </trkpt>
      <trkpt lat="46.54964" lon="5.28459">
        <ele>222.6</ele>
        <time>2021-06-14T13:56:29Z</time>
      </trkpt>
      <trkpt lat="46.54954" lon="5.28453">
        <ele>222.8</ele>
        <time>2021-06-14T13:56:30Z</time>
      </trkpt>
      <trkpt lat="46.54954" lon="5.28453">
        <ele>222.8</ele>
        <time>2021-06-14T13:56:31Z</time>
      </trkpt>
      <trkpt lat="46.54944" lon="5.28448">
        <ele>223.2</ele>
        <time>2021-06-14T13:56:33Z</time>
      </trkpt>
      <trkpt lat="46.54935" lon="5.28444">
        <ele>223.6</ele>
        <time>2021-06-14T13:56:35Z</time>
      </trkpt>
      <trkpt lat="46.54925" lon="5.28438">
        <ele>224</ele>
        <time>2021-06-14T13:56:37Z</time>
      </trkpt>
      <trkpt lat="46.54915" lon="5.28433">
        <ele>224.4</ele>
        <time>2021-06-14T13:56:39Z</time>
      </trkpt>
      <trkpt lat="46.54905" lon="5.28427">
        <ele>224.8</ele>
        <time>2021-06-14T13:56:41Z</time>
      </trkpt>
      <trkpt lat="46.54896" lon="5.28419">
        <ele>225.2</ele>
        <time>2021-06-14T13:56:43Z</time>
      </trkpt>
      <trkpt lat="46.54887" lon="5.28411">
        <ele>225.8</ele>
        <time>2021-06-14T13:56:45Z</time>
      </trkpt>
      <trkpt lat="46.54877" lon="5.28404">
        <ele>225.8</ele>
        <time>2021-06-14T13:56:46Z</time>
      </trkpt>
      <trkpt lat="46.54877" lon="5.28404">
        <ele>225.8</ele>
        <time>2021-06-14T13:56:47Z</time>
      </trkpt>
      <trkpt lat="46.54868" lon="5.28397">
        <ele>226</ele>
        <time>2021-06-14T13:56:49Z</time>
      </trkpt>
      <trkpt lat="46.54859" lon="5.28391">
        <ele>226</ele>
        <time>2021-06-14T13:56:51Z</time>
      </trkpt>
      <trkpt lat="46.54849" lon="5.28385">
        <ele>226</ele>
        <time>2021-06-14T13:56:53Z</time>
      </trkpt>
      <trkpt lat="46.54841" lon="5.2838">
        <ele>226.2</ele>
        <time>2021-06-14T13:56:54Z</time>
      </trkpt>
      <trkpt lat="46.54841" lon="5.2838">
        <ele>226.4</ele>
        <time>2021-06-14T13:56:55Z</time>
      </trkpt>
      <trkpt lat="46.54832" lon="5.28376">
        <ele>226.8</ele>
        <time>2021-06-14T13:56:57Z</time>
      </trkpt>
      <trkpt lat="46.54824" lon="5.28371">
        <ele>227</ele>
        <time>2021-06-14T13:56:58Z</time>
      </trkpt>
      <trkpt lat="46.54824" lon="5.28371">
        <ele>227.2</ele>
        <time>2021-06-14T13:56:59Z</time>
      </trkpt>
      <trkpt lat="46.54816" lon="5.28365">
        <ele>227.8</ele>
        <time>2021-06-14T13:57:01Z</time>
      </trkpt>
      <trkpt lat="46.54812" lon="5.28363">
        <ele>228</ele>
        <time>2021-06-14T13:57:02Z</time>
      </trkpt>
      <trkpt lat="46.54808" lon="5.28361">
        <ele>228.2</ele>
        <time>2021-06-14T13:57:03Z</time>
      </trkpt>
      <trkpt lat="46.54801" lon="5.28355">
        <ele>228.8</ele>
        <time>2021-06-14T13:57:05Z</time>
      </trkpt>
      <trkpt lat="46.54796" lon="5.28347">
        <ele>229.2</ele>
        <time>2021-06-14T13:57:06Z</time>
      </trkpt>
      <trkpt lat="46.54796" lon="5.28347">
        <ele>229.4</ele>
        <time>2021-06-14T13:57:07Z</time>
      </trkpt>
      <trkpt lat="46.54793" lon="5.2834">
        <ele>229.8</ele>
        <time>2021-06-14T13:57:09Z</time>
      </trkpt>
      <trkpt lat="46.54793" lon="5.28335">
        <ele>229.8</ele>
        <time>2021-06-14T13:57:11Z</time>
      </trkpt>
      <trkpt lat="46.54793" lon="5.28332">
        <ele>230.2</ele>
        <time>2021-06-14T13:57:13Z</time>
      </trkpt>
      <trkpt lat="46.54793" lon="5.28331">
        <ele>230.2</ele>
        <time>2021-06-14T13:57:15Z</time>
      </trkpt>
      <trkpt lat="46.54792" lon="5.28334">
        <ele>230.8</ele>
        <time>2021-06-14T13:58:49Z</time>
      </trkpt>
      <trkpt lat="46.54791" lon="5.28338">
        <ele>230.8</ele>
        <time>2021-06-14T13:58:51Z</time>
      </trkpt>
      <trkpt lat="46.54788" lon="5.28344">
        <ele>230.8</ele>
        <time>2021-06-14T13:58:53Z</time>
      </trkpt>
      <trkpt lat="46.54784" lon="5.28353">
        <ele>230.8</ele>
        <time>2021-06-14T13:58:55Z</time>
      </trkpt>
      <trkpt lat="46.54777" lon="5.28362">
        <ele>230.8</ele>
        <time>2021-06-14T13:58:57Z</time>
      </trkpt>
      <trkpt lat="46.54769" lon="5.28373">
        <ele>230.8</ele>
        <time>2021-06-14T13:58:59Z</time>
      </trkpt>
      <trkpt lat="46.54759" lon="5.28384">
        <ele>230.8</ele>
        <time>2021-06-14T13:59:01Z</time>
      </trkpt>
      <trkpt lat="46.54754" lon="5.28389">
        <ele>230.8</ele>
        <time>2021-06-14T13:59:02Z</time>
      </trkpt>
      <trkpt lat="46.54748" lon="5.28393">
        <ele>230.8</ele>
        <time>2021-06-14T13:59:03Z</time>
      </trkpt>
      <trkpt lat="46.54735" lon="5.284">
        <ele>230.6</ele>
        <time>2021-06-14T13:59:04Z</time>
      </trkpt>
      <trkpt lat="46.54735" lon="5.284">
        <ele>230.6</ele>
        <time>2021-06-14T13:59:05Z</time>
      </trkpt>
      <trkpt lat="46.5472" lon="5.28406">
        <ele>230.4</ele>
        <time>2021-06-14T13:59:07Z</time>
      </trkpt>
      <trkpt lat="46.54705" lon="5.28413">
        <ele>230.2</ele>
        <time>2021-06-14T13:59:09Z</time>
      </trkpt>
      <trkpt lat="46.54691" lon="5.28421">
        <ele>229.4</ele>
        <time>2021-06-14T13:59:11Z</time>
      </trkpt>
      <trkpt lat="46.54676" lon="5.2843">
        <ele>228.6</ele>
        <time>2021-06-14T13:59:13Z</time>
      </trkpt>
      <trkpt lat="46.54668" lon="5.28434">
        <ele>228</ele>
        <time>2021-06-14T13:59:14Z</time>
      </trkpt>
      <trkpt lat="46.5466" lon="5.28438">
        <ele>227.4</ele>
        <time>2021-06-14T13:59:15Z</time>
      </trkpt>
      <trkpt lat="46.54643" lon="5.28445">
        <ele>227</ele>
        <time>2021-06-14T13:59:17Z</time>
      </trkpt>
      <trkpt lat="46.54625" lon="5.28449">
        <ele>226.8</ele>
        <time>2021-06-14T13:59:18Z</time>
      </trkpt>
      <trkpt lat="46.54625" lon="5.28449">
        <ele>226.4</ele>
        <time>2021-06-14T13:59:19Z</time>
      </trkpt>
      <trkpt lat="46.54608" lon="5.28451">
        <ele>226.2</ele>
        <time>2021-06-14T13:59:21Z</time>
      </trkpt>
      <trkpt lat="46.54599" lon="5.28452">
        <ele>225.8</ele>
        <time>2021-06-14T13:59:22Z</time>
      </trkpt>
      <trkpt lat="46.5459" lon="5.28452">
        <ele>225.4</ele>
        <time>2021-06-14T13:59:23Z</time>
      </trkpt>
      <trkpt lat="46.54572" lon="5.28449">
        <ele>224.8</ele>
        <time>2021-06-14T13:59:24Z</time>
      </trkpt>
      <trkpt lat="46.54572" lon="5.28449">
        <ele>224.6</ele>
        <time>2021-06-14T13:59:25Z</time>
      </trkpt>
      <trkpt lat="46.54555" lon="5.28445">
        <ele>224.2</ele>
        <time>2021-06-14T13:59:27Z</time>
      </trkpt>
      <trkpt lat="46.54546" lon="5.28443">
        <ele>224.2</ele>
        <time>2021-06-14T13:59:28Z</time>
      </trkpt>
      <trkpt lat="46.54538" lon="5.28443">
        <ele>224</ele>
        <time>2021-06-14T13:59:29Z</time>
      </trkpt>
      <trkpt lat="46.54521" lon="5.28445">
        <ele>223.6</ele>
        <time>2021-06-14T13:59:31Z</time>
      </trkpt>
      <trkpt lat="46.54504" lon="5.28447">
        <ele>222.8</ele>
        <time>2021-06-14T13:59:33Z</time>
      </trkpt>
      <trkpt lat="46.54487" lon="5.28447">
        <ele>222.6</ele>
        <time>2021-06-14T13:59:34Z</time>
      </trkpt>
      <trkpt lat="46.54487" lon="5.28447">
        <ele>222.6</ele>
        <time>2021-06-14T13:59:35Z</time>
      </trkpt>
      <trkpt lat="46.54471" lon="5.28447">
        <ele>222.4</ele>
        <time>2021-06-14T13:59:36Z</time>
      </trkpt>
      <trkpt lat="46.54471" lon="5.28447">
        <ele>222.4</ele>
        <time>2021-06-14T13:59:37Z</time>
      </trkpt>
      <trkpt lat="46.54464" lon="5.28446">
        <ele>222.4</ele>
        <time>2021-06-14T13:59:38Z</time>
      </trkpt>
      <trkpt lat="46.54456" lon="5.28446">
        <ele>222.4</ele>
        <time>2021-06-14T13:59:39Z</time>
      </trkpt>
      <trkpt lat="46.54441" lon="5.28447">
        <ele>222.4</ele>
        <time>2021-06-14T13:59:41Z</time>
      </trkpt>
      <trkpt lat="46.54426" lon="5.28453">
        <ele>222.4</ele>
        <time>2021-06-14T13:59:43Z</time>
      </trkpt>
      <trkpt lat="46.5442" lon="5.28458">
        <ele>222.4</ele>
        <time>2021-06-14T13:59:44Z</time>
      </trkpt>
      <trkpt lat="46.54413" lon="5.28464">
        <ele>222.4</ele>
        <time>2021-06-14T13:59:45Z</time>
      </trkpt>
      <trkpt lat="46.54401" lon="5.28476">
        <ele>222.6</ele>
        <time>2021-06-14T13:59:47Z</time>
      </trkpt>
      <trkpt lat="46.54389" lon="5.28487">
        <ele>222.8</ele>
        <time>2021-06-14T13:59:48Z</time>
      </trkpt>
      <trkpt lat="46.54389" lon="5.28487">
        <ele>222.8</ele>
        <time>2021-06-14T13:59:49Z</time>
      </trkpt>
      <trkpt lat="46.54377" lon="5.28497">
        <ele>223</ele>
        <time>2021-06-14T13:59:51Z</time>
      </trkpt>
      <trkpt lat="46.54364" lon="5.28506">
        <ele>223.2</ele>
        <time>2021-06-14T13:59:53Z</time>
      </trkpt>
      <trkpt lat="46.54353" lon="5.28515">
        <ele>223.6</ele>
        <time>2021-06-14T13:59:55Z</time>
      </trkpt>
      <trkpt lat="46.54341" lon="5.28524">
        <ele>224</ele>
        <time>2021-06-14T13:59:57Z</time>
      </trkpt>
      <trkpt lat="46.5433" lon="5.28533">
        <ele>224.2</ele>
        <time>2021-06-14T13:59:59Z</time>
      </trkpt>
      <trkpt lat="46.5432" lon="5.2854">
        <ele>224.8</ele>
        <time>2021-06-14T14:00:01Z</time>
      </trkpt>
      <trkpt lat="46.5431" lon="5.28548">
        <ele>225</ele>
        <time>2021-06-14T14:00:03Z</time>
      </trkpt>
      <trkpt lat="46.54301" lon="5.28555">
        <ele>225.2</ele>
        <time>2021-06-14T14:00:04Z</time>
      </trkpt>
      <trkpt lat="46.54301" lon="5.28555">
        <ele>225.4</ele>
        <time>2021-06-14T14:00:05Z</time>
      </trkpt>
      <trkpt lat="46.54292" lon="5.28561">
        <ele>226.2</ele>
        <time>2021-06-14T14:00:07Z</time>
      </trkpt>
      <trkpt lat="46.54282" lon="5.28567">
        <ele>226.8</ele>
        <time>2021-06-14T14:00:09Z</time>
      </trkpt>
      <trkpt lat="46.54273" lon="5.28574">
        <ele>227.2</ele>
        <time>2021-06-14T14:00:11Z</time>
      </trkpt>
      <trkpt lat="46.54265" lon="5.2858">
        <ele>227.8</ele>
        <time>2021-06-14T14:00:13Z</time>
      </trkpt>
      <trkpt lat="46.5426" lon="5.28583">
        <ele>228</ele>
        <time>2021-06-14T14:00:14Z</time>
      </trkpt>
      <trkpt lat="46.54256" lon="5.28586">
        <ele>228.4</ele>
        <time>2021-06-14T14:00:15Z</time>
      </trkpt>
      <trkpt lat="46.54248" lon="5.28592">
        <ele>228.8</ele>
        <time>2021-06-14T14:00:17Z</time>
      </trkpt>
      <trkpt lat="46.54239" lon="5.28597">
        <ele>229.2</ele>
        <time>2021-06-14T14:00:19Z</time>
      </trkpt>
      <trkpt lat="46.54231" lon="5.28601">
        <ele>229.4</ele>
        <time>2021-06-14T14:00:21Z</time>
      </trkpt>
      <trkpt lat="46.54223" lon="5.28604">
        <ele>230.2</ele>
        <time>2021-06-14T14:00:23Z</time>
      </trkpt>
      <trkpt lat="46.54215" lon="5.28608">
        <ele>230.4</ele>
        <time>2021-06-14T14:00:24Z</time>
      </trkpt>
      <trkpt lat="46.54215" lon="5.28608">
        <ele>230.6</ele>
        <time>2021-06-14T14:00:25Z</time>
      </trkpt>
      <trkpt lat="46.54206" lon="5.28612">
        <ele>231</ele>
        <time>2021-06-14T14:00:27Z</time>
      </trkpt>
      <trkpt lat="46.54198" lon="5.28616">
        <ele>231.6</ele>
        <time>2021-06-14T14:00:29Z</time>
      </trkpt>
      <trkpt lat="46.5419" lon="5.28621">
        <ele>231.8</ele>
        <time>2021-06-14T14:00:30Z</time>
      </trkpt>
      <trkpt lat="46.5419" lon="5.28621">
        <ele>232</ele>
        <time>2021-06-14T14:00:31Z</time>
      </trkpt>
      <trkpt lat="46.54181" lon="5.28628">
        <ele>232.2</ele>
        <time>2021-06-14T14:00:33Z</time>
      </trkpt>
      <trkpt lat="46.54173" lon="5.28632">
        <ele>233.2</ele>
        <time>2021-06-14T14:00:35Z</time>
      </trkpt>
      <trkpt lat="46.54164" lon="5.28635">
        <ele>233.4</ele>
        <time>2021-06-14T14:00:36Z</time>
      </trkpt>
      <trkpt lat="46.54164" lon="5.28635">
        <ele>233.6</ele>
        <time>2021-06-14T14:00:37Z</time>
      </trkpt>
      <trkpt lat="46.54155" lon="5.28637">
        <ele>234.2</ele>
        <time>2021-06-14T14:00:39Z</time>
      </trkpt>
      <trkpt lat="46.54147" lon="5.28639">
        <ele>234.4</ele>
        <time>2021-06-14T14:00:40Z</time>
      </trkpt>
      <trkpt lat="46.54147" lon="5.28639">
        <ele>234.6</ele>
        <time>2021-06-14T14:00:41Z</time>
      </trkpt>
      <trkpt lat="46.54138" lon="5.28639">
        <ele>235</ele>
        <time>2021-06-14T14:00:43Z</time>
      </trkpt>
      <trkpt lat="46.54128" lon="5.28639">
        <ele>235.4</ele>
        <time>2021-06-14T14:00:45Z</time>
      </trkpt>
      <trkpt lat="46.54118" lon="5.28639">
        <ele>235.8</ele>
        <time>2021-06-14T14:00:46Z</time>
      </trkpt>
      <trkpt lat="46.54118" lon="5.28639">
        <ele>236</ele>
        <time>2021-06-14T14:00:47Z</time>
      </trkpt>
      <trkpt lat="46.54108" lon="5.28639">
        <ele>236.6</ele>
        <time>2021-06-14T14:00:49Z</time>
      </trkpt>
      <trkpt lat="46.54097" lon="5.28638">
        <ele>237</ele>
        <time>2021-06-14T14:00:51Z</time>
      </trkpt>
      <trkpt lat="46.54087" lon="5.28638">
        <ele>237.4</ele>
        <time>2021-06-14T14:00:53Z</time>
      </trkpt>
      <trkpt lat="46.54076" lon="5.28637">
        <ele>237.6</ele>
        <time>2021-06-14T14:00:54Z</time>
      </trkpt>
      <trkpt lat="46.54076" lon="5.28637">
        <ele>237.6</ele>
        <time>2021-06-14T14:00:55Z</time>
      </trkpt>
      <trkpt lat="46.5407" lon="5.28636">
        <ele>237.6</ele>
        <time>2021-06-14T14:00:56Z</time>
      </trkpt>
      <trkpt lat="46.54065" lon="5.28636">
        <ele>237.8</ele>
        <time>2021-06-14T14:00:57Z</time>
      </trkpt>
      <trkpt lat="46.54054" lon="5.28635">
        <ele>238</ele>
        <time>2021-06-14T14:00:59Z</time>
      </trkpt>
      <trkpt lat="46.54043" lon="5.28634">
        <ele>238.2</ele>
        <time>2021-06-14T14:01:01Z</time>
      </trkpt>
      <trkpt lat="46.54031" lon="5.28633">
        <ele>238.2</ele>
        <time>2021-06-14T14:01:03Z</time>
      </trkpt>
      <trkpt lat="46.54019" lon="5.28632">
        <ele>238.2</ele>
        <time>2021-06-14T14:01:04Z</time>
      </trkpt>
      <trkpt lat="46.54019" lon="5.28632">
        <ele>238.2</ele>
        <time>2021-06-14T14:01:05Z</time>
      </trkpt>
      <trkpt lat="46.54008" lon="5.28632">
        <ele>238.2</ele>
        <time>2021-06-14T14:01:07Z</time>
      </trkpt>
      <trkpt lat="46.53996" lon="5.28631">
        <ele>238.4</ele>
        <time>2021-06-14T14:01:09Z</time>
      </trkpt>
      <trkpt lat="46.53985" lon="5.2863">
        <ele>238.4</ele>
        <time>2021-06-14T14:01:11Z</time>
      </trkpt>
      <trkpt lat="46.53973" lon="5.28629">
        <ele>238.4</ele>
        <time>2021-06-14T14:01:13Z</time>
      </trkpt>
      <trkpt lat="46.53962" lon="5.28629">
        <ele>238.4</ele>
        <time>2021-06-14T14:01:15Z</time>
      </trkpt>
      <trkpt lat="46.53951" lon="5.28628">
        <ele>238.6</ele>
        <time>2021-06-14T14:01:16Z</time>
      </trkpt>
      <trkpt lat="46.53951" lon="5.28628">
        <ele>238.6</ele>
        <time>2021-06-14T14:01:17Z</time>
      </trkpt>
      <trkpt lat="46.53939" lon="5.28627">
        <ele>238.6</ele>
        <time>2021-06-14T14:01:19Z</time>
      </trkpt>
      <trkpt lat="46.53928" lon="5.28627">
        <ele>238.6</ele>
        <time>2021-06-14T14:01:21Z</time>
      </trkpt>
      <trkpt lat="46.53918" lon="5.28626">
        <ele>238.8</ele>
        <time>2021-06-14T14:01:23Z</time>
      </trkpt>
      <trkpt lat="46.53907" lon="5.28626">
        <ele>238.8</ele>
        <time>2021-06-14T14:01:24Z</time>
      </trkpt>
      <trkpt lat="46.53907" lon="5.28626">
        <ele>238.8</ele>
        <time>2021-06-14T14:01:25Z</time>
      </trkpt>
      <trkpt lat="46.53896" lon="5.28625">
        <ele>239</ele>
        <time>2021-06-14T14:01:27Z</time>
      </trkpt>
      <trkpt lat="46.53885" lon="5.28624">
        <ele>239.2</ele>
        <time>2021-06-14T14:01:29Z</time>
      </trkpt>
      <trkpt lat="46.53874" lon="5.28623">
        <ele>239.6</ele>
        <time>2021-06-14T14:01:31Z</time>
      </trkpt>
      <trkpt lat="46.53862" lon="5.28622">
        <ele>240</ele>
        <time>2021-06-14T14:01:33Z</time>
      </trkpt>
      <trkpt lat="46.5385" lon="5.28621">
        <ele>240.4</ele>
        <time>2021-06-14T14:01:35Z</time>
      </trkpt>
      <trkpt lat="46.53838" lon="5.2862">
        <ele>240.6</ele>
        <time>2021-06-14T14:01:37Z</time>
      </trkpt>
      <trkpt lat="46.53825" lon="5.28618">
        <ele>240.6</ele>
        <time>2021-06-14T14:01:39Z</time>
      </trkpt>
      <trkpt lat="46.53813" lon="5.28616">
        <ele>240.8</ele>
        <time>2021-06-14T14:01:40Z</time>
      </trkpt>
      <trkpt lat="46.53813" lon="5.28616">
        <ele>240.8</ele>
        <time>2021-06-14T14:01:41Z</time>
      </trkpt>
      <trkpt lat="46.53799" lon="5.28613">
        <ele>240.8</ele>
        <time>2021-06-14T14:01:43Z</time>
      </trkpt>
      <trkpt lat="46.53793" lon="5.28612">
        <ele>240.8</ele>
        <time>2021-06-14T14:01:44Z</time>
      </trkpt>
      <trkpt lat="46.53786" lon="5.28611">
        <ele>240.8</ele>
        <time>2021-06-14T14:01:45Z</time>
      </trkpt>
      <trkpt lat="46.53772" lon="5.2861">
        <ele>240.8</ele>
        <time>2021-06-14T14:01:47Z</time>
      </trkpt>
      <trkpt lat="46.53758" lon="5.2861">
        <ele>240.8</ele>
        <time>2021-06-14T14:01:49Z</time>
      </trkpt>
      <trkpt lat="46.53743" lon="5.28609">
        <ele>240.6</ele>
        <time>2021-06-14T14:01:51Z</time>
      </trkpt>
      <trkpt lat="46.53728" lon="5.28608">
        <ele>240.4</ele>
        <time>2021-06-14T14:01:53Z</time>
      </trkpt>
      <trkpt lat="46.53713" lon="5.28607">
        <ele>240.2</ele>
        <time>2021-06-14T14:01:55Z</time>
      </trkpt>
      <trkpt lat="46.53698" lon="5.28606">
        <ele>240.2</ele>
        <time>2021-06-14T14:01:57Z</time>
      </trkpt>
      <trkpt lat="46.53683" lon="5.28605">
        <ele>240</ele>
        <time>2021-06-14T14:01:59Z</time>
      </trkpt>
      <trkpt lat="46.53668" lon="5.28604">
        <ele>239.8</ele>
        <time>2021-06-14T14:02:01Z</time>
      </trkpt>
      <trkpt lat="46.53654" lon="5.28603">
        <ele>239.6</ele>
        <time>2021-06-14T14:02:03Z</time>
      </trkpt>
      <trkpt lat="46.53638" lon="5.28602">
        <ele>239.4</ele>
        <time>2021-06-14T14:02:04Z</time>
      </trkpt>
      <trkpt lat="46.53638" lon="5.28602">
        <ele>239.4</ele>
        <time>2021-06-14T14:02:05Z</time>
      </trkpt>
      <trkpt lat="46.53623" lon="5.28601">
        <ele>239.2</ele>
        <time>2021-06-14T14:02:07Z</time>
      </trkpt>
      <trkpt lat="46.536" lon="5.28602">
        <ele>239</ele>
        <time>2021-06-14T14:02:09Z</time>
      </trkpt>
      <trkpt lat="46.53592" lon="5.28601">
        <ele>239</ele>
        <time>2021-06-14T14:02:10Z</time>
      </trkpt>
      <trkpt lat="46.53592" lon="5.28601">
        <ele>239</ele>
        <time>2021-06-14T14:02:11Z</time>
      </trkpt>
      <trkpt lat="46.53577" lon="5.286">
        <ele>238.8</ele>
        <time>2021-06-14T14:02:13Z</time>
      </trkpt>
      <trkpt lat="46.53569" lon="5.28599">
        <ele>238.4</ele>
        <time>2021-06-14T14:02:14Z</time>
      </trkpt>
      <trkpt lat="46.53561" lon="5.28599">
        <ele>238</ele>
        <time>2021-06-14T14:02:15Z</time>
      </trkpt>
      <trkpt lat="46.53546" lon="5.28598">
        <ele>237.6</ele>
        <time>2021-06-14T14:02:17Z</time>
      </trkpt>
      <trkpt lat="46.5353" lon="5.28597">
        <ele>237.6</ele>
        <time>2021-06-14T14:02:19Z</time>
      </trkpt>
      <trkpt lat="46.53523" lon="5.28597">
        <ele>237.4</ele>
        <time>2021-06-14T14:02:20Z</time>
      </trkpt>
      <trkpt lat="46.53507" lon="5.28597">
        <ele>237.4</ele>
        <time>2021-06-14T14:02:21Z</time>
      </trkpt>
      <trkpt lat="46.5349" lon="5.28597">
        <ele>237.2</ele>
        <time>2021-06-14T14:02:23Z</time>
      </trkpt>
      <trkpt lat="46.53473" lon="5.28595">
        <ele>237.2</ele>
        <time>2021-06-14T14:02:25Z</time>
      </trkpt>
      <trkpt lat="46.53454" lon="5.28591">
        <ele>237.2</ele>
        <time>2021-06-14T14:02:27Z</time>
      </trkpt>
      <trkpt lat="46.53445" lon="5.28588">
        <ele>236.8</ele>
        <time>2021-06-14T14:02:29Z</time>
      </trkpt>
      <trkpt lat="46.53426" lon="5.28579">
        <ele>236.8</ele>
        <time>2021-06-14T14:02:30Z</time>
      </trkpt>
      <trkpt lat="46.53426" lon="5.28579">
        <ele>236.4</ele>
        <time>2021-06-14T14:02:31Z</time>
      </trkpt>
      <trkpt lat="46.53417" lon="5.28573">
        <ele>236.2</ele>
        <time>2021-06-14T14:02:32Z</time>
      </trkpt>
      <trkpt lat="46.53407" lon="5.28567">
        <ele>235.8</ele>
        <time>2021-06-14T14:02:33Z</time>
      </trkpt>
      <trkpt lat="46.53388" lon="5.28555">
        <ele>234.6</ele>
        <time>2021-06-14T14:02:35Z</time>
      </trkpt>
      <trkpt lat="46.53368" lon="5.28541">
        <ele>233.2</ele>
        <time>2021-06-14T14:02:37Z</time>
      </trkpt>
      <trkpt lat="46.53349" lon="5.28528">
        <ele>231.8</ele>
        <time>2021-06-14T14:02:39Z</time>
      </trkpt>
      <trkpt lat="46.53329" lon="5.28518">
        <ele>231.2</ele>
        <time>2021-06-14T14:02:40Z</time>
      </trkpt>
      <trkpt lat="46.53329" lon="5.28518">
        <ele>230.2</ele>
        <time>2021-06-14T14:02:41Z</time>
      </trkpt>
      <trkpt lat="46.53308" lon="5.28514">
        <ele>229.4</ele>
        <time>2021-06-14T14:02:42Z</time>
      </trkpt>
      <trkpt lat="46.53308" lon="5.28514">
        <ele>228.6</ele>
        <time>2021-06-14T14:02:43Z</time>
      </trkpt>
      <trkpt lat="46.53287" lon="5.28514">
        <ele>227.2</ele>
        <time>2021-06-14T14:02:45Z</time>
      </trkpt>
      <trkpt lat="46.53268" lon="5.28514">
        <ele>226.8</ele>
        <time>2021-06-14T14:02:47Z</time>
      </trkpt>
      <trkpt lat="46.5325" lon="5.28514">
        <ele>226.6</ele>
        <time>2021-06-14T14:02:48Z</time>
      </trkpt>
      <trkpt lat="46.5325" lon="5.28514">
        <ele>226.6</ele>
        <time>2021-06-14T14:02:49Z</time>
      </trkpt>
      <trkpt lat="46.53235" lon="5.28514">
        <ele>226.6</ele>
        <time>2021-06-14T14:02:51Z</time>
      </trkpt>
      <trkpt lat="46.53221" lon="5.28513">
        <ele>226.6</ele>
        <time>2021-06-14T14:02:53Z</time>
      </trkpt>
      <trkpt lat="46.53207" lon="5.28512">
        <ele>226.8</ele>
        <time>2021-06-14T14:02:54Z</time>
      </trkpt>
      <trkpt lat="46.53207" lon="5.28512">
        <ele>226.8</ele>
        <time>2021-06-14T14:02:55Z</time>
      </trkpt>
      <trkpt lat="46.53195" lon="5.28512">
        <ele>227.6</ele>
        <time>2021-06-14T14:02:57Z</time>
      </trkpt>
      <trkpt lat="46.53184" lon="5.28513">
        <ele>228.2</ele>
        <time>2021-06-14T14:02:58Z</time>
      </trkpt>
      <trkpt lat="46.53184" lon="5.28513">
        <ele>228.8</ele>
        <time>2021-06-14T14:02:59Z</time>
      </trkpt>
      <trkpt lat="46.53175" lon="5.28513">
        <ele>229.2</ele>
        <time>2021-06-14T14:03:00Z</time>
      </trkpt>
      <trkpt lat="46.53175" lon="5.28513">
        <ele>229.8</ele>
        <time>2021-06-14T14:03:01Z</time>
      </trkpt>
      <trkpt lat="46.53166" lon="5.28513">
        <ele>230.4</ele>
        <time>2021-06-14T14:03:03Z</time>
      </trkpt>
      <trkpt lat="46.53157" lon="5.28513">
        <ele>231</ele>
        <time>2021-06-14T14:03:04Z</time>
      </trkpt>
      <trkpt lat="46.53157" lon="5.28513">
        <ele>231.4</ele>
        <time>2021-06-14T14:03:05Z</time>
      </trkpt>
      <trkpt lat="46.53147" lon="5.28513">
        <ele>232.2</ele>
        <time>2021-06-14T14:03:07Z</time>
      </trkpt>
      <trkpt lat="46.53136" lon="5.28514">
        <ele>232.8</ele>
        <time>2021-06-14T14:03:09Z</time>
      </trkpt>
      <trkpt lat="46.53125" lon="5.28515">
        <ele>233.6</ele>
        <time>2021-06-14T14:03:11Z</time>
      </trkpt>
      <trkpt lat="46.53113" lon="5.28519">
        <ele>234.2</ele>
        <time>2021-06-14T14:03:13Z</time>
      </trkpt>
      <trkpt lat="46.53107" lon="5.28521">
        <ele>234.6</ele>
        <time>2021-06-14T14:03:14Z</time>
      </trkpt>
      <trkpt lat="46.531" lon="5.28523">
        <ele>234.8</ele>
        <time>2021-06-14T14:03:15Z</time>
      </trkpt>
      <trkpt lat="46.53087" lon="5.28529">
        <ele>235</ele>
        <time>2021-06-14T14:03:17Z</time>
      </trkpt>
      <trkpt lat="46.53074" lon="5.28532">
        <ele>235.2</ele>
        <time>2021-06-14T14:03:19Z</time>
      </trkpt>
      <trkpt lat="46.53062" lon="5.28537">
        <ele>235.4</ele>
        <time>2021-06-14T14:03:21Z</time>
      </trkpt>
      <trkpt lat="46.53051" lon="5.28541">
        <ele>235.4</ele>
        <time>2021-06-14T14:03:23Z</time>
      </trkpt>
      <trkpt lat="46.53039" lon="5.28544">
        <ele>235.4</ele>
        <time>2021-06-14T14:03:24Z</time>
      </trkpt>
      <trkpt lat="46.53039" lon="5.28544">
        <ele>235.6</ele>
        <time>2021-06-14T14:03:25Z</time>
      </trkpt>
      <trkpt lat="46.53022" lon="5.28547">
        <ele>236.2</ele>
        <time>2021-06-14T14:03:27Z</time>
      </trkpt>
      <trkpt lat="46.53017" lon="5.28548">
        <ele>236.4</ele>
        <time>2021-06-14T14:03:28Z</time>
      </trkpt>
      <trkpt lat="46.53017" lon="5.28548">
        <ele>236.6</ele>
        <time>2021-06-14T14:03:29Z</time>
      </trkpt>
      <trkpt lat="46.53006" lon="5.2855">
        <ele>236.6</ele>
        <time>2021-06-14T14:03:31Z</time>
      </trkpt>
      <trkpt lat="46.52994" lon="5.28553">
        <ele>237.2</ele>
        <time>2021-06-14T14:03:33Z</time>
      </trkpt>
      <trkpt lat="46.52983" lon="5.28556">
        <ele>237.8</ele>
        <time>2021-06-14T14:03:35Z</time>
      </trkpt>
      <trkpt lat="46.52972" lon="5.28558">
        <ele>238</ele>
        <time>2021-06-14T14:03:37Z</time>
      </trkpt>
      <trkpt lat="46.52955" lon="5.28562">
        <ele>238.2</ele>
        <time>2021-06-14T14:03:39Z</time>
      </trkpt>
      <trkpt lat="46.52949" lon="5.28563">
        <ele>238.4</ele>
        <time>2021-06-14T14:03:40Z</time>
      </trkpt>
      <trkpt lat="46.52949" lon="5.28563">
        <ele>238.6</ele>
        <time>2021-06-14T14:03:41Z</time>
      </trkpt>
      <trkpt lat="46.52938" lon="5.28566">
        <ele>238.8</ele>
        <time>2021-06-14T14:03:43Z</time>
      </trkpt>
      <trkpt lat="46.52926" lon="5.28568">
        <ele>239</ele>
        <time>2021-06-14T14:03:45Z</time>
      </trkpt>
      <trkpt lat="46.52914" lon="5.2857">
        <ele>239</ele>
        <time>2021-06-14T14:03:47Z</time>
      </trkpt>
      <trkpt lat="46.52901" lon="5.28572">
        <ele>239.2</ele>
        <time>2021-06-14T14:03:48Z</time>
      </trkpt>
      <trkpt lat="46.52901" lon="5.28572">
        <ele>239.2</ele>
        <time>2021-06-14T14:03:49Z</time>
      </trkpt>
      <trkpt lat="46.52889" lon="5.28575">
        <ele>239.2</ele>
        <time>2021-06-14T14:03:51Z</time>
      </trkpt>
      <trkpt lat="46.52876" lon="5.28575">
        <ele>239.2</ele>
        <time>2021-06-14T14:03:52Z</time>
      </trkpt>
      <trkpt lat="46.5287" lon="5.28576">
        <ele>239.2</ele>
        <time>2021-06-14T14:03:53Z</time>
      </trkpt>
      <trkpt lat="46.52857" lon="5.28579">
        <ele>239.2</ele>
        <time>2021-06-14T14:03:55Z</time>
      </trkpt>
      <trkpt lat="46.52844" lon="5.28583">
        <ele>239.2</ele>
        <time>2021-06-14T14:03:57Z</time>
      </trkpt>
      <trkpt lat="46.52837" lon="5.28584">
        <ele>239</ele>
        <time>2021-06-14T14:03:59Z</time>
      </trkpt>
      <trkpt lat="46.52823" lon="5.28589">
        <ele>239</ele>
        <time>2021-06-14T14:04:01Z</time>
      </trkpt>
      <trkpt lat="46.52803" lon="5.28592">
        <ele>239</ele>
        <time>2021-06-14T14:04:03Z</time>
      </trkpt>
      <trkpt lat="46.52788" lon="5.28596">
        <ele>239</ele>
        <time>2021-06-14T14:04:05Z</time>
      </trkpt>
      <trkpt lat="46.52781" lon="5.28598">
        <ele>239</ele>
        <time>2021-06-14T14:04:07Z</time>
      </trkpt>
      <trkpt lat="46.52765" lon="5.28602">
        <ele>238.8</ele>
        <time>2021-06-14T14:04:09Z</time>
      </trkpt>
      <trkpt lat="46.5275" lon="5.28605">
        <ele>238.8</ele>
        <time>2021-06-14T14:04:11Z</time>
      </trkpt>
      <trkpt lat="46.52734" lon="5.28608">
        <ele>238.4</ele>
        <time>2021-06-14T14:04:13Z</time>
      </trkpt>
      <trkpt lat="46.52718" lon="5.28611">
        <ele>238</ele>
        <time>2021-06-14T14:04:15Z</time>
      </trkpt>
      <trkpt lat="46.52702" lon="5.28614">
        <ele>237.8</ele>
        <time>2021-06-14T14:04:16Z</time>
      </trkpt>
      <trkpt lat="46.52702" lon="5.28614">
        <ele>237.8</ele>
        <time>2021-06-14T14:04:17Z</time>
      </trkpt>
      <trkpt lat="46.52687" lon="5.28617">
        <ele>237.4</ele>
        <time>2021-06-14T14:04:18Z</time>
      </trkpt>
      <trkpt lat="46.52687" lon="5.28617">
        <ele>237.2</ele>
        <time>2021-06-14T14:04:19Z</time>
      </trkpt>
      <trkpt lat="46.52671" lon="5.28616">
        <ele>236.8</ele>
        <time>2021-06-14T14:04:21Z</time>
      </trkpt>
      <trkpt lat="46.52655" lon="5.28614">
        <ele>236.6</ele>
        <time>2021-06-14T14:04:22Z</time>
      </trkpt>
      <trkpt lat="46.52655" lon="5.28614">
        <ele>236.6</ele>
        <time>2021-06-14T14:04:23Z</time>
      </trkpt>
      <trkpt lat="46.5264" lon="5.28609">
        <ele>236.6</ele>
        <time>2021-06-14T14:04:24Z</time>
      </trkpt>
      <trkpt lat="46.5264" lon="5.28609">
        <ele>236.4</ele>
        <time>2021-06-14T14:04:25Z</time>
      </trkpt>
      <trkpt lat="46.52632" lon="5.28607">
        <ele>236.4</ele>
        <time>2021-06-14T14:04:26Z</time>
      </trkpt>
      <trkpt lat="46.52624" lon="5.28604">
        <ele>236.4</ele>
        <time>2021-06-14T14:04:27Z</time>
      </trkpt>
      <trkpt lat="46.52608" lon="5.28599">
        <ele>236.4</ele>
        <time>2021-06-14T14:04:28Z</time>
      </trkpt>
      <trkpt lat="46.52608" lon="5.28599">
        <ele>236.2</ele>
        <time>2021-06-14T14:04:29Z</time>
      </trkpt>
      <trkpt lat="46.52591" lon="5.28599">
        <ele>236.2</ele>
        <time>2021-06-14T14:04:30Z</time>
      </trkpt>
      <trkpt lat="46.52591" lon="5.28599">
        <ele>236.2</ele>
        <time>2021-06-14T14:04:31Z</time>
      </trkpt>
      <trkpt lat="46.52574" lon="5.28602">
        <ele>236</ele>
        <time>2021-06-14T14:04:33Z</time>
      </trkpt>
      <trkpt lat="46.52547" lon="5.28608">
        <ele>235.6</ele>
        <time>2021-06-14T14:04:35Z</time>
      </trkpt>
      <trkpt lat="46.52529" lon="5.2861">
        <ele>235.2</ele>
        <time>2021-06-14T14:04:37Z</time>
      </trkpt>
      <trkpt lat="46.5251" lon="5.28613">
        <ele>234.6</ele>
        <time>2021-06-14T14:04:39Z</time>
      </trkpt>
      <trkpt lat="46.52491" lon="5.28617">
        <ele>233.8</ele>
        <time>2021-06-14T14:04:41Z</time>
      </trkpt>
      <trkpt lat="46.52481" lon="5.28619">
        <ele>233</ele>
        <time>2021-06-14T14:04:43Z</time>
      </trkpt>
      <trkpt lat="46.52471" lon="5.28621">
        <ele>232.6</ele>
        <time>2021-06-14T14:04:44Z</time>
      </trkpt>
      <trkpt lat="46.5245" lon="5.28625">
        <ele>232.2</ele>
        <time>2021-06-14T14:04:45Z</time>
      </trkpt>
      <trkpt lat="46.5243" lon="5.28629">
        <ele>231.4</ele>
        <time>2021-06-14T14:04:47Z</time>
      </trkpt>
      <trkpt lat="46.5242" lon="5.28631">
        <ele>230.8</ele>
        <time>2021-06-14T14:04:49Z</time>
      </trkpt>
      <trkpt lat="46.52409" lon="5.28633">
        <ele>230.2</ele>
        <time>2021-06-14T14:04:50Z</time>
      </trkpt>
      <trkpt lat="46.52399" lon="5.28635">
        <ele>229.6</ele>
        <time>2021-06-14T14:04:51Z</time>
      </trkpt>
      <trkpt lat="46.52378" lon="5.28639">
        <ele>229.2</ele>
        <time>2021-06-14T14:04:52Z</time>
      </trkpt>
      <trkpt lat="46.52378" lon="5.28639">
        <ele>228.4</ele>
        <time>2021-06-14T14:04:53Z</time>
      </trkpt>
      <trkpt lat="46.52357" lon="5.28643">
        <ele>227.8</ele>
        <time>2021-06-14T14:04:54Z</time>
      </trkpt>
      <trkpt lat="46.52357" lon="5.28643">
        <ele>227.2</ele>
        <time>2021-06-14T14:04:55Z</time>
      </trkpt>
      <trkpt lat="46.52346" lon="5.28645">
        <ele>226.6</ele>
        <time>2021-06-14T14:04:56Z</time>
      </trkpt>
      <trkpt lat="46.52335" lon="5.28647">
        <ele>226</ele>
        <time>2021-06-14T14:04:57Z</time>
      </trkpt>
      <trkpt lat="46.52314" lon="5.28649">
        <ele>225.2</ele>
        <time>2021-06-14T14:04:59Z</time>
      </trkpt>
      <trkpt lat="46.52293" lon="5.28651">
        <ele>224</ele>
        <time>2021-06-14T14:05:01Z</time>
      </trkpt>
      <trkpt lat="46.52272" lon="5.28652">
        <ele>222.8</ele>
        <time>2021-06-14T14:05:03Z</time>
      </trkpt>
      <trkpt lat="46.52251" lon="5.28653">
        <ele>221.8</ele>
        <time>2021-06-14T14:05:05Z</time>
      </trkpt>
      <trkpt lat="46.5223" lon="5.28656">
        <ele>221</ele>
        <time>2021-06-14T14:05:07Z</time>
      </trkpt>
      <trkpt lat="46.5222" lon="5.28659">
        <ele>220.6</ele>
        <time>2021-06-14T14:05:08Z</time>
      </trkpt>
      <trkpt lat="46.5221" lon="5.28662">
        <ele>220.2</ele>
        <time>2021-06-14T14:05:09Z</time>
      </trkpt>
      <trkpt lat="46.5219" lon="5.28669">
        <ele>220</ele>
        <time>2021-06-14T14:05:11Z</time>
      </trkpt>
      <trkpt lat="46.52161" lon="5.28681">
        <ele>219.6</ele>
        <time>2021-06-14T14:05:13Z</time>
      </trkpt>
      <trkpt lat="46.52161" lon="5.28681">
        <ele>219.6</ele>
        <time>2021-06-14T14:05:14Z</time>
      </trkpt>
      <trkpt lat="46.52152" lon="5.28684">
        <ele>219.4</ele>
        <time>2021-06-14T14:05:15Z</time>
      </trkpt>
      <trkpt lat="46.52133" lon="5.28691">
        <ele>219.2</ele>
        <time>2021-06-14T14:05:17Z</time>
      </trkpt>
      <trkpt lat="46.52116" lon="5.28698">
        <ele>219.2</ele>
        <time>2021-06-14T14:05:19Z</time>
      </trkpt>
      <trkpt lat="46.52108" lon="5.287">
        <ele>219.2</ele>
        <time>2021-06-14T14:05:20Z</time>
      </trkpt>
      <trkpt lat="46.52099" lon="5.28703">
        <ele>219.2</ele>
        <time>2021-06-14T14:05:21Z</time>
      </trkpt>
      <trkpt lat="46.52083" lon="5.28707">
        <ele>219.2</ele>
        <time>2021-06-14T14:05:23Z</time>
      </trkpt>
      <trkpt lat="46.52066" lon="5.2871">
        <ele>219.2</ele>
        <time>2021-06-14T14:05:25Z</time>
      </trkpt>
      <trkpt lat="46.5205" lon="5.28713">
        <ele>219.2</ele>
        <time>2021-06-14T14:05:27Z</time>
      </trkpt>
      <trkpt lat="46.52034" lon="5.28717">
        <ele>219.2</ele>
        <time>2021-06-14T14:05:28Z</time>
      </trkpt>
      <trkpt lat="46.52034" lon="5.28717">
        <ele>219.4</ele>
        <time>2021-06-14T14:05:29Z</time>
      </trkpt>
      <trkpt lat="46.52019" lon="5.28724">
        <ele>219.6</ele>
        <time>2021-06-14T14:05:30Z</time>
      </trkpt>
      <trkpt lat="46.52019" lon="5.28724">
        <ele>219.8</ele>
        <time>2021-06-14T14:05:31Z</time>
      </trkpt>
      <trkpt lat="46.52005" lon="5.28733">
        <ele>220.2</ele>
        <time>2021-06-14T14:05:33Z</time>
      </trkpt>
      <trkpt lat="46.51998" lon="5.28737">
        <ele>220.2</ele>
        <time>2021-06-14T14:05:34Z</time>
      </trkpt>
      <trkpt lat="46.5199" lon="5.2874">
        <ele>220.2</ele>
        <time>2021-06-14T14:05:35Z</time>
      </trkpt>
      <trkpt lat="46.51975" lon="5.28744">
        <ele>220.4</ele>
        <time>2021-06-14T14:05:37Z</time>
      </trkpt>
      <trkpt lat="46.51968" lon="5.28745">
        <ele>220.6</ele>
        <time>2021-06-14T14:05:38Z</time>
      </trkpt>
      <trkpt lat="46.51961" lon="5.28746">
        <ele>220.8</ele>
        <time>2021-06-14T14:05:39Z</time>
      </trkpt>
      <trkpt lat="46.51947" lon="5.28745">
        <ele>221</ele>
        <time>2021-06-14T14:05:40Z</time>
      </trkpt>
      <trkpt lat="46.51947" lon="5.28745">
        <ele>221</ele>
        <time>2021-06-14T14:05:41Z</time>
      </trkpt>
      <trkpt lat="46.51934" lon="5.28743">
        <ele>221.4</ele>
        <time>2021-06-14T14:05:43Z</time>
      </trkpt>
      <trkpt lat="46.51921" lon="5.28741">
        <ele>221.6</ele>
        <time>2021-06-14T14:05:45Z</time>
      </trkpt>
      <trkpt lat="46.51908" lon="5.28739">
        <ele>222</ele>
        <time>2021-06-14T14:05:46Z</time>
      </trkpt>
      <trkpt lat="46.51908" lon="5.28739">
        <ele>222.2</ele>
        <time>2021-06-14T14:05:47Z</time>
      </trkpt>
      <trkpt lat="46.51896" lon="5.28733">
        <ele>222.4</ele>
        <time>2021-06-14T14:05:48Z</time>
      </trkpt>
      <trkpt lat="46.51896" lon="5.28733">
        <ele>222.6</ele>
        <time>2021-06-14T14:05:49Z</time>
      </trkpt>
      <trkpt lat="46.51886" lon="5.28725">
        <ele>222.8</ele>
        <time>2021-06-14T14:05:51Z</time>
      </trkpt>
      <trkpt lat="46.51875" lon="5.28715">
        <ele>223</ele>
        <time>2021-06-14T14:05:53Z</time>
      </trkpt>
      <trkpt lat="46.51865" lon="5.28707">
        <ele>223.6</ele>
        <time>2021-06-14T14:05:55Z</time>
      </trkpt>
      <trkpt lat="46.5186" lon="5.28703">
        <ele>223.8</ele>
        <time>2021-06-14T14:05:56Z</time>
      </trkpt>
      <trkpt lat="46.51854" lon="5.287">
        <ele>224</ele>
        <time>2021-06-14T14:05:57Z</time>
      </trkpt>
      <trkpt lat="46.51843" lon="5.28694">
        <ele>224</ele>
        <time>2021-06-14T14:05:58Z</time>
      </trkpt>
      <trkpt lat="46.51843" lon="5.28694">
        <ele>224.2</ele>
        <time>2021-06-14T14:05:59Z</time>
      </trkpt>
      <trkpt lat="46.51832" lon="5.2869">
        <ele>224.4</ele>
        <time>2021-06-14T14:06:00Z</time>
      </trkpt>
      <trkpt lat="46.51832" lon="5.2869">
        <ele>224.4</ele>
        <time>2021-06-14T14:06:01Z</time>
      </trkpt>
      <trkpt lat="46.51827" lon="5.28688">
        <ele>224.6</ele>
        <time>2021-06-14T14:06:02Z</time>
      </trkpt>
      <trkpt lat="46.51821" lon="5.28687">
        <ele>224.6</ele>
        <time>2021-06-14T14:06:03Z</time>
      </trkpt>
      <trkpt lat="46.51809" lon="5.28685">
        <ele>224.8</ele>
        <time>2021-06-14T14:06:04Z</time>
      </trkpt>
      <trkpt lat="46.51809" lon="5.28685">
        <ele>225</ele>
        <time>2021-06-14T14:06:05Z</time>
      </trkpt>
      <trkpt lat="46.51797" lon="5.28686">
        <ele>225.2</ele>
        <time>2021-06-14T14:06:07Z</time>
      </trkpt>
      <trkpt lat="46.51791" lon="5.28686">
        <ele>225.4</ele>
        <time>2021-06-14T14:06:08Z</time>
      </trkpt>
      <trkpt lat="46.51785" lon="5.28685">
        <ele>225.4</ele>
        <time>2021-06-14T14:06:09Z</time>
      </trkpt>
      <trkpt lat="46.51774" lon="5.28679">
        <ele>225.4</ele>
        <time>2021-06-14T14:06:11Z</time>
      </trkpt>
      <trkpt lat="46.51762" lon="5.28671">
        <ele>225.4</ele>
        <time>2021-06-14T14:06:12Z</time>
      </trkpt>
      <trkpt lat="46.51762" lon="5.28671">
        <ele>225.4</ele>
        <time>2021-06-14T14:06:13Z</time>
      </trkpt>
      <trkpt lat="46.51752" lon="5.28663">
        <ele>225.6</ele>
        <time>2021-06-14T14:06:15Z</time>
      </trkpt>
      <trkpt lat="46.51741" lon="5.28654">
        <ele>225.6</ele>
        <time>2021-06-14T14:06:17Z</time>
      </trkpt>
      <trkpt lat="46.51729" lon="5.28645">
        <ele>225.6</ele>
        <time>2021-06-14T14:06:18Z</time>
      </trkpt>
      <trkpt lat="46.51729" lon="5.28645">
        <ele>225.6</ele>
        <time>2021-06-14T14:06:19Z</time>
      </trkpt>
      <trkpt lat="46.51723" lon="5.28642">
        <ele>225.6</ele>
        <time>2021-06-14T14:06:20Z</time>
      </trkpt>
      <trkpt lat="46.51716" lon="5.2864">
        <ele>225.6</ele>
        <time>2021-06-14T14:06:21Z</time>
      </trkpt>
      <trkpt lat="46.51702" lon="5.28639">
        <ele>225.6</ele>
        <time>2021-06-14T14:06:23Z</time>
      </trkpt>
      <trkpt lat="46.51689" lon="5.28639">
        <ele>225.6</ele>
        <time>2021-06-14T14:06:24Z</time>
      </trkpt>
      <trkpt lat="46.51689" lon="5.28639">
        <ele>225.6</ele>
        <time>2021-06-14T14:06:25Z</time>
      </trkpt>
      <trkpt lat="46.51674" lon="5.28641">
        <ele>225.6</ele>
        <time>2021-06-14T14:06:27Z</time>
      </trkpt>
      <trkpt lat="46.51652" lon="5.28644">
        <ele>225.6</ele>
        <time>2021-06-14T14:06:29Z</time>
      </trkpt>
      <trkpt lat="46.51636" lon="5.28646">
        <ele>225.4</ele>
        <time>2021-06-14T14:06:31Z</time>
      </trkpt>
      <trkpt lat="46.51628" lon="5.28648">
        <ele>225.2</ele>
        <time>2021-06-14T14:06:33Z</time>
      </trkpt>
      <trkpt lat="46.51612" lon="5.28651">
        <ele>224.8</ele>
        <time>2021-06-14T14:06:35Z</time>
      </trkpt>
      <trkpt lat="46.51596" lon="5.28659">
        <ele>224.6</ele>
        <time>2021-06-14T14:06:36Z</time>
      </trkpt>
      <trkpt lat="46.51596" lon="5.28659">
        <ele>224.2</ele>
        <time>2021-06-14T14:06:37Z</time>
      </trkpt>
      <trkpt lat="46.51589" lon="5.28666">
        <ele>224</ele>
        <time>2021-06-14T14:06:38Z</time>
      </trkpt>
      <trkpt lat="46.51583" lon="5.28674">
        <ele>223.6</ele>
        <time>2021-06-14T14:06:39Z</time>
      </trkpt>
      <trkpt lat="46.51572" lon="5.28694">
        <ele>223.4</ele>
        <time>2021-06-14T14:06:40Z</time>
      </trkpt>
      <trkpt lat="46.51572" lon="5.28694">
        <ele>223.2</ele>
        <time>2021-06-14T14:06:41Z</time>
      </trkpt>
      <trkpt lat="46.51562" lon="5.28715">
        <ele>222.8</ele>
        <time>2021-06-14T14:06:42Z</time>
      </trkpt>
      <trkpt lat="46.51562" lon="5.28715">
        <ele>222.4</ele>
        <time>2021-06-14T14:06:43Z</time>
      </trkpt>
      <trkpt lat="46.51551" lon="5.28734">
        <ele>221.8</ele>
        <time>2021-06-14T14:06:45Z</time>
      </trkpt>
      <trkpt lat="46.51541" lon="5.28754">
        <ele>221.6</ele>
        <time>2021-06-14T14:06:46Z</time>
      </trkpt>
      <trkpt lat="46.51541" lon="5.28754">
        <ele>221.4</ele>
        <time>2021-06-14T14:06:47Z</time>
      </trkpt>
      <trkpt lat="46.5153" lon="5.28774">
        <ele>221.2</ele>
        <time>2021-06-14T14:06:49Z</time>
      </trkpt>
      <trkpt lat="46.5152" lon="5.28794">
        <ele>221</ele>
        <time>2021-06-14T14:06:51Z</time>
      </trkpt>
      <trkpt lat="46.51511" lon="5.28814">
        <ele>220.8</ele>
        <time>2021-06-14T14:06:52Z</time>
      </trkpt>
      <trkpt lat="46.51511" lon="5.28814">
        <ele>220.6</ele>
        <time>2021-06-14T14:06:53Z</time>
      </trkpt>
      <trkpt lat="46.51505" lon="5.28837">
        <ele>220.4</ele>
        <time>2021-06-14T14:06:54Z</time>
      </trkpt>
      <trkpt lat="46.51505" lon="5.28837">
        <ele>220.2</ele>
        <time>2021-06-14T14:06:55Z</time>
      </trkpt>
      <trkpt lat="46.515" lon="5.28861">
        <ele>220.2</ele>
        <time>2021-06-14T14:06:57Z</time>
      </trkpt>
      <trkpt lat="46.51497" lon="5.28884">
        <ele>220</ele>
        <time>2021-06-14T14:06:59Z</time>
      </trkpt>
      <trkpt lat="46.51492" lon="5.28908">
        <ele>219.8</ele>
        <time>2021-06-14T14:07:01Z</time>
      </trkpt>
      <trkpt lat="46.51488" lon="5.28931">
        <ele>219.8</ele>
        <time>2021-06-14T14:07:03Z</time>
      </trkpt>
      <trkpt lat="46.51484" lon="5.28954">
        <ele>219.8</ele>
        <time>2021-06-14T14:07:04Z</time>
      </trkpt>
      <trkpt lat="46.51484" lon="5.28954">
        <ele>219.8</ele>
        <time>2021-06-14T14:07:05Z</time>
      </trkpt>
      <trkpt lat="46.5148" lon="5.28975">
        <ele>219.8</ele>
        <time>2021-06-14T14:07:07Z</time>
      </trkpt>
      <trkpt lat="46.51477" lon="5.28997">
        <ele>219.8</ele>
        <time>2021-06-14T14:07:09Z</time>
      </trkpt>
      <trkpt lat="46.51473" lon="5.29017">
        <ele>220</ele>
        <time>2021-06-14T14:07:11Z</time>
      </trkpt>
      <trkpt lat="46.51469" lon="5.29048">
        <ele>220.2</ele>
        <time>2021-06-14T14:07:13Z</time>
      </trkpt>
      <trkpt lat="46.51465" lon="5.29067">
        <ele>220.4</ele>
        <time>2021-06-14T14:07:15Z</time>
      </trkpt>
      <trkpt lat="46.51462" lon="5.29087">
        <ele>220.6</ele>
        <time>2021-06-14T14:07:17Z</time>
      </trkpt>
      <trkpt lat="46.51458" lon="5.29106">
        <ele>220.6</ele>
        <time>2021-06-14T14:07:19Z</time>
      </trkpt>
      <trkpt lat="46.51455" lon="5.29126">
        <ele>221</ele>
        <time>2021-06-14T14:07:21Z</time>
      </trkpt>
      <trkpt lat="46.51453" lon="5.29135">
        <ele>221.2</ele>
        <time>2021-06-14T14:07:22Z</time>
      </trkpt>
      <trkpt lat="46.51452" lon="5.29145">
        <ele>221.6</ele>
        <time>2021-06-14T14:07:23Z</time>
      </trkpt>
      <trkpt lat="46.51448" lon="5.29165">
        <ele>222</ele>
        <time>2021-06-14T14:07:25Z</time>
      </trkpt>
      <trkpt lat="46.51446" lon="5.29174">
        <ele>222.2</ele>
        <time>2021-06-14T14:07:27Z</time>
      </trkpt>
      <trkpt lat="46.51441" lon="5.29193">
        <ele>222.2</ele>
        <time>2021-06-14T14:07:28Z</time>
      </trkpt>
      <trkpt lat="46.51438" lon="5.29202">
        <ele>222.4</ele>
        <time>2021-06-14T14:07:29Z</time>
      </trkpt>
      <trkpt lat="46.51435" lon="5.29211">
        <ele>222.6</ele>
        <time>2021-06-14T14:07:30Z</time>
      </trkpt>
      <trkpt lat="46.51435" lon="5.29211">
        <ele>222.8</ele>
        <time>2021-06-14T14:07:31Z</time>
      </trkpt>
      <trkpt lat="46.51421" lon="5.29234">
        <ele>223</ele>
        <time>2021-06-14T14:07:33Z</time>
      </trkpt>
      <trkpt lat="46.51411" lon="5.29248">
        <ele>223.2</ele>
        <time>2021-06-14T14:07:35Z</time>
      </trkpt>
      <trkpt lat="46.51401" lon="5.29263">
        <ele>223.2</ele>
        <time>2021-06-14T14:07:37Z</time>
      </trkpt>
      <trkpt lat="46.51392" lon="5.29279">
        <ele>223.2</ele>
        <time>2021-06-14T14:07:39Z</time>
      </trkpt>
      <trkpt lat="46.51383" lon="5.29297">
        <ele>223.2</ele>
        <time>2021-06-14T14:07:41Z</time>
      </trkpt>
      <trkpt lat="46.51378" lon="5.29306">
        <ele>223.2</ele>
        <time>2021-06-14T14:07:43Z</time>
      </trkpt>
      <trkpt lat="46.51362" lon="5.2933">
        <ele>223.2</ele>
        <time>2021-06-14T14:07:45Z</time>
      </trkpt>
      <trkpt lat="46.51356" lon="5.29337">
        <ele>223.2</ele>
        <time>2021-06-14T14:07:47Z</time>
      </trkpt>
      <trkpt lat="46.51342" lon="5.29348">
        <ele>223.2</ele>
        <time>2021-06-14T14:07:48Z</time>
      </trkpt>
      <trkpt lat="46.51335" lon="5.29353">
        <ele>223</ele>
        <time>2021-06-14T14:07:49Z</time>
      </trkpt>
      <trkpt lat="46.51321" lon="5.29361">
        <ele>223</ele>
        <time>2021-06-14T14:07:51Z</time>
      </trkpt>
      <trkpt lat="46.51307" lon="5.29369">
        <ele>222.6</ele>
        <time>2021-06-14T14:07:53Z</time>
      </trkpt>
      <trkpt lat="46.513" lon="5.29373">
        <ele>222.4</ele>
        <time>2021-06-14T14:07:55Z</time>
      </trkpt>
      <trkpt lat="46.51286" lon="5.29381">
        <ele>222.2</ele>
        <time>2021-06-14T14:07:57Z</time>
      </trkpt>
      <trkpt lat="46.51271" lon="5.29387">
        <ele>222.2</ele>
        <time>2021-06-14T14:07:58Z</time>
      </trkpt>
      <trkpt lat="46.51271" lon="5.29387">
        <ele>222.2</ele>
        <time>2021-06-14T14:07:59Z</time>
      </trkpt>
      <trkpt lat="46.51256" lon="5.29392">
        <ele>222.2</ele>
        <time>2021-06-14T14:08:00Z</time>
      </trkpt>
      <trkpt lat="46.51256" lon="5.29392">
        <ele>222.2</ele>
        <time>2021-06-14T14:08:01Z</time>
      </trkpt>
      <trkpt lat="46.51242" lon="5.29396">
        <ele>222</ele>
        <time>2021-06-14T14:08:03Z</time>
      </trkpt>
      <trkpt lat="46.51228" lon="5.29398">
        <ele>222.2</ele>
        <time>2021-06-14T14:08:05Z</time>
      </trkpt>
      <trkpt lat="46.51214" lon="5.29401">
        <ele>222.2</ele>
        <time>2021-06-14T14:08:07Z</time>
      </trkpt>
      <trkpt lat="46.512" lon="5.29405">
        <ele>222.2</ele>
        <time>2021-06-14T14:08:09Z</time>
      </trkpt>
      <trkpt lat="46.51187" lon="5.29408">
        <ele>222.4</ele>
        <time>2021-06-14T14:08:11Z</time>
      </trkpt>
      <trkpt lat="46.51174" lon="5.29412">
        <ele>222.4</ele>
        <time>2021-06-14T14:08:13Z</time>
      </trkpt>
      <trkpt lat="46.51162" lon="5.29415">
        <ele>222.6</ele>
        <time>2021-06-14T14:08:15Z</time>
      </trkpt>
      <trkpt lat="46.51149" lon="5.29419">
        <ele>222.8</ele>
        <time>2021-06-14T14:08:17Z</time>
      </trkpt>
      <trkpt lat="46.51136" lon="5.29422">
        <ele>222.8</ele>
        <time>2021-06-14T14:08:18Z</time>
      </trkpt>
      <trkpt lat="46.51136" lon="5.29422">
        <ele>222.8</ele>
        <time>2021-06-14T14:08:19Z</time>
      </trkpt>
      <trkpt lat="46.51123" lon="5.29426">
        <ele>223</ele>
        <time>2021-06-14T14:08:21Z</time>
      </trkpt>
      <trkpt lat="46.5111" lon="5.2943">
        <ele>223.2</ele>
        <time>2021-06-14T14:08:23Z</time>
      </trkpt>
      <trkpt lat="46.5109" lon="5.29436">
        <ele>223.4</ele>
        <time>2021-06-14T14:08:25Z</time>
      </trkpt>
      <trkpt lat="46.51083" lon="5.29439">
        <ele>223.6</ele>
        <time>2021-06-14T14:08:27Z</time>
      </trkpt>
      <trkpt lat="46.51071" lon="5.29444">
        <ele>223.6</ele>
        <time>2021-06-14T14:08:28Z</time>
      </trkpt>
      <trkpt lat="46.51071" lon="5.29444">
        <ele>223.6</ele>
        <time>2021-06-14T14:08:29Z</time>
      </trkpt>
      <trkpt lat="46.51058" lon="5.2945">
        <ele>223.8</ele>
        <time>2021-06-14T14:08:31Z</time>
      </trkpt>
      <trkpt lat="46.51046" lon="5.29457">
        <ele>223.8</ele>
        <time>2021-06-14T14:08:33Z</time>
      </trkpt>
      <trkpt lat="46.51035" lon="5.29464">
        <ele>224</ele>
        <time>2021-06-14T14:08:35Z</time>
      </trkpt>
      <trkpt lat="46.51025" lon="5.29472">
        <ele>224</ele>
        <time>2021-06-14T14:08:36Z</time>
      </trkpt>
      <trkpt lat="46.51025" lon="5.29472">
        <ele>224</ele>
        <time>2021-06-14T14:08:37Z</time>
      </trkpt>
      <trkpt lat="46.51015" lon="5.29479">
        <ele>224.2</ele>
        <time>2021-06-14T14:08:39Z</time>
      </trkpt>
      <trkpt lat="46.51002" lon="5.2949">
        <ele>225</ele>
        <time>2021-06-14T14:08:41Z</time>
      </trkpt>
      <trkpt lat="46.50997" lon="5.29494">
        <ele>225.2</ele>
        <time>2021-06-14T14:08:43Z</time>
      </trkpt>
      <trkpt lat="46.50993" lon="5.29497">
        <ele>225.6</ele>
        <time>2021-06-14T14:08:44Z</time>
      </trkpt>
      <trkpt lat="46.50989" lon="5.295">
        <ele>225.6</ele>
        <time>2021-06-14T14:08:45Z</time>
      </trkpt>
      <trkpt lat="46.50981" lon="5.29507">
        <ele>226</ele>
        <time>2021-06-14T14:08:46Z</time>
      </trkpt>
      <trkpt lat="46.50981" lon="5.29507">
        <ele>226.2</ele>
        <time>2021-06-14T14:08:47Z</time>
      </trkpt>
      <trkpt lat="46.50973" lon="5.29513">
        <ele>226.6</ele>
        <time>2021-06-14T14:08:49Z</time>
      </trkpt>
      <trkpt lat="46.50965" lon="5.29519">
        <ele>227</ele>
        <time>2021-06-14T14:08:51Z</time>
      </trkpt>
      <trkpt lat="46.50958" lon="5.29525">
        <ele>228</ele>
        <time>2021-06-14T14:08:53Z</time>
      </trkpt>
      <trkpt lat="46.50951" lon="5.29531">
        <ele>228.2</ele>
        <time>2021-06-14T14:08:54Z</time>
      </trkpt>
      <trkpt lat="46.50951" lon="5.29531">
        <ele>228.4</ele>
        <time>2021-06-14T14:08:55Z</time>
      </trkpt>
      <trkpt lat="46.50944" lon="5.29536">
        <ele>228.8</ele>
        <time>2021-06-14T14:08:57Z</time>
      </trkpt>
      <trkpt lat="46.50937" lon="5.29541">
        <ele>229.6</ele>
        <time>2021-06-14T14:08:59Z</time>
      </trkpt>
      <trkpt lat="46.5093" lon="5.29547">
        <ele>230.2</ele>
        <time>2021-06-14T14:09:01Z</time>
      </trkpt>
      <trkpt lat="46.50927" lon="5.2955">
        <ele>230.6</ele>
        <time>2021-06-14T14:09:02Z</time>
      </trkpt>
      <trkpt lat="46.50924" lon="5.29552">
        <ele>231</ele>
        <time>2021-06-14T14:09:03Z</time>
      </trkpt>
      <trkpt lat="46.50917" lon="5.29557">
        <ele>231.2</ele>
        <time>2021-06-14T14:09:04Z</time>
      </trkpt>
      <trkpt lat="46.50917" lon="5.29557">
        <ele>231.6</ele>
        <time>2021-06-14T14:09:05Z</time>
      </trkpt>
      <trkpt lat="46.50911" lon="5.29562">
        <ele>231.8</ele>
        <time>2021-06-14T14:09:06Z</time>
      </trkpt>
      <trkpt lat="46.50911" lon="5.29562">
        <ele>232.2</ele>
        <time>2021-06-14T14:09:07Z</time>
      </trkpt>
      <trkpt lat="46.50904" lon="5.29565">
        <ele>232.6</ele>
        <time>2021-06-14T14:09:09Z</time>
      </trkpt>
      <trkpt lat="46.50896" lon="5.29566">
        <ele>233</ele>
        <time>2021-06-14T14:09:11Z</time>
      </trkpt>
      <trkpt lat="46.50887" lon="5.29567">
        <ele>233.2</ele>
        <time>2021-06-14T14:09:12Z</time>
      </trkpt>
      <trkpt lat="46.50887" lon="5.29567">
        <ele>233.6</ele>
        <time>2021-06-14T14:09:13Z</time>
      </trkpt>
      <trkpt lat="46.50879" lon="5.29567">
        <ele>234</ele>
        <time>2021-06-14T14:09:15Z</time>
      </trkpt>
      <trkpt lat="46.50871" lon="5.29566">
        <ele>234.4</ele>
        <time>2021-06-14T14:09:17Z</time>
      </trkpt>
      <trkpt lat="46.50863" lon="5.29565">
        <ele>235</ele>
        <time>2021-06-14T14:09:19Z</time>
      </trkpt>
      <trkpt lat="46.50859" lon="5.29565">
        <ele>235.2</ele>
        <time>2021-06-14T14:09:20Z</time>
      </trkpt>
      <trkpt lat="46.50856" lon="5.29564">
        <ele>235.4</ele>
        <time>2021-06-14T14:09:21Z</time>
      </trkpt>
      <trkpt lat="46.50847" lon="5.29563">
        <ele>236.2</ele>
        <time>2021-06-14T14:09:23Z</time>
      </trkpt>
      <trkpt lat="46.50839" lon="5.29562">
        <ele>236.4</ele>
        <time>2021-06-14T14:09:24Z</time>
      </trkpt>
      <trkpt lat="46.50839" lon="5.29562">
        <ele>236.6</ele>
        <time>2021-06-14T14:09:25Z</time>
      </trkpt>
      <trkpt lat="46.50831" lon="5.29561">
        <ele>237</ele>
        <time>2021-06-14T14:09:27Z</time>
      </trkpt>
      <trkpt lat="46.50823" lon="5.2956">
        <ele>237.4</ele>
        <time>2021-06-14T14:09:28Z</time>
      </trkpt>
      <trkpt lat="46.50823" lon="5.2956">
        <ele>237.6</ele>
        <time>2021-06-14T14:09:29Z</time>
      </trkpt>
      <trkpt lat="46.50815" lon="5.2956">
        <ele>238</ele>
        <time>2021-06-14T14:09:31Z</time>
      </trkpt>
      <trkpt lat="46.50806" lon="5.29559">
        <ele>238.2</ele>
        <time>2021-06-14T14:09:33Z</time>
      </trkpt>
      <trkpt lat="46.50798" lon="5.29559">
        <ele>238.4</ele>
        <time>2021-06-14T14:09:35Z</time>
      </trkpt>
      <trkpt lat="46.5079" lon="5.29559">
        <ele>238.6</ele>
        <time>2021-06-14T14:09:36Z</time>
      </trkpt>
      <trkpt lat="46.5079" lon="5.29559">
        <ele>238.8</ele>
        <time>2021-06-14T14:09:37Z</time>
      </trkpt>
      <trkpt lat="46.50782" lon="5.29558">
        <ele>239.2</ele>
        <time>2021-06-14T14:09:39Z</time>
      </trkpt>
      <trkpt lat="46.50773" lon="5.29558">
        <ele>239.4</ele>
        <time>2021-06-14T14:09:40Z</time>
      </trkpt>
      <trkpt lat="46.50773" lon="5.29558">
        <ele>239.8</ele>
        <time>2021-06-14T14:09:41Z</time>
      </trkpt>
      <trkpt lat="46.50761" lon="5.29556">
        <ele>240</ele>
        <time>2021-06-14T14:09:43Z</time>
      </trkpt>
      <trkpt lat="46.50757" lon="5.29555">
        <ele>240.2</ele>
        <time>2021-06-14T14:09:45Z</time>
      </trkpt>
      <trkpt lat="46.50749" lon="5.29553">
        <ele>240.4</ele>
        <time>2021-06-14T14:09:47Z</time>
      </trkpt>
      <trkpt lat="46.50741" lon="5.2955">
        <ele>240.6</ele>
        <time>2021-06-14T14:09:48Z</time>
      </trkpt>
      <trkpt lat="46.50741" lon="5.2955">
        <ele>240.8</ele>
        <time>2021-06-14T14:09:49Z</time>
      </trkpt>
      <trkpt lat="46.50736" lon="5.29548">
        <ele>241</ele>
        <time>2021-06-14T14:09:50Z</time>
      </trkpt>
      <trkpt lat="46.50732" lon="5.29547">
        <ele>241.2</ele>
        <time>2021-06-14T14:09:51Z</time>
      </trkpt>
      <trkpt lat="46.50723" lon="5.29543">
        <ele>241.4</ele>
        <time>2021-06-14T14:09:53Z</time>
      </trkpt>
      <trkpt lat="46.50714" lon="5.29539">
        <ele>241.8</ele>
        <time>2021-06-14T14:09:55Z</time>
      </trkpt>
      <trkpt lat="46.50706" lon="5.29535">
        <ele>242</ele>
        <time>2021-06-14T14:09:57Z</time>
      </trkpt>
      <trkpt lat="46.50697" lon="5.2953">
        <ele>242.2</ele>
        <time>2021-06-14T14:09:58Z</time>
      </trkpt>
      <trkpt lat="46.50697" lon="5.2953">
        <ele>242.4</ele>
        <time>2021-06-14T14:09:59Z</time>
      </trkpt>
      <trkpt lat="46.50688" lon="5.29526">
        <ele>243</ele>
        <time>2021-06-14T14:10:01Z</time>
      </trkpt>
      <trkpt lat="46.50674" lon="5.29521">
        <ele>243.4</ele>
        <time>2021-06-14T14:10:03Z</time>
      </trkpt>
      <trkpt lat="46.50665" lon="5.29519">
        <ele>243.8</ele>
        <time>2021-06-14T14:10:05Z</time>
      </trkpt>
      <trkpt lat="46.5066" lon="5.29518">
        <ele>244</ele>
        <time>2021-06-14T14:10:07Z</time>
      </trkpt>
      <trkpt lat="46.50656" lon="5.29518">
        <ele>244.2</ele>
        <time>2021-06-14T14:10:08Z</time>
      </trkpt>
      <trkpt lat="46.50651" lon="5.29519">
        <ele>244.2</ele>
        <time>2021-06-14T14:10:09Z</time>
      </trkpt>
      <trkpt lat="46.50641" lon="5.29523">
        <ele>244.6</ele>
        <time>2021-06-14T14:10:11Z</time>
      </trkpt>
      <trkpt lat="46.50632" lon="5.29528">
        <ele>244.8</ele>
        <time>2021-06-14T14:10:13Z</time>
      </trkpt>
      <trkpt lat="46.50617" lon="5.29538">
        <ele>245</ele>
        <time>2021-06-14T14:10:15Z</time>
      </trkpt>
      <trkpt lat="46.50607" lon="5.29546">
        <ele>245.4</ele>
        <time>2021-06-14T14:10:17Z</time>
      </trkpt>
      <trkpt lat="46.50602" lon="5.2955">
        <ele>245.6</ele>
        <time>2021-06-14T14:10:19Z</time>
      </trkpt>
      <trkpt lat="46.50592" lon="5.29559">
        <ele>245.6</ele>
        <time>2021-06-14T14:10:21Z</time>
      </trkpt>
      <trkpt lat="46.50582" lon="5.29567">
        <ele>245.8</ele>
        <time>2021-06-14T14:10:23Z</time>
      </trkpt>
      <trkpt lat="46.50571" lon="5.29575">
        <ele>245.8</ele>
        <time>2021-06-14T14:10:25Z</time>
      </trkpt>
      <trkpt lat="46.5056" lon="5.29584">
        <ele>245.8</ele>
        <time>2021-06-14T14:10:27Z</time>
      </trkpt>
      <trkpt lat="46.50549" lon="5.29592">
        <ele>245.8</ele>
        <time>2021-06-14T14:10:29Z</time>
      </trkpt>
      <trkpt lat="46.50537" lon="5.29601">
        <ele>245.8</ele>
        <time>2021-06-14T14:10:31Z</time>
      </trkpt>
      <trkpt lat="46.50526" lon="5.2961">
        <ele>245.8</ele>
        <time>2021-06-14T14:10:33Z</time>
      </trkpt>
      <trkpt lat="46.50514" lon="5.29618">
        <ele>245.8</ele>
        <time>2021-06-14T14:10:35Z</time>
      </trkpt>
      <trkpt lat="46.50502" lon="5.29627">
        <ele>245.8</ele>
        <time>2021-06-14T14:10:36Z</time>
      </trkpt>
      <trkpt lat="46.50502" lon="5.29627">
        <ele>245.8</ele>
        <time>2021-06-14T14:10:37Z</time>
      </trkpt>
      <trkpt lat="46.5049" lon="5.29635">
        <ele>245.8</ele>
        <time>2021-06-14T14:10:39Z</time>
      </trkpt>
      <trkpt lat="46.50478" lon="5.29644">
        <ele>246</ele>
        <time>2021-06-14T14:10:41Z</time>
      </trkpt>
      <trkpt lat="46.50465" lon="5.29652">
        <ele>246</ele>
        <time>2021-06-14T14:10:43Z</time>
      </trkpt>
      <trkpt lat="46.50447" lon="5.29665">
        <ele>246</ele>
        <time>2021-06-14T14:10:45Z</time>
      </trkpt>
      <trkpt lat="46.50441" lon="5.29669">
        <ele>246</ele>
        <time>2021-06-14T14:10:46Z</time>
      </trkpt>
      <trkpt lat="46.50435" lon="5.29673">
        <ele>246</ele>
        <time>2021-06-14T14:10:47Z</time>
      </trkpt>
      <trkpt lat="46.50429" lon="5.29677">
        <ele>246</ele>
        <time>2021-06-14T14:10:49Z</time>
      </trkpt>
      <trkpt lat="46.50416" lon="5.29685">
        <ele>246</ele>
        <time>2021-06-14T14:10:51Z</time>
      </trkpt>
      <trkpt lat="46.50404" lon="5.29693">
        <ele>246</ele>
        <time>2021-06-14T14:10:53Z</time>
      </trkpt>
      <trkpt lat="46.50392" lon="5.29701">
        <ele>246</ele>
        <time>2021-06-14T14:10:55Z</time>
      </trkpt>
      <trkpt lat="46.5038" lon="5.29709">
        <ele>246</ele>
        <time>2021-06-14T14:10:57Z</time>
      </trkpt>
      <trkpt lat="46.50367" lon="5.29715">
        <ele>246</ele>
        <time>2021-06-14T14:10:59Z</time>
      </trkpt>
      <trkpt lat="46.50355" lon="5.29721">
        <ele>246</ele>
        <time>2021-06-14T14:11:01Z</time>
      </trkpt>
      <trkpt lat="46.50341" lon="5.29727">
        <ele>246</ele>
        <time>2021-06-14T14:11:03Z</time>
      </trkpt>
      <trkpt lat="46.50328" lon="5.29732">
        <ele>246</ele>
        <time>2021-06-14T14:11:05Z</time>
      </trkpt>
      <trkpt lat="46.50314" lon="5.29738">
        <ele>246</ele>
        <time>2021-06-14T14:11:07Z</time>
      </trkpt>
      <trkpt lat="46.503" lon="5.29743">
        <ele>246</ele>
        <time>2021-06-14T14:11:09Z</time>
      </trkpt>
      <trkpt lat="46.50286" lon="5.29749">
        <ele>246</ele>
        <time>2021-06-14T14:11:11Z</time>
      </trkpt>
      <trkpt lat="46.50272" lon="5.29755">
        <ele>245.8</ele>
        <time>2021-06-14T14:11:13Z</time>
      </trkpt>
      <trkpt lat="46.50257" lon="5.2976">
        <ele>245.8</ele>
        <time>2021-06-14T14:11:15Z</time>
      </trkpt>
      <trkpt lat="46.50243" lon="5.29765">
        <ele>245.8</ele>
        <time>2021-06-14T14:11:16Z</time>
      </trkpt>
      <trkpt lat="46.50243" lon="5.29765">
        <ele>245.8</ele>
        <time>2021-06-14T14:11:17Z</time>
      </trkpt>
      <trkpt lat="46.50228" lon="5.29766">
        <ele>245.6</ele>
        <time>2021-06-14T14:11:18Z</time>
      </trkpt>
      <trkpt lat="46.5022" lon="5.29766">
        <ele>245.4</ele>
        <time>2021-06-14T14:11:19Z</time>
      </trkpt>
      <trkpt lat="46.50206" lon="5.29766">
        <ele>245.2</ele>
        <time>2021-06-14T14:11:21Z</time>
      </trkpt>
      <trkpt lat="46.50191" lon="5.29764">
        <ele>245</ele>
        <time>2021-06-14T14:11:23Z</time>
      </trkpt>
      <trkpt lat="46.50184" lon="5.29764">
        <ele>245</ele>
        <time>2021-06-14T14:11:24Z</time>
      </trkpt>
      <trkpt lat="46.50184" lon="5.29764">
        <ele>245</ele>
        <time>2021-06-14T14:11:25Z</time>
      </trkpt>
      <trkpt lat="46.50161" lon="5.29765">
        <ele>245</ele>
        <time>2021-06-14T14:11:27Z</time>
      </trkpt>
      <trkpt lat="46.50145" lon="5.29768">
        <ele>244.8</ele>
        <time>2021-06-14T14:11:29Z</time>
      </trkpt>
      <trkpt lat="46.50129" lon="5.29773">
        <ele>244.8</ele>
        <time>2021-06-14T14:11:31Z</time>
      </trkpt>
      <trkpt lat="46.50113" lon="5.29777">
        <ele>244.8</ele>
        <time>2021-06-14T14:11:33Z</time>
      </trkpt>
      <trkpt lat="46.50096" lon="5.29783">
        <ele>244.8</ele>
        <time>2021-06-14T14:11:35Z</time>
      </trkpt>
      <trkpt lat="46.50079" lon="5.2979">
        <ele>244.2</ele>
        <time>2021-06-14T14:11:37Z</time>
      </trkpt>
      <trkpt lat="46.50079" lon="5.2979">
        <ele>243.8</ele>
        <time>2021-06-14T14:11:38Z</time>
      </trkpt>
      <trkpt lat="46.50062" lon="5.29797">
        <ele>243.4</ele>
        <time>2021-06-14T14:11:39Z</time>
      </trkpt>
      <trkpt lat="46.50054" lon="5.29802">
        <ele>242.8</ele>
        <time>2021-06-14T14:11:40Z</time>
      </trkpt>
      <trkpt lat="46.50054" lon="5.29802">
        <ele>241.6</ele>
        <time>2021-06-14T14:11:41Z</time>
      </trkpt>
      <trkpt lat="46.5004" lon="5.29816">
        <ele>241</ele>
        <time>2021-06-14T14:11:42Z</time>
      </trkpt>
      <trkpt lat="46.5004" lon="5.29816">
        <ele>240.6</ele>
        <time>2021-06-14T14:11:43Z</time>
      </trkpt>
      <trkpt lat="46.50028" lon="5.29833">
        <ele>240.2</ele>
        <time>2021-06-14T14:11:45Z</time>
      </trkpt>
      <trkpt lat="46.5002" lon="5.29847">
        <ele>240.2</ele>
        <time>2021-06-14T14:11:46Z</time>
      </trkpt>
      <trkpt lat="46.5002" lon="5.29847">
        <ele>240.2</ele>
        <time>2021-06-14T14:11:47Z</time>
      </trkpt>
      <trkpt lat="46.50018" lon="5.29862">
        <ele>240.2</ele>
        <time>2021-06-14T14:11:48Z</time>
      </trkpt>
      <trkpt lat="46.50018" lon="5.29862">
        <ele>240.2</ele>
        <time>2021-06-14T14:11:49Z</time>
      </trkpt>
      <trkpt lat="46.5002" lon="5.29868">
        <ele>240.2</ele>
        <time>2021-06-14T14:11:50Z</time>
      </trkpt>
      <trkpt lat="46.50023" lon="5.29874">
        <ele>240.2</ele>
        <time>2021-06-14T14:11:51Z</time>
      </trkpt>
      <trkpt lat="46.50032" lon="5.29885">
        <ele>240.2</ele>
        <time>2021-06-14T14:11:52Z</time>
      </trkpt>
      <trkpt lat="46.50037" lon="5.2989">
        <ele>240.2</ele>
        <time>2021-06-14T14:11:53Z</time>
      </trkpt>
      <trkpt lat="46.50047" lon="5.29903">
        <ele>240</ele>
        <time>2021-06-14T14:11:55Z</time>
      </trkpt>
      <trkpt lat="46.50057" lon="5.29918">
        <ele>240</ele>
        <time>2021-06-14T14:11:57Z</time>
      </trkpt>
      <trkpt lat="46.50061" lon="5.29926">
        <ele>240</ele>
        <time>2021-06-14T14:11:58Z</time>
      </trkpt>
      <trkpt lat="46.50065" lon="5.29934">
        <ele>240.2</ele>
        <time>2021-06-14T14:11:59Z</time>
      </trkpt>
      <trkpt lat="46.50072" lon="5.29951">
        <ele>240.2</ele>
        <time>2021-06-14T14:12:01Z</time>
      </trkpt>
      <trkpt lat="46.50078" lon="5.29969">
        <ele>240.4</ele>
        <time>2021-06-14T14:12:03Z</time>
      </trkpt>
      <trkpt lat="46.5008" lon="5.29978">
        <ele>240.6</ele>
        <time>2021-06-14T14:12:04Z</time>
      </trkpt>
      <trkpt lat="46.50082" lon="5.29988">
        <ele>240.6</ele>
        <time>2021-06-14T14:12:05Z</time>
      </trkpt>
      <trkpt lat="46.50083" lon="5.29998">
        <ele>240.6</ele>
        <time>2021-06-14T14:12:07Z</time>
      </trkpt>
      <trkpt lat="46.50085" lon="5.30018">
        <ele>240.8</ele>
        <time>2021-06-14T14:12:09Z</time>
      </trkpt>
      <trkpt lat="46.50086" lon="5.30038">
        <ele>241</ele>
        <time>2021-06-14T14:12:10Z</time>
      </trkpt>
      <trkpt lat="46.50086" lon="5.30047">
        <ele>241</ele>
        <time>2021-06-14T14:12:11Z</time>
      </trkpt>
      <trkpt lat="46.50086" lon="5.30067">
        <ele>241.2</ele>
        <time>2021-06-14T14:12:13Z</time>
      </trkpt>
      <trkpt lat="46.50086" lon="5.30088">
        <ele>241.4</ele>
        <time>2021-06-14T14:12:15Z</time>
      </trkpt>
      <trkpt lat="46.50086" lon="5.30108">
        <ele>241.4</ele>
        <time>2021-06-14T14:12:17Z</time>
      </trkpt>
      <trkpt lat="46.50087" lon="5.30128">
        <ele>241.6</ele>
        <time>2021-06-14T14:12:19Z</time>
      </trkpt>
      <trkpt lat="46.50086" lon="5.30149">
        <ele>241.6</ele>
        <time>2021-06-14T14:12:21Z</time>
      </trkpt>
      <trkpt lat="46.50086" lon="5.3017">
        <ele>241.6</ele>
        <time>2021-06-14T14:12:23Z</time>
      </trkpt>
      <trkpt lat="46.50086" lon="5.30191">
        <ele>241.6</ele>
        <time>2021-06-14T14:12:25Z</time>
      </trkpt>
      <trkpt lat="46.50086" lon="5.30213">
        <ele>241.4</ele>
        <time>2021-06-14T14:12:27Z</time>
      </trkpt>
      <trkpt lat="46.50086" lon="5.30234">
        <ele>240.8</ele>
        <time>2021-06-14T14:12:29Z</time>
      </trkpt>
      <trkpt lat="46.50086" lon="5.30245">
        <ele>240.8</ele>
        <time>2021-06-14T14:12:30Z</time>
      </trkpt>
      <trkpt lat="46.50085" lon="5.30256">
        <ele>240.8</ele>
        <time>2021-06-14T14:12:31Z</time>
      </trkpt>
      <trkpt lat="46.50084" lon="5.30277">
        <ele>240.6</ele>
        <time>2021-06-14T14:12:33Z</time>
      </trkpt>
      <trkpt lat="46.50081" lon="5.30299">
        <ele>240.4</ele>
        <time>2021-06-14T14:12:35Z</time>
      </trkpt>
      <trkpt lat="46.50079" lon="5.30311">
        <ele>240.4</ele>
        <time>2021-06-14T14:12:36Z</time>
      </trkpt>
      <trkpt lat="46.50079" lon="5.30311">
        <ele>240</ele>
        <time>2021-06-14T14:12:37Z</time>
      </trkpt>
      <trkpt lat="46.50073" lon="5.30333">
        <ele>240</ele>
        <time>2021-06-14T14:12:39Z</time>
      </trkpt>
      <trkpt lat="46.50063" lon="5.30355">
        <ele>239.4</ele>
        <time>2021-06-14T14:12:41Z</time>
      </trkpt>
      <trkpt lat="46.50052" lon="5.30375">
        <ele>239.4</ele>
        <time>2021-06-14T14:12:42Z</time>
      </trkpt>
      <trkpt lat="46.50052" lon="5.30375">
        <ele>239.2</ele>
        <time>2021-06-14T14:12:43Z</time>
      </trkpt>
      <trkpt lat="46.50031" lon="5.30398">
        <ele>238.8</ele>
        <time>2021-06-14T14:12:45Z</time>
      </trkpt>
      <trkpt lat="46.50024" lon="5.30404">
        <ele>238.4</ele>
        <time>2021-06-14T14:12:46Z</time>
      </trkpt>
      <trkpt lat="46.50017" lon="5.3041">
        <ele>238</ele>
        <time>2021-06-14T14:12:47Z</time>
      </trkpt>
      <trkpt lat="46.50003" lon="5.3042">
        <ele>237.6</ele>
        <time>2021-06-14T14:12:49Z</time>
      </trkpt>
      <trkpt lat="46.50003" lon="5.3042">
        <ele>237.4</ele>
        <time>2021-06-14T14:12:50Z</time>
      </trkpt>
      <trkpt lat="46.4999" lon="5.3043">
        <ele>237.4</ele>
        <time>2021-06-14T14:12:51Z</time>
      </trkpt>
      <trkpt lat="46.49984" lon="5.30435">
        <ele>237.4</ele>
        <time>2021-06-14T14:12:53Z</time>
      </trkpt>
      <trkpt lat="46.49972" lon="5.30446">
        <ele>237.4</ele>
        <time>2021-06-14T14:12:54Z</time>
      </trkpt>
      <trkpt lat="46.49972" lon="5.30446">
        <ele>237.4</ele>
        <time>2021-06-14T14:12:55Z</time>
      </trkpt>
      <trkpt lat="46.49962" lon="5.30458">
        <ele>237.4</ele>
        <time>2021-06-14T14:12:57Z</time>
      </trkpt>
      <trkpt lat="46.49954" lon="5.30472">
        <ele>237.6</ele>
        <time>2021-06-14T14:12:58Z</time>
      </trkpt>
      <trkpt lat="46.4995" lon="5.30479">
        <ele>238</ele>
        <time>2021-06-14T14:12:59Z</time>
      </trkpt>
      <trkpt lat="46.49947" lon="5.30486">
        <ele>238.6</ele>
        <time>2021-06-14T14:13:01Z</time>
      </trkpt>
      <trkpt lat="46.49944" lon="5.30494">
        <ele>239</ele>
        <time>2021-06-14T14:13:02Z</time>
      </trkpt>
      <trkpt lat="46.49941" lon="5.30502">
        <ele>239.2</ele>
        <time>2021-06-14T14:13:03Z</time>
      </trkpt>
      <trkpt lat="46.49936" lon="5.30517">
        <ele>239.4</ele>
        <time>2021-06-14T14:13:04Z</time>
      </trkpt>
      <trkpt lat="46.49934" lon="5.30526">
        <ele>240</ele>
        <time>2021-06-14T14:13:05Z</time>
      </trkpt>
      <trkpt lat="46.49932" lon="5.30542">
        <ele>240.6</ele>
        <time>2021-06-14T14:13:07Z</time>
      </trkpt>
      <trkpt lat="46.4993" lon="5.30558">
        <ele>241</ele>
        <time>2021-06-14T14:13:09Z</time>
      </trkpt>
      <trkpt lat="46.4993" lon="5.30566">
        <ele>241.2</ele>
        <time>2021-06-14T14:13:10Z</time>
      </trkpt>
      <trkpt lat="46.4993" lon="5.30566">
        <ele>241.4</ele>
        <time>2021-06-14T14:13:11Z</time>
      </trkpt>
      <trkpt lat="46.4993" lon="5.30583">
        <ele>241.8</ele>
        <time>2021-06-14T14:13:13Z</time>
      </trkpt>
      <trkpt lat="46.49931" lon="5.30591">
        <ele>242.2</ele>
        <time>2021-06-14T14:13:14Z</time>
      </trkpt>
      <trkpt lat="46.49932" lon="5.30606">
        <ele>242.4</ele>
        <time>2021-06-14T14:13:15Z</time>
      </trkpt>
      <trkpt lat="46.49934" lon="5.30622">
        <ele>243</ele>
        <time>2021-06-14T14:13:17Z</time>
      </trkpt>
      <trkpt lat="46.49935" lon="5.3063">
        <ele>243.4</ele>
        <time>2021-06-14T14:13:18Z</time>
      </trkpt>
      <trkpt lat="46.49937" lon="5.30638">
        <ele>243.6</ele>
        <time>2021-06-14T14:13:19Z</time>
      </trkpt>
      <trkpt lat="46.49937" lon="5.30638">
        <ele>244</ele>
        <time>2021-06-14T14:13:20Z</time>
      </trkpt>
      <trkpt lat="46.49939" lon="5.30653">
        <ele>244.2</ele>
        <time>2021-06-14T14:13:21Z</time>
      </trkpt>
      <trkpt lat="46.49941" lon="5.3066">
        <ele>244.4</ele>
        <time>2021-06-14T14:13:22Z</time>
      </trkpt>
      <trkpt lat="46.49941" lon="5.3066">
        <ele>244.4</ele>
        <time>2021-06-14T14:13:23Z</time>
      </trkpt>
      <trkpt lat="46.49944" lon="5.30675">
        <ele>244.6</ele>
        <time>2021-06-14T14:13:25Z</time>
      </trkpt>
      <trkpt lat="46.49948" lon="5.30697">
        <ele>244.8</ele>
        <time>2021-06-14T14:13:27Z</time>
      </trkpt>
      <trkpt lat="46.49951" lon="5.30711">
        <ele>245.4</ele>
        <time>2021-06-14T14:13:29Z</time>
      </trkpt>
      <trkpt lat="46.49953" lon="5.30718">
        <ele>245.6</ele>
        <time>2021-06-14T14:13:30Z</time>
      </trkpt>
      <trkpt lat="46.49953" lon="5.30718">
        <ele>245.6</ele>
        <time>2021-06-14T14:13:31Z</time>
      </trkpt>
      <trkpt lat="46.49955" lon="5.30733">
        <ele>246.2</ele>
        <time>2021-06-14T14:13:33Z</time>
      </trkpt>
      <trkpt lat="46.49958" lon="5.30749">
        <ele>246.6</ele>
        <time>2021-06-14T14:13:35Z</time>
      </trkpt>
      <trkpt lat="46.49962" lon="5.30765">
        <ele>246.6</ele>
        <time>2021-06-14T14:13:37Z</time>
      </trkpt>
      <trkpt lat="46.49967" lon="5.3079">
        <ele>246.6</ele>
        <time>2021-06-14T14:13:39Z</time>
      </trkpt>
      <trkpt lat="46.49971" lon="5.30806">
        <ele>246.6</ele>
        <time>2021-06-14T14:13:41Z</time>
      </trkpt>
      <trkpt lat="46.49973" lon="5.30815">
        <ele>246.8</ele>
        <time>2021-06-14T14:13:43Z</time>
      </trkpt>
      <trkpt lat="46.49975" lon="5.30823">
        <ele>246.8</ele>
        <time>2021-06-14T14:13:44Z</time>
      </trkpt>
      <trkpt lat="46.49981" lon="5.30839">
        <ele>246.6</ele>
        <time>2021-06-14T14:13:45Z</time>
      </trkpt>
      <trkpt lat="46.49987" lon="5.30857">
        <ele>246.6</ele>
        <time>2021-06-14T14:13:47Z</time>
      </trkpt>
      <trkpt lat="46.4999" lon="5.30866">
        <ele>246.4</ele>
        <time>2021-06-14T14:13:49Z</time>
      </trkpt>
      <trkpt lat="46.49997" lon="5.30884">
        <ele>246</ele>
        <time>2021-06-14T14:13:51Z</time>
      </trkpt>
      <trkpt lat="46.50005" lon="5.30904">
        <ele>245.4</ele>
        <time>2021-06-14T14:13:53Z</time>
      </trkpt>
      <trkpt lat="46.50013" lon="5.30925">
        <ele>245.2</ele>
        <time>2021-06-14T14:13:55Z</time>
      </trkpt>
      <trkpt lat="46.50021" lon="5.30948">
        <ele>244.6</ele>
        <time>2021-06-14T14:13:57Z</time>
      </trkpt>
      <trkpt lat="46.50029" lon="5.30971">
        <ele>244.2</ele>
        <time>2021-06-14T14:13:58Z</time>
      </trkpt>
      <trkpt lat="46.50029" lon="5.30971">
        <ele>243.6</ele>
        <time>2021-06-14T14:13:59Z</time>
      </trkpt>
      <trkpt lat="46.50037" lon="5.30995">
        <ele>242.8</ele>
        <time>2021-06-14T14:14:00Z</time>
      </trkpt>
      <trkpt lat="46.50037" lon="5.30995">
        <ele>241.8</ele>
        <time>2021-06-14T14:14:01Z</time>
      </trkpt>
      <trkpt lat="46.50046" lon="5.3102">
        <ele>241</ele>
        <time>2021-06-14T14:14:03Z</time>
      </trkpt>
      <trkpt lat="46.50055" lon="5.31046">
        <ele>240.4</ele>
        <time>2021-06-14T14:14:04Z</time>
      </trkpt>
      <trkpt lat="46.50055" lon="5.31046">
        <ele>240</ele>
        <time>2021-06-14T14:14:05Z</time>
      </trkpt>
      <trkpt lat="46.50064" lon="5.31072">
        <ele>239.6</ele>
        <time>2021-06-14T14:14:06Z</time>
      </trkpt>
      <trkpt lat="46.50064" lon="5.31072">
        <ele>239.2</ele>
        <time>2021-06-14T14:14:07Z</time>
      </trkpt>
      <trkpt lat="46.50077" lon="5.31113">
        <ele>238.8</ele>
        <time>2021-06-14T14:14:09Z</time>
      </trkpt>
      <trkpt lat="46.50081" lon="5.31126">
        <ele>238</ele>
        <time>2021-06-14T14:14:10Z</time>
      </trkpt>
      <trkpt lat="46.50086" lon="5.31139">
        <ele>237.6</ele>
        <time>2021-06-14T14:14:11Z</time>
      </trkpt>
      <trkpt lat="46.5009" lon="5.31151">
        <ele>236.8</ele>
        <time>2021-06-14T14:14:12Z</time>
      </trkpt>
      <trkpt lat="46.5009" lon="5.31151">
        <ele>236</ele>
        <time>2021-06-14T14:14:13Z</time>
      </trkpt>
      <trkpt lat="46.50094" lon="5.31164">
        <ele>235.4</ele>
        <time>2021-06-14T14:14:14Z</time>
      </trkpt>
      <trkpt lat="46.50098" lon="5.31176">
        <ele>234.8</ele>
        <time>2021-06-14T14:14:15Z</time>
      </trkpt>
      <trkpt lat="46.50106" lon="5.31198">
        <ele>234.2</ele>
        <time>2021-06-14T14:14:16Z</time>
      </trkpt>
      <trkpt lat="46.50106" lon="5.31198">
        <ele>234</ele>
        <time>2021-06-14T14:14:17Z</time>
      </trkpt>
      <trkpt lat="46.50116" lon="5.3123">
        <ele>234</ele>
        <time>2021-06-14T14:14:19Z</time>
      </trkpt>
      <trkpt lat="46.5012" lon="5.3124">
        <ele>233.8</ele>
        <time>2021-06-14T14:14:21Z</time>
      </trkpt>
      <trkpt lat="46.5013" lon="5.31269">
        <ele>233.8</ele>
        <time>2021-06-14T14:14:23Z</time>
      </trkpt>
      <trkpt lat="46.50133" lon="5.31278">
        <ele>233.8</ele>
        <time>2021-06-14T14:14:25Z</time>
      </trkpt>
      <trkpt lat="46.50144" lon="5.31307">
        <ele>234.8</ele>
        <time>2021-06-14T14:14:27Z</time>
      </trkpt>
      <trkpt lat="46.50147" lon="5.31317">
        <ele>235.8</ele>
        <time>2021-06-14T14:14:29Z</time>
      </trkpt>
      <trkpt lat="46.50153" lon="5.31337">
        <ele>236</ele>
        <time>2021-06-14T14:14:31Z</time>
      </trkpt>
      <trkpt lat="46.5016" lon="5.31357">
        <ele>236.2</ele>
        <time>2021-06-14T14:14:33Z</time>
      </trkpt>
      <trkpt lat="46.50167" lon="5.31378">
        <ele>236.4</ele>
        <time>2021-06-14T14:14:35Z</time>
      </trkpt>
      <trkpt lat="46.50174" lon="5.31399">
        <ele>236.4</ele>
        <time>2021-06-14T14:14:37Z</time>
      </trkpt>
      <trkpt lat="46.50182" lon="5.3142">
        <ele>236.4</ele>
        <time>2021-06-14T14:14:39Z</time>
      </trkpt>
      <trkpt lat="46.50189" lon="5.31443">
        <ele>236.2</ele>
        <time>2021-06-14T14:14:41Z</time>
      </trkpt>
      <trkpt lat="46.50197" lon="5.31467">
        <ele>235.8</ele>
        <time>2021-06-14T14:14:43Z</time>
      </trkpt>
      <trkpt lat="46.50206" lon="5.31491">
        <ele>235</ele>
        <time>2021-06-14T14:14:45Z</time>
      </trkpt>
      <trkpt lat="46.50215" lon="5.31515">
        <ele>234.6</ele>
        <time>2021-06-14T14:14:47Z</time>
      </trkpt>
      <trkpt lat="46.50226" lon="5.31539">
        <ele>234.2</ele>
        <time>2021-06-14T14:14:48Z</time>
      </trkpt>
      <trkpt lat="46.50226" lon="5.31539">
        <ele>233.6</ele>
        <time>2021-06-14T14:14:49Z</time>
      </trkpt>
      <trkpt lat="46.50232" lon="5.3155">
        <ele>233</ele>
        <time>2021-06-14T14:14:50Z</time>
      </trkpt>
      <trkpt lat="46.50239" lon="5.3156">
        <ele>232.4</ele>
        <time>2021-06-14T14:14:51Z</time>
      </trkpt>
      <trkpt lat="46.50254" lon="5.31579">
        <ele>232</ele>
        <time>2021-06-14T14:14:52Z</time>
      </trkpt>
      <trkpt lat="46.50254" lon="5.31579">
        <ele>231.4</ele>
        <time>2021-06-14T14:14:53Z</time>
      </trkpt>
      <trkpt lat="46.50269" lon="5.31594">
        <ele>230.8</ele>
        <time>2021-06-14T14:14:54Z</time>
      </trkpt>
      <trkpt lat="46.50269" lon="5.31594">
        <ele>230.2</ele>
        <time>2021-06-14T14:14:55Z</time>
      </trkpt>
      <trkpt lat="46.50292" lon="5.31613">
        <ele>229.2</ele>
        <time>2021-06-14T14:14:57Z</time>
      </trkpt>
      <trkpt lat="46.50308" lon="5.31625">
        <ele>229</ele>
        <time>2021-06-14T14:14:59Z</time>
      </trkpt>
      <trkpt lat="46.50315" lon="5.31631">
        <ele>228.6</ele>
        <time>2021-06-14T14:15:01Z</time>
      </trkpt>
      <trkpt lat="46.50337" lon="5.31646">
        <ele>228.4</ele>
        <time>2021-06-14T14:15:03Z</time>
      </trkpt>
      <trkpt lat="46.50351" lon="5.31657">
        <ele>228.2</ele>
        <time>2021-06-14T14:15:05Z</time>
      </trkpt>
      <trkpt lat="46.50364" lon="5.31669">
        <ele>228.2</ele>
        <time>2021-06-14T14:15:07Z</time>
      </trkpt>
      <trkpt lat="46.50374" lon="5.31684">
        <ele>228.4</ele>
        <time>2021-06-14T14:15:09Z</time>
      </trkpt>
      <trkpt lat="46.50383" lon="5.317">
        <ele>228.6</ele>
        <time>2021-06-14T14:15:11Z</time>
      </trkpt>
      <trkpt lat="46.50388" lon="5.31707">
        <ele>228.6</ele>
        <time>2021-06-14T14:15:12Z</time>
      </trkpt>
      <trkpt lat="46.50392" lon="5.31715">
        <ele>228.8</ele>
        <time>2021-06-14T14:15:13Z</time>
      </trkpt>
      <trkpt lat="46.504" lon="5.31732">
        <ele>228.8</ele>
        <time>2021-06-14T14:15:15Z</time>
      </trkpt>
      <trkpt lat="46.50407" lon="5.31749">
        <ele>229</ele>
        <time>2021-06-14T14:15:17Z</time>
      </trkpt>
      <trkpt lat="46.50413" lon="5.31767">
        <ele>229.4</ele>
        <time>2021-06-14T14:15:19Z</time>
      </trkpt>
      <trkpt lat="46.50418" lon="5.31785">
        <ele>230</ele>
        <time>2021-06-14T14:15:21Z</time>
      </trkpt>
      <trkpt lat="46.50421" lon="5.31795">
        <ele>230.4</ele>
        <time>2021-06-14T14:15:22Z</time>
      </trkpt>
      <trkpt lat="46.50423" lon="5.31804">
        <ele>230.6</ele>
        <time>2021-06-14T14:15:23Z</time>
      </trkpt>
      <trkpt lat="46.50427" lon="5.31822">
        <ele>230.6</ele>
        <time>2021-06-14T14:15:25Z</time>
      </trkpt>
      <trkpt lat="46.50431" lon="5.31841">
        <ele>230.8</ele>
        <time>2021-06-14T14:15:27Z</time>
      </trkpt>
      <trkpt lat="46.50433" lon="5.3185">
        <ele>231</ele>
        <time>2021-06-14T14:15:28Z</time>
      </trkpt>
      <trkpt lat="46.50435" lon="5.31859">
        <ele>231</ele>
        <time>2021-06-14T14:15:29Z</time>
      </trkpt>
      <trkpt lat="46.50437" lon="5.31878">
        <ele>231</ele>
        <time>2021-06-14T14:15:31Z</time>
      </trkpt>
      <trkpt lat="46.50438" lon="5.31898">
        <ele>231.2</ele>
        <time>2021-06-14T14:15:33Z</time>
      </trkpt>
      <trkpt lat="46.50438" lon="5.31917">
        <ele>231.2</ele>
        <time>2021-06-14T14:15:35Z</time>
      </trkpt>
      <trkpt lat="46.50438" lon="5.31935">
        <ele>231.2</ele>
        <time>2021-06-14T14:15:37Z</time>
      </trkpt>
      <trkpt lat="46.50437" lon="5.31954">
        <ele>231.2</ele>
        <time>2021-06-14T14:15:39Z</time>
      </trkpt>
      <trkpt lat="46.50437" lon="5.31972">
        <ele>231.4</ele>
        <time>2021-06-14T14:15:41Z</time>
      </trkpt>
      <trkpt lat="46.50437" lon="5.31982">
        <ele>231.4</ele>
        <time>2021-06-14T14:15:42Z</time>
      </trkpt>
      <trkpt lat="46.50437" lon="5.31991">
        <ele>231.4</ele>
        <time>2021-06-14T14:15:43Z</time>
      </trkpt>
      <trkpt lat="46.50437" lon="5.31991">
        <ele>231.4</ele>
        <time>2021-06-14T14:15:44Z</time>
      </trkpt>
      <trkpt lat="46.50436" lon="5.3201">
        <ele>231.4</ele>
        <time>2021-06-14T14:15:45Z</time>
      </trkpt>
      <trkpt lat="46.50435" lon="5.32028">
        <ele>231.4</ele>
        <time>2021-06-14T14:15:47Z</time>
      </trkpt>
      <trkpt lat="46.50435" lon="5.32046">
        <ele>231.6</ele>
        <time>2021-06-14T14:15:49Z</time>
      </trkpt>
      <trkpt lat="46.50434" lon="5.32064">
        <ele>231.6</ele>
        <time>2021-06-14T14:15:51Z</time>
      </trkpt>
      <trkpt lat="46.50434" lon="5.32073">
        <ele>231.6</ele>
        <time>2021-06-14T14:15:52Z</time>
      </trkpt>
      <trkpt lat="46.50434" lon="5.32082">
        <ele>231.8</ele>
        <time>2021-06-14T14:15:53Z</time>
      </trkpt>
      <trkpt lat="46.50433" lon="5.321">
        <ele>231.8</ele>
        <time>2021-06-14T14:15:55Z</time>
      </trkpt>
      <trkpt lat="46.50433" lon="5.32117">
        <ele>232</ele>
        <time>2021-06-14T14:15:57Z</time>
      </trkpt>
      <trkpt lat="46.50432" lon="5.32134">
        <ele>232</ele>
        <time>2021-06-14T14:15:59Z</time>
      </trkpt>
      <trkpt lat="46.50432" lon="5.32151">
        <ele>232.4</ele>
        <time>2021-06-14T14:16:01Z</time>
      </trkpt>
      <trkpt lat="46.50432" lon="5.32151">
        <ele>232.4</ele>
        <time>2021-06-14T14:16:02Z</time>
      </trkpt>
      <trkpt lat="46.50432" lon="5.32168">
        <ele>232.6</ele>
        <time>2021-06-14T14:16:03Z</time>
      </trkpt>
      <trkpt lat="46.50431" lon="5.32176">
        <ele>232.8</ele>
        <time>2021-06-14T14:16:04Z</time>
      </trkpt>
      <trkpt lat="46.50431" lon="5.32185">
        <ele>233</ele>
        <time>2021-06-14T14:16:05Z</time>
      </trkpt>
      <trkpt lat="46.50431" lon="5.32201">
        <ele>233.2</ele>
        <time>2021-06-14T14:16:07Z</time>
      </trkpt>
      <trkpt lat="46.5043" lon="5.32218">
        <ele>233.4</ele>
        <time>2021-06-14T14:16:09Z</time>
      </trkpt>
      <trkpt lat="46.5043" lon="5.32226">
        <ele>233.4</ele>
        <time>2021-06-14T14:16:10Z</time>
      </trkpt>
      <trkpt lat="46.50431" lon="5.32234">
        <ele>233.6</ele>
        <time>2021-06-14T14:16:11Z</time>
      </trkpt>
      <trkpt lat="46.50431" lon="5.32251">
        <ele>234</ele>
        <time>2021-06-14T14:16:13Z</time>
      </trkpt>
      <trkpt lat="46.50432" lon="5.32267">
        <ele>234.2</ele>
        <time>2021-06-14T14:16:15Z</time>
      </trkpt>
      <trkpt lat="46.50433" lon="5.32284">
        <ele>234.4</ele>
        <time>2021-06-14T14:16:17Z</time>
      </trkpt>
      <trkpt lat="46.50436" lon="5.32301">
        <ele>234.6</ele>
        <time>2021-06-14T14:16:19Z</time>
      </trkpt>
      <trkpt lat="46.50439" lon="5.32318">
        <ele>235</ele>
        <time>2021-06-14T14:16:21Z</time>
      </trkpt>
      <trkpt lat="46.50441" lon="5.32327">
        <ele>235</ele>
        <time>2021-06-14T14:16:22Z</time>
      </trkpt>
      <trkpt lat="46.50443" lon="5.32337">
        <ele>235</ele>
        <time>2021-06-14T14:16:23Z</time>
      </trkpt>
      <trkpt lat="46.50447" lon="5.32356">
        <ele>235</ele>
        <time>2021-06-14T14:16:25Z</time>
      </trkpt>
      <trkpt lat="46.50451" lon="5.32375">
        <ele>235</ele>
        <time>2021-06-14T14:16:27Z</time>
      </trkpt>
      <trkpt lat="46.50455" lon="5.32394">
        <ele>235</ele>
        <time>2021-06-14T14:16:29Z</time>
      </trkpt>
      <trkpt lat="46.50457" lon="5.32404">
        <ele>235</ele>
        <time>2021-06-14T14:16:30Z</time>
      </trkpt>
      <trkpt lat="46.50459" lon="5.32414">
        <ele>235</ele>
        <time>2021-06-14T14:16:31Z</time>
      </trkpt>
      <trkpt lat="46.50463" lon="5.32434">
        <ele>234.8</ele>
        <time>2021-06-14T14:16:33Z</time>
      </trkpt>
      <trkpt lat="46.50466" lon="5.32453">
        <ele>234.8</ele>
        <time>2021-06-14T14:16:35Z</time>
      </trkpt>
      <trkpt lat="46.50468" lon="5.32473">
        <ele>234.8</ele>
        <time>2021-06-14T14:16:37Z</time>
      </trkpt>
      <trkpt lat="46.50469" lon="5.32482">
        <ele>234.8</ele>
        <time>2021-06-14T14:16:38Z</time>
      </trkpt>
      <trkpt lat="46.50469" lon="5.32492">
        <ele>234.8</ele>
        <time>2021-06-14T14:16:39Z</time>
      </trkpt>
      <trkpt lat="46.50471" lon="5.32511">
        <ele>234.8</ele>
        <time>2021-06-14T14:16:41Z</time>
      </trkpt>
      <trkpt lat="46.50472" lon="5.32529">
        <ele>234.8</ele>
        <time>2021-06-14T14:16:43Z</time>
      </trkpt>
      <trkpt lat="46.50473" lon="5.32548">
        <ele>234.8</ele>
        <time>2021-06-14T14:16:45Z</time>
      </trkpt>
      <trkpt lat="46.50474" lon="5.32566">
        <ele>235</ele>
        <time>2021-06-14T14:16:47Z</time>
      </trkpt>
      <trkpt lat="46.50475" lon="5.32585">
        <ele>235.4</ele>
        <time>2021-06-14T14:16:49Z</time>
      </trkpt>
      <trkpt lat="46.50475" lon="5.32603">
        <ele>235.6</ele>
        <time>2021-06-14T14:16:51Z</time>
      </trkpt>
      <trkpt lat="46.50476" lon="5.32622">
        <ele>236</ele>
        <time>2021-06-14T14:16:53Z</time>
      </trkpt>
      <trkpt lat="46.50476" lon="5.3264">
        <ele>236</ele>
        <time>2021-06-14T14:16:55Z</time>
      </trkpt>
      <trkpt lat="46.50476" lon="5.32658">
        <ele>236.2</ele>
        <time>2021-06-14T14:16:57Z</time>
      </trkpt>
      <trkpt lat="46.50476" lon="5.32677">
        <ele>236.4</ele>
        <time>2021-06-14T14:16:59Z</time>
      </trkpt>
      <trkpt lat="46.50475" lon="5.32686">
        <ele>236.6</ele>
        <time>2021-06-14T14:17:00Z</time>
      </trkpt>
      <trkpt lat="46.50475" lon="5.32695">
        <ele>236.6</ele>
        <time>2021-06-14T14:17:01Z</time>
      </trkpt>
      <trkpt lat="46.50475" lon="5.32713">
        <ele>236.8</ele>
        <time>2021-06-14T14:17:03Z</time>
      </trkpt>
      <trkpt lat="46.50474" lon="5.32732">
        <ele>237.2</ele>
        <time>2021-06-14T14:17:05Z</time>
      </trkpt>
      <trkpt lat="46.50474" lon="5.3275">
        <ele>237.6</ele>
        <time>2021-06-14T14:17:07Z</time>
      </trkpt>
      <trkpt lat="46.50474" lon="5.32768">
        <ele>237.8</ele>
        <time>2021-06-14T14:17:09Z</time>
      </trkpt>
      <trkpt lat="46.50473" lon="5.32787">
        <ele>237.8</ele>
        <time>2021-06-14T14:17:11Z</time>
      </trkpt>
      <trkpt lat="46.50473" lon="5.32796">
        <ele>237.8</ele>
        <time>2021-06-14T14:17:12Z</time>
      </trkpt>
      <trkpt lat="46.50473" lon="5.32805">
        <ele>237.8</ele>
        <time>2021-06-14T14:17:13Z</time>
      </trkpt>
      <trkpt lat="46.50473" lon="5.32824">
        <ele>238</ele>
        <time>2021-06-14T14:17:15Z</time>
      </trkpt>
      <trkpt lat="46.50472" lon="5.32842">
        <ele>238</ele>
        <time>2021-06-14T14:17:17Z</time>
      </trkpt>
      <trkpt lat="46.50472" lon="5.3286">
        <ele>238</ele>
        <time>2021-06-14T14:17:19Z</time>
      </trkpt>
      <trkpt lat="46.50471" lon="5.32877">
        <ele>238</ele>
        <time>2021-06-14T14:17:21Z</time>
      </trkpt>
      <trkpt lat="46.50471" lon="5.32893">
        <ele>238</ele>
        <time>2021-06-14T14:17:23Z</time>
      </trkpt>
      <trkpt lat="46.50471" lon="5.32909">
        <ele>238</ele>
        <time>2021-06-14T14:17:25Z</time>
      </trkpt>
      <trkpt lat="46.5047" lon="5.32925">
        <ele>238.6</ele>
        <time>2021-06-14T14:17:27Z</time>
      </trkpt>
      <trkpt lat="46.5047" lon="5.32939">
        <ele>239</ele>
        <time>2021-06-14T14:17:29Z</time>
      </trkpt>
      <trkpt lat="46.5047" lon="5.32954">
        <ele>240</ele>
        <time>2021-06-14T14:17:31Z</time>
      </trkpt>
      <trkpt lat="46.5047" lon="5.32954">
        <ele>240.2</ele>
        <time>2021-06-14T14:17:32Z</time>
      </trkpt>
      <trkpt lat="46.5047" lon="5.32968">
        <ele>240.6</ele>
        <time>2021-06-14T14:17:33Z</time>
      </trkpt>
      <trkpt lat="46.5047" lon="5.32982">
        <ele>241.2</ele>
        <time>2021-06-14T14:17:35Z</time>
      </trkpt>
      <trkpt lat="46.5047" lon="5.32988">
        <ele>241.4</ele>
        <time>2021-06-14T14:17:36Z</time>
      </trkpt>
      <trkpt lat="46.5047" lon="5.32995">
        <ele>241.6</ele>
        <time>2021-06-14T14:17:37Z</time>
      </trkpt>
      <trkpt lat="46.5047" lon="5.33009">
        <ele>242.2</ele>
        <time>2021-06-14T14:17:39Z</time>
      </trkpt>
      <trkpt lat="46.50469" lon="5.33015">
        <ele>242.6</ele>
        <time>2021-06-14T14:17:40Z</time>
      </trkpt>
      <trkpt lat="46.50469" lon="5.33021">
        <ele>242.8</ele>
        <time>2021-06-14T14:17:41Z</time>
      </trkpt>
      <trkpt lat="46.50469" lon="5.33028">
        <ele>243</ele>
        <time>2021-06-14T14:17:42Z</time>
      </trkpt>
      <trkpt lat="46.50469" lon="5.33034">
        <ele>243.2</ele>
        <time>2021-06-14T14:17:43Z</time>
      </trkpt>
      <trkpt lat="46.50469" lon="5.33047">
        <ele>243.8</ele>
        <time>2021-06-14T14:17:45Z</time>
      </trkpt>
      <trkpt lat="46.50469" lon="5.33059">
        <ele>244.2</ele>
        <time>2021-06-14T14:17:47Z</time>
      </trkpt>
      <trkpt lat="46.50468" lon="5.33065">
        <ele>244.6</ele>
        <time>2021-06-14T14:17:49Z</time>
      </trkpt>
      <trkpt lat="46.50468" lon="5.3307">
        <ele>244.8</ele>
        <time>2021-06-14T14:17:50Z</time>
      </trkpt>
      <trkpt lat="46.50468" lon="5.33081">
        <ele>245</ele>
        <time>2021-06-14T14:17:51Z</time>
      </trkpt>
      <trkpt lat="46.50469" lon="5.33091">
        <ele>245.4</ele>
        <time>2021-06-14T14:17:53Z</time>
      </trkpt>
      <trkpt lat="46.50469" lon="5.331">
        <ele>246</ele>
        <time>2021-06-14T14:17:55Z</time>
      </trkpt>
      <trkpt lat="46.50469" lon="5.331">
        <ele>246.2</ele>
        <time>2021-06-14T14:17:56Z</time>
      </trkpt>
      <trkpt lat="46.50469" lon="5.3311">
        <ele>246.4</ele>
        <time>2021-06-14T14:17:57Z</time>
      </trkpt>
      <trkpt lat="46.50468" lon="5.33119">
        <ele>247</ele>
        <time>2021-06-14T14:17:59Z</time>
      </trkpt>
      <trkpt lat="46.50468" lon="5.33125">
        <ele>247.6</ele>
        <time>2021-06-14T14:18:01Z</time>
      </trkpt>
      <trkpt lat="46.50468" lon="5.3313">
        <ele>247.8</ele>
        <time>2021-06-14T14:18:02Z</time>
      </trkpt>
      <trkpt lat="46.50468" lon="5.33135">
        <ele>248</ele>
        <time>2021-06-14T14:18:03Z</time>
      </trkpt>
      <trkpt lat="46.50467" lon="5.33145">
        <ele>248.4</ele>
        <time>2021-06-14T14:18:04Z</time>
      </trkpt>
      <trkpt lat="46.50467" lon="5.33151">
        <ele>248.4</ele>
        <time>2021-06-14T14:18:05Z</time>
      </trkpt>
      <trkpt lat="46.50467" lon="5.33157">
        <ele>248.8</ele>
        <time>2021-06-14T14:18:07Z</time>
      </trkpt>
      <trkpt lat="46.50466" lon="5.33179">
        <ele>249.2</ele>
        <time>2021-06-14T14:18:09Z</time>
      </trkpt>
      <trkpt lat="46.50466" lon="5.33186">
        <ele>249.4</ele>
        <time>2021-06-14T14:18:10Z</time>
      </trkpt>
      <trkpt lat="46.50466" lon="5.33192">
        <ele>249.6</ele>
        <time>2021-06-14T14:18:11Z</time>
      </trkpt>
      <trkpt lat="46.50466" lon="5.332">
        <ele>250.2</ele>
        <time>2021-06-14T14:18:13Z</time>
      </trkpt>
      <trkpt lat="46.50466" lon="5.33208">
        <ele>250.4</ele>
        <time>2021-06-14T14:18:14Z</time>
      </trkpt>
      <trkpt lat="46.50466" lon="5.33223">
        <ele>250.6</ele>
        <time>2021-06-14T14:18:15Z</time>
      </trkpt>
      <trkpt lat="46.50465" lon="5.33231">
        <ele>250.6</ele>
        <time>2021-06-14T14:18:16Z</time>
      </trkpt>
      <trkpt lat="46.50465" lon="5.3324">
        <ele>250.6</ele>
        <time>2021-06-14T14:18:17Z</time>
      </trkpt>
      <trkpt lat="46.50465" lon="5.33257">
        <ele>250.8</ele>
        <time>2021-06-14T14:18:19Z</time>
      </trkpt>
      <trkpt lat="46.50465" lon="5.33266">
        <ele>250.8</ele>
        <time>2021-06-14T14:18:21Z</time>
      </trkpt>
      <trkpt lat="46.50464" lon="5.33284">
        <ele>250.8</ele>
        <time>2021-06-14T14:18:23Z</time>
      </trkpt>
      <trkpt lat="46.50462" lon="5.33313">
        <ele>250.6</ele>
        <time>2021-06-14T14:18:25Z</time>
      </trkpt>
      <trkpt lat="46.50462" lon="5.33332">
        <ele>250.4</ele>
        <time>2021-06-14T14:18:27Z</time>
      </trkpt>
      <trkpt lat="46.5046" lon="5.33351">
        <ele>250.4</ele>
        <time>2021-06-14T14:18:29Z</time>
      </trkpt>
      <trkpt lat="46.50457" lon="5.3337">
        <ele>250</ele>
        <time>2021-06-14T14:18:31Z</time>
      </trkpt>
      <trkpt lat="46.50454" lon="5.3338">
        <ele>249.8</ele>
        <time>2021-06-14T14:18:33Z</time>
      </trkpt>
      <trkpt lat="46.50449" lon="5.33397">
        <ele>249.8</ele>
        <time>2021-06-14T14:18:34Z</time>
      </trkpt>
      <trkpt lat="46.50445" lon="5.33406">
        <ele>249.6</ele>
        <time>2021-06-14T14:18:35Z</time>
      </trkpt>
      <trkpt lat="46.50441" lon="5.33414">
        <ele>249.6</ele>
        <time>2021-06-14T14:18:36Z</time>
      </trkpt>
      <trkpt lat="46.50437" lon="5.33421">
        <ele>249.6</ele>
        <time>2021-06-14T14:18:37Z</time>
      </trkpt>
      <trkpt lat="46.50437" lon="5.33421">
        <ele>249.6</ele>
        <time>2021-06-14T14:18:38Z</time>
      </trkpt>
      <trkpt lat="46.50432" lon="5.33428">
        <ele>249.6</ele>
        <time>2021-06-14T14:18:39Z</time>
      </trkpt>
      <trkpt lat="46.50417" lon="5.33446">
        <ele>249.6</ele>
        <time>2021-06-14T14:18:41Z</time>
      </trkpt>
      <trkpt lat="46.50412" lon="5.33452">
        <ele>249.6</ele>
        <time>2021-06-14T14:18:42Z</time>
      </trkpt>
      <trkpt lat="46.50406" lon="5.33458">
        <ele>249.6</ele>
        <time>2021-06-14T14:18:43Z</time>
      </trkpt>
      <trkpt lat="46.50397" lon="5.3347">
        <ele>249.6</ele>
        <time>2021-06-14T14:18:45Z</time>
      </trkpt>
      <trkpt lat="46.50388" lon="5.33482">
        <ele>249.8</ele>
        <time>2021-06-14T14:18:47Z</time>
      </trkpt>
      <trkpt lat="46.50383" lon="5.33487">
        <ele>250</ele>
        <time>2021-06-14T14:18:48Z</time>
      </trkpt>
      <trkpt lat="46.50379" lon="5.33493">
        <ele>250.2</ele>
        <time>2021-06-14T14:18:49Z</time>
      </trkpt>
      <trkpt lat="46.50369" lon="5.33504">
        <ele>250.6</ele>
        <time>2021-06-14T14:18:51Z</time>
      </trkpt>
      <trkpt lat="46.5036" lon="5.33515">
        <ele>251</ele>
        <time>2021-06-14T14:18:53Z</time>
      </trkpt>
      <trkpt lat="46.5035" lon="5.33525">
        <ele>251</ele>
        <time>2021-06-14T14:18:55Z</time>
      </trkpt>
      <trkpt lat="46.5034" lon="5.33536">
        <ele>251.4</ele>
        <time>2021-06-14T14:18:57Z</time>
      </trkpt>
      <trkpt lat="46.50335" lon="5.33541">
        <ele>251.6</ele>
        <time>2021-06-14T14:18:58Z</time>
      </trkpt>
      <trkpt lat="46.50331" lon="5.33546">
        <ele>251.6</ele>
        <time>2021-06-14T14:18:59Z</time>
      </trkpt>
      <trkpt lat="46.50322" lon="5.33557">
        <ele>251.8</ele>
        <time>2021-06-14T14:19:01Z</time>
      </trkpt>
      <trkpt lat="46.50312" lon="5.33565">
        <ele>252.2</ele>
        <time>2021-06-14T14:19:03Z</time>
      </trkpt>
      <trkpt lat="46.50307" lon="5.3357">
        <ele>252.2</ele>
        <time>2021-06-14T14:19:04Z</time>
      </trkpt>
      <trkpt lat="46.50303" lon="5.33575">
        <ele>252.4</ele>
        <time>2021-06-14T14:19:05Z</time>
      </trkpt>
      <trkpt lat="46.50293" lon="5.33584">
        <ele>252.4</ele>
        <time>2021-06-14T14:19:07Z</time>
      </trkpt>
      <trkpt lat="46.50284" lon="5.33595">
        <ele>252.6</ele>
        <time>2021-06-14T14:19:09Z</time>
      </trkpt>
      <trkpt lat="46.50275" lon="5.33606">
        <ele>252.6</ele>
        <time>2021-06-14T14:19:11Z</time>
      </trkpt>
      <trkpt lat="46.50265" lon="5.33616">
        <ele>252.6</ele>
        <time>2021-06-14T14:19:13Z</time>
      </trkpt>
      <trkpt lat="46.50265" lon="5.33616">
        <ele>252.8</ele>
        <time>2021-06-14T14:19:14Z</time>
      </trkpt>
      <trkpt lat="46.50256" lon="5.33627">
        <ele>252.8</ele>
        <time>2021-06-14T14:19:15Z</time>
      </trkpt>
      <trkpt lat="46.50247" lon="5.33637">
        <ele>253</ele>
        <time>2021-06-14T14:19:17Z</time>
      </trkpt>
      <trkpt lat="46.50242" lon="5.33642">
        <ele>253</ele>
        <time>2021-06-14T14:19:19Z</time>
      </trkpt>
      <trkpt lat="46.50228" lon="5.33656">
        <ele>253.2</ele>
        <time>2021-06-14T14:19:21Z</time>
      </trkpt>
      <trkpt lat="46.50219" lon="5.33666">
        <ele>253.2</ele>
        <time>2021-06-14T14:19:23Z</time>
      </trkpt>
      <trkpt lat="46.50214" lon="5.33671">
        <ele>253.4</ele>
        <time>2021-06-14T14:19:24Z</time>
      </trkpt>
      <trkpt lat="46.5021" lon="5.33677">
        <ele>253.4</ele>
        <time>2021-06-14T14:19:25Z</time>
      </trkpt>
      <trkpt lat="46.502" lon="5.33687">
        <ele>253.6</ele>
        <time>2021-06-14T14:19:27Z</time>
      </trkpt>
      <trkpt lat="46.50191" lon="5.33697">
        <ele>253.8</ele>
        <time>2021-06-14T14:19:29Z</time>
      </trkpt>
      <trkpt lat="46.50185" lon="5.33703">
        <ele>254</ele>
        <time>2021-06-14T14:19:30Z</time>
      </trkpt>
      <trkpt lat="46.5018" lon="5.33708">
        <ele>254</ele>
        <time>2021-06-14T14:19:31Z</time>
      </trkpt>
      <trkpt lat="46.5017" lon="5.3372">
        <ele>254</ele>
        <time>2021-06-14T14:19:33Z</time>
      </trkpt>
      <trkpt lat="46.50164" lon="5.33726">
        <ele>254</ele>
        <time>2021-06-14T14:19:34Z</time>
      </trkpt>
      <trkpt lat="46.50158" lon="5.33732">
        <ele>254</ele>
        <time>2021-06-14T14:19:35Z</time>
      </trkpt>
      <trkpt lat="46.50147" lon="5.33742">
        <ele>254</ele>
        <time>2021-06-14T14:19:37Z</time>
      </trkpt>
      <trkpt lat="46.50142" lon="5.33748">
        <ele>254</ele>
        <time>2021-06-14T14:19:39Z</time>
      </trkpt>
      <trkpt lat="46.5013" lon="5.3376">
        <ele>253.8</ele>
        <time>2021-06-14T14:19:40Z</time>
      </trkpt>
      <trkpt lat="46.50124" lon="5.33765">
        <ele>253.6</ele>
        <time>2021-06-14T14:19:41Z</time>
      </trkpt>
      <trkpt lat="46.50119" lon="5.33771">
        <ele>253.2</ele>
        <time>2021-06-14T14:19:43Z</time>
      </trkpt>
      <trkpt lat="46.50102" lon="5.3379">
        <ele>253</ele>
        <time>2021-06-14T14:19:45Z</time>
      </trkpt>
      <trkpt lat="46.50092" lon="5.33803">
        <ele>253</ele>
        <time>2021-06-14T14:19:47Z</time>
      </trkpt>
      <trkpt lat="46.50081" lon="5.33815">
        <ele>253</ele>
        <time>2021-06-14T14:19:49Z</time>
      </trkpt>
      <trkpt lat="46.5007" lon="5.33827">
        <ele>253</ele>
        <time>2021-06-14T14:19:51Z</time>
      </trkpt>
      <trkpt lat="46.50061" lon="5.33839">
        <ele>253</ele>
        <time>2021-06-14T14:19:53Z</time>
      </trkpt>
      <trkpt lat="46.50056" lon="5.33844">
        <ele>253</ele>
        <time>2021-06-14T14:19:54Z</time>
      </trkpt>
      <trkpt lat="46.50051" lon="5.33849">
        <ele>253</ele>
        <time>2021-06-14T14:19:55Z</time>
      </trkpt>
      <trkpt lat="46.5004" lon="5.3386">
        <ele>253.2</ele>
        <time>2021-06-14T14:19:57Z</time>
      </trkpt>
      <trkpt lat="46.50031" lon="5.33871">
        <ele>253.8</ele>
        <time>2021-06-14T14:19:59Z</time>
      </trkpt>
      <trkpt lat="46.5002" lon="5.33883">
        <ele>254.2</ele>
        <time>2021-06-14T14:20:01Z</time>
      </trkpt>
      <trkpt lat="46.5001" lon="5.33893">
        <ele>254.8</ele>
        <time>2021-06-14T14:20:03Z</time>
      </trkpt>
      <trkpt lat="46.5" lon="5.33905">
        <ele>255.2</ele>
        <time>2021-06-14T14:20:05Z</time>
      </trkpt>
      <trkpt lat="46.4999" lon="5.33917">
        <ele>255.6</ele>
        <time>2021-06-14T14:20:07Z</time>
      </trkpt>
      <trkpt lat="46.49979" lon="5.33929">
        <ele>255.8</ele>
        <time>2021-06-14T14:20:09Z</time>
      </trkpt>
      <trkpt lat="46.49968" lon="5.33941">
        <ele>255.8</ele>
        <time>2021-06-14T14:20:11Z</time>
      </trkpt>
      <trkpt lat="46.49956" lon="5.33953">
        <ele>255.8</ele>
        <time>2021-06-14T14:20:13Z</time>
      </trkpt>
      <trkpt lat="46.49944" lon="5.33965">
        <ele>255.8</ele>
        <time>2021-06-14T14:20:15Z</time>
      </trkpt>
      <trkpt lat="46.49931" lon="5.33979">
        <ele>255.8</ele>
        <time>2021-06-14T14:20:17Z</time>
      </trkpt>
      <trkpt lat="46.49925" lon="5.33986">
        <ele>255.8</ele>
        <time>2021-06-14T14:20:18Z</time>
      </trkpt>
      <trkpt lat="46.49919" lon="5.33993">
        <ele>255.8</ele>
        <time>2021-06-14T14:20:19Z</time>
      </trkpt>
      <trkpt lat="46.49905" lon="5.34007">
        <ele>255.4</ele>
        <time>2021-06-14T14:20:21Z</time>
      </trkpt>
      <trkpt lat="46.49892" lon="5.34022">
        <ele>255</ele>
        <time>2021-06-14T14:20:23Z</time>
      </trkpt>
      <trkpt lat="46.49878" lon="5.34037">
        <ele>254.8</ele>
        <time>2021-06-14T14:20:25Z</time>
      </trkpt>
      <trkpt lat="46.49866" lon="5.34053">
        <ele>254.2</ele>
        <time>2021-06-14T14:20:27Z</time>
      </trkpt>
      <trkpt lat="46.49859" lon="5.34061">
        <ele>253.8</ele>
        <time>2021-06-14T14:20:28Z</time>
      </trkpt>
      <trkpt lat="46.49853" lon="5.34068">
        <ele>253.4</ele>
        <time>2021-06-14T14:20:29Z</time>
      </trkpt>
      <trkpt lat="46.49842" lon="5.34085">
        <ele>252.6</ele>
        <time>2021-06-14T14:20:31Z</time>
      </trkpt>
      <trkpt lat="46.49832" lon="5.341">
        <ele>252.4</ele>
        <time>2021-06-14T14:20:33Z</time>
      </trkpt>
      <trkpt lat="46.49822" lon="5.34116">
        <ele>252.4</ele>
        <time>2021-06-14T14:20:35Z</time>
      </trkpt>
      <trkpt lat="46.49812" lon="5.34131">
        <ele>252.4</ele>
        <time>2021-06-14T14:20:37Z</time>
      </trkpt>
      <trkpt lat="46.49803" lon="5.34147">
        <ele>252.4</ele>
        <time>2021-06-14T14:20:39Z</time>
      </trkpt>
      <trkpt lat="46.49793" lon="5.34163">
        <ele>252.4</ele>
        <time>2021-06-14T14:20:41Z</time>
      </trkpt>
      <trkpt lat="46.49788" lon="5.34171">
        <ele>252.6</ele>
        <time>2021-06-14T14:20:42Z</time>
      </trkpt>
      <trkpt lat="46.49783" lon="5.34179">
        <ele>252.6</ele>
        <time>2021-06-14T14:20:43Z</time>
      </trkpt>
      <trkpt lat="46.49773" lon="5.34195">
        <ele>252.6</ele>
        <time>2021-06-14T14:20:45Z</time>
      </trkpt>
      <trkpt lat="46.49763" lon="5.34212">
        <ele>252.6</ele>
        <time>2021-06-14T14:20:47Z</time>
      </trkpt>
      <trkpt lat="46.49753" lon="5.34228">
        <ele>252.6</ele>
        <time>2021-06-14T14:20:49Z</time>
      </trkpt>
      <trkpt lat="46.49753" lon="5.34228">
        <ele>252.6</ele>
        <time>2021-06-14T14:20:50Z</time>
      </trkpt>
      <trkpt lat="46.49743" lon="5.34244">
        <ele>252.6</ele>
        <time>2021-06-14T14:20:51Z</time>
      </trkpt>
      <trkpt lat="46.49734" lon="5.3426">
        <ele>252.4</ele>
        <time>2021-06-14T14:20:53Z</time>
      </trkpt>
      <trkpt lat="46.49725" lon="5.34276">
        <ele>252.4</ele>
        <time>2021-06-14T14:20:55Z</time>
      </trkpt>
      <trkpt lat="46.49717" lon="5.34293">
        <ele>252.4</ele>
        <time>2021-06-14T14:20:57Z</time>
      </trkpt>
      <trkpt lat="46.49713" lon="5.34302">
        <ele>252.4</ele>
        <time>2021-06-14T14:20:58Z</time>
      </trkpt>
      <trkpt lat="46.49709" lon="5.3431">
        <ele>252.4</ele>
        <time>2021-06-14T14:20:59Z</time>
      </trkpt>
      <trkpt lat="46.49703" lon="5.34328">
        <ele>252.4</ele>
        <time>2021-06-14T14:21:01Z</time>
      </trkpt>
      <trkpt lat="46.49697" lon="5.34348">
        <ele>252.4</ele>
        <time>2021-06-14T14:21:03Z</time>
      </trkpt>
      <trkpt lat="46.49691" lon="5.34369">
        <ele>252.4</ele>
        <time>2021-06-14T14:21:05Z</time>
      </trkpt>
      <trkpt lat="46.49685" lon="5.3439">
        <ele>252.2</ele>
        <time>2021-06-14T14:21:07Z</time>
      </trkpt>
      <trkpt lat="46.4968" lon="5.34412">
        <ele>252.2</ele>
        <time>2021-06-14T14:21:09Z</time>
      </trkpt>
      <trkpt lat="46.49674" lon="5.34435">
        <ele>252.2</ele>
        <time>2021-06-14T14:21:11Z</time>
      </trkpt>
      <trkpt lat="46.49668" lon="5.34457">
        <ele>251.8</ele>
        <time>2021-06-14T14:21:13Z</time>
      </trkpt>
      <trkpt lat="46.49665" lon="5.34468">
        <ele>251.6</ele>
        <time>2021-06-14T14:21:14Z</time>
      </trkpt>
      <trkpt lat="46.49662" lon="5.34479">
        <ele>251.2</ele>
        <time>2021-06-14T14:21:15Z</time>
      </trkpt>
      <trkpt lat="46.49656" lon="5.34501">
        <ele>250.4</ele>
        <time>2021-06-14T14:21:17Z</time>
      </trkpt>
      <trkpt lat="46.49653" lon="5.34511">
        <ele>250</ele>
        <time>2021-06-14T14:21:18Z</time>
      </trkpt>
      <trkpt lat="46.49649" lon="5.34521">
        <ele>249.8</ele>
        <time>2021-06-14T14:21:19Z</time>
      </trkpt>
      <trkpt lat="46.49643" lon="5.34529">
        <ele>249.6</ele>
        <time>2021-06-14T14:21:20Z</time>
      </trkpt>
      <trkpt lat="46.49636" lon="5.34536">
        <ele>249.4</ele>
        <time>2021-06-14T14:21:21Z</time>
      </trkpt>
      <trkpt lat="46.49629" lon="5.34542">
        <ele>249</ele>
        <time>2021-06-14T14:21:22Z</time>
      </trkpt>
      <trkpt lat="46.49629" lon="5.34542">
        <ele>248.8</ele>
        <time>2021-06-14T14:21:23Z</time>
      </trkpt>
      <trkpt lat="46.49611" lon="5.34562">
        <ele>248.4</ele>
        <time>2021-06-14T14:21:25Z</time>
      </trkpt>
      <trkpt lat="46.49611" lon="5.34562">
        <ele>248.2</ele>
        <time>2021-06-14T14:21:26Z</time>
      </trkpt>
      <trkpt lat="46.49601" lon="5.34577">
        <ele>247.8</ele>
        <time>2021-06-14T14:21:27Z</time>
      </trkpt>
      <trkpt lat="46.49591" lon="5.34593">
        <ele>247.6</ele>
        <time>2021-06-14T14:21:29Z</time>
      </trkpt>
      <trkpt lat="46.49586" lon="5.346">
        <ele>247.6</ele>
        <time>2021-06-14T14:21:30Z</time>
      </trkpt>
      <trkpt lat="46.49581" lon="5.34607">
        <ele>247.4</ele>
        <time>2021-06-14T14:21:31Z</time>
      </trkpt>
      <trkpt lat="46.49571" lon="5.34621">
        <ele>247.4</ele>
        <time>2021-06-14T14:21:33Z</time>
      </trkpt>
      <trkpt lat="46.49562" lon="5.34632">
        <ele>247.4</ele>
        <time>2021-06-14T14:21:35Z</time>
      </trkpt>
      <trkpt lat="46.49553" lon="5.34643">
        <ele>247.6</ele>
        <time>2021-06-14T14:21:37Z</time>
      </trkpt>
      <trkpt lat="46.49545" lon="5.34652">
        <ele>248.2</ele>
        <time>2021-06-14T14:21:39Z</time>
      </trkpt>
      <trkpt lat="46.49541" lon="5.34657">
        <ele>248.6</ele>
        <time>2021-06-14T14:21:41Z</time>
      </trkpt>
      <trkpt lat="46.49534" lon="5.34666">
        <ele>249</ele>
        <time>2021-06-14T14:21:43Z</time>
      </trkpt>
      <trkpt lat="46.4953" lon="5.3467">
        <ele>249.2</ele>
        <time>2021-06-14T14:21:44Z</time>
      </trkpt>
      <trkpt lat="46.49523" lon="5.34678">
        <ele>249.6</ele>
        <time>2021-06-14T14:21:45Z</time>
      </trkpt>
      <trkpt lat="46.4952" lon="5.34681">
        <ele>250</ele>
        <time>2021-06-14T14:21:47Z</time>
      </trkpt>
      <trkpt lat="46.49514" lon="5.34688">
        <ele>250.4</ele>
        <time>2021-06-14T14:21:48Z</time>
      </trkpt>
      <trkpt lat="46.49514" lon="5.34688">
        <ele>250.6</ele>
        <time>2021-06-14T14:21:49Z</time>
      </trkpt>
      <trkpt lat="46.4951" lon="5.34692">
        <ele>251</ele>
        <time>2021-06-14T14:21:50Z</time>
      </trkpt>
      <trkpt lat="46.49505" lon="5.347">
        <ele>251.2</ele>
        <time>2021-06-14T14:21:51Z</time>
      </trkpt>
      <trkpt lat="46.49502" lon="5.34703">
        <ele>251.6</ele>
        <time>2021-06-14T14:21:52Z</time>
      </trkpt>
      <trkpt lat="46.49499" lon="5.34707">
        <ele>252</ele>
        <time>2021-06-14T14:21:53Z</time>
      </trkpt>
      <trkpt lat="46.49496" lon="5.3471">
        <ele>252.6</ele>
        <time>2021-06-14T14:21:55Z</time>
      </trkpt>
      <trkpt lat="46.49493" lon="5.34714">
        <ele>252.8</ele>
        <time>2021-06-14T14:21:56Z</time>
      </trkpt>
      <trkpt lat="46.4949" lon="5.34717">
        <ele>253.2</ele>
        <time>2021-06-14T14:21:57Z</time>
      </trkpt>
      <trkpt lat="46.4948" lon="5.34725">
        <ele>253.8</ele>
        <time>2021-06-14T14:21:59Z</time>
      </trkpt>
      <trkpt lat="46.49475" lon="5.34733">
        <ele>254.4</ele>
        <time>2021-06-14T14:22:01Z</time>
      </trkpt>
      <trkpt lat="46.49472" lon="5.34736">
        <ele>254.8</ele>
        <time>2021-06-14T14:22:03Z</time>
      </trkpt>
      <trkpt lat="46.49467" lon="5.34742">
        <ele>255.2</ele>
        <time>2021-06-14T14:22:05Z</time>
      </trkpt>
      <trkpt lat="46.49462" lon="5.34748">
        <ele>255.8</ele>
        <time>2021-06-14T14:22:07Z</time>
      </trkpt>
      <trkpt lat="46.49459" lon="5.3475">
        <ele>256</ele>
        <time>2021-06-14T14:22:08Z</time>
      </trkpt>
      <trkpt lat="46.49456" lon="5.34753">
        <ele>256.4</ele>
        <time>2021-06-14T14:22:09Z</time>
      </trkpt>
      <trkpt lat="46.49447" lon="5.3476">
        <ele>257</ele>
        <time>2021-06-14T14:22:11Z</time>
      </trkpt>
      <trkpt lat="46.49444" lon="5.34762">
        <ele>257.2</ele>
        <time>2021-06-14T14:22:12Z</time>
      </trkpt>
      <trkpt lat="46.49442" lon="5.34765">
        <ele>257.4</ele>
        <time>2021-06-14T14:22:13Z</time>
      </trkpt>
      <trkpt lat="46.49435" lon="5.34771">
        <ele>258</ele>
        <time>2021-06-14T14:22:15Z</time>
      </trkpt>
      <trkpt lat="46.4943" lon="5.34776">
        <ele>258.2</ele>
        <time>2021-06-14T14:22:16Z</time>
      </trkpt>
      <trkpt lat="46.49425" lon="5.34779">
        <ele>258.6</ele>
        <time>2021-06-14T14:22:17Z</time>
      </trkpt>
      <trkpt lat="46.4942" lon="5.34782">
        <ele>258.8</ele>
        <time>2021-06-14T14:22:18Z</time>
      </trkpt>
      <trkpt lat="46.4942" lon="5.34782">
        <ele>259</ele>
        <time>2021-06-14T14:22:19Z</time>
      </trkpt>
      <trkpt lat="46.4941" lon="5.34786">
        <ele>259</ele>
        <time>2021-06-14T14:22:21Z</time>
      </trkpt>
      <trkpt lat="46.49398" lon="5.34792">
        <ele>259.4</ele>
        <time>2021-06-14T14:22:23Z</time>
      </trkpt>
      <trkpt lat="46.49386" lon="5.34797">
        <ele>259.4</ele>
        <time>2021-06-14T14:22:24Z</time>
      </trkpt>
      <trkpt lat="46.49386" lon="5.34797">
        <ele>259.6</ele>
        <time>2021-06-14T14:22:25Z</time>
      </trkpt>
      <trkpt lat="46.49374" lon="5.34801">
        <ele>259.6</ele>
        <time>2021-06-14T14:22:27Z</time>
      </trkpt>
      <trkpt lat="46.49362" lon="5.34803">
        <ele>259.6</ele>
        <time>2021-06-14T14:22:29Z</time>
      </trkpt>
      <trkpt lat="46.49343" lon="5.34809">
        <ele>259.6</ele>
        <time>2021-06-14T14:22:31Z</time>
      </trkpt>
      <trkpt lat="46.49343" lon="5.34809">
        <ele>259.4</ele>
        <time>2021-06-14T14:22:32Z</time>
      </trkpt>
      <trkpt lat="46.4933" lon="5.34814">
        <ele>259.4</ele>
        <time>2021-06-14T14:22:33Z</time>
      </trkpt>
      <trkpt lat="46.49318" lon="5.34818">
        <ele>259.4</ele>
        <time>2021-06-14T14:22:35Z</time>
      </trkpt>
      <trkpt lat="46.49305" lon="5.34824">
        <ele>259.2</ele>
        <time>2021-06-14T14:22:37Z</time>
      </trkpt>
      <trkpt lat="46.49292" lon="5.34831">
        <ele>259.2</ele>
        <time>2021-06-14T14:22:39Z</time>
      </trkpt>
      <trkpt lat="46.49281" lon="5.3484">
        <ele>259.2</ele>
        <time>2021-06-14T14:22:41Z</time>
      </trkpt>
      <trkpt lat="46.49276" lon="5.34846">
        <ele>259.2</ele>
        <time>2021-06-14T14:22:42Z</time>
      </trkpt>
      <trkpt lat="46.49271" lon="5.34852">
        <ele>259.2</ele>
        <time>2021-06-14T14:22:43Z</time>
      </trkpt>
      <trkpt lat="46.49261" lon="5.34865">
        <ele>259.2</ele>
        <time>2021-06-14T14:22:45Z</time>
      </trkpt>
      <trkpt lat="46.49256" lon="5.34871">
        <ele>259.2</ele>
        <time>2021-06-14T14:22:47Z</time>
      </trkpt>
      <trkpt lat="46.49243" lon="5.34891">
        <ele>259.2</ele>
        <time>2021-06-14T14:22:49Z</time>
      </trkpt>
      <trkpt lat="46.49243" lon="5.34891">
        <ele>259.2</ele>
        <time>2021-06-14T14:22:50Z</time>
      </trkpt>
      <trkpt lat="46.49234" lon="5.34904">
        <ele>259.2</ele>
        <time>2021-06-14T14:22:51Z</time>
      </trkpt>
      <trkpt lat="46.49224" lon="5.34917">
        <ele>259.2</ele>
        <time>2021-06-14T14:22:53Z</time>
      </trkpt>
      <trkpt lat="46.49215" lon="5.3493">
        <ele>259.4</ele>
        <time>2021-06-14T14:22:55Z</time>
      </trkpt>
      <trkpt lat="46.49215" lon="5.3493">
        <ele>259.4</ele>
        <time>2021-06-14T14:22:56Z</time>
      </trkpt>
      <trkpt lat="46.49206" lon="5.34943">
        <ele>259.4</ele>
        <time>2021-06-14T14:22:57Z</time>
      </trkpt>
      <trkpt lat="46.49198" lon="5.34956">
        <ele>259.6</ele>
        <time>2021-06-14T14:22:59Z</time>
      </trkpt>
      <trkpt lat="46.49193" lon="5.34963">
        <ele>259.6</ele>
        <time>2021-06-14T14:23:00Z</time>
      </trkpt>
      <trkpt lat="46.49188" lon="5.34969">
        <ele>259.6</ele>
        <time>2021-06-14T14:23:01Z</time>
      </trkpt>
      <trkpt lat="46.49178" lon="5.3498">
        <ele>259.6</ele>
        <time>2021-06-14T14:23:03Z</time>
      </trkpt>
      <trkpt lat="46.49168" lon="5.3499">
        <ele>259.6</ele>
        <time>2021-06-14T14:23:05Z</time>
      </trkpt>
      <trkpt lat="46.49159" lon="5.34999">
        <ele>259.6</ele>
        <time>2021-06-14T14:23:07Z</time>
      </trkpt>
      <trkpt lat="46.49149" lon="5.3501">
        <ele>259.6</ele>
        <time>2021-06-14T14:23:09Z</time>
      </trkpt>
      <trkpt lat="46.49138" lon="5.3502">
        <ele>259.8</ele>
        <time>2021-06-14T14:23:11Z</time>
      </trkpt>
      <trkpt lat="46.49127" lon="5.35029">
        <ele>259.8</ele>
        <time>2021-06-14T14:23:13Z</time>
      </trkpt>
      <trkpt lat="46.49117" lon="5.35037">
        <ele>259.8</ele>
        <time>2021-06-14T14:23:15Z</time>
      </trkpt>
      <trkpt lat="46.49107" lon="5.35047">
        <ele>260</ele>
        <time>2021-06-14T14:23:17Z</time>
      </trkpt>
      <trkpt lat="46.49097" lon="5.35056">
        <ele>260</ele>
        <time>2021-06-14T14:23:19Z</time>
      </trkpt>
      <trkpt lat="46.49087" lon="5.35066">
        <ele>260.2</ele>
        <time>2021-06-14T14:23:21Z</time>
      </trkpt>
      <trkpt lat="46.49079" lon="5.35075">
        <ele>260.6</ele>
        <time>2021-06-14T14:23:23Z</time>
      </trkpt>
      <trkpt lat="46.49069" lon="5.35083">
        <ele>260.8</ele>
        <time>2021-06-14T14:23:25Z</time>
      </trkpt>
      <trkpt lat="46.49059" lon="5.35092">
        <ele>261.4</ele>
        <time>2021-06-14T14:23:27Z</time>
      </trkpt>
      <trkpt lat="46.49049" lon="5.35102">
        <ele>261.6</ele>
        <time>2021-06-14T14:23:29Z</time>
      </trkpt>
      <trkpt lat="46.49045" lon="5.35106">
        <ele>261.8</ele>
        <time>2021-06-14T14:23:30Z</time>
      </trkpt>
      <trkpt lat="46.49041" lon="5.35112">
        <ele>261.8</ele>
        <time>2021-06-14T14:23:31Z</time>
      </trkpt>
      <trkpt lat="46.49033" lon="5.35125">
        <ele>262</ele>
        <time>2021-06-14T14:23:33Z</time>
      </trkpt>
      <trkpt lat="46.49025" lon="5.3514">
        <ele>262</ele>
        <time>2021-06-14T14:23:35Z</time>
      </trkpt>
      <trkpt lat="46.49022" lon="5.35148">
        <ele>262.2</ele>
        <time>2021-06-14T14:23:36Z</time>
      </trkpt>
      <trkpt lat="46.49018" lon="5.35156">
        <ele>262.2</ele>
        <time>2021-06-14T14:23:37Z</time>
      </trkpt>
      <trkpt lat="46.4901" lon="5.35172">
        <ele>262.2</ele>
        <time>2021-06-14T14:23:39Z</time>
      </trkpt>
      <trkpt lat="46.49002" lon="5.35189">
        <ele>262.2</ele>
        <time>2021-06-14T14:23:41Z</time>
      </trkpt>
      <trkpt lat="46.48998" lon="5.35198">
        <ele>262.2</ele>
        <time>2021-06-14T14:23:42Z</time>
      </trkpt>
      <trkpt lat="46.48993" lon="5.35207">
        <ele>262</ele>
        <time>2021-06-14T14:23:43Z</time>
      </trkpt>
      <trkpt lat="46.48989" lon="5.35216">
        <ele>262</ele>
        <time>2021-06-14T14:23:44Z</time>
      </trkpt>
      <trkpt lat="46.48985" lon="5.35225">
        <ele>261.8</ele>
        <time>2021-06-14T14:23:45Z</time>
      </trkpt>
      <trkpt lat="46.48977" lon="5.35243">
        <ele>261.8</ele>
        <time>2021-06-14T14:23:47Z</time>
      </trkpt>
      <trkpt lat="46.48968" lon="5.35261">
        <ele>261.6</ele>
        <time>2021-06-14T14:23:49Z</time>
      </trkpt>
      <trkpt lat="46.4896" lon="5.35279">
        <ele>260.4</ele>
        <time>2021-06-14T14:23:51Z</time>
      </trkpt>
      <trkpt lat="46.48956" lon="5.35288">
        <ele>260.2</ele>
        <time>2021-06-14T14:23:52Z</time>
      </trkpt>
      <trkpt lat="46.48952" lon="5.35298">
        <ele>260</ele>
        <time>2021-06-14T14:23:53Z</time>
      </trkpt>
      <trkpt lat="46.48944" lon="5.35315">
        <ele>260</ele>
        <time>2021-06-14T14:23:55Z</time>
      </trkpt>
      <trkpt lat="46.48936" lon="5.35333">
        <ele>259.8</ele>
        <time>2021-06-14T14:23:57Z</time>
      </trkpt>
      <trkpt lat="46.48928" lon="5.3535">
        <ele>259.6</ele>
        <time>2021-06-14T14:23:59Z</time>
      </trkpt>
      <trkpt lat="46.4892" lon="5.35367">
        <ele>259.6</ele>
        <time>2021-06-14T14:24:01Z</time>
      </trkpt>
      <trkpt lat="46.48912" lon="5.35383">
        <ele>259.6</ele>
        <time>2021-06-14T14:24:03Z</time>
      </trkpt>
      <trkpt lat="46.48905" lon="5.35399">
        <ele>259.6</ele>
        <time>2021-06-14T14:24:05Z</time>
      </trkpt>
      <trkpt lat="46.48898" lon="5.35415">
        <ele>259.6</ele>
        <time>2021-06-14T14:24:07Z</time>
      </trkpt>
      <trkpt lat="46.48892" lon="5.35431">
        <ele>259.6</ele>
        <time>2021-06-14T14:24:09Z</time>
      </trkpt>
      <trkpt lat="46.48884" lon="5.35447">
        <ele>259.8</ele>
        <time>2021-06-14T14:24:11Z</time>
      </trkpt>
      <trkpt lat="46.48877" lon="5.35463">
        <ele>260</ele>
        <time>2021-06-14T14:24:13Z</time>
      </trkpt>
      <trkpt lat="46.4887" lon="5.35478">
        <ele>260.4</ele>
        <time>2021-06-14T14:24:15Z</time>
      </trkpt>
      <trkpt lat="46.48863" lon="5.35493">
        <ele>260.6</ele>
        <time>2021-06-14T14:24:17Z</time>
      </trkpt>
      <trkpt lat="46.4886" lon="5.35502">
        <ele>260.8</ele>
        <time>2021-06-14T14:24:18Z</time>
      </trkpt>
      <trkpt lat="46.48856" lon="5.3551">
        <ele>260.8</ele>
        <time>2021-06-14T14:24:19Z</time>
      </trkpt>
      <trkpt lat="46.48849" lon="5.35525">
        <ele>261</ele>
        <time>2021-06-14T14:24:21Z</time>
      </trkpt>
      <trkpt lat="46.48842" lon="5.35541">
        <ele>261</ele>
        <time>2021-06-14T14:24:23Z</time>
      </trkpt>
      <trkpt lat="46.48835" lon="5.35557">
        <ele>261.2</ele>
        <time>2021-06-14T14:24:25Z</time>
      </trkpt>
      <trkpt lat="46.48828" lon="5.35573">
        <ele>261.2</ele>
        <time>2021-06-14T14:24:27Z</time>
      </trkpt>
      <trkpt lat="46.48824" lon="5.35581">
        <ele>261.2</ele>
        <time>2021-06-14T14:24:28Z</time>
      </trkpt>
      <trkpt lat="46.4882" lon="5.3559">
        <ele>261.2</ele>
        <time>2021-06-14T14:24:29Z</time>
      </trkpt>
      <trkpt lat="46.48813" lon="5.35609">
        <ele>261.2</ele>
        <time>2021-06-14T14:24:31Z</time>
      </trkpt>
      <trkpt lat="46.48806" lon="5.35626">
        <ele>261.2</ele>
        <time>2021-06-14T14:24:33Z</time>
      </trkpt>
      <trkpt lat="46.48798" lon="5.35642">
        <ele>261.2</ele>
        <time>2021-06-14T14:24:35Z</time>
      </trkpt>
      <trkpt lat="46.48791" lon="5.35658">
        <ele>261.2</ele>
        <time>2021-06-14T14:24:37Z</time>
      </trkpt>
      <trkpt lat="46.48788" lon="5.35666">
        <ele>261.2</ele>
        <time>2021-06-14T14:24:38Z</time>
      </trkpt>
      <trkpt lat="46.48784" lon="5.35675">
        <ele>261.2</ele>
        <time>2021-06-14T14:24:39Z</time>
      </trkpt>
      <trkpt lat="46.48777" lon="5.35691">
        <ele>261.2</ele>
        <time>2021-06-14T14:24:41Z</time>
      </trkpt>
      <trkpt lat="46.48769" lon="5.35708">
        <ele>261</ele>
        <time>2021-06-14T14:24:43Z</time>
      </trkpt>
      <trkpt lat="46.48762" lon="5.35725">
        <ele>261</ele>
        <time>2021-06-14T14:24:45Z</time>
      </trkpt>
      <trkpt lat="46.48754" lon="5.35741">
        <ele>261</ele>
        <time>2021-06-14T14:24:47Z</time>
      </trkpt>
      <trkpt lat="46.48747" lon="5.35757">
        <ele>261</ele>
        <time>2021-06-14T14:24:49Z</time>
      </trkpt>
      <trkpt lat="46.4874" lon="5.35773">
        <ele>261</ele>
        <time>2021-06-14T14:24:51Z</time>
      </trkpt>
      <trkpt lat="46.48733" lon="5.3579">
        <ele>261.2</ele>
        <time>2021-06-14T14:24:53Z</time>
      </trkpt>
      <trkpt lat="46.48727" lon="5.35806">
        <ele>261.2</ele>
        <time>2021-06-14T14:24:55Z</time>
      </trkpt>
      <trkpt lat="46.4872" lon="5.35822">
        <ele>261.2</ele>
        <time>2021-06-14T14:24:57Z</time>
      </trkpt>
      <trkpt lat="46.48713" lon="5.35838">
        <ele>261.4</ele>
        <time>2021-06-14T14:24:59Z</time>
      </trkpt>
      <trkpt lat="46.48706" lon="5.35854">
        <ele>261.6</ele>
        <time>2021-06-14T14:25:01Z</time>
      </trkpt>
      <trkpt lat="46.487" lon="5.3587">
        <ele>261.8</ele>
        <time>2021-06-14T14:25:03Z</time>
      </trkpt>
      <trkpt lat="46.48693" lon="5.35885">
        <ele>261.8</ele>
        <time>2021-06-14T14:25:05Z</time>
      </trkpt>
      <trkpt lat="46.48688" lon="5.359">
        <ele>262</ele>
        <time>2021-06-14T14:25:07Z</time>
      </trkpt>
      <trkpt lat="46.48688" lon="5.359">
        <ele>262.2</ele>
        <time>2021-06-14T14:25:08Z</time>
      </trkpt>
      <trkpt lat="46.48685" lon="5.35915">
        <ele>262.4</ele>
        <time>2021-06-14T14:25:09Z</time>
      </trkpt>
      <trkpt lat="46.48683" lon="5.35932">
        <ele>262.8</ele>
        <time>2021-06-14T14:25:11Z</time>
      </trkpt>
      <trkpt lat="46.4868" lon="5.35949">
        <ele>263.2</ele>
        <time>2021-06-14T14:25:13Z</time>
      </trkpt>
      <trkpt lat="46.4868" lon="5.35949">
        <ele>263.8</ele>
        <time>2021-06-14T14:25:14Z</time>
      </trkpt>
      <trkpt lat="46.48678" lon="5.35966">
        <ele>263.8</ele>
        <time>2021-06-14T14:25:15Z</time>
      </trkpt>
      <trkpt lat="46.48675" lon="5.35983">
        <ele>264.2</ele>
        <time>2021-06-14T14:25:17Z</time>
      </trkpt>
      <trkpt lat="46.48672" lon="5.36">
        <ele>264.4</ele>
        <time>2021-06-14T14:25:19Z</time>
      </trkpt>
      <trkpt lat="46.48668" lon="5.36018">
        <ele>264.6</ele>
        <time>2021-06-14T14:25:21Z</time>
      </trkpt>
      <trkpt lat="46.48666" lon="5.36028">
        <ele>264.6</ele>
        <time>2021-06-14T14:25:22Z</time>
      </trkpt>
      <trkpt lat="46.48664" lon="5.36038">
        <ele>264.6</ele>
        <time>2021-06-14T14:25:23Z</time>
      </trkpt>
      <trkpt lat="46.48662" lon="5.36049">
        <ele>264.6</ele>
        <time>2021-06-14T14:25:25Z</time>
      </trkpt>
      <trkpt lat="46.48655" lon="5.36083">
        <ele>264.6</ele>
        <time>2021-06-14T14:25:27Z</time>
      </trkpt>
      <trkpt lat="46.4865" lon="5.36105">
        <ele>264.4</ele>
        <time>2021-06-14T14:25:29Z</time>
      </trkpt>
      <trkpt lat="46.48648" lon="5.36116">
        <ele>264</ele>
        <time>2021-06-14T14:25:31Z</time>
      </trkpt>
      <trkpt lat="46.48644" lon="5.36139">
        <ele>263.4</ele>
        <time>2021-06-14T14:25:33Z</time>
      </trkpt>
      <trkpt lat="46.48641" lon="5.3616">
        <ele>263.2</ele>
        <time>2021-06-14T14:25:34Z</time>
      </trkpt>
      <trkpt lat="46.48641" lon="5.36171">
        <ele>263</ele>
        <time>2021-06-14T14:25:35Z</time>
      </trkpt>
      <trkpt lat="46.4864" lon="5.36182">
        <ele>263</ele>
        <time>2021-06-14T14:25:36Z</time>
      </trkpt>
      <trkpt lat="46.48639" lon="5.36192">
        <ele>262.8</ele>
        <time>2021-06-14T14:25:37Z</time>
      </trkpt>
      <trkpt lat="46.48639" lon="5.36192">
        <ele>262.8</ele>
        <time>2021-06-14T14:25:38Z</time>
      </trkpt>
      <trkpt lat="46.48638" lon="5.36212">
        <ele>262.8</ele>
        <time>2021-06-14T14:25:39Z</time>
      </trkpt>
      <trkpt lat="46.48636" lon="5.36231">
        <ele>262.6</ele>
        <time>2021-06-14T14:25:41Z</time>
      </trkpt>
      <trkpt lat="46.48635" lon="5.36241">
        <ele>262.6</ele>
        <time>2021-06-14T14:25:43Z</time>
      </trkpt>
      <trkpt lat="46.48631" lon="5.36267">
        <ele>262.8</ele>
        <time>2021-06-14T14:25:45Z</time>
      </trkpt>
      <trkpt lat="46.48628" lon="5.36284">
        <ele>263</ele>
        <time>2021-06-14T14:25:47Z</time>
      </trkpt>
      <trkpt lat="46.48624" lon="5.36299">
        <ele>263.2</ele>
        <time>2021-06-14T14:25:49Z</time>
      </trkpt>
      <trkpt lat="46.48616" lon="5.36311">
        <ele>263.8</ele>
        <time>2021-06-14T14:25:51Z</time>
      </trkpt>
      <trkpt lat="46.48612" lon="5.36314">
        <ele>263.8</ele>
        <time>2021-06-14T14:25:52Z</time>
      </trkpt>
      <trkpt lat="46.48607" lon="5.36316">
        <ele>264.2</ele>
        <time>2021-06-14T14:25:53Z</time>
      </trkpt>
      <trkpt lat="46.48597" lon="5.36319">
        <ele>264.6</ele>
        <time>2021-06-14T14:25:55Z</time>
      </trkpt>
      <trkpt lat="46.48587" lon="5.3632">
        <ele>265</ele>
        <time>2021-06-14T14:25:57Z</time>
      </trkpt>
      <trkpt lat="46.48578" lon="5.36321">
        <ele>265.8</ele>
        <time>2021-06-14T14:25:59Z</time>
      </trkpt>
      <trkpt lat="46.48573" lon="5.36322">
        <ele>266.2</ele>
        <time>2021-06-14T14:26:00Z</time>
      </trkpt>
      <trkpt lat="46.48573" lon="5.36322">
        <ele>266.4</ele>
        <time>2021-06-14T14:26:01Z</time>
      </trkpt>
      <trkpt lat="46.48557" lon="5.36324">
        <ele>267.2</ele>
        <time>2021-06-14T14:26:03Z</time>
      </trkpt>
      <trkpt lat="46.48552" lon="5.36325">
        <ele>268</ele>
        <time>2021-06-14T14:26:05Z</time>
      </trkpt>
      <trkpt lat="46.48537" lon="5.36327">
        <ele>268.4</ele>
        <time>2021-06-14T14:26:07Z</time>
      </trkpt>
      <trkpt lat="46.48526" lon="5.36329">
        <ele>269</ele>
        <time>2021-06-14T14:26:09Z</time>
      </trkpt>
      <trkpt lat="46.48521" lon="5.36331">
        <ele>269.4</ele>
        <time>2021-06-14T14:26:11Z</time>
      </trkpt>
      <trkpt lat="46.4851" lon="5.36332">
        <ele>269.6</ele>
        <time>2021-06-14T14:26:12Z</time>
      </trkpt>
      <trkpt lat="46.4851" lon="5.36332">
        <ele>269.6</ele>
        <time>2021-06-14T14:26:13Z</time>
      </trkpt>
      <trkpt lat="46.48499" lon="5.36334">
        <ele>269.8</ele>
        <time>2021-06-14T14:26:15Z</time>
      </trkpt>
      <trkpt lat="46.48482" lon="5.36337">
        <ele>270</ele>
        <time>2021-06-14T14:26:17Z</time>
      </trkpt>
      <trkpt lat="46.48477" lon="5.36338">
        <ele>270</ele>
        <time>2021-06-14T14:26:19Z</time>
      </trkpt>
      <trkpt lat="46.48459" lon="5.3634">
        <ele>270.2</ele>
        <time>2021-06-14T14:26:21Z</time>
      </trkpt>
      <trkpt lat="46.48453" lon="5.36341">
        <ele>270.2</ele>
        <time>2021-06-14T14:26:23Z</time>
      </trkpt>
      <trkpt lat="46.48441" lon="5.36344">
        <ele>270.4</ele>
        <time>2021-06-14T14:26:25Z</time>
      </trkpt>
      <trkpt lat="46.48429" lon="5.36347">
        <ele>270.4</ele>
        <time>2021-06-14T14:26:27Z</time>
      </trkpt>
      <trkpt lat="46.4841" lon="5.36354">
        <ele>270.4</ele>
        <time>2021-06-14T14:26:29Z</time>
      </trkpt>
      <trkpt lat="46.48405" lon="5.36358">
        <ele>270.4</ele>
        <time>2021-06-14T14:26:30Z</time>
      </trkpt>
      <trkpt lat="46.48405" lon="5.36358">
        <ele>270.6</ele>
        <time>2021-06-14T14:26:31Z</time>
      </trkpt>
      <trkpt lat="46.48388" lon="5.36373">
        <ele>270.6</ele>
        <time>2021-06-14T14:26:33Z</time>
      </trkpt>
      <trkpt lat="46.48378" lon="5.36384">
        <ele>270.6</ele>
        <time>2021-06-14T14:26:35Z</time>
      </trkpt>
      <trkpt lat="46.48368" lon="5.36395">
        <ele>270.6</ele>
        <time>2021-06-14T14:26:37Z</time>
      </trkpt>
      <trkpt lat="46.48358" lon="5.36406">
        <ele>270.6</ele>
        <time>2021-06-14T14:26:39Z</time>
      </trkpt>
      <trkpt lat="46.48348" lon="5.36417">
        <ele>270.8</ele>
        <time>2021-06-14T14:26:41Z</time>
      </trkpt>
      <trkpt lat="46.48339" lon="5.36428">
        <ele>270.8</ele>
        <time>2021-06-14T14:26:43Z</time>
      </trkpt>
      <trkpt lat="46.4833" lon="5.36437">
        <ele>270.8</ele>
        <time>2021-06-14T14:26:45Z</time>
      </trkpt>
      <trkpt lat="46.48321" lon="5.36447">
        <ele>271.2</ele>
        <time>2021-06-14T14:26:47Z</time>
      </trkpt>
      <trkpt lat="46.48317" lon="5.36452">
        <ele>271.4</ele>
        <time>2021-06-14T14:26:48Z</time>
      </trkpt>
      <trkpt lat="46.48317" lon="5.36452">
        <ele>271.6</ele>
        <time>2021-06-14T14:26:49Z</time>
      </trkpt>
      <trkpt lat="46.48312" lon="5.36457">
        <ele>271.6</ele>
        <time>2021-06-14T14:26:50Z</time>
      </trkpt>
      <trkpt lat="46.48308" lon="5.36462">
        <ele>271.8</ele>
        <time>2021-06-14T14:26:51Z</time>
      </trkpt>
      <trkpt lat="46.48295" lon="5.36476">
        <ele>272.2</ele>
        <time>2021-06-14T14:26:53Z</time>
      </trkpt>
      <trkpt lat="46.48287" lon="5.36485">
        <ele>272.6</ele>
        <time>2021-06-14T14:26:55Z</time>
      </trkpt>
      <trkpt lat="46.48287" lon="5.36485">
        <ele>272.6</ele>
        <time>2021-06-14T14:26:56Z</time>
      </trkpt>
      <trkpt lat="46.48278" lon="5.36495">
        <ele>273</ele>
        <time>2021-06-14T14:26:57Z</time>
      </trkpt>
      <trkpt lat="46.48274" lon="5.36499">
        <ele>273.2</ele>
        <time>2021-06-14T14:26:58Z</time>
      </trkpt>
      <trkpt lat="46.4827" lon="5.36504">
        <ele>273.4</ele>
        <time>2021-06-14T14:26:59Z</time>
      </trkpt>
      <trkpt lat="46.48262" lon="5.36513">
        <ele>273.6</ele>
        <time>2021-06-14T14:27:01Z</time>
      </trkpt>
      <trkpt lat="46.48262" lon="5.36513">
        <ele>273.8</ele>
        <time>2021-06-14T14:27:02Z</time>
      </trkpt>
      <trkpt lat="46.48254" lon="5.36523">
        <ele>273.8</ele>
        <time>2021-06-14T14:27:03Z</time>
      </trkpt>
      <trkpt lat="46.48246" lon="5.36531">
        <ele>274</ele>
        <time>2021-06-14T14:27:05Z</time>
      </trkpt>
      <trkpt lat="46.48237" lon="5.36541">
        <ele>274.4</ele>
        <time>2021-06-14T14:27:07Z</time>
      </trkpt>
      <trkpt lat="46.48237" lon="5.36541">
        <ele>274.6</ele>
        <time>2021-06-14T14:27:08Z</time>
      </trkpt>
      <trkpt lat="46.48229" lon="5.36549">
        <ele>274.6</ele>
        <time>2021-06-14T14:27:09Z</time>
      </trkpt>
      <trkpt lat="46.48225" lon="5.36552">
        <ele>274.6</ele>
        <time>2021-06-14T14:27:10Z</time>
      </trkpt>
      <trkpt lat="46.48225" lon="5.36552">
        <ele>274.8</ele>
        <time>2021-06-14T14:27:11Z</time>
      </trkpt>
      <trkpt lat="46.48215" lon="5.36554">
        <ele>275</ele>
        <time>2021-06-14T14:27:12Z</time>
      </trkpt>
      <trkpt lat="46.4821" lon="5.36553">
        <ele>275</ele>
        <time>2021-06-14T14:27:13Z</time>
      </trkpt>
      <trkpt lat="46.48205" lon="5.36552">
        <ele>275.4</ele>
        <time>2021-06-14T14:27:15Z</time>
      </trkpt>
      <trkpt lat="46.48193" lon="5.36563">
        <ele>275.6</ele>
        <time>2021-06-14T14:27:17Z</time>
      </trkpt>
      <trkpt lat="46.4819" lon="5.3657">
        <ele>275.8</ele>
        <time>2021-06-14T14:27:18Z</time>
      </trkpt>
      <trkpt lat="46.48188" lon="5.36577">
        <ele>276</ele>
        <time>2021-06-14T14:27:19Z</time>
      </trkpt>
      <trkpt lat="46.48186" lon="5.36584">
        <ele>276.2</ele>
        <time>2021-06-14T14:27:21Z</time>
      </trkpt>
      <trkpt lat="46.4818" lon="5.36598">
        <ele>276.4</ele>
        <time>2021-06-14T14:27:22Z</time>
      </trkpt>
      <trkpt lat="46.48176" lon="5.36603">
        <ele>276.4</ele>
        <time>2021-06-14T14:27:23Z</time>
      </trkpt>
      <trkpt lat="46.48168" lon="5.36614">
        <ele>276.4</ele>
        <time>2021-06-14T14:27:25Z</time>
      </trkpt>
      <trkpt lat="46.4816" lon="5.36624">
        <ele>276.6</ele>
        <time>2021-06-14T14:27:27Z</time>
      </trkpt>
      <trkpt lat="46.48152" lon="5.36635">
        <ele>276.6</ele>
        <time>2021-06-14T14:27:29Z</time>
      </trkpt>
      <trkpt lat="46.48144" lon="5.36643">
        <ele>276.8</ele>
        <time>2021-06-14T14:27:31Z</time>
      </trkpt>
      <trkpt lat="46.48144" lon="5.36643">
        <ele>277</ele>
        <time>2021-06-14T14:27:32Z</time>
      </trkpt>
      <trkpt lat="46.4814" lon="5.36647">
        <ele>277</ele>
        <time>2021-06-14T14:27:33Z</time>
      </trkpt>
      <trkpt lat="46.48132" lon="5.36656">
        <ele>277.2</ele>
        <time>2021-06-14T14:27:34Z</time>
      </trkpt>
      <trkpt lat="46.48127" lon="5.3666">
        <ele>277.2</ele>
        <time>2021-06-14T14:27:35Z</time>
      </trkpt>
      <trkpt lat="46.4812" lon="5.36667">
        <ele>277.2</ele>
        <time>2021-06-14T14:27:37Z</time>
      </trkpt>
      <trkpt lat="46.4812" lon="5.36667">
        <ele>277.2</ele>
        <time>2021-06-14T14:27:38Z</time>
      </trkpt>
      <trkpt lat="46.48117" lon="5.36671">
        <ele>277.2</ele>
        <time>2021-06-14T14:27:39Z</time>
      </trkpt>
      <trkpt lat="46.48111" lon="5.36676">
        <ele>277.4</ele>
        <time>2021-06-14T14:27:40Z</time>
      </trkpt>
      <trkpt lat="46.48109" lon="5.36679">
        <ele>277.4</ele>
        <time>2021-06-14T14:27:41Z</time>
      </trkpt>
      <trkpt lat="46.48106" lon="5.36683">
        <ele>277.8</ele>
        <time>2021-06-14T14:27:43Z</time>
      </trkpt>
      <trkpt lat="46.48104" lon="5.36685">
        <ele>278.2</ele>
        <time>2021-06-14T14:27:45Z</time>
      </trkpt>
      <trkpt lat="46.48103" lon="5.36691">
        <ele>278.4</ele>
        <time>2021-06-14T14:27:46Z</time>
      </trkpt>
      <trkpt lat="46.48103" lon="5.36691">
        <ele>278.6</ele>
        <time>2021-06-14T14:27:47Z</time>
      </trkpt>
      <trkpt lat="46.48106" lon="5.36698">
        <ele>278.8</ele>
        <time>2021-06-14T14:27:48Z</time>
      </trkpt>
      <trkpt lat="46.48109" lon="5.36702">
        <ele>279</ele>
        <time>2021-06-14T14:27:49Z</time>
      </trkpt>
      <trkpt lat="46.48109" lon="5.36702">
        <ele>279.2</ele>
        <time>2021-06-14T14:27:50Z</time>
      </trkpt>
      <trkpt lat="46.48116" lon="5.36709">
        <ele>279.4</ele>
        <time>2021-06-14T14:27:51Z</time>
      </trkpt>
      <trkpt lat="46.48123" lon="5.36715">
        <ele>279.6</ele>
        <time>2021-06-14T14:27:53Z</time>
      </trkpt>
      <trkpt lat="46.48126" lon="5.36718">
        <ele>279.8</ele>
        <time>2021-06-14T14:27:55Z</time>
      </trkpt>
      <trkpt lat="46.48133" lon="5.36724">
        <ele>279.8</ele>
        <time>2021-06-14T14:27:57Z</time>
      </trkpt>
      <trkpt lat="46.48143" lon="5.36733">
        <ele>279.8</ele>
        <time>2021-06-14T14:27:59Z</time>
      </trkpt>
      <trkpt lat="46.48146" lon="5.36736">
        <ele>280</ele>
        <time>2021-06-14T14:28:01Z</time>
      </trkpt>
      <trkpt lat="46.4815" lon="5.36739">
        <ele>280.4</ele>
        <time>2021-06-14T14:28:02Z</time>
      </trkpt>
      <trkpt lat="46.48153" lon="5.36742">
        <ele>280.6</ele>
        <time>2021-06-14T14:28:03Z</time>
      </trkpt>
      <trkpt lat="46.4816" lon="5.36747">
        <ele>280.8</ele>
        <time>2021-06-14T14:28:05Z</time>
      </trkpt>
      <trkpt lat="46.48166" lon="5.36753">
        <ele>281.2</ele>
        <time>2021-06-14T14:28:06Z</time>
      </trkpt>
      <trkpt lat="46.48166" lon="5.36753">
        <ele>281.4</ele>
        <time>2021-06-14T14:28:07Z</time>
      </trkpt>
      <trkpt lat="46.4817" lon="5.36756">
        <ele>281.4</ele>
        <time>2021-06-14T14:28:08Z</time>
      </trkpt>
      <trkpt lat="46.48173" lon="5.36758">
        <ele>281.8</ele>
        <time>2021-06-14T14:28:09Z</time>
      </trkpt>
      <trkpt lat="46.4818" lon="5.36764">
        <ele>282.2</ele>
        <time>2021-06-14T14:28:11Z</time>
      </trkpt>
      <trkpt lat="46.48187" lon="5.36769">
        <ele>282.4</ele>
        <time>2021-06-14T14:28:13Z</time>
      </trkpt>
      <trkpt lat="46.4819" lon="5.36772">
        <ele>282.6</ele>
        <time>2021-06-14T14:28:14Z</time>
      </trkpt>
      <trkpt lat="46.48193" lon="5.36775">
        <ele>282.8</ele>
        <time>2021-06-14T14:28:15Z</time>
      </trkpt>
      <trkpt lat="46.482" lon="5.3678">
        <ele>283.2</ele>
        <time>2021-06-14T14:28:17Z</time>
      </trkpt>
      <trkpt lat="46.48206" lon="5.36786">
        <ele>283.6</ele>
        <time>2021-06-14T14:28:19Z</time>
      </trkpt>
      <trkpt lat="46.48209" lon="5.36789">
        <ele>283.6</ele>
        <time>2021-06-14T14:28:20Z</time>
      </trkpt>
      <trkpt lat="46.48213" lon="5.36791">
        <ele>283.8</ele>
        <time>2021-06-14T14:28:21Z</time>
      </trkpt>
      <trkpt lat="46.48219" lon="5.36796">
        <ele>284.2</ele>
        <time>2021-06-14T14:28:23Z</time>
      </trkpt>
      <trkpt lat="46.48226" lon="5.36801">
        <ele>284.4</ele>
        <time>2021-06-14T14:28:24Z</time>
      </trkpt>
      <trkpt lat="46.48226" lon="5.36801">
        <ele>284.6</ele>
        <time>2021-06-14T14:28:25Z</time>
      </trkpt>
      <trkpt lat="46.48229" lon="5.36804">
        <ele>284.8</ele>
        <time>2021-06-14T14:28:26Z</time>
      </trkpt>
      <trkpt lat="46.48232" lon="5.36807">
        <ele>284.8</ele>
        <time>2021-06-14T14:28:27Z</time>
      </trkpt>
      <trkpt lat="46.48238" lon="5.36812">
        <ele>285.2</ele>
        <time>2021-06-14T14:28:29Z</time>
      </trkpt>
      <trkpt lat="46.48244" lon="5.36817">
        <ele>285.8</ele>
        <time>2021-06-14T14:28:30Z</time>
      </trkpt>
      <trkpt lat="46.48244" lon="5.36817">
        <ele>286.2</ele>
        <time>2021-06-14T14:28:31Z</time>
      </trkpt>
      <trkpt lat="46.48251" lon="5.36822">
        <ele>286.8</ele>
        <time>2021-06-14T14:28:33Z</time>
      </trkpt>
      <trkpt lat="46.48257" lon="5.36828">
        <ele>287</ele>
        <time>2021-06-14T14:28:34Z</time>
      </trkpt>
      <trkpt lat="46.48257" lon="5.36828">
        <ele>287</ele>
        <time>2021-06-14T14:28:35Z</time>
      </trkpt>
      <trkpt lat="46.48262" lon="5.36835">
        <ele>287.2</ele>
        <time>2021-06-14T14:28:37Z</time>
      </trkpt>
    </trkseg>
  </trk>
</gpx>